<?xml version="1.0" encoding="UTF-8"?>
<gpx version="1.1" creator="https://www.youtrack.es" xsi:schemaLocation="http://www.topografix.com/GPX/1/1 http://www.topografix.com/GPX/1/1/gpx.xsd http://www.garmin.com/xmlschemas/GpxExtensions/v3 http://www.garmin.com/xmlschemas/GpxExtensionsv3.xsd http://www.garmin.com/xmlschemas/TrackPointExtension/v1 http://www.garmin.com/xmlschemas/TrackPointExtensionv1.xsd" xmlns:gpxtpx="http://www.garmin.com/xmlschemas/TrackPointExtension/v1" xmlns:gpxx="http://www.garmin.com/xmlschemas/GpxExtensions/v3" xmlns:xsi="http://www.w3.org/2001/XMLSchema-instance">
  <metadata>
    <author>
      <name>Rui Gago</name>
      <email id="mapuche9771" domain="gmail.com"/>
    </author>
    <link href="https://www.youtrack.es">
      <text>YouTrack.es</text>
    </link>
    <time>2026-05-08T06:25:00Z</time>
  </metadata>
  <trk>
    <src>https://www.youtrack.es</src>
    <link href="https://www.youtrack.es/ruta/35992-costa-vicentina">
      <text>YouTrack.es</text>
    </link>
    <trkseg>
      <trkpt lat="37.851924" lon="-8.790948">
        <ele>44.818</ele>
        <time>2015-05-01T09:30:26Z</time>
      </trkpt>
      <trkpt lat="37.851929" lon="-8.790955">
        <ele>43.998</ele>
        <time>2015-05-01T09:30:59Z</time>
      </trkpt>
      <trkpt lat="37.851924" lon="-8.790996">
        <ele>40.517</ele>
        <time>2015-05-01T09:31:28Z</time>
      </trkpt>
      <trkpt lat="37.851891" lon="-8.791043">
        <ele>37.207</ele>
        <time>2015-05-01T09:31:48Z</time>
      </trkpt>
      <trkpt lat="37.851859" lon="-8.791140">
        <ele>35.270</ele>
        <time>2015-05-01T09:32:04Z</time>
      </trkpt>
      <trkpt lat="37.851810" lon="-8.791250">
        <ele>35.297</ele>
        <time>2015-05-01T09:32:15Z</time>
      </trkpt>
      <trkpt lat="37.851735" lon="-8.791440">
        <ele>36.735</ele>
        <time>2015-05-01T09:32:29Z</time>
      </trkpt>
      <trkpt lat="37.851690" lon="-8.791526">
        <ele>35.711</ele>
        <time>2015-05-01T09:32:43Z</time>
      </trkpt>
      <trkpt lat="37.851663" lon="-8.791584">
        <ele>35.290</ele>
        <time>2015-05-01T09:32:49Z</time>
      </trkpt>
      <trkpt lat="37.851593" lon="-8.791704">
        <ele>32.366</ele>
        <time>2015-05-01T09:33:03Z</time>
      </trkpt>
      <trkpt lat="37.851487" lon="-8.791978">
        <ele>29.033</ele>
        <time>2015-05-01T09:33:21Z</time>
      </trkpt>
      <trkpt lat="37.851471" lon="-8.792036">
        <ele>28.059</ele>
        <time>2015-05-01T09:33:33Z</time>
      </trkpt>
      <trkpt lat="37.851363" lon="-8.792221">
        <ele>28.003</ele>
        <time>2015-05-01T09:33:50Z</time>
      </trkpt>
      <trkpt lat="37.851258" lon="-8.792442">
        <ele>24.223</ele>
        <time>2015-05-01T09:34:07Z</time>
      </trkpt>
      <trkpt lat="37.851238" lon="-8.792503">
        <ele>23.707</ele>
        <time>2015-05-01T09:34:11Z</time>
      </trkpt>
      <trkpt lat="37.851181" lon="-8.792630">
        <ele>21.824</ele>
        <time>2015-05-01T09:34:20Z</time>
      </trkpt>
      <trkpt lat="37.851112" lon="-8.792763">
        <ele>20.841</ele>
        <time>2015-05-01T09:34:29Z</time>
      </trkpt>
      <trkpt lat="37.851075" lon="-8.792817">
        <ele>21.819</ele>
        <time>2015-05-01T09:34:33Z</time>
      </trkpt>
      <trkpt lat="37.850929" lon="-8.793114">
        <ele>21.355</ele>
        <time>2015-05-01T09:34:54Z</time>
      </trkpt>
      <trkpt lat="37.850834" lon="-8.793274">
        <ele>22.784</ele>
        <time>2015-05-01T09:35:08Z</time>
      </trkpt>
      <trkpt lat="37.850775" lon="-8.793245">
        <ele>23.260</ele>
        <time>2015-05-01T09:35:15Z</time>
      </trkpt>
      <trkpt lat="37.850648" lon="-8.793142">
        <ele>21.367</ele>
        <time>2015-05-01T09:35:30Z</time>
      </trkpt>
      <trkpt lat="37.850527" lon="-8.792991">
        <ele>22.314</ele>
        <time>2015-05-01T09:35:47Z</time>
      </trkpt>
      <trkpt lat="37.850403" lon="-8.792869">
        <ele>20.854</ele>
        <time>2015-05-01T09:36:02Z</time>
      </trkpt>
      <trkpt lat="37.850370" lon="-8.792832">
        <ele>20.809</ele>
        <time>2015-05-01T09:36:16Z</time>
      </trkpt>
      <trkpt lat="37.850302" lon="-8.792776">
        <ele>22.307</ele>
        <time>2015-05-01T09:36:32Z</time>
      </trkpt>
      <trkpt lat="37.850299" lon="-8.792775">
        <ele>22.780</ele>
        <time>2015-05-01T09:36:40Z</time>
      </trkpt>
      <trkpt lat="37.850179" lon="-8.792681">
        <ele>23.257</ele>
        <time>2015-05-01T09:36:55Z</time>
      </trkpt>
      <trkpt lat="37.850143" lon="-8.792650">
        <ele>22.735</ele>
        <time>2015-05-01T09:37:23Z</time>
      </trkpt>
      <trkpt lat="37.849979" lon="-8.792494">
        <ele>20.841</ele>
        <time>2015-05-01T09:37:40Z</time>
      </trkpt>
      <trkpt lat="37.849932" lon="-8.792486">
        <ele>19.460</ele>
        <time>2015-05-01T09:37:56Z</time>
      </trkpt>
      <trkpt lat="37.849936" lon="-8.792445">
        <ele>17.936</ele>
        <time>2015-05-01T09:38:10Z</time>
      </trkpt>
      <trkpt lat="37.850047" lon="-8.792206">
        <ele>13.163</ele>
        <time>2015-05-01T09:38:26Z</time>
      </trkpt>
      <trkpt lat="37.850029" lon="-8.791980">
        <ele>6.972</ele>
        <time>2015-05-01T09:38:41Z</time>
      </trkpt>
      <trkpt lat="37.849843" lon="-8.791872">
        <ele>4.513</ele>
        <time>2015-05-01T09:38:58Z</time>
      </trkpt>
      <trkpt lat="37.849837" lon="-8.791875">
        <ele>3.014</ele>
        <time>2015-05-01T09:39:14Z</time>
      </trkpt>
      <trkpt lat="37.849848" lon="-8.791831">
        <ele>1.107</ele>
        <time>2015-05-01T09:39:26Z</time>
      </trkpt>
      <trkpt lat="37.849849" lon="-8.791804">
        <ele>4.076</ele>
        <time>2015-05-01T09:39:38Z</time>
      </trkpt>
      <trkpt lat="37.849943" lon="-8.791564">
        <ele>5.423</ele>
        <time>2015-05-01T09:39:57Z</time>
      </trkpt>
      <trkpt lat="37.849907" lon="-8.791312">
        <ele>2.551</ele>
        <time>2015-05-01T09:40:13Z</time>
      </trkpt>
      <trkpt lat="37.849871" lon="-8.791257">
        <ele>1.667</ele>
        <time>2015-05-01T09:40:20Z</time>
      </trkpt>
      <trkpt lat="37.849829" lon="-8.791289">
        <ele>2.176</ele>
        <time>2015-05-01T09:40:25Z</time>
      </trkpt>
      <trkpt lat="37.849731" lon="-8.791314">
        <ele>2.142</ele>
        <time>2015-05-01T09:40:40Z</time>
      </trkpt>
      <trkpt lat="37.849626" lon="-8.791345">
        <ele>3.069</ele>
        <time>2015-05-01T09:40:54Z</time>
      </trkpt>
      <trkpt lat="37.849464" lon="-8.791456">
        <ele>4.551</ele>
        <time>2015-05-01T09:41:09Z</time>
      </trkpt>
      <trkpt lat="37.849412" lon="-8.791494">
        <ele>4.501</ele>
        <time>2015-05-01T09:41:14Z</time>
      </trkpt>
      <trkpt lat="37.849271" lon="-8.791658">
        <ele>6.911</ele>
        <time>2015-05-01T09:41:31Z</time>
      </trkpt>
      <trkpt lat="37.849205" lon="-8.791763">
        <ele>7.807</ele>
        <time>2015-05-01T09:41:42Z</time>
      </trkpt>
      <trkpt lat="37.849197" lon="-8.791788">
        <ele>8.384</ele>
        <time>2015-05-01T09:41:44Z</time>
      </trkpt>
      <trkpt lat="37.849119" lon="-8.791923">
        <ele>12.281</ele>
        <time>2015-05-01T09:41:58Z</time>
      </trkpt>
      <trkpt lat="37.849077" lon="-8.791995">
        <ele>14.159</ele>
        <time>2015-05-01T09:42:05Z</time>
      </trkpt>
      <trkpt lat="37.848952" lon="-8.792103">
        <ele>16.575</ele>
        <time>2015-05-01T09:42:19Z</time>
      </trkpt>
      <trkpt lat="37.848787" lon="-8.792152">
        <ele>17.994</ele>
        <time>2015-05-01T09:42:34Z</time>
      </trkpt>
      <trkpt lat="37.848619" lon="-8.792226">
        <ele>20.870</ele>
        <time>2015-05-01T09:42:50Z</time>
      </trkpt>
      <trkpt lat="37.848598" lon="-8.792243">
        <ele>22.717</ele>
        <time>2015-05-01T09:43:07Z</time>
      </trkpt>
      <trkpt lat="37.848553" lon="-8.792266">
        <ele>22.313</ele>
        <time>2015-05-01T09:43:24Z</time>
      </trkpt>
      <trkpt lat="37.848325" lon="-8.792398">
        <ele>24.243</ele>
        <time>2015-05-01T09:43:44Z</time>
      </trkpt>
      <trkpt lat="37.848216" lon="-8.792458">
        <ele>25.607</ele>
        <time>2015-05-01T09:43:54Z</time>
      </trkpt>
      <trkpt lat="37.848130" lon="-8.792538">
        <ele>26.107</ele>
        <time>2015-05-01T09:44:09Z</time>
      </trkpt>
      <trkpt lat="37.848095" lon="-8.792576">
        <ele>26.620</ele>
        <time>2015-05-01T09:44:13Z</time>
      </trkpt>
      <trkpt lat="37.848069" lon="-8.792614">
        <ele>27.197</ele>
        <time>2015-05-01T09:44:17Z</time>
      </trkpt>
      <trkpt lat="37.848043" lon="-8.792636">
        <ele>26.635</ele>
        <time>2015-05-01T09:44:20Z</time>
      </trkpt>
      <trkpt lat="37.847980" lon="-8.792728">
        <ele>26.651</ele>
        <time>2015-05-01T09:44:35Z</time>
      </trkpt>
      <trkpt lat="37.847948" lon="-8.792764">
        <ele>27.130</ele>
        <time>2015-05-01T09:44:48Z</time>
      </trkpt>
      <trkpt lat="37.847838" lon="-8.792908">
        <ele>27.186</ele>
        <time>2015-05-01T09:45:07Z</time>
      </trkpt>
      <trkpt lat="37.847686" lon="-8.793161">
        <ele>26.173</ele>
        <time>2015-05-01T09:45:26Z</time>
      </trkpt>
      <trkpt lat="37.847531" lon="-8.793411">
        <ele>24.294</ele>
        <time>2015-05-01T09:45:45Z</time>
      </trkpt>
      <trkpt lat="37.847379" lon="-8.793603">
        <ele>24.257</ele>
        <time>2015-05-01T09:46:00Z</time>
      </trkpt>
      <trkpt lat="37.847306" lon="-8.793699">
        <ele>23.222</ele>
        <time>2015-05-01T09:46:19Z</time>
      </trkpt>
      <trkpt lat="37.847259" lon="-8.793751">
        <ele>23.207</ele>
        <time>2015-05-01T09:46:32Z</time>
      </trkpt>
      <trkpt lat="37.847034" lon="-8.793827">
        <ele>22.748</ele>
        <time>2015-05-01T09:46:51Z</time>
      </trkpt>
      <trkpt lat="37.846831" lon="-8.793938">
        <ele>20.395</ele>
        <time>2015-05-01T09:47:08Z</time>
      </trkpt>
      <trkpt lat="37.846694" lon="-8.794050">
        <ele>18.943</ele>
        <time>2015-05-01T09:47:22Z</time>
      </trkpt>
      <trkpt lat="37.846684" lon="-8.794059">
        <ele>19.469</ele>
        <time>2015-05-01T09:47:23Z</time>
      </trkpt>
      <trkpt lat="37.846618" lon="-8.794070">
        <ele>18.918</ele>
        <time>2015-05-01T09:47:40Z</time>
      </trkpt>
      <trkpt lat="37.846600" lon="-8.794068">
        <ele>20.324</ele>
        <time>2015-05-01T09:48:01Z</time>
      </trkpt>
      <trkpt lat="37.846593" lon="-8.794055">
        <ele>20.871</ele>
        <time>2015-05-01T09:48:37Z</time>
      </trkpt>
      <trkpt lat="37.846630" lon="-8.794059">
        <ele>20.862</ele>
        <time>2015-05-01T09:48:43Z</time>
      </trkpt>
      <trkpt lat="37.846679" lon="-8.794036">
        <ele>20.883</ele>
        <time>2015-05-01T09:48:49Z</time>
      </trkpt>
      <trkpt lat="37.846877" lon="-8.793859">
        <ele>22.711</ele>
        <time>2015-05-01T09:49:11Z</time>
      </trkpt>
      <trkpt lat="37.846865" lon="-8.793852">
        <ele>22.307</ele>
        <time>2015-05-01T09:49:15Z</time>
      </trkpt>
      <trkpt lat="37.846839" lon="-8.793877">
        <ele>22.795</ele>
        <time>2015-05-01T09:49:18Z</time>
      </trkpt>
      <trkpt lat="37.846804" lon="-8.793846">
        <ele>22.752</ele>
        <time>2015-05-01T09:49:22Z</time>
      </trkpt>
      <trkpt lat="37.846803" lon="-8.793562">
        <ele>23.260</ele>
        <time>2015-05-01T09:49:41Z</time>
      </trkpt>
      <trkpt lat="37.846830" lon="-8.793289">
        <ele>23.786</ele>
        <time>2015-05-01T09:49:58Z</time>
      </trkpt>
      <trkpt lat="37.846823" lon="-8.793021">
        <ele>23.725</ele>
        <time>2015-05-01T09:50:17Z</time>
      </trkpt>
      <trkpt lat="37.846800" lon="-8.792894">
        <ele>24.761</ele>
        <time>2015-05-01T09:50:26Z</time>
      </trkpt>
      <trkpt lat="37.846690" lon="-8.792714">
        <ele>25.118</ele>
        <time>2015-05-01T09:50:41Z</time>
      </trkpt>
      <trkpt lat="37.846592" lon="-8.792575">
        <ele>24.284</ele>
        <time>2015-05-01T09:50:56Z</time>
      </trkpt>
      <trkpt lat="37.846544" lon="-8.792544">
        <ele>22.307</ele>
        <time>2015-05-01T09:51:01Z</time>
      </trkpt>
      <trkpt lat="37.846472" lon="-8.792470">
        <ele>20.817</ele>
        <time>2015-05-01T09:51:09Z</time>
      </trkpt>
      <trkpt lat="37.846380" lon="-8.792510">
        <ele>18.907</ele>
        <time>2015-05-01T09:51:18Z</time>
      </trkpt>
      <trkpt lat="37.846332" lon="-8.792542">
        <ele>17.917</ele>
        <time>2015-05-01T09:51:23Z</time>
      </trkpt>
      <trkpt lat="37.846288" lon="-8.792554">
        <ele>17.424</ele>
        <time>2015-05-01T09:51:27Z</time>
      </trkpt>
      <trkpt lat="37.846156" lon="-8.792606">
        <ele>17.452</ele>
        <time>2015-05-01T09:51:40Z</time>
      </trkpt>
      <trkpt lat="37.846123" lon="-8.792601">
        <ele>18.928</ele>
        <time>2015-05-01T09:51:45Z</time>
      </trkpt>
      <trkpt lat="37.846088" lon="-8.792623">
        <ele>19.437</ele>
        <time>2015-05-01T09:52:03Z</time>
      </trkpt>
      <trkpt lat="37.846014" lon="-8.792671">
        <ele>19.843</ele>
        <time>2015-05-01T09:52:20Z</time>
      </trkpt>
      <trkpt lat="37.845970" lon="-8.792691">
        <ele>19.820</ele>
        <time>2015-05-01T09:52:31Z</time>
      </trkpt>
      <trkpt lat="37.845959" lon="-8.792699">
        <ele>19.891</ele>
        <time>2015-05-01T09:52:33Z</time>
      </trkpt>
      <trkpt lat="37.845905" lon="-8.792717">
        <ele>18.981</ele>
        <time>2015-05-01T09:52:38Z</time>
      </trkpt>
      <trkpt lat="37.845822" lon="-8.792861">
        <ele>17.419</ele>
        <time>2015-05-01T09:52:52Z</time>
      </trkpt>
      <trkpt lat="37.845619" lon="-8.792991">
        <ele>17.907</ele>
        <time>2015-05-01T09:53:12Z</time>
      </trkpt>
      <trkpt lat="37.845593" lon="-8.792993">
        <ele>17.918</ele>
        <time>2015-05-01T09:53:26Z</time>
      </trkpt>
      <trkpt lat="37.845581" lon="-8.792975">
        <ele>17.915</ele>
        <time>2015-05-01T09:53:58Z</time>
      </trkpt>
      <trkpt lat="37.845576" lon="-8.792970">
        <ele>18.423</ele>
        <time>2015-05-01T09:54:34Z</time>
      </trkpt>
      <trkpt lat="37.845580" lon="-8.792976">
        <ele>18.969</ele>
        <time>2015-05-01T09:54:49Z</time>
      </trkpt>
      <trkpt lat="37.845562" lon="-8.792993">
        <ele>19.858</ele>
        <time>2015-05-01T09:55:06Z</time>
      </trkpt>
      <trkpt lat="37.845552" lon="-8.792986">
        <ele>20.314</ele>
        <time>2015-05-01T09:55:08Z</time>
      </trkpt>
      <trkpt lat="37.845491" lon="-8.792945">
        <ele>21.321</ele>
        <time>2015-05-01T09:55:15Z</time>
      </trkpt>
      <trkpt lat="37.845394" lon="-8.792885">
        <ele>21.846</ele>
        <time>2015-05-01T09:55:24Z</time>
      </trkpt>
      <trkpt lat="37.845324" lon="-8.792868">
        <ele>22.388</ele>
        <time>2015-05-01T09:55:31Z</time>
      </trkpt>
      <trkpt lat="37.845151" lon="-8.792843">
        <ele>19.816</ele>
        <time>2015-05-01T09:55:45Z</time>
      </trkpt>
      <trkpt lat="37.845101" lon="-8.792777">
        <ele>18.907</ele>
        <time>2015-05-01T09:55:52Z</time>
      </trkpt>
      <trkpt lat="37.845037" lon="-8.792793">
        <ele>17.473</ele>
        <time>2015-05-01T09:55:59Z</time>
      </trkpt>
      <trkpt lat="37.844984" lon="-8.792754">
        <ele>16.020</ele>
        <time>2015-05-01T09:56:04Z</time>
      </trkpt>
      <trkpt lat="37.844937" lon="-8.792647">
        <ele>15.028</ele>
        <time>2015-05-01T09:56:12Z</time>
      </trkpt>
      <trkpt lat="37.844838" lon="-8.792648">
        <ele>16.054</ele>
        <time>2015-05-01T09:56:21Z</time>
      </trkpt>
      <trkpt lat="37.844774" lon="-8.792692">
        <ele>17.453</ele>
        <time>2015-05-01T09:56:27Z</time>
      </trkpt>
      <trkpt lat="37.844548" lon="-8.792758">
        <ele>17.939</ele>
        <time>2015-05-01T09:56:45Z</time>
      </trkpt>
      <trkpt lat="37.844351" lon="-8.792663">
        <ele>16.596</ele>
        <time>2015-05-01T09:57:01Z</time>
      </trkpt>
      <trkpt lat="37.844289" lon="-8.792649">
        <ele>16.055</ele>
        <time>2015-05-01T09:57:06Z</time>
      </trkpt>
      <trkpt lat="37.844232" lon="-8.792652">
        <ele>15.507</ele>
        <time>2015-05-01T09:57:11Z</time>
      </trkpt>
      <trkpt lat="37.844207" lon="-8.792666">
        <ele>15.517</ele>
        <time>2015-05-01T09:57:13Z</time>
      </trkpt>
      <trkpt lat="37.844144" lon="-8.792670">
        <ele>15.507</ele>
        <time>2015-05-01T09:57:18Z</time>
      </trkpt>
      <trkpt lat="37.844100" lon="-8.792670">
        <ele>16.064</ele>
        <time>2015-05-01T09:57:22Z</time>
      </trkpt>
      <trkpt lat="37.844019" lon="-8.792715">
        <ele>16.561</ele>
        <time>2015-05-01T09:57:29Z</time>
      </trkpt>
      <trkpt lat="37.843844" lon="-8.792687">
        <ele>17.969</ele>
        <time>2015-05-01T09:57:44Z</time>
      </trkpt>
      <trkpt lat="37.843737" lon="-8.792652">
        <ele>17.915</ele>
        <time>2015-05-01T09:57:55Z</time>
      </trkpt>
      <trkpt lat="37.843640" lon="-8.792550">
        <ele>17.434</ele>
        <time>2015-05-01T09:58:05Z</time>
      </trkpt>
      <trkpt lat="37.843581" lon="-8.792526">
        <ele>17.950</ele>
        <time>2015-05-01T09:58:10Z</time>
      </trkpt>
      <trkpt lat="37.843462" lon="-8.792557">
        <ele>18.457</ele>
        <time>2015-05-01T09:58:20Z</time>
      </trkpt>
      <trkpt lat="37.843285" lon="-8.792669">
        <ele>17.978</ele>
        <time>2015-05-01T09:58:37Z</time>
      </trkpt>
      <trkpt lat="37.843078" lon="-8.792768">
        <ele>15.533</ele>
        <time>2015-05-01T09:58:55Z</time>
      </trkpt>
      <trkpt lat="37.842905" lon="-8.792806">
        <ele>15.526</ele>
        <time>2015-05-01T09:59:10Z</time>
      </trkpt>
      <trkpt lat="37.842818" lon="-8.792841">
        <ele>16.007</ele>
        <time>2015-05-01T09:59:18Z</time>
      </trkpt>
      <trkpt lat="37.842591" lon="-8.792813">
        <ele>16.076</ele>
        <time>2015-05-01T09:59:38Z</time>
      </trkpt>
      <trkpt lat="37.842376" lon="-8.792775">
        <ele>15.523</ele>
        <time>2015-05-01T09:59:56Z</time>
      </trkpt>
      <trkpt lat="37.842155" lon="-8.792734">
        <ele>15.511</ele>
        <time>2015-05-01T10:00:14Z</time>
      </trkpt>
      <trkpt lat="37.842119" lon="-8.792723">
        <ele>15.527</ele>
        <time>2015-05-01T10:00:17Z</time>
      </trkpt>
      <trkpt lat="37.841950" lon="-8.792641">
        <ele>13.616</ele>
        <time>2015-05-01T10:00:33Z</time>
      </trkpt>
      <trkpt lat="37.841899" lon="-8.792597">
        <ele>12.662</ele>
        <time>2015-05-01T10:00:49Z</time>
      </trkpt>
      <trkpt lat="37.841862" lon="-8.792553">
        <ele>13.619</ele>
        <time>2015-05-01T10:01:07Z</time>
      </trkpt>
      <trkpt lat="37.841852" lon="-8.792521">
        <ele>13.635</ele>
        <time>2015-05-01T10:01:10Z</time>
      </trkpt>
      <trkpt lat="37.841835" lon="-8.792462">
        <ele>13.686</ele>
        <time>2015-05-01T10:01:15Z</time>
      </trkpt>
      <trkpt lat="37.841742" lon="-8.792315">
        <ele>11.714</ele>
        <time>2015-05-01T10:01:30Z</time>
      </trkpt>
      <trkpt lat="37.841671" lon="-8.792137">
        <ele>10.207</ele>
        <time>2015-05-01T10:01:45Z</time>
      </trkpt>
      <trkpt lat="37.841655" lon="-8.792134">
        <ele>8.352</ele>
        <time>2015-05-01T10:01:49Z</time>
      </trkpt>
      <trkpt lat="37.841643" lon="-8.792120">
        <ele>7.469</ele>
        <time>2015-05-01T10:01:51Z</time>
      </trkpt>
      <trkpt lat="37.841630" lon="-8.792089">
        <ele>6.447</ele>
        <time>2015-05-01T10:01:54Z</time>
      </trkpt>
      <trkpt lat="37.841546" lon="-8.791989">
        <ele>3.033</ele>
        <time>2015-05-01T10:02:05Z</time>
      </trkpt>
      <trkpt lat="37.841475" lon="-8.791928">
        <ele>3.582</ele>
        <time>2015-05-01T10:02:16Z</time>
      </trkpt>
      <trkpt lat="37.841459" lon="-8.791860">
        <ele>6.948</ele>
        <time>2015-05-01T10:02:27Z</time>
      </trkpt>
      <trkpt lat="37.841407" lon="-8.791887">
        <ele>9.345</ele>
        <time>2015-05-01T10:02:37Z</time>
      </trkpt>
      <trkpt lat="37.841350" lon="-8.791932">
        <ele>10.732</ele>
        <time>2015-05-01T10:02:45Z</time>
      </trkpt>
      <trkpt lat="37.841284" lon="-8.791995">
        <ele>12.692</ele>
        <time>2015-05-01T10:02:55Z</time>
      </trkpt>
      <trkpt lat="37.841244" lon="-8.792014">
        <ele>14.111</ele>
        <time>2015-05-01T10:02:59Z</time>
      </trkpt>
      <trkpt lat="37.841063" lon="-8.792062">
        <ele>15.007</ele>
        <time>2015-05-01T10:03:16Z</time>
      </trkpt>
      <trkpt lat="37.841008" lon="-8.792044">
        <ele>15.092</ele>
        <time>2015-05-01T10:03:22Z</time>
      </trkpt>
      <trkpt lat="37.840898" lon="-8.791867">
        <ele>14.619</ele>
        <time>2015-05-01T10:03:38Z</time>
      </trkpt>
      <trkpt lat="37.840823" lon="-8.791693">
        <ele>14.667</ele>
        <time>2015-05-01T10:03:51Z</time>
      </trkpt>
      <trkpt lat="37.840789" lon="-8.791598">
        <ele>15.063</ele>
        <time>2015-05-01T10:03:59Z</time>
      </trkpt>
      <trkpt lat="37.840748" lon="-8.791479">
        <ele>15.042</ele>
        <time>2015-05-01T10:04:08Z</time>
      </trkpt>
      <trkpt lat="37.840629" lon="-8.791295">
        <ele>14.658</ele>
        <time>2015-05-01T10:04:25Z</time>
      </trkpt>
      <trkpt lat="37.840455" lon="-8.791236">
        <ele>14.675</ele>
        <time>2015-05-01T10:04:41Z</time>
      </trkpt>
      <trkpt lat="37.840372" lon="-8.791156">
        <ele>16.537</ele>
        <time>2015-05-01T10:04:52Z</time>
      </trkpt>
      <trkpt lat="37.840357" lon="-8.791138">
        <ele>16.549</ele>
        <time>2015-05-01T10:04:54Z</time>
      </trkpt>
      <trkpt lat="37.840275" lon="-8.791071">
        <ele>17.913</ele>
        <time>2015-05-01T10:05:07Z</time>
      </trkpt>
      <trkpt lat="37.840125" lon="-8.791075">
        <ele>18.407</ele>
        <time>2015-05-01T10:05:23Z</time>
      </trkpt>
      <trkpt lat="37.839988" lon="-8.790980">
        <ele>18.452</ele>
        <time>2015-05-01T10:05:38Z</time>
      </trkpt>
      <trkpt lat="37.839850" lon="-8.790874">
        <ele>18.419</ele>
        <time>2015-05-01T10:05:55Z</time>
      </trkpt>
      <trkpt lat="37.839715" lon="-8.790769">
        <ele>18.487</ele>
        <time>2015-05-01T10:06:11Z</time>
      </trkpt>
      <trkpt lat="37.839690" lon="-8.790744">
        <ele>18.463</ele>
        <time>2015-05-01T10:06:14Z</time>
      </trkpt>
      <trkpt lat="37.839545" lon="-8.790617">
        <ele>18.452</ele>
        <time>2015-05-01T10:06:32Z</time>
      </trkpt>
      <trkpt lat="37.839465" lon="-8.790560">
        <ele>19.448</ele>
        <time>2015-05-01T10:06:42Z</time>
      </trkpt>
      <trkpt lat="37.839376" lon="-8.790575">
        <ele>18.975</ele>
        <time>2015-05-01T10:06:50Z</time>
      </trkpt>
      <trkpt lat="37.839193" lon="-8.790556">
        <ele>17.091</ele>
        <time>2015-05-01T10:07:07Z</time>
      </trkpt>
      <trkpt lat="37.839029" lon="-8.790488">
        <ele>16.081</ele>
        <time>2015-05-01T10:07:24Z</time>
      </trkpt>
      <trkpt lat="37.839014" lon="-8.790454">
        <ele>16.019</ele>
        <time>2015-05-01T10:07:27Z</time>
      </trkpt>
      <trkpt lat="37.838932" lon="-8.790303">
        <ele>16.007</ele>
        <time>2015-05-01T10:07:41Z</time>
      </trkpt>
      <trkpt lat="37.838913" lon="-8.790202">
        <ele>15.588</ele>
        <time>2015-05-01T10:07:49Z</time>
      </trkpt>
      <trkpt lat="37.838864" lon="-8.790065">
        <ele>16.075</ele>
        <time>2015-05-01T10:08:02Z</time>
      </trkpt>
      <trkpt lat="37.838843" lon="-8.790028">
        <ele>16.533</ele>
        <time>2015-05-01T10:08:06Z</time>
      </trkpt>
      <trkpt lat="37.838788" lon="-8.789864">
        <ele>17.469</ele>
        <time>2015-05-01T10:08:22Z</time>
      </trkpt>
      <trkpt lat="37.838727" lon="-8.789752">
        <ele>17.978</ele>
        <time>2015-05-01T10:08:34Z</time>
      </trkpt>
      <trkpt lat="37.838642" lon="-8.789647">
        <ele>18.444</ele>
        <time>2015-05-01T10:08:47Z</time>
      </trkpt>
      <trkpt lat="37.838570" lon="-8.789525">
        <ele>18.961</ele>
        <time>2015-05-01T10:09:00Z</time>
      </trkpt>
      <trkpt lat="37.838498" lon="-8.789485">
        <ele>17.979</ele>
        <time>2015-05-01T10:09:08Z</time>
      </trkpt>
      <trkpt lat="37.838426" lon="-8.789584">
        <ele>14.605</ele>
        <time>2015-05-01T10:09:22Z</time>
      </trkpt>
      <trkpt lat="37.838391" lon="-8.789585">
        <ele>10.725</ele>
        <time>2015-05-01T10:09:35Z</time>
      </trkpt>
      <trkpt lat="37.838383" lon="-8.789595">
        <ele>13.107</ele>
        <time>2015-05-01T10:09:56Z</time>
      </trkpt>
      <trkpt lat="37.838376" lon="-8.789590">
        <ele>16.096</ele>
        <time>2015-05-01T10:10:24Z</time>
      </trkpt>
      <trkpt lat="37.838369" lon="-8.789549">
        <ele>17.973</ele>
        <time>2015-05-01T10:10:51Z</time>
      </trkpt>
      <trkpt lat="37.838206" lon="-8.789470">
        <ele>14.621</ele>
        <time>2015-05-01T10:11:05Z</time>
      </trkpt>
      <trkpt lat="37.838090" lon="-8.789414">
        <ele>13.617</ele>
        <time>2015-05-01T10:11:20Z</time>
      </trkpt>
      <trkpt lat="37.838091" lon="-8.789417">
        <ele>13.666</ele>
        <time>2015-05-01T10:11:21Z</time>
      </trkpt>
      <trkpt lat="37.837942" lon="-8.789362">
        <ele>14.172</ele>
        <time>2015-05-01T10:11:35Z</time>
      </trkpt>
      <trkpt lat="37.837832" lon="-8.789320">
        <ele>15.029</ele>
        <time>2015-05-01T10:11:49Z</time>
      </trkpt>
      <trkpt lat="37.837751" lon="-8.789369">
        <ele>14.113</ele>
        <time>2015-05-01T10:11:57Z</time>
      </trkpt>
      <trkpt lat="37.837717" lon="-8.789441">
        <ele>12.643</ele>
        <time>2015-05-01T10:12:03Z</time>
      </trkpt>
      <trkpt lat="37.837731" lon="-8.789484">
        <ele>11.707</ele>
        <time>2015-05-01T10:12:07Z</time>
      </trkpt>
      <trkpt lat="37.837744" lon="-8.789587">
        <ele>9.807</ele>
        <time>2015-05-01T10:12:14Z</time>
      </trkpt>
      <trkpt lat="37.837666" lon="-8.789710">
        <ele>9.810</ele>
        <time>2015-05-01T10:12:27Z</time>
      </trkpt>
      <trkpt lat="37.837653" lon="-8.789725">
        <ele>9.847</ele>
        <time>2015-05-01T10:12:29Z</time>
      </trkpt>
      <trkpt lat="37.837481" lon="-8.789797">
        <ele>12.675</ele>
        <time>2015-05-01T10:12:43Z</time>
      </trkpt>
      <trkpt lat="37.837368" lon="-8.789855">
        <ele>16.061</ele>
        <time>2015-05-01T10:12:58Z</time>
      </trkpt>
      <trkpt lat="37.837351" lon="-8.789864">
        <ele>16.060</ele>
        <time>2015-05-01T10:13:00Z</time>
      </trkpt>
      <trkpt lat="37.837290" lon="-8.789867">
        <ele>17.096</ele>
        <time>2015-05-01T10:13:06Z</time>
      </trkpt>
      <trkpt lat="37.837078" lon="-8.789965">
        <ele>16.093</ele>
        <time>2015-05-01T10:13:25Z</time>
      </trkpt>
      <trkpt lat="37.836870" lon="-8.790106">
        <ele>17.055</ele>
        <time>2015-05-01T10:13:44Z</time>
      </trkpt>
      <trkpt lat="37.836732" lon="-8.790199">
        <ele>16.507</ele>
        <time>2015-05-01T10:13:59Z</time>
      </trkpt>
      <trkpt lat="37.836676" lon="-8.790207">
        <ele>16.017</ele>
        <time>2015-05-01T10:14:04Z</time>
      </trkpt>
      <trkpt lat="37.836511" lon="-8.790299">
        <ele>13.607</ele>
        <time>2015-05-01T10:14:21Z</time>
      </trkpt>
      <trkpt lat="37.836491" lon="-8.790302">
        <ele>13.654</ele>
        <time>2015-05-01T10:14:23Z</time>
      </trkpt>
      <trkpt lat="37.836364" lon="-8.790439">
        <ele>11.261</ele>
        <time>2015-05-01T10:14:38Z</time>
      </trkpt>
      <trkpt lat="37.836323" lon="-8.790460">
        <ele>11.229</ele>
        <time>2015-05-01T10:14:43Z</time>
      </trkpt>
      <trkpt lat="37.836287" lon="-8.790452">
        <ele>11.225</ele>
        <time>2015-05-01T10:14:47Z</time>
      </trkpt>
      <trkpt lat="37.836218" lon="-8.790454">
        <ele>10.774</ele>
        <time>2015-05-01T10:14:53Z</time>
      </trkpt>
      <trkpt lat="37.836099" lon="-8.790383">
        <ele>10.230</ele>
        <time>2015-05-01T10:15:05Z</time>
      </trkpt>
      <trkpt lat="37.835988" lon="-8.790265">
        <ele>10.267</ele>
        <time>2015-05-01T10:15:19Z</time>
      </trkpt>
      <trkpt lat="37.835875" lon="-8.790161">
        <ele>11.721</ele>
        <time>2015-05-01T10:15:32Z</time>
      </trkpt>
      <trkpt lat="37.835739" lon="-8.790067">
        <ele>9.341</ele>
        <time>2015-05-01T10:15:46Z</time>
      </trkpt>
      <trkpt lat="37.835684" lon="-8.790024">
        <ele>9.305</ele>
        <time>2015-05-01T10:15:51Z</time>
      </trkpt>
      <trkpt lat="37.835597" lon="-8.790024">
        <ele>8.307</ele>
        <time>2015-05-01T10:16:04Z</time>
      </trkpt>
      <trkpt lat="37.835521" lon="-8.790034">
        <ele>6.951</ele>
        <time>2015-05-01T10:16:16Z</time>
      </trkpt>
      <trkpt lat="37.835446" lon="-8.790054">
        <ele>9.858</ele>
        <time>2015-05-01T10:16:30Z</time>
      </trkpt>
      <trkpt lat="37.835439" lon="-8.790087">
        <ele>10.796</ele>
        <time>2015-05-01T10:16:35Z</time>
      </trkpt>
      <trkpt lat="37.835497" lon="-8.790256">
        <ele>13.112</ele>
        <time>2015-05-01T10:16:49Z</time>
      </trkpt>
      <trkpt lat="37.835616" lon="-8.790374">
        <ele>11.721</ele>
        <time>2015-05-01T10:17:05Z</time>
      </trkpt>
      <trkpt lat="37.835633" lon="-8.790386">
        <ele>12.267</ele>
        <time>2015-05-01T10:17:21Z</time>
      </trkpt>
      <trkpt lat="37.835672" lon="-8.790405">
        <ele>12.634</ele>
        <time>2015-05-01T10:17:35Z</time>
      </trkpt>
      <trkpt lat="37.835703" lon="-8.790418">
        <ele>12.645</ele>
        <time>2015-05-01T10:17:38Z</time>
      </trkpt>
      <trkpt lat="37.835740" lon="-8.790564">
        <ele>12.247</ele>
        <time>2015-05-01T10:17:53Z</time>
      </trkpt>
      <trkpt lat="37.835656" lon="-8.790553">
        <ele>14.111</ele>
        <time>2015-05-01T10:18:04Z</time>
      </trkpt>
      <trkpt lat="37.835591" lon="-8.790543">
        <ele>15.507</ele>
        <time>2015-05-01T10:18:11Z</time>
      </trkpt>
      <trkpt lat="37.835439" lon="-8.790566">
        <ele>16.523</ele>
        <time>2015-05-01T10:18:27Z</time>
      </trkpt>
      <trkpt lat="37.835338" lon="-8.790601">
        <ele>17.420</ele>
        <time>2015-05-01T10:18:36Z</time>
      </trkpt>
      <trkpt lat="37.835246" lon="-8.790673">
        <ele>17.918</ele>
        <time>2015-05-01T10:18:46Z</time>
      </trkpt>
      <trkpt lat="37.835168" lon="-8.790683">
        <ele>17.914</ele>
        <time>2015-05-01T10:18:51Z</time>
      </trkpt>
      <trkpt lat="37.835115" lon="-8.790621">
        <ele>17.963</ele>
        <time>2015-05-01T10:18:58Z</time>
      </trkpt>
      <trkpt lat="37.835069" lon="-8.790616">
        <ele>17.999</ele>
        <time>2015-05-01T10:19:03Z</time>
      </trkpt>
      <trkpt lat="37.835040" lon="-8.790647">
        <ele>17.056</ele>
        <time>2015-05-01T10:19:17Z</time>
      </trkpt>
      <trkpt lat="37.835037" lon="-8.790658">
        <ele>17.018</ele>
        <time>2015-05-01T10:19:33Z</time>
      </trkpt>
      <trkpt lat="37.834978" lon="-8.790677">
        <ele>16.598</ele>
        <time>2015-05-01T10:19:46Z</time>
      </trkpt>
      <trkpt lat="37.834911" lon="-8.790712">
        <ele>14.617</ele>
        <time>2015-05-01T10:19:59Z</time>
      </trkpt>
      <trkpt lat="37.834871" lon="-8.790725">
        <ele>13.607</ele>
        <time>2015-05-01T10:20:03Z</time>
      </trkpt>
      <trkpt lat="37.834780" lon="-8.790710">
        <ele>13.160</ele>
        <time>2015-05-01T10:20:11Z</time>
      </trkpt>
      <trkpt lat="37.834717" lon="-8.790782">
        <ele>12.227</ele>
        <time>2015-05-01T10:20:22Z</time>
      </trkpt>
      <trkpt lat="37.834710" lon="-8.790824">
        <ele>11.215</ele>
        <time>2015-05-01T10:20:26Z</time>
      </trkpt>
      <trkpt lat="37.834635" lon="-8.790970">
        <ele>10.251</ele>
        <time>2015-05-01T10:20:40Z</time>
      </trkpt>
      <trkpt lat="37.834547" lon="-8.791111">
        <ele>9.360</ele>
        <time>2015-05-01T10:20:55Z</time>
      </trkpt>
      <trkpt lat="37.834466" lon="-8.791227">
        <ele>8.886</ele>
        <time>2015-05-01T10:21:08Z</time>
      </trkpt>
      <trkpt lat="37.834382" lon="-8.791333">
        <ele>9.873</ele>
        <time>2015-05-01T10:21:19Z</time>
      </trkpt>
      <trkpt lat="37.834298" lon="-8.791435">
        <ele>9.386</ele>
        <time>2015-05-01T10:21:30Z</time>
      </trkpt>
      <trkpt lat="37.834212" lon="-8.791541">
        <ele>8.860</ele>
        <time>2015-05-01T10:21:42Z</time>
      </trkpt>
      <trkpt lat="37.834191" lon="-8.791593">
        <ele>9.326</ele>
        <time>2015-05-01T10:21:47Z</time>
      </trkpt>
      <trkpt lat="37.834071" lon="-8.791703">
        <ele>8.807</ele>
        <time>2015-05-01T10:22:00Z</time>
      </trkpt>
      <trkpt lat="37.833955" lon="-8.791799">
        <ele>8.847</ele>
        <time>2015-05-01T10:22:14Z</time>
      </trkpt>
      <trkpt lat="37.833943" lon="-8.791808">
        <ele>8.814</ele>
        <time>2015-05-01T10:22:16Z</time>
      </trkpt>
      <trkpt lat="37.833943" lon="-8.791916">
        <ele>8.332</ele>
        <time>2015-05-01T10:22:28Z</time>
      </trkpt>
      <trkpt lat="37.833982" lon="-8.792142">
        <ele>6.468</ele>
        <time>2015-05-01T10:22:44Z</time>
      </trkpt>
      <trkpt lat="37.834009" lon="-8.792305">
        <ele>6.927</ele>
        <time>2015-05-01T10:22:56Z</time>
      </trkpt>
      <trkpt lat="37.833859" lon="-8.792470">
        <ele>7.833</ele>
        <time>2015-05-01T10:23:16Z</time>
      </trkpt>
      <trkpt lat="37.833777" lon="-8.792533">
        <ele>7.890</ele>
        <time>2015-05-01T10:23:25Z</time>
      </trkpt>
      <trkpt lat="37.833697" lon="-8.792588">
        <ele>6.976</ele>
        <time>2015-05-01T10:23:34Z</time>
      </trkpt>
      <trkpt lat="37.833510" lon="-8.792681">
        <ele>6.490</ele>
        <time>2015-05-01T10:23:52Z</time>
      </trkpt>
      <trkpt lat="37.833460" lon="-8.792700">
        <ele>7.419</ele>
        <time>2015-05-01T10:24:08Z</time>
      </trkpt>
      <trkpt lat="37.833323" lon="-8.792759">
        <ele>8.307</ele>
        <time>2015-05-01T10:24:22Z</time>
      </trkpt>
      <trkpt lat="37.833242" lon="-8.792782">
        <ele>8.386</ele>
        <time>2015-05-01T10:24:30Z</time>
      </trkpt>
      <trkpt lat="37.833142" lon="-8.792804">
        <ele>7.413</ele>
        <time>2015-05-01T10:24:40Z</time>
      </trkpt>
      <trkpt lat="37.833109" lon="-8.792807">
        <ele>7.441</ele>
        <time>2015-05-01T10:24:43Z</time>
      </trkpt>
      <trkpt lat="37.832933" lon="-8.792846">
        <ele>7.497</ele>
        <time>2015-05-01T10:24:59Z</time>
      </trkpt>
      <trkpt lat="37.832768" lon="-8.792866">
        <ele>6.936</ele>
        <time>2015-05-01T10:25:14Z</time>
      </trkpt>
      <trkpt lat="37.832609" lon="-8.792840">
        <ele>5.942</ele>
        <time>2015-05-01T10:25:29Z</time>
      </trkpt>
      <trkpt lat="37.832486" lon="-8.792822">
        <ele>5.959</ele>
        <time>2015-05-01T10:25:41Z</time>
      </trkpt>
      <trkpt lat="37.832320" lon="-8.792801">
        <ele>5.984</ele>
        <time>2015-05-01T10:25:58Z</time>
      </trkpt>
      <trkpt lat="37.832152" lon="-8.792772">
        <ele>5.907</ele>
        <time>2015-05-01T10:26:14Z</time>
      </trkpt>
      <trkpt lat="37.831997" lon="-8.792739">
        <ele>5.917</ele>
        <time>2015-05-01T10:26:30Z</time>
      </trkpt>
      <trkpt lat="37.831873" lon="-8.792691">
        <ele>4.907</ele>
        <time>2015-05-01T10:26:43Z</time>
      </trkpt>
      <trkpt lat="37.831688" lon="-8.792622">
        <ele>4.927</ele>
        <time>2015-05-01T10:27:02Z</time>
      </trkpt>
      <trkpt lat="37.831665" lon="-8.792589">
        <ele>4.994</ele>
        <time>2015-05-01T10:27:06Z</time>
      </trkpt>
      <trkpt lat="37.831641" lon="-8.792569">
        <ele>5.412</ele>
        <time>2015-05-01T10:27:09Z</time>
      </trkpt>
      <trkpt lat="37.831491" lon="-8.792516">
        <ele>5.478</ele>
        <time>2015-05-01T10:27:26Z</time>
      </trkpt>
      <trkpt lat="37.831306" lon="-8.792428">
        <ele>6.447</ele>
        <time>2015-05-01T10:27:45Z</time>
      </trkpt>
      <trkpt lat="37.831222" lon="-8.792399">
        <ele>6.473</ele>
        <time>2015-05-01T10:27:54Z</time>
      </trkpt>
      <trkpt lat="37.831101" lon="-8.792347">
        <ele>6.980</ele>
        <time>2015-05-01T10:28:07Z</time>
      </trkpt>
      <trkpt lat="37.831059" lon="-8.792315">
        <ele>6.959</ele>
        <time>2015-05-01T10:28:12Z</time>
      </trkpt>
      <trkpt lat="37.830928" lon="-8.792239">
        <ele>6.403</ele>
        <time>2015-05-01T10:28:28Z</time>
      </trkpt>
      <trkpt lat="37.830902" lon="-8.792220">
        <ele>6.423</ele>
        <time>2015-05-01T10:28:31Z</time>
      </trkpt>
      <trkpt lat="37.830883" lon="-8.792217">
        <ele>5.907</ele>
        <time>2015-05-01T10:28:33Z</time>
      </trkpt>
      <trkpt lat="37.830749" lon="-8.792166">
        <ele>5.994</ele>
        <time>2015-05-01T10:28:48Z</time>
      </trkpt>
      <trkpt lat="37.830657" lon="-8.792098">
        <ele>7.861</ele>
        <time>2015-05-01T10:29:05Z</time>
      </trkpt>
      <trkpt lat="37.830519" lon="-8.791958">
        <ele>7.829</ele>
        <time>2015-05-01T10:29:23Z</time>
      </trkpt>
      <trkpt lat="37.830408" lon="-8.791849">
        <ele>7.885</ele>
        <time>2015-05-01T10:29:39Z</time>
      </trkpt>
      <trkpt lat="37.830298" lon="-8.791749">
        <ele>8.844</ele>
        <time>2015-05-01T10:29:55Z</time>
      </trkpt>
      <trkpt lat="37.830209" lon="-8.791651">
        <ele>8.330</ele>
        <time>2015-05-01T10:30:11Z</time>
      </trkpt>
      <trkpt lat="37.830185" lon="-8.791613">
        <ele>7.477</ele>
        <time>2015-05-01T10:30:16Z</time>
      </trkpt>
      <trkpt lat="37.830145" lon="-8.791542">
        <ele>7.824</ele>
        <time>2015-05-01T10:30:24Z</time>
      </trkpt>
      <trkpt lat="37.830052" lon="-8.791447">
        <ele>7.404</ele>
        <time>2015-05-01T10:30:36Z</time>
      </trkpt>
      <trkpt lat="37.830039" lon="-8.791426">
        <ele>7.814</ele>
        <time>2015-05-01T10:30:38Z</time>
      </trkpt>
      <trkpt lat="37.829907" lon="-8.791324">
        <ele>12.207</ele>
        <time>2015-05-01T10:30:52Z</time>
      </trkpt>
      <trkpt lat="37.829884" lon="-8.791320">
        <ele>12.611</ele>
        <time>2015-05-01T10:30:54Z</time>
      </trkpt>
      <trkpt lat="37.829715" lon="-8.791309">
        <ele>14.698</ele>
        <time>2015-05-01T10:31:10Z</time>
      </trkpt>
      <trkpt lat="37.829592" lon="-8.791317">
        <ele>15.596</ele>
        <time>2015-05-01T10:31:23Z</time>
      </trkpt>
      <trkpt lat="37.829441" lon="-8.791352">
        <ele>17.032</ele>
        <time>2015-05-01T10:31:38Z</time>
      </trkpt>
      <trkpt lat="37.829418" lon="-8.791386">
        <ele>18.961</ele>
        <time>2015-05-01T10:31:52Z</time>
      </trkpt>
      <trkpt lat="37.829400" lon="-8.791386">
        <ele>18.947</ele>
        <time>2015-05-01T10:32:05Z</time>
      </trkpt>
      <trkpt lat="37.829397" lon="-8.791386">
        <ele>19.464</ele>
        <time>2015-05-01T10:32:38Z</time>
      </trkpt>
      <trkpt lat="37.829394" lon="-8.791374">
        <ele>19.885</ele>
        <time>2015-05-01T10:33:13Z</time>
      </trkpt>
      <trkpt lat="37.829398" lon="-8.791374">
        <ele>20.389</ele>
        <time>2015-05-01T10:33:50Z</time>
      </trkpt>
      <trkpt lat="37.829398" lon="-8.791379">
        <ele>19.817</ele>
        <time>2015-05-01T10:34:17Z</time>
      </trkpt>
      <trkpt lat="37.829409" lon="-8.791388">
        <ele>21.807</ele>
        <time>2015-05-01T10:34:51Z</time>
      </trkpt>
      <trkpt lat="37.829406" lon="-8.791379">
        <ele>22.327</ele>
        <time>2015-05-01T10:35:22Z</time>
      </trkpt>
      <trkpt lat="37.829404" lon="-8.791382">
        <ele>21.384</ele>
        <time>2015-05-01T10:35:38Z</time>
      </trkpt>
      <trkpt lat="37.829375" lon="-8.791419">
        <ele>21.832</ele>
        <time>2015-05-01T10:35:54Z</time>
      </trkpt>
      <trkpt lat="37.829350" lon="-8.791431">
        <ele>20.318</ele>
        <time>2015-05-01T10:36:12Z</time>
      </trkpt>
      <trkpt lat="37.829336" lon="-8.791449">
        <ele>20.887</ele>
        <time>2015-05-01T10:36:26Z</time>
      </trkpt>
      <trkpt lat="37.829317" lon="-8.791537">
        <ele>19.833</ele>
        <time>2015-05-01T10:36:42Z</time>
      </trkpt>
      <trkpt lat="37.829327" lon="-8.791529">
        <ele>19.890</ele>
        <time>2015-05-01T10:37:04Z</time>
      </trkpt>
      <trkpt lat="37.829317" lon="-8.791530">
        <ele>20.859</ele>
        <time>2015-05-01T10:37:46Z</time>
      </trkpt>
      <trkpt lat="37.829289" lon="-8.791570">
        <ele>22.303</ele>
        <time>2015-05-01T10:38:00Z</time>
      </trkpt>
      <trkpt lat="37.829256" lon="-8.791654">
        <ele>22.723</ele>
        <time>2015-05-01T10:38:06Z</time>
      </trkpt>
      <trkpt lat="37.829187" lon="-8.791620">
        <ele>23.207</ele>
        <time>2015-05-01T10:38:17Z</time>
      </trkpt>
      <trkpt lat="37.829124" lon="-8.791425">
        <ele>25.134</ele>
        <time>2015-05-01T10:38:34Z</time>
      </trkpt>
      <trkpt lat="37.828996" lon="-8.791274">
        <ele>26.671</ele>
        <time>2015-05-01T10:38:50Z</time>
      </trkpt>
      <trkpt lat="37.828857" lon="-8.791182">
        <ele>27.179</ele>
        <time>2015-05-01T10:39:06Z</time>
      </trkpt>
      <trkpt lat="37.828810" lon="-8.791189">
        <ele>27.185</ele>
        <time>2015-05-01T10:39:11Z</time>
      </trkpt>
      <trkpt lat="37.828776" lon="-8.791228">
        <ele>27.574</ele>
        <time>2015-05-01T10:39:15Z</time>
      </trkpt>
      <trkpt lat="37.828686" lon="-8.791297">
        <ele>27.150</ele>
        <time>2015-05-01T10:39:26Z</time>
      </trkpt>
      <trkpt lat="37.828471" lon="-8.791385">
        <ele>29.067</ele>
        <time>2015-05-01T10:39:47Z</time>
      </trkpt>
      <trkpt lat="37.828343" lon="-8.791395">
        <ele>30.943</ele>
        <time>2015-05-01T10:40:07Z</time>
      </trkpt>
      <trkpt lat="37.828280" lon="-8.791374">
        <ele>29.064</ele>
        <time>2015-05-01T10:40:17Z</time>
      </trkpt>
      <trkpt lat="37.828191" lon="-8.791351">
        <ele>26.610</ele>
        <time>2015-05-01T10:40:31Z</time>
      </trkpt>
      <trkpt lat="37.828166" lon="-8.791336">
        <ele>24.707</ele>
        <time>2015-05-01T10:40:48Z</time>
      </trkpt>
      <trkpt lat="37.828153" lon="-8.791323">
        <ele>25.153</ele>
        <time>2015-05-01T10:40:50Z</time>
      </trkpt>
      <trkpt lat="37.828093" lon="-8.791313">
        <ele>26.120</ele>
        <time>2015-05-01T10:40:56Z</time>
      </trkpt>
      <trkpt lat="37.827912" lon="-8.791403">
        <ele>29.088</ele>
        <time>2015-05-01T10:41:13Z</time>
      </trkpt>
      <trkpt lat="37.827822" lon="-8.791504">
        <ele>29.964</ele>
        <time>2015-05-01T10:41:24Z</time>
      </trkpt>
      <trkpt lat="37.827727" lon="-8.791614">
        <ele>32.343</ele>
        <time>2015-05-01T10:41:38Z</time>
      </trkpt>
      <trkpt lat="37.827656" lon="-8.791534">
        <ele>32.859</ele>
        <time>2015-05-01T10:41:47Z</time>
      </trkpt>
      <trkpt lat="37.827588" lon="-8.791297">
        <ele>33.326</ele>
        <time>2015-05-01T10:42:04Z</time>
      </trkpt>
      <trkpt lat="37.827601" lon="-8.791231">
        <ele>33.387</ele>
        <time>2015-05-01T10:42:09Z</time>
      </trkpt>
      <trkpt lat="37.827644" lon="-8.791150">
        <ele>30.442</ele>
        <time>2015-05-01T10:42:24Z</time>
      </trkpt>
      <trkpt lat="37.827646" lon="-8.791151">
        <ele>29.926</ele>
        <time>2015-05-01T10:42:37Z</time>
      </trkpt>
      <trkpt lat="37.827695" lon="-8.791149">
        <ele>29.907</ele>
        <time>2015-05-01T10:42:41Z</time>
      </trkpt>
      <trkpt lat="37.827730" lon="-8.791114">
        <ele>29.977</ele>
        <time>2015-05-01T10:42:45Z</time>
      </trkpt>
      <trkpt lat="37.827769" lon="-8.790965">
        <ele>30.434</ele>
        <time>2015-05-01T10:42:57Z</time>
      </trkpt>
      <trkpt lat="37.827722" lon="-8.790881">
        <ele>31.912</ele>
        <time>2015-05-01T10:43:04Z</time>
      </trkpt>
      <trkpt lat="37.827540" lon="-8.790832">
        <ele>30.978</ele>
        <time>2015-05-01T10:43:19Z</time>
      </trkpt>
      <trkpt lat="37.827269" lon="-8.790848">
        <ele>28.057</ele>
        <time>2015-05-01T10:43:40Z</time>
      </trkpt>
      <trkpt lat="37.827222" lon="-8.790856">
        <ele>27.573</ele>
        <time>2015-05-01T10:43:44Z</time>
      </trkpt>
      <trkpt lat="37.826995" lon="-8.790907">
        <ele>26.680</ele>
        <time>2015-05-01T10:44:02Z</time>
      </trkpt>
      <trkpt lat="37.826748" lon="-8.790948">
        <ele>26.191</ele>
        <time>2015-05-01T10:44:22Z</time>
      </trkpt>
      <trkpt lat="37.826690" lon="-8.790976">
        <ele>25.681</ele>
        <time>2015-05-01T10:44:32Z</time>
      </trkpt>
      <trkpt lat="37.826709" lon="-8.791065">
        <ele>26.119</ele>
        <time>2015-05-01T10:44:39Z</time>
      </trkpt>
      <trkpt lat="37.826714" lon="-8.791184">
        <ele>26.607</ele>
        <time>2015-05-01T10:44:47Z</time>
      </trkpt>
      <trkpt lat="37.826668" lon="-8.791276">
        <ele>25.128</ele>
        <time>2015-05-01T10:45:01Z</time>
      </trkpt>
      <trkpt lat="37.826466" lon="-8.791231">
        <ele>24.295</ele>
        <time>2015-05-01T10:45:18Z</time>
      </trkpt>
      <trkpt lat="37.826264" lon="-8.791271">
        <ele>23.213</ele>
        <time>2015-05-01T10:45:35Z</time>
      </trkpt>
      <trkpt lat="37.826081" lon="-8.791303">
        <ele>22.319</ele>
        <time>2015-05-01T10:45:50Z</time>
      </trkpt>
      <trkpt lat="37.826008" lon="-8.791313">
        <ele>21.868</ele>
        <time>2015-05-01T10:45:56Z</time>
      </trkpt>
      <trkpt lat="37.825954" lon="-8.791342">
        <ele>22.364</ele>
        <time>2015-05-01T10:46:01Z</time>
      </trkpt>
      <trkpt lat="37.825933" lon="-8.791352">
        <ele>22.741</ele>
        <time>2015-05-01T10:46:03Z</time>
      </trkpt>
      <trkpt lat="37.825805" lon="-8.791490">
        <ele>24.747</ele>
        <time>2015-05-01T10:46:18Z</time>
      </trkpt>
      <trkpt lat="37.825712" lon="-8.791582">
        <ele>26.129</ele>
        <time>2015-05-01T10:46:28Z</time>
      </trkpt>
      <trkpt lat="37.825468" lon="-8.791558">
        <ele>26.121</ele>
        <time>2015-05-01T10:46:48Z</time>
      </trkpt>
      <trkpt lat="37.825266" lon="-8.791415">
        <ele>26.107</ele>
        <time>2015-05-01T10:47:07Z</time>
      </trkpt>
      <trkpt lat="37.825042" lon="-8.791332">
        <ele>25.113</ele>
        <time>2015-05-01T10:47:26Z</time>
      </trkpt>
      <trkpt lat="37.825006" lon="-8.791329">
        <ele>25.670</ele>
        <time>2015-05-01T10:47:29Z</time>
      </trkpt>
      <trkpt lat="37.824908" lon="-8.791392">
        <ele>25.148</ele>
        <time>2015-05-01T10:47:38Z</time>
      </trkpt>
      <trkpt lat="37.824866" lon="-8.791439">
        <ele>24.714</ele>
        <time>2015-05-01T10:47:42Z</time>
      </trkpt>
      <trkpt lat="37.824788" lon="-8.791680">
        <ele>26.123</ele>
        <time>2015-05-01T10:47:59Z</time>
      </trkpt>
      <trkpt lat="37.824668" lon="-8.791780">
        <ele>27.539</ele>
        <time>2015-05-01T10:48:10Z</time>
      </trkpt>
      <trkpt lat="37.824611" lon="-8.791793">
        <ele>26.676</ele>
        <time>2015-05-01T10:48:17Z</time>
      </trkpt>
      <trkpt lat="37.824475" lon="-8.791798">
        <ele>25.646</ele>
        <time>2015-05-01T10:48:27Z</time>
      </trkpt>
      <trkpt lat="37.824348" lon="-8.791918">
        <ele>27.188</ele>
        <time>2015-05-01T10:48:38Z</time>
      </trkpt>
      <trkpt lat="37.824301" lon="-8.791960">
        <ele>27.116</ele>
        <time>2015-05-01T10:48:44Z</time>
      </trkpt>
      <trkpt lat="37.824167" lon="-8.792026">
        <ele>25.607</ele>
        <time>2015-05-01T10:48:57Z</time>
      </trkpt>
      <trkpt lat="37.824144" lon="-8.792043">
        <ele>26.173</ele>
        <time>2015-05-01T10:49:09Z</time>
      </trkpt>
      <trkpt lat="37.824087" lon="-8.792072">
        <ele>25.630</ele>
        <time>2015-05-01T10:49:23Z</time>
      </trkpt>
      <trkpt lat="37.823978" lon="-8.792098">
        <ele>24.278</ele>
        <time>2015-05-01T10:49:37Z</time>
      </trkpt>
      <trkpt lat="37.823860" lon="-8.792145">
        <ele>25.114</ele>
        <time>2015-05-01T10:49:54Z</time>
      </trkpt>
      <trkpt lat="37.823734" lon="-8.792197">
        <ele>27.593</ele>
        <time>2015-05-01T10:50:06Z</time>
      </trkpt>
      <trkpt lat="37.823711" lon="-8.792202">
        <ele>27.129</ele>
        <time>2015-05-01T10:50:08Z</time>
      </trkpt>
      <trkpt lat="37.823658" lon="-8.792185">
        <ele>25.646</ele>
        <time>2015-05-01T10:50:13Z</time>
      </trkpt>
      <trkpt lat="37.823638" lon="-8.792146">
        <ele>25.186</ele>
        <time>2015-05-01T10:50:16Z</time>
      </trkpt>
      <trkpt lat="37.823585" lon="-8.792115">
        <ele>25.160</ele>
        <time>2015-05-01T10:50:20Z</time>
      </trkpt>
      <trkpt lat="37.823416" lon="-8.792131">
        <ele>25.126</ele>
        <time>2015-05-01T10:50:34Z</time>
      </trkpt>
      <trkpt lat="37.823350" lon="-8.792219">
        <ele>23.707</ele>
        <time>2015-05-01T10:50:41Z</time>
      </trkpt>
      <trkpt lat="37.823279" lon="-8.792438">
        <ele>23.277</ele>
        <time>2015-05-01T10:50:55Z</time>
      </trkpt>
      <trkpt lat="37.823277" lon="-8.792467">
        <ele>22.774</ele>
        <time>2015-05-01T10:50:59Z</time>
      </trkpt>
      <trkpt lat="37.823270" lon="-8.792564">
        <ele>22.342</ele>
        <time>2015-05-01T10:51:08Z</time>
      </trkpt>
      <trkpt lat="37.823204" lon="-8.792586">
        <ele>23.768</ele>
        <time>2015-05-01T10:51:24Z</time>
      </trkpt>
      <trkpt lat="37.823048" lon="-8.792619">
        <ele>21.357</ele>
        <time>2015-05-01T10:51:38Z</time>
      </trkpt>
      <trkpt lat="37.822957" lon="-8.792684">
        <ele>20.313</ele>
        <time>2015-05-01T10:51:55Z</time>
      </trkpt>
      <trkpt lat="37.822761" lon="-8.792843">
        <ele>18.930</ele>
        <time>2015-05-01T10:52:11Z</time>
      </trkpt>
      <trkpt lat="37.822652" lon="-8.792930">
        <ele>19.483</ele>
        <time>2015-05-01T10:52:20Z</time>
      </trkpt>
      <trkpt lat="37.822540" lon="-8.792870">
        <ele>16.525</ele>
        <time>2015-05-01T10:52:34Z</time>
      </trkpt>
      <trkpt lat="37.822521" lon="-8.792866">
        <ele>15.517</ele>
        <time>2015-05-01T10:52:39Z</time>
      </trkpt>
      <trkpt lat="37.822358" lon="-8.792845">
        <ele>14.107</ele>
        <time>2015-05-01T10:52:52Z</time>
      </trkpt>
      <trkpt lat="37.822307" lon="-8.792821">
        <ele>14.197</ele>
        <time>2015-05-01T10:52:59Z</time>
      </trkpt>
      <trkpt lat="37.822098" lon="-8.792816">
        <ele>15.584</ele>
        <time>2015-05-01T10:53:15Z</time>
      </trkpt>
      <trkpt lat="37.822032" lon="-8.792798">
        <ele>16.012</ele>
        <time>2015-05-01T10:53:20Z</time>
      </trkpt>
      <trkpt lat="37.821825" lon="-8.792721">
        <ele>16.058</ele>
        <time>2015-05-01T10:53:38Z</time>
      </trkpt>
      <trkpt lat="37.821801" lon="-8.792726">
        <ele>16.087</ele>
        <time>2015-05-01T10:53:40Z</time>
      </trkpt>
      <trkpt lat="37.821642" lon="-8.792622">
        <ele>15.533</ele>
        <time>2015-05-01T10:53:54Z</time>
      </trkpt>
      <trkpt lat="37.821510" lon="-8.792536">
        <ele>16.090</ele>
        <time>2015-05-01T10:54:06Z</time>
      </trkpt>
      <trkpt lat="37.821453" lon="-8.792541">
        <ele>15.536</ele>
        <time>2015-05-01T10:54:11Z</time>
      </trkpt>
      <trkpt lat="37.821314" lon="-8.792643">
        <ele>15.517</ele>
        <time>2015-05-01T10:54:24Z</time>
      </trkpt>
      <trkpt lat="37.821267" lon="-8.792629">
        <ele>16.018</ele>
        <time>2015-05-01T10:54:28Z</time>
      </trkpt>
      <trkpt lat="37.821173" lon="-8.792579">
        <ele>16.507</ele>
        <time>2015-05-01T10:54:37Z</time>
      </trkpt>
      <trkpt lat="37.821054" lon="-8.792498">
        <ele>15.052</ele>
        <time>2015-05-01T10:54:48Z</time>
      </trkpt>
      <trkpt lat="37.821034" lon="-8.792481">
        <ele>14.689</ele>
        <time>2015-05-01T10:54:50Z</time>
      </trkpt>
      <trkpt lat="37.820948" lon="-8.792465">
        <ele>14.617</ele>
        <time>2015-05-01T10:54:57Z</time>
      </trkpt>
      <trkpt lat="37.820877" lon="-8.792462">
        <ele>15.063</ele>
        <time>2015-05-01T10:55:02Z</time>
      </trkpt>
      <trkpt lat="37.820819" lon="-8.792517">
        <ele>14.122</ele>
        <time>2015-05-01T10:55:08Z</time>
      </trkpt>
      <trkpt lat="37.820777" lon="-8.792531">
        <ele>14.118</ele>
        <time>2015-05-01T10:55:12Z</time>
      </trkpt>
      <trkpt lat="37.820749" lon="-8.792589">
        <ele>13.675</ele>
        <time>2015-05-01T10:55:17Z</time>
      </trkpt>
      <trkpt lat="37.820586" lon="-8.792679">
        <ele>15.045</ele>
        <time>2015-05-01T10:55:34Z</time>
      </trkpt>
      <trkpt lat="37.820555" lon="-8.792680">
        <ele>15.547</ele>
        <time>2015-05-01T10:55:46Z</time>
      </trkpt>
      <trkpt lat="37.820549" lon="-8.792655">
        <ele>15.511</ele>
        <time>2015-05-01T10:55:48Z</time>
      </trkpt>
      <trkpt lat="37.820494" lon="-8.792632">
        <ele>15.507</ele>
        <time>2015-05-01T10:55:53Z</time>
      </trkpt>
      <trkpt lat="37.820424" lon="-8.792633">
        <ele>14.133</ele>
        <time>2015-05-01T10:56:07Z</time>
      </trkpt>
      <trkpt lat="37.820302" lon="-8.792643">
        <ele>14.650</ele>
        <time>2015-05-01T10:56:25Z</time>
      </trkpt>
      <trkpt lat="37.820235" lon="-8.792643">
        <ele>14.198</ele>
        <time>2015-05-01T10:56:34Z</time>
      </trkpt>
      <trkpt lat="37.820183" lon="-8.792598">
        <ele>15.014</ele>
        <time>2015-05-01T10:56:47Z</time>
      </trkpt>
      <trkpt lat="37.820136" lon="-8.792519">
        <ele>15.093</ele>
        <time>2015-05-01T10:57:04Z</time>
      </trkpt>
      <trkpt lat="37.820116" lon="-8.792501">
        <ele>15.059</ele>
        <time>2015-05-01T10:57:19Z</time>
      </trkpt>
      <trkpt lat="37.820032" lon="-8.792519">
        <ele>14.666</ele>
        <time>2015-05-01T10:57:26Z</time>
      </trkpt>
      <trkpt lat="37.819834" lon="-8.792468">
        <ele>14.174</ele>
        <time>2015-05-01T10:57:43Z</time>
      </trkpt>
      <trkpt lat="37.819622" lon="-8.792520">
        <ele>12.656</ele>
        <time>2015-05-01T10:58:03Z</time>
      </trkpt>
      <trkpt lat="37.819612" lon="-8.792522">
        <ele>12.221</ele>
        <time>2015-05-01T10:58:04Z</time>
      </trkpt>
      <trkpt lat="37.819507" lon="-8.792631">
        <ele>11.207</ele>
        <time>2015-05-01T10:58:19Z</time>
      </trkpt>
      <trkpt lat="37.819469" lon="-8.792628">
        <ele>11.276</ele>
        <time>2015-05-01T10:58:25Z</time>
      </trkpt>
      <trkpt lat="37.819344" lon="-8.792565">
        <ele>12.643</ele>
        <time>2015-05-01T10:58:40Z</time>
      </trkpt>
      <trkpt lat="37.819315" lon="-8.792601">
        <ele>14.131</ele>
        <time>2015-05-01T10:58:44Z</time>
      </trkpt>
      <trkpt lat="37.819279" lon="-8.792637">
        <ele>14.667</ele>
        <time>2015-05-01T10:58:49Z</time>
      </trkpt>
      <trkpt lat="37.819166" lon="-8.792681">
        <ele>16.546</ele>
        <time>2015-05-01T10:59:02Z</time>
      </trkpt>
      <trkpt lat="37.819139" lon="-8.792696">
        <ele>17.042</ele>
        <time>2015-05-01T10:59:05Z</time>
      </trkpt>
      <trkpt lat="37.819012" lon="-8.792732">
        <ele>19.469</ele>
        <time>2015-05-01T10:59:20Z</time>
      </trkpt>
      <trkpt lat="37.818888" lon="-8.792749">
        <ele>20.317</ele>
        <time>2015-05-01T10:59:35Z</time>
      </trkpt>
      <trkpt lat="37.818843" lon="-8.792747">
        <ele>20.387</ele>
        <time>2015-05-01T10:59:40Z</time>
      </trkpt>
      <trkpt lat="37.818736" lon="-8.792759">
        <ele>21.315</ele>
        <time>2015-05-01T10:59:50Z</time>
      </trkpt>
      <trkpt lat="37.818685" lon="-8.792743">
        <ele>21.307</ele>
        <time>2015-05-01T10:59:55Z</time>
      </trkpt>
      <trkpt lat="37.818606" lon="-8.792738">
        <ele>21.340</ele>
        <time>2015-05-01T11:00:02Z</time>
      </trkpt>
      <trkpt lat="37.818540" lon="-8.792742">
        <ele>21.857</ele>
        <time>2015-05-01T11:00:08Z</time>
      </trkpt>
      <trkpt lat="37.818517" lon="-8.792739">
        <ele>21.865</ele>
        <time>2015-05-01T11:00:10Z</time>
      </trkpt>
      <trkpt lat="37.818437" lon="-8.792747">
        <ele>21.861</ele>
        <time>2015-05-01T11:00:18Z</time>
      </trkpt>
      <trkpt lat="37.818314" lon="-8.792738">
        <ele>22.790</ele>
        <time>2015-05-01T11:00:30Z</time>
      </trkpt>
      <trkpt lat="37.818288" lon="-8.792726">
        <ele>23.296</ele>
        <time>2015-05-01T11:00:33Z</time>
      </trkpt>
      <trkpt lat="37.818127" lon="-8.792703">
        <ele>22.753</ele>
        <time>2015-05-01T11:00:49Z</time>
      </trkpt>
      <trkpt lat="37.818068" lon="-8.792705">
        <ele>22.731</ele>
        <time>2015-05-01T11:00:55Z</time>
      </trkpt>
      <trkpt lat="37.817905" lon="-8.792755">
        <ele>23.261</ele>
        <time>2015-05-01T11:01:13Z</time>
      </trkpt>
      <trkpt lat="37.817842" lon="-8.792809">
        <ele>23.207</ele>
        <time>2015-05-01T11:01:25Z</time>
      </trkpt>
      <trkpt lat="37.817659" lon="-8.792881">
        <ele>22.707</ele>
        <time>2015-05-01T11:01:43Z</time>
      </trkpt>
      <trkpt lat="37.817500" lon="-8.792938">
        <ele>21.892</ele>
        <time>2015-05-01T11:02:00Z</time>
      </trkpt>
      <trkpt lat="37.817369" lon="-8.792952">
        <ele>22.719</ele>
        <time>2015-05-01T11:02:12Z</time>
      </trkpt>
      <trkpt lat="37.817240" lon="-8.792983">
        <ele>21.817</ele>
        <time>2015-05-01T11:02:25Z</time>
      </trkpt>
      <trkpt lat="37.817161" lon="-8.792993">
        <ele>21.393</ele>
        <time>2015-05-01T11:02:33Z</time>
      </trkpt>
      <trkpt lat="37.817106" lon="-8.793018">
        <ele>21.892</ele>
        <time>2015-05-01T11:02:39Z</time>
      </trkpt>
      <trkpt lat="37.816958" lon="-8.793044">
        <ele>21.818</ele>
        <time>2015-05-01T11:02:52Z</time>
      </trkpt>
      <trkpt lat="37.816833" lon="-8.793066">
        <ele>21.345</ele>
        <time>2015-05-01T11:03:04Z</time>
      </trkpt>
      <trkpt lat="37.816727" lon="-8.793094">
        <ele>21.358</ele>
        <time>2015-05-01T11:03:14Z</time>
      </trkpt>
      <trkpt lat="37.816624" lon="-8.793135">
        <ele>21.352</ele>
        <time>2015-05-01T11:03:22Z</time>
      </trkpt>
      <trkpt lat="37.816507" lon="-8.793159">
        <ele>21.817</ele>
        <time>2015-05-01T11:03:33Z</time>
      </trkpt>
      <trkpt lat="37.816372" lon="-8.793141">
        <ele>20.807</ele>
        <time>2015-05-01T11:03:46Z</time>
      </trkpt>
      <trkpt lat="37.816335" lon="-8.793146">
        <ele>20.874</ele>
        <time>2015-05-01T11:03:50Z</time>
      </trkpt>
      <trkpt lat="37.816224" lon="-8.793205">
        <ele>21.851</ele>
        <time>2015-05-01T11:04:01Z</time>
      </trkpt>
      <trkpt lat="37.816005" lon="-8.793171">
        <ele>22.379</ele>
        <time>2015-05-01T11:04:20Z</time>
      </trkpt>
      <trkpt lat="37.815858" lon="-8.793014">
        <ele>22.345</ele>
        <time>2015-05-01T11:04:37Z</time>
      </trkpt>
      <trkpt lat="37.815813" lon="-8.792956">
        <ele>21.894</ele>
        <time>2015-05-01T11:04:53Z</time>
      </trkpt>
      <trkpt lat="37.815759" lon="-8.792866">
        <ele>22.710</ele>
        <time>2015-05-01T11:05:21Z</time>
      </trkpt>
      <trkpt lat="37.815613" lon="-8.792742">
        <ele>22.397</ele>
        <time>2015-05-01T11:05:38Z</time>
      </trkpt>
      <trkpt lat="37.815543" lon="-8.792689">
        <ele>22.378</ele>
        <time>2015-05-01T11:05:46Z</time>
      </trkpt>
      <trkpt lat="37.815466" lon="-8.792638">
        <ele>22.733</ele>
        <time>2015-05-01T11:05:54Z</time>
      </trkpt>
      <trkpt lat="37.815438" lon="-8.792640">
        <ele>22.726</ele>
        <time>2015-05-01T11:06:07Z</time>
      </trkpt>
      <trkpt lat="37.815435" lon="-8.792635">
        <ele>23.207</ele>
        <time>2015-05-01T11:06:15Z</time>
      </trkpt>
      <trkpt lat="37.815423" lon="-8.792605">
        <ele>22.756</ele>
        <time>2015-05-01T11:06:18Z</time>
      </trkpt>
      <trkpt lat="37.815282" lon="-8.792508">
        <ele>24.223</ele>
        <time>2015-05-01T11:06:33Z</time>
      </trkpt>
      <trkpt lat="37.815117" lon="-8.792463">
        <ele>25.661</ele>
        <time>2015-05-01T11:06:49Z</time>
      </trkpt>
      <trkpt lat="37.814931" lon="-8.792561">
        <ele>25.687</ele>
        <time>2015-05-01T11:07:06Z</time>
      </trkpt>
      <trkpt lat="37.814707" lon="-8.792579">
        <ele>26.176</ele>
        <time>2015-05-01T11:07:24Z</time>
      </trkpt>
      <trkpt lat="37.814526" lon="-8.792595">
        <ele>27.562</ele>
        <time>2015-05-01T11:07:40Z</time>
      </trkpt>
      <trkpt lat="37.814517" lon="-8.792593">
        <ele>27.179</ele>
        <time>2015-05-01T11:07:41Z</time>
      </trkpt>
      <trkpt lat="37.814369" lon="-8.792667">
        <ele>27.178</ele>
        <time>2015-05-01T11:07:55Z</time>
      </trkpt>
      <trkpt lat="37.814330" lon="-8.792706">
        <ele>26.133</ele>
        <time>2015-05-01T11:07:59Z</time>
      </trkpt>
      <trkpt lat="37.814132" lon="-8.792854">
        <ele>27.126</ele>
        <time>2015-05-01T11:08:18Z</time>
      </trkpt>
      <trkpt lat="37.813968" lon="-8.792895">
        <ele>26.607</ele>
        <time>2015-05-01T11:08:33Z</time>
      </trkpt>
      <trkpt lat="37.813800" lon="-8.792924">
        <ele>27.156</ele>
        <time>2015-05-01T11:08:48Z</time>
      </trkpt>
      <trkpt lat="37.813709" lon="-8.792927">
        <ele>26.193</ele>
        <time>2015-05-01T11:08:56Z</time>
      </trkpt>
      <trkpt lat="37.813492" lon="-8.792977">
        <ele>26.671</ele>
        <time>2015-05-01T11:09:15Z</time>
      </trkpt>
      <trkpt lat="37.813311" lon="-8.793003">
        <ele>27.127</ele>
        <time>2015-05-01T11:09:31Z</time>
      </trkpt>
      <trkpt lat="37.813274" lon="-8.793002">
        <ele>27.146</ele>
        <time>2015-05-01T11:09:34Z</time>
      </trkpt>
      <trkpt lat="37.813087" lon="-8.793009">
        <ele>27.112</ele>
        <time>2015-05-01T11:09:51Z</time>
      </trkpt>
      <trkpt lat="37.813066" lon="-8.793016">
        <ele>27.159</ele>
        <time>2015-05-01T11:09:53Z</time>
      </trkpt>
      <trkpt lat="37.812952" lon="-8.793015">
        <ele>26.694</ele>
        <time>2015-05-01T11:10:03Z</time>
      </trkpt>
      <trkpt lat="37.812762" lon="-8.793020">
        <ele>27.157</ele>
        <time>2015-05-01T11:10:19Z</time>
      </trkpt>
      <trkpt lat="37.812571" lon="-8.793033">
        <ele>26.122</ele>
        <time>2015-05-01T11:10:35Z</time>
      </trkpt>
      <trkpt lat="37.812334" lon="-8.793050">
        <ele>25.107</ele>
        <time>2015-05-01T11:10:56Z</time>
      </trkpt>
      <trkpt lat="37.812143" lon="-8.793083">
        <ele>26.698</ele>
        <time>2015-05-01T11:11:13Z</time>
      </trkpt>
      <trkpt lat="37.812133" lon="-8.793086">
        <ele>26.695</ele>
        <time>2015-05-01T11:11:14Z</time>
      </trkpt>
      <trkpt lat="37.811927" lon="-8.793156">
        <ele>26.623</ele>
        <time>2015-05-01T11:11:33Z</time>
      </trkpt>
      <trkpt lat="37.811904" lon="-8.793154">
        <ele>27.119</ele>
        <time>2015-05-01T11:11:35Z</time>
      </trkpt>
      <trkpt lat="37.811733" lon="-8.793160">
        <ele>27.558</ele>
        <time>2015-05-01T11:11:50Z</time>
      </trkpt>
      <trkpt lat="37.811534" lon="-8.793205">
        <ele>29.584</ele>
        <time>2015-05-01T11:12:07Z</time>
      </trkpt>
      <trkpt lat="37.811297" lon="-8.793226">
        <ele>28.021</ele>
        <time>2015-05-01T11:12:27Z</time>
      </trkpt>
      <trkpt lat="37.811092" lon="-8.793252">
        <ele>28.022</ele>
        <time>2015-05-01T11:12:44Z</time>
      </trkpt>
      <trkpt lat="37.811000" lon="-8.793268">
        <ele>28.062</ele>
        <time>2015-05-01T11:12:52Z</time>
      </trkpt>
      <trkpt lat="37.810782" lon="-8.793328">
        <ele>27.108</ele>
        <time>2015-05-01T11:13:11Z</time>
      </trkpt>
      <trkpt lat="37.810561" lon="-8.793362">
        <ele>27.107</ele>
        <time>2015-05-01T11:13:30Z</time>
      </trkpt>
      <trkpt lat="37.810327" lon="-8.793365">
        <ele>26.671</ele>
        <time>2015-05-01T11:13:49Z</time>
      </trkpt>
      <trkpt lat="37.810132" lon="-8.793346">
        <ele>26.118</ele>
        <time>2015-05-01T11:14:06Z</time>
      </trkpt>
      <trkpt lat="37.809920" lon="-8.793337">
        <ele>26.666</ele>
        <time>2015-05-01T11:14:24Z</time>
      </trkpt>
      <trkpt lat="37.809725" lon="-8.793324">
        <ele>27.562</ele>
        <time>2015-05-01T11:14:41Z</time>
      </trkpt>
      <trkpt lat="37.809676" lon="-8.793324">
        <ele>27.521</ele>
        <time>2015-05-01T11:14:45Z</time>
      </trkpt>
      <trkpt lat="37.809468" lon="-8.793345">
        <ele>28.037</ele>
        <time>2015-05-01T11:15:02Z</time>
      </trkpt>
      <trkpt lat="37.809238" lon="-8.793352">
        <ele>26.664</ele>
        <time>2015-05-01T11:15:20Z</time>
      </trkpt>
      <trkpt lat="37.809120" lon="-8.793341">
        <ele>27.121</ele>
        <time>2015-05-01T11:15:29Z</time>
      </trkpt>
      <trkpt lat="37.808846" lon="-8.793356">
        <ele>27.141</ele>
        <time>2015-05-01T11:15:50Z</time>
      </trkpt>
      <trkpt lat="37.808628" lon="-8.793384">
        <ele>28.505</ele>
        <time>2015-05-01T11:16:07Z</time>
      </trkpt>
      <trkpt lat="37.808423" lon="-8.793386">
        <ele>28.007</ele>
        <time>2015-05-01T11:16:23Z</time>
      </trkpt>
      <trkpt lat="37.808221" lon="-8.793378">
        <ele>28.091</ele>
        <time>2015-05-01T11:16:40Z</time>
      </trkpt>
      <trkpt lat="37.807970" lon="-8.793423">
        <ele>27.188</ele>
        <time>2015-05-01T11:17:00Z</time>
      </trkpt>
      <trkpt lat="37.807763" lon="-8.793413">
        <ele>27.576</ele>
        <time>2015-05-01T11:17:17Z</time>
      </trkpt>
      <trkpt lat="37.807538" lon="-8.793451">
        <ele>27.152</ele>
        <time>2015-05-01T11:17:35Z</time>
      </trkpt>
      <trkpt lat="37.807300" lon="-8.793512">
        <ele>26.691</ele>
        <time>2015-05-01T11:17:54Z</time>
      </trkpt>
      <trkpt lat="37.807064" lon="-8.793582">
        <ele>25.667</ele>
        <time>2015-05-01T11:18:13Z</time>
      </trkpt>
      <trkpt lat="37.806934" lon="-8.793690">
        <ele>24.724</ele>
        <time>2015-05-01T11:18:27Z</time>
      </trkpt>
      <trkpt lat="37.806837" lon="-8.793819">
        <ele>21.871</ele>
        <time>2015-05-01T11:18:43Z</time>
      </trkpt>
      <trkpt lat="37.806697" lon="-8.793992">
        <ele>19.841</ele>
        <time>2015-05-01T11:18:55Z</time>
      </trkpt>
      <trkpt lat="37.806617" lon="-8.794122">
        <ele>20.315</ele>
        <time>2015-05-01T11:19:07Z</time>
      </trkpt>
      <trkpt lat="37.806530" lon="-8.794283">
        <ele>19.407</ele>
        <time>2015-05-01T11:19:18Z</time>
      </trkpt>
      <trkpt lat="37.806475" lon="-8.794446">
        <ele>17.056</ele>
        <time>2015-05-01T11:19:29Z</time>
      </trkpt>
      <trkpt lat="37.806434" lon="-8.794549">
        <ele>15.013</ele>
        <time>2015-05-01T11:19:39Z</time>
      </trkpt>
      <trkpt lat="37.806388" lon="-8.794697">
        <ele>14.161</ele>
        <time>2015-05-01T11:19:51Z</time>
      </trkpt>
      <trkpt lat="37.806342" lon="-8.794886">
        <ele>13.667</ele>
        <time>2015-05-01T11:20:03Z</time>
      </trkpt>
      <trkpt lat="37.806303" lon="-8.795081">
        <ele>14.166</ele>
        <time>2015-05-01T11:20:14Z</time>
      </trkpt>
      <trkpt lat="37.806280" lon="-8.795293">
        <ele>12.252</ele>
        <time>2015-05-01T11:20:30Z</time>
      </trkpt>
      <trkpt lat="37.806214" lon="-8.795531">
        <ele>12.279</ele>
        <time>2015-05-01T11:20:44Z</time>
      </trkpt>
      <trkpt lat="37.806166" lon="-8.795766">
        <ele>12.625</ele>
        <time>2015-05-01T11:20:58Z</time>
      </trkpt>
      <trkpt lat="37.806156" lon="-8.795988">
        <ele>12.226</ele>
        <time>2015-05-01T11:21:14Z</time>
      </trkpt>
      <trkpt lat="37.806192" lon="-8.796155">
        <ele>12.208</ele>
        <time>2015-05-01T11:21:26Z</time>
      </trkpt>
      <trkpt lat="37.806208" lon="-8.796281">
        <ele>12.207</ele>
        <time>2015-05-01T11:21:35Z</time>
      </trkpt>
      <trkpt lat="37.806176" lon="-8.796485">
        <ele>12.221</ele>
        <time>2015-05-01T11:21:49Z</time>
      </trkpt>
      <trkpt lat="37.806163" lon="-8.796542">
        <ele>12.298</ele>
        <time>2015-05-01T11:21:55Z</time>
      </trkpt>
      <trkpt lat="37.806037" lon="-8.796661">
        <ele>12.266</ele>
        <time>2015-05-01T11:22:08Z</time>
      </trkpt>
      <trkpt lat="37.806004" lon="-8.796670">
        <ele>12.262</ele>
        <time>2015-05-01T11:22:15Z</time>
      </trkpt>
      <trkpt lat="37.805972" lon="-8.796662">
        <ele>12.271</ele>
        <time>2015-05-01T11:22:20Z</time>
      </trkpt>
      <trkpt lat="37.805927" lon="-8.796718">
        <ele>13.147</ele>
        <time>2015-05-01T11:22:31Z</time>
      </trkpt>
      <trkpt lat="37.805913" lon="-8.796733">
        <ele>13.144</ele>
        <time>2015-05-01T11:22:34Z</time>
      </trkpt>
      <trkpt lat="37.805865" lon="-8.796756">
        <ele>13.665</ele>
        <time>2015-05-01T11:22:38Z</time>
      </trkpt>
      <trkpt lat="37.805842" lon="-8.796770">
        <ele>13.668</ele>
        <time>2015-05-01T11:22:40Z</time>
      </trkpt>
      <trkpt lat="37.805753" lon="-8.796764">
        <ele>15.014</ele>
        <time>2015-05-01T11:22:49Z</time>
      </trkpt>
      <trkpt lat="37.805696" lon="-8.796722">
        <ele>15.507</ele>
        <time>2015-05-01T11:22:56Z</time>
      </trkpt>
      <trkpt lat="37.805653" lon="-8.796717">
        <ele>15.515</ele>
        <time>2015-05-01T11:23:01Z</time>
      </trkpt>
      <trkpt lat="37.805528" lon="-8.796744">
        <ele>16.072</ele>
        <time>2015-05-01T11:23:15Z</time>
      </trkpt>
      <trkpt lat="37.805443" lon="-8.796779">
        <ele>17.920</ele>
        <time>2015-05-01T11:23:28Z</time>
      </trkpt>
      <trkpt lat="37.805378" lon="-8.796813">
        <ele>17.996</ele>
        <time>2015-05-01T11:23:36Z</time>
      </trkpt>
      <trkpt lat="37.805271" lon="-8.796924">
        <ele>17.065</ele>
        <time>2015-05-01T11:23:52Z</time>
      </trkpt>
      <trkpt lat="37.805231" lon="-8.796929">
        <ele>17.051</ele>
        <time>2015-05-01T11:23:56Z</time>
      </trkpt>
      <trkpt lat="37.805173" lon="-8.796948">
        <ele>17.078</ele>
        <time>2015-05-01T11:24:02Z</time>
      </trkpt>
      <trkpt lat="37.805134" lon="-8.796961">
        <ele>17.075</ele>
        <time>2015-05-01T11:24:06Z</time>
      </trkpt>
      <trkpt lat="37.805001" lon="-8.796994">
        <ele>18.928</ele>
        <time>2015-05-01T11:24:20Z</time>
      </trkpt>
      <trkpt lat="37.804927" lon="-8.797021">
        <ele>19.420</ele>
        <time>2015-05-01T11:24:28Z</time>
      </trkpt>
      <trkpt lat="37.804853" lon="-8.797045">
        <ele>20.807</ele>
        <time>2015-05-01T11:24:36Z</time>
      </trkpt>
      <trkpt lat="37.804783" lon="-8.797064">
        <ele>21.826</ele>
        <time>2015-05-01T11:24:51Z</time>
      </trkpt>
      <trkpt lat="37.804734" lon="-8.797076">
        <ele>23.223</ele>
        <time>2015-05-01T11:25:14Z</time>
      </trkpt>
      <trkpt lat="37.804690" lon="-8.797084">
        <ele>23.781</ele>
        <time>2015-05-01T11:25:19Z</time>
      </trkpt>
      <trkpt lat="37.804651" lon="-8.797102">
        <ele>24.227</ele>
        <time>2015-05-01T11:25:24Z</time>
      </trkpt>
      <trkpt lat="37.804626" lon="-8.797089">
        <ele>24.796</ele>
        <time>2015-05-01T11:25:27Z</time>
      </trkpt>
      <trkpt lat="37.804579" lon="-8.797090">
        <ele>24.752</ele>
        <time>2015-05-01T11:25:32Z</time>
      </trkpt>
      <trkpt lat="37.804555" lon="-8.797084">
        <ele>24.789</ele>
        <time>2015-05-01T11:25:35Z</time>
      </trkpt>
      <trkpt lat="37.804394" lon="-8.797047">
        <ele>25.655</ele>
        <time>2015-05-01T11:25:52Z</time>
      </trkpt>
      <trkpt lat="37.804268" lon="-8.796972">
        <ele>25.107</ele>
        <time>2015-05-01T11:26:05Z</time>
      </trkpt>
      <trkpt lat="37.804195" lon="-8.796972">
        <ele>25.617</ele>
        <time>2015-05-01T11:26:14Z</time>
      </trkpt>
      <trkpt lat="37.804076" lon="-8.797022">
        <ele>26.107</ele>
        <time>2015-05-01T11:26:28Z</time>
      </trkpt>
      <trkpt lat="37.803915" lon="-8.797095">
        <ele>24.724</ele>
        <time>2015-05-01T11:26:44Z</time>
      </trkpt>
      <trkpt lat="37.803735" lon="-8.797154">
        <ele>25.671</ele>
        <time>2015-05-01T11:27:00Z</time>
      </trkpt>
      <trkpt lat="37.803578" lon="-8.797185">
        <ele>27.159</ele>
        <time>2015-05-01T11:27:15Z</time>
      </trkpt>
      <trkpt lat="37.803411" lon="-8.797242">
        <ele>27.525</ele>
        <time>2015-05-01T11:27:31Z</time>
      </trkpt>
      <trkpt lat="37.803268" lon="-8.797281">
        <ele>27.184</ele>
        <time>2015-05-01T11:27:45Z</time>
      </trkpt>
      <trkpt lat="37.803067" lon="-8.797402">
        <ele>27.580</ele>
        <time>2015-05-01T11:28:04Z</time>
      </trkpt>
      <trkpt lat="37.802853" lon="-8.797463">
        <ele>29.567</ele>
        <time>2015-05-01T11:28:23Z</time>
      </trkpt>
      <trkpt lat="37.802832" lon="-8.797465">
        <ele>29.925</ele>
        <time>2015-05-01T11:28:25Z</time>
      </trkpt>
      <trkpt lat="37.802738" lon="-8.797537">
        <ele>30.926</ele>
        <time>2015-05-01T11:28:35Z</time>
      </trkpt>
      <trkpt lat="37.802601" lon="-8.797562">
        <ele>32.308</ele>
        <time>2015-05-01T11:28:47Z</time>
      </trkpt>
      <trkpt lat="37.802525" lon="-8.797599">
        <ele>32.807</ele>
        <time>2015-05-01T11:28:54Z</time>
      </trkpt>
      <trkpt lat="37.802465" lon="-8.797604">
        <ele>33.371</ele>
        <time>2015-05-01T11:29:00Z</time>
      </trkpt>
      <trkpt lat="37.802404" lon="-8.797643">
        <ele>33.898</ele>
        <time>2015-05-01T11:29:06Z</time>
      </trkpt>
      <trkpt lat="37.802225" lon="-8.797725">
        <ele>35.276</ele>
        <time>2015-05-01T11:29:24Z</time>
      </trkpt>
      <trkpt lat="37.802064" lon="-8.797795">
        <ele>36.762</ele>
        <time>2015-05-01T11:29:40Z</time>
      </trkpt>
      <trkpt lat="37.801976" lon="-8.797807">
        <ele>37.221</ele>
        <time>2015-05-01T11:29:48Z</time>
      </trkpt>
      <trkpt lat="37.801804" lon="-8.797847">
        <ele>38.677</ele>
        <time>2015-05-01T11:30:05Z</time>
      </trkpt>
      <trkpt lat="37.801754" lon="-8.797874">
        <ele>38.144</ele>
        <time>2015-05-01T11:30:10Z</time>
      </trkpt>
      <trkpt lat="37.801561" lon="-8.797920">
        <ele>36.745</ele>
        <time>2015-05-01T11:30:30Z</time>
      </trkpt>
      <trkpt lat="37.801546" lon="-8.797923">
        <ele>36.747</ele>
        <time>2015-05-01T11:30:32Z</time>
      </trkpt>
      <trkpt lat="37.801504" lon="-8.797936">
        <ele>36.711</ele>
        <time>2015-05-01T11:30:36Z</time>
      </trkpt>
      <trkpt lat="37.801292" lon="-8.798041">
        <ele>35.207</ele>
        <time>2015-05-01T11:30:56Z</time>
      </trkpt>
      <trkpt lat="37.801212" lon="-8.798107">
        <ele>34.323</ele>
        <time>2015-05-01T11:31:06Z</time>
      </trkpt>
      <trkpt lat="37.801167" lon="-8.798105">
        <ele>33.880</ele>
        <time>2015-05-01T11:31:10Z</time>
      </trkpt>
      <trkpt lat="37.800980" lon="-8.798144">
        <ele>33.878</ele>
        <time>2015-05-01T11:31:27Z</time>
      </trkpt>
      <trkpt lat="37.800785" lon="-8.798251">
        <ele>33.854</ele>
        <time>2015-05-01T11:31:44Z</time>
      </trkpt>
      <trkpt lat="37.800597" lon="-8.798359">
        <ele>35.283</ele>
        <time>2015-05-01T11:32:02Z</time>
      </trkpt>
      <trkpt lat="37.800495" lon="-8.798384">
        <ele>35.789</ele>
        <time>2015-05-01T11:32:11Z</time>
      </trkpt>
      <trkpt lat="37.800453" lon="-8.798217">
        <ele>33.356</ele>
        <time>2015-05-01T11:32:25Z</time>
      </trkpt>
      <trkpt lat="37.800463" lon="-8.797986">
        <ele>32.325</ele>
        <time>2015-05-01T11:32:42Z</time>
      </trkpt>
      <trkpt lat="37.800608" lon="-8.797833">
        <ele>31.926</ele>
        <time>2015-05-01T11:33:01Z</time>
      </trkpt>
      <trkpt lat="37.800638" lon="-8.797784">
        <ele>32.308</ele>
        <time>2015-05-01T11:33:07Z</time>
      </trkpt>
      <trkpt lat="37.800635" lon="-8.797546">
        <ele>31.907</ele>
        <time>2015-05-01T11:33:25Z</time>
      </trkpt>
      <trkpt lat="37.800474" lon="-8.797485">
        <ele>32.351</ele>
        <time>2015-05-01T11:33:40Z</time>
      </trkpt>
      <trkpt lat="37.800356" lon="-8.797412">
        <ele>32.338</ele>
        <time>2015-05-01T11:33:54Z</time>
      </trkpt>
      <trkpt lat="37.800154" lon="-8.797291">
        <ele>32.866</ele>
        <time>2015-05-01T11:34:15Z</time>
      </trkpt>
      <trkpt lat="37.799903" lon="-8.797224">
        <ele>34.372</ele>
        <time>2015-05-01T11:34:35Z</time>
      </trkpt>
      <trkpt lat="37.799703" lon="-8.797081">
        <ele>35.251</ele>
        <time>2015-05-01T11:34:55Z</time>
      </trkpt>
      <trkpt lat="37.799548" lon="-8.796927">
        <ele>33.847</ele>
        <time>2015-05-01T11:35:11Z</time>
      </trkpt>
      <trkpt lat="37.799332" lon="-8.796744">
        <ele>35.784</ele>
        <time>2015-05-01T11:35:33Z</time>
      </trkpt>
      <trkpt lat="37.799100" lon="-8.796600">
        <ele>36.299</ele>
        <time>2015-05-01T11:35:54Z</time>
      </trkpt>
      <trkpt lat="37.799068" lon="-8.796570">
        <ele>35.707</ele>
        <time>2015-05-01T11:35:58Z</time>
      </trkpt>
      <trkpt lat="37.798913" lon="-8.796457">
        <ele>32.327</ele>
        <time>2015-05-01T11:36:14Z</time>
      </trkpt>
      <trkpt lat="37.798696" lon="-8.796275">
        <ele>31.407</ele>
        <time>2015-05-01T11:36:35Z</time>
      </trkpt>
      <trkpt lat="37.798574" lon="-8.796178">
        <ele>30.978</ele>
        <time>2015-05-01T11:36:48Z</time>
      </trkpt>
      <trkpt lat="37.798385" lon="-8.796047">
        <ele>29.575</ele>
        <time>2015-05-01T11:37:07Z</time>
      </trkpt>
      <trkpt lat="37.798181" lon="-8.795876">
        <ele>29.083</ele>
        <time>2015-05-01T11:37:27Z</time>
      </trkpt>
      <trkpt lat="37.798012" lon="-8.795719">
        <ele>28.599</ele>
        <time>2015-05-01T11:37:46Z</time>
      </trkpt>
      <trkpt lat="37.797820" lon="-8.795525">
        <ele>28.038</ele>
        <time>2015-05-01T11:38:06Z</time>
      </trkpt>
      <trkpt lat="37.797790" lon="-8.795508">
        <ele>27.564</ele>
        <time>2015-05-01T11:38:09Z</time>
      </trkpt>
      <trkpt lat="37.797596" lon="-8.795432">
        <ele>26.681</ele>
        <time>2015-05-01T11:38:28Z</time>
      </trkpt>
      <trkpt lat="37.797431" lon="-8.795334">
        <ele>26.639</ele>
        <time>2015-05-01T11:38:45Z</time>
      </trkpt>
      <trkpt lat="37.797411" lon="-8.795335">
        <ele>29.001</ele>
        <time>2015-05-01T11:39:01Z</time>
      </trkpt>
      <trkpt lat="37.797384" lon="-8.795305">
        <ele>27.121</ele>
        <time>2015-05-01T11:39:24Z</time>
      </trkpt>
      <trkpt lat="37.797202" lon="-8.795219">
        <ele>26.107</ele>
        <time>2015-05-01T11:39:43Z</time>
      </trkpt>
      <trkpt lat="37.797016" lon="-8.795151">
        <ele>26.142</ele>
        <time>2015-05-01T11:40:01Z</time>
      </trkpt>
      <trkpt lat="37.796813" lon="-8.795076">
        <ele>26.139</ele>
        <time>2015-05-01T11:40:20Z</time>
      </trkpt>
      <trkpt lat="37.796583" lon="-8.795010">
        <ele>25.617</ele>
        <time>2015-05-01T11:40:40Z</time>
      </trkpt>
      <trkpt lat="37.796538" lon="-8.794984">
        <ele>25.643</ele>
        <time>2015-05-01T11:40:44Z</time>
      </trkpt>
      <trkpt lat="37.796324" lon="-8.794892">
        <ele>24.792</ele>
        <time>2015-05-01T11:41:03Z</time>
      </trkpt>
      <trkpt lat="37.796089" lon="-8.794812">
        <ele>25.628</ele>
        <time>2015-05-01T11:41:22Z</time>
      </trkpt>
      <trkpt lat="37.795887" lon="-8.794850">
        <ele>25.135</ele>
        <time>2015-05-01T11:41:39Z</time>
      </trkpt>
      <trkpt lat="37.795809" lon="-8.794884">
        <ele>26.686</ele>
        <time>2015-05-01T11:41:53Z</time>
      </trkpt>
      <trkpt lat="37.795669" lon="-8.794871">
        <ele>25.160</ele>
        <time>2015-05-01T11:42:09Z</time>
      </trkpt>
      <trkpt lat="37.795494" lon="-8.794866">
        <ele>22.726</ele>
        <time>2015-05-01T11:42:24Z</time>
      </trkpt>
      <trkpt lat="37.795472" lon="-8.794872">
        <ele>22.707</ele>
        <time>2015-05-01T11:42:26Z</time>
      </trkpt>
      <trkpt lat="37.795229" lon="-8.794873">
        <ele>21.397</ele>
        <time>2015-05-01T11:42:44Z</time>
      </trkpt>
      <trkpt lat="37.795032" lon="-8.794910">
        <ele>19.884</ele>
        <time>2015-05-01T11:43:00Z</time>
      </trkpt>
      <trkpt lat="37.794871" lon="-8.794929">
        <ele>21.382</ele>
        <time>2015-05-01T11:43:14Z</time>
      </trkpt>
      <trkpt lat="37.794819" lon="-8.794919">
        <ele>21.888</ele>
        <time>2015-05-01T11:43:18Z</time>
      </trkpt>
      <trkpt lat="37.794570" lon="-8.794919">
        <ele>24.237</ele>
        <time>2015-05-01T11:43:37Z</time>
      </trkpt>
      <trkpt lat="37.794312" lon="-8.794942">
        <ele>27.593</ele>
        <time>2015-05-01T11:43:56Z</time>
      </trkpt>
      <trkpt lat="37.794290" lon="-8.794947">
        <ele>27.580</ele>
        <time>2015-05-01T11:43:58Z</time>
      </trkpt>
      <trkpt lat="37.794068" lon="-8.794948">
        <ele>27.537</ele>
        <time>2015-05-01T11:44:16Z</time>
      </trkpt>
      <trkpt lat="37.793861" lon="-8.794923">
        <ele>27.149</ele>
        <time>2015-05-01T11:44:32Z</time>
      </trkpt>
      <trkpt lat="37.793615" lon="-8.794878">
        <ele>25.113</ele>
        <time>2015-05-01T11:44:53Z</time>
      </trkpt>
      <trkpt lat="37.793347" lon="-8.794870">
        <ele>23.707</ele>
        <time>2015-05-01T11:45:12Z</time>
      </trkpt>
      <trkpt lat="37.793056" lon="-8.794886">
        <ele>24.252</ele>
        <time>2015-05-01T11:45:34Z</time>
      </trkpt>
      <trkpt lat="37.792849" lon="-8.794891">
        <ele>25.659</ele>
        <time>2015-05-01T11:45:50Z</time>
      </trkpt>
      <trkpt lat="37.792629" lon="-8.794858">
        <ele>24.757</ele>
        <time>2015-05-01T11:46:09Z</time>
      </trkpt>
      <trkpt lat="37.792415" lon="-8.794850">
        <ele>27.153</ele>
        <time>2015-05-01T11:46:28Z</time>
      </trkpt>
      <trkpt lat="37.792231" lon="-8.794947">
        <ele>28.092</ele>
        <time>2015-05-01T11:46:45Z</time>
      </trkpt>
      <trkpt lat="37.792047" lon="-8.794986">
        <ele>30.478</ele>
        <time>2015-05-01T11:47:00Z</time>
      </trkpt>
      <trkpt lat="37.792011" lon="-8.794991">
        <ele>30.935</ele>
        <time>2015-05-01T11:47:03Z</time>
      </trkpt>
      <trkpt lat="37.791770" lon="-8.795073">
        <ele>32.845</ele>
        <time>2015-05-01T11:47:23Z</time>
      </trkpt>
      <trkpt lat="37.791718" lon="-8.795085">
        <ele>32.847</ele>
        <time>2015-05-01T11:47:28Z</time>
      </trkpt>
      <trkpt lat="37.791518" lon="-8.795201">
        <ele>32.811</ele>
        <time>2015-05-01T11:47:47Z</time>
      </trkpt>
      <trkpt lat="37.791325" lon="-8.795363">
        <ele>32.307</ele>
        <time>2015-05-01T11:48:05Z</time>
      </trkpt>
      <trkpt lat="37.791145" lon="-8.795557">
        <ele>30.913</ele>
        <time>2015-05-01T11:48:25Z</time>
      </trkpt>
      <trkpt lat="37.791016" lon="-8.795729">
        <ele>31.490</ele>
        <time>2015-05-01T11:48:42Z</time>
      </trkpt>
      <trkpt lat="37.790900" lon="-8.795917">
        <ele>32.328</ele>
        <time>2015-05-01T11:48:59Z</time>
      </trkpt>
      <trkpt lat="37.790834" lon="-8.796017">
        <ele>36.784</ele>
        <time>2015-05-01T11:49:17Z</time>
      </trkpt>
      <trkpt lat="37.790809" lon="-8.796080">
        <ele>36.763</ele>
        <time>2015-05-01T11:49:22Z</time>
      </trkpt>
      <trkpt lat="37.790712" lon="-8.796276">
        <ele>39.649</ele>
        <time>2015-05-01T11:49:39Z</time>
      </trkpt>
      <trkpt lat="37.790578" lon="-8.796542">
        <ele>39.116</ele>
        <time>2015-05-01T11:49:59Z</time>
      </trkpt>
      <trkpt lat="37.790446" lon="-8.796747">
        <ele>38.679</ele>
        <time>2015-05-01T11:50:14Z</time>
      </trkpt>
      <trkpt lat="37.790391" lon="-8.796835">
        <ele>36.705</ele>
        <time>2015-05-01T11:50:29Z</time>
      </trkpt>
      <trkpt lat="37.790254" lon="-8.797042">
        <ele>36.725</ele>
        <time>2015-05-01T11:50:45Z</time>
      </trkpt>
      <trkpt lat="37.790129" lon="-8.797250">
        <ele>35.707</ele>
        <time>2015-05-01T11:51:00Z</time>
      </trkpt>
      <trkpt lat="37.789937" lon="-8.797540">
        <ele>35.796</ele>
        <time>2015-05-01T11:51:23Z</time>
      </trkpt>
      <trkpt lat="37.789803" lon="-8.797745">
        <ele>33.393</ele>
        <time>2015-05-01T11:51:41Z</time>
      </trkpt>
      <trkpt lat="37.789705" lon="-8.797871">
        <ele>29.981</ele>
        <time>2015-05-01T11:51:57Z</time>
      </trkpt>
      <trkpt lat="37.789496" lon="-8.798018">
        <ele>30.447</ele>
        <time>2015-05-01T11:52:10Z</time>
      </trkpt>
      <trkpt lat="37.789342" lon="-8.798054">
        <ele>27.566</ele>
        <time>2015-05-01T11:52:26Z</time>
      </trkpt>
      <trkpt lat="37.789154" lon="-8.798061">
        <ele>26.652</ele>
        <time>2015-05-01T11:52:40Z</time>
      </trkpt>
      <trkpt lat="37.789079" lon="-8.798097">
        <ele>28.049</ele>
        <time>2015-05-01T11:52:54Z</time>
      </trkpt>
      <trkpt lat="37.789053" lon="-8.798117">
        <ele>28.069</ele>
        <time>2015-05-01T11:53:10Z</time>
      </trkpt>
      <trkpt lat="37.789018" lon="-8.798072">
        <ele>28.004</ele>
        <time>2015-05-01T11:53:19Z</time>
      </trkpt>
      <trkpt lat="37.788930" lon="-8.798033">
        <ele>29.524</ele>
        <time>2015-05-01T11:53:31Z</time>
      </trkpt>
      <trkpt lat="37.788773" lon="-8.797967">
        <ele>30.407</ele>
        <time>2015-05-01T11:53:47Z</time>
      </trkpt>
      <trkpt lat="37.788612" lon="-8.797885">
        <ele>31.495</ele>
        <time>2015-05-01T11:54:04Z</time>
      </trkpt>
      <trkpt lat="37.788514" lon="-8.797851">
        <ele>31.452</ele>
        <time>2015-05-01T11:54:18Z</time>
      </trkpt>
      <trkpt lat="37.788318" lon="-8.797758">
        <ele>30.910</ele>
        <time>2015-05-01T11:54:34Z</time>
      </trkpt>
      <trkpt lat="37.788133" lon="-8.797663">
        <ele>30.976</ele>
        <time>2015-05-01T11:54:50Z</time>
      </trkpt>
      <trkpt lat="37.787964" lon="-8.797598">
        <ele>30.925</ele>
        <time>2015-05-01T11:55:06Z</time>
      </trkpt>
      <trkpt lat="37.787782" lon="-8.797498">
        <ele>31.911</ele>
        <time>2015-05-01T11:55:24Z</time>
      </trkpt>
      <trkpt lat="37.787704" lon="-8.797465">
        <ele>31.458</ele>
        <time>2015-05-01T11:55:38Z</time>
      </trkpt>
      <trkpt lat="37.787551" lon="-8.797397">
        <ele>31.926</ele>
        <time>2015-05-01T11:55:54Z</time>
      </trkpt>
      <trkpt lat="37.787346" lon="-8.797340">
        <ele>31.947</ele>
        <time>2015-05-01T11:56:12Z</time>
      </trkpt>
      <trkpt lat="37.787179" lon="-8.797267">
        <ele>29.911</ele>
        <time>2015-05-01T11:56:28Z</time>
      </trkpt>
      <trkpt lat="37.787040" lon="-8.797217">
        <ele>31.907</ele>
        <time>2015-05-01T11:56:42Z</time>
      </trkpt>
      <trkpt lat="37.786858" lon="-8.797196">
        <ele>33.361</ele>
        <time>2015-05-01T11:57:00Z</time>
      </trkpt>
      <trkpt lat="37.786751" lon="-8.797206">
        <ele>35.278</ele>
        <time>2015-05-01T11:57:09Z</time>
      </trkpt>
      <trkpt lat="37.786536" lon="-8.797240">
        <ele>38.196</ele>
        <time>2015-05-01T11:57:26Z</time>
      </trkpt>
      <trkpt lat="37.786301" lon="-8.797238">
        <ele>39.662</ele>
        <time>2015-05-01T11:57:45Z</time>
      </trkpt>
      <trkpt lat="37.786058" lon="-8.797257">
        <ele>38.651</ele>
        <time>2015-05-01T11:58:05Z</time>
      </trkpt>
      <trkpt lat="37.785839" lon="-8.797315">
        <ele>37.227</ele>
        <time>2015-05-01T11:58:23Z</time>
      </trkpt>
      <trkpt lat="37.785592" lon="-8.797463">
        <ele>36.284</ele>
        <time>2015-05-01T11:58:44Z</time>
      </trkpt>
      <trkpt lat="37.785384" lon="-8.797632">
        <ele>33.857</ele>
        <time>2015-05-01T11:59:03Z</time>
      </trkpt>
      <trkpt lat="37.785227" lon="-8.797775">
        <ele>32.300</ele>
        <time>2015-05-01T11:59:19Z</time>
      </trkpt>
      <trkpt lat="37.785076" lon="-8.797936">
        <ele>32.820</ele>
        <time>2015-05-01T11:59:36Z</time>
      </trkpt>
      <trkpt lat="37.784898" lon="-8.798134">
        <ele>32.307</ele>
        <time>2015-05-01T11:59:55Z</time>
      </trkpt>
      <trkpt lat="37.784686" lon="-8.798344">
        <ele>30.944</ele>
        <time>2015-05-01T12:00:16Z</time>
      </trkpt>
      <trkpt lat="37.784537" lon="-8.798445">
        <ele>29.931</ele>
        <time>2015-05-01T12:00:29Z</time>
      </trkpt>
      <trkpt lat="37.784300" lon="-8.798616">
        <ele>29.989</ele>
        <time>2015-05-01T12:00:50Z</time>
      </trkpt>
      <trkpt lat="37.784064" lon="-8.798796">
        <ele>30.465</ele>
        <time>2015-05-01T12:01:11Z</time>
      </trkpt>
      <trkpt lat="37.783835" lon="-8.798971">
        <ele>28.514</ele>
        <time>2015-05-01T12:01:31Z</time>
      </trkpt>
      <trkpt lat="37.783642" lon="-8.799151">
        <ele>29.010</ele>
        <time>2015-05-01T12:01:50Z</time>
      </trkpt>
      <trkpt lat="37.783397" lon="-8.799307">
        <ele>29.577</ele>
        <time>2015-05-01T12:02:11Z</time>
      </trkpt>
      <trkpt lat="37.783153" lon="-8.799463">
        <ele>29.964</ele>
        <time>2015-05-01T12:02:31Z</time>
      </trkpt>
      <trkpt lat="37.783090" lon="-8.799519">
        <ele>29.506</ele>
        <time>2015-05-01T12:02:39Z</time>
      </trkpt>
      <trkpt lat="37.783065" lon="-8.799518">
        <ele>29.516</ele>
        <time>2015-05-01T12:02:42Z</time>
      </trkpt>
      <trkpt lat="37.783012" lon="-8.799573">
        <ele>29.907</ele>
        <time>2015-05-01T12:02:48Z</time>
      </trkpt>
      <trkpt lat="37.782762" lon="-8.799664">
        <ele>30.485</ele>
        <time>2015-05-01T12:03:09Z</time>
      </trkpt>
      <trkpt lat="37.782519" lon="-8.799679">
        <ele>31.442</ele>
        <time>2015-05-01T12:03:28Z</time>
      </trkpt>
      <trkpt lat="37.782326" lon="-8.799755">
        <ele>30.980</ele>
        <time>2015-05-01T12:03:46Z</time>
      </trkpt>
      <trkpt lat="37.782158" lon="-8.799889">
        <ele>30.936</ele>
        <time>2015-05-01T12:03:59Z</time>
      </trkpt>
      <trkpt lat="37.782056" lon="-8.800040">
        <ele>30.495</ele>
        <time>2015-05-01T12:04:12Z</time>
      </trkpt>
      <trkpt lat="37.781978" lon="-8.800171">
        <ele>30.421</ele>
        <time>2015-05-01T12:04:24Z</time>
      </trkpt>
      <trkpt lat="37.781886" lon="-8.800354">
        <ele>30.438</ele>
        <time>2015-05-01T12:04:38Z</time>
      </trkpt>
      <trkpt lat="37.781856" lon="-8.800505">
        <ele>28.574</ele>
        <time>2015-05-01T12:04:51Z</time>
      </trkpt>
      <trkpt lat="37.781851" lon="-8.800572">
        <ele>27.556</ele>
        <time>2015-05-01T12:04:57Z</time>
      </trkpt>
      <trkpt lat="37.781823" lon="-8.800656">
        <ele>26.121</ele>
        <time>2015-05-01T12:05:02Z</time>
      </trkpt>
      <trkpt lat="37.781638" lon="-8.800755">
        <ele>26.107</ele>
        <time>2015-05-01T12:05:17Z</time>
      </trkpt>
      <trkpt lat="37.781608" lon="-8.800757">
        <ele>26.126</ele>
        <time>2015-05-01T12:05:20Z</time>
      </trkpt>
      <trkpt lat="37.781551" lon="-8.800771">
        <ele>27.183</ele>
        <time>2015-05-01T12:05:25Z</time>
      </trkpt>
      <trkpt lat="37.781323" lon="-8.800822">
        <ele>27.521</ele>
        <time>2015-05-01T12:05:44Z</time>
      </trkpt>
      <trkpt lat="37.781058" lon="-8.800826">
        <ele>31.457</ele>
        <time>2015-05-01T12:06:05Z</time>
      </trkpt>
      <trkpt lat="37.780775" lon="-8.800845">
        <ele>32.856</ele>
        <time>2015-05-01T12:06:27Z</time>
      </trkpt>
      <trkpt lat="37.780509" lon="-8.800871">
        <ele>34.332</ele>
        <time>2015-05-01T12:06:48Z</time>
      </trkpt>
      <trkpt lat="37.780324" lon="-8.800875">
        <ele>33.379</ele>
        <time>2015-05-01T12:07:03Z</time>
      </trkpt>
      <trkpt lat="37.780175" lon="-8.800888">
        <ele>32.863</ele>
        <time>2015-05-01T12:07:17Z</time>
      </trkpt>
      <trkpt lat="37.780000" lon="-8.800897">
        <ele>33.344</ele>
        <time>2015-05-01T12:07:31Z</time>
      </trkpt>
      <trkpt lat="37.779871" lon="-8.800902">
        <ele>33.818</ele>
        <time>2015-05-01T12:07:42Z</time>
      </trkpt>
      <trkpt lat="37.779741" lon="-8.800908">
        <ele>34.307</ele>
        <time>2015-05-01T12:07:52Z</time>
      </trkpt>
      <trkpt lat="37.779625" lon="-8.800951">
        <ele>35.745</ele>
        <time>2015-05-01T12:08:03Z</time>
      </trkpt>
      <trkpt lat="37.779532" lon="-8.801022">
        <ele>36.782</ele>
        <time>2015-05-01T12:08:13Z</time>
      </trkpt>
      <trkpt lat="37.779450" lon="-8.801159">
        <ele>37.290</ele>
        <time>2015-05-01T12:08:24Z</time>
      </trkpt>
      <trkpt lat="37.779386" lon="-8.801330">
        <ele>36.746</ele>
        <time>2015-05-01T12:08:38Z</time>
      </trkpt>
      <trkpt lat="37.779389" lon="-8.801358">
        <ele>36.725</ele>
        <time>2015-05-01T12:08:51Z</time>
      </trkpt>
      <trkpt lat="37.779380" lon="-8.801379">
        <ele>36.771</ele>
        <time>2015-05-01T12:09:10Z</time>
      </trkpt>
      <trkpt lat="37.779388" lon="-8.801367">
        <ele>36.288</ele>
        <time>2015-05-01T12:09:30Z</time>
      </trkpt>
      <trkpt lat="37.779379" lon="-8.801356">
        <ele>36.266</ele>
        <time>2015-05-01T12:09:44Z</time>
      </trkpt>
      <trkpt lat="37.779381" lon="-8.801351">
        <ele>35.229</ele>
        <time>2015-05-01T12:10:02Z</time>
      </trkpt>
      <trkpt lat="37.779375" lon="-8.801370">
        <ele>35.221</ele>
        <time>2015-05-01T12:10:20Z</time>
      </trkpt>
      <trkpt lat="37.779375" lon="-8.801353">
        <ele>35.207</ele>
        <time>2015-05-01T12:10:39Z</time>
      </trkpt>
      <trkpt lat="37.779363" lon="-8.801346">
        <ele>35.745</ele>
        <time>2015-05-01T12:10:54Z</time>
      </trkpt>
      <trkpt lat="37.779338" lon="-8.801330">
        <ele>35.232</ele>
        <time>2015-05-01T12:11:10Z</time>
      </trkpt>
      <trkpt lat="37.779315" lon="-8.801306">
        <ele>34.770</ele>
        <time>2015-05-01T12:11:29Z</time>
      </trkpt>
      <trkpt lat="37.779305" lon="-8.801315">
        <ele>35.786</ele>
        <time>2015-05-01T12:11:50Z</time>
      </trkpt>
      <trkpt lat="37.779305" lon="-8.801271">
        <ele>36.245</ele>
        <time>2015-05-01T12:12:11Z</time>
      </trkpt>
      <trkpt lat="37.779299" lon="-8.801262">
        <ele>36.791</ele>
        <time>2015-05-01T12:12:12Z</time>
      </trkpt>
      <trkpt lat="37.779151" lon="-8.801141">
        <ele>36.718</ele>
        <time>2015-05-01T12:12:29Z</time>
      </trkpt>
      <trkpt lat="37.779021" lon="-8.801084">
        <ele>37.231</ele>
        <time>2015-05-01T12:12:42Z</time>
      </trkpt>
      <trkpt lat="37.778873" lon="-8.801133">
        <ele>36.761</ele>
        <time>2015-05-01T12:12:56Z</time>
      </trkpt>
      <trkpt lat="37.778677" lon="-8.801203">
        <ele>38.607</ele>
        <time>2015-05-01T12:13:14Z</time>
      </trkpt>
      <trkpt lat="37.778485" lon="-8.801276">
        <ele>38.107</ele>
        <time>2015-05-01T12:13:32Z</time>
      </trkpt>
      <trkpt lat="37.778364" lon="-8.801319">
        <ele>38.612</ele>
        <time>2015-05-01T12:13:43Z</time>
      </trkpt>
      <trkpt lat="37.778205" lon="-8.801340">
        <ele>38.119</ele>
        <time>2015-05-01T12:13:56Z</time>
      </trkpt>
      <trkpt lat="37.778041" lon="-8.801301">
        <ele>37.677</ele>
        <time>2015-05-01T12:14:10Z</time>
      </trkpt>
      <trkpt lat="37.777922" lon="-8.801284">
        <ele>37.263</ele>
        <time>2015-05-01T12:14:21Z</time>
      </trkpt>
      <trkpt lat="37.777773" lon="-8.801342">
        <ele>36.732</ele>
        <time>2015-05-01T12:14:34Z</time>
      </trkpt>
      <trkpt lat="37.777634" lon="-8.801446">
        <ele>38.198</ele>
        <time>2015-05-01T12:14:47Z</time>
      </trkpt>
      <trkpt lat="37.777570" lon="-8.801490">
        <ele>38.635</ele>
        <time>2015-05-01T12:14:54Z</time>
      </trkpt>
      <trkpt lat="37.777477" lon="-8.801615">
        <ele>39.624</ele>
        <time>2015-05-01T12:15:07Z</time>
      </trkpt>
      <trkpt lat="37.777514" lon="-8.801789">
        <ele>39.104</ele>
        <time>2015-05-01T12:15:19Z</time>
      </trkpt>
      <trkpt lat="37.777631" lon="-8.801907">
        <ele>38.614</ele>
        <time>2015-05-01T12:15:32Z</time>
      </trkpt>
      <trkpt lat="37.777659" lon="-8.802024">
        <ele>38.107</ele>
        <time>2015-05-01T12:15:49Z</time>
      </trkpt>
      <trkpt lat="37.777659" lon="-8.802048">
        <ele>38.141</ele>
        <time>2015-05-01T12:15:52Z</time>
      </trkpt>
      <trkpt lat="37.777637" lon="-8.802136">
        <ele>37.648</ele>
        <time>2015-05-01T12:16:00Z</time>
      </trkpt>
      <trkpt lat="37.777575" lon="-8.802253">
        <ele>36.746</ele>
        <time>2015-05-01T12:16:14Z</time>
      </trkpt>
      <trkpt lat="37.777498" lon="-8.802477">
        <ele>37.252</ele>
        <time>2015-05-01T12:16:33Z</time>
      </trkpt>
      <trkpt lat="37.777449" lon="-8.802613">
        <ele>38.151</ele>
        <time>2015-05-01T12:16:48Z</time>
      </trkpt>
      <trkpt lat="37.777434" lon="-8.802639">
        <ele>39.187</ele>
        <time>2015-05-01T12:17:06Z</time>
      </trkpt>
      <trkpt lat="37.777428" lon="-8.802719">
        <ele>40.514</ele>
        <time>2015-05-01T12:17:22Z</time>
      </trkpt>
      <trkpt lat="37.777415" lon="-8.802836">
        <ele>41.585</ele>
        <time>2015-05-01T12:17:36Z</time>
      </trkpt>
      <trkpt lat="37.777391" lon="-8.802896">
        <ele>42.089</ele>
        <time>2015-05-01T12:17:44Z</time>
      </trkpt>
      <trkpt lat="37.777382" lon="-8.802963">
        <ele>42.017</ele>
        <time>2015-05-01T12:17:49Z</time>
      </trkpt>
      <trkpt lat="37.777323" lon="-8.803153">
        <ele>41.507</ele>
        <time>2015-05-01T12:18:06Z</time>
      </trkpt>
      <trkpt lat="37.777310" lon="-8.803193">
        <ele>39.667</ele>
        <time>2015-05-01T12:18:20Z</time>
      </trkpt>
      <trkpt lat="37.777316" lon="-8.803180">
        <ele>38.634</ele>
        <time>2015-05-01T12:18:36Z</time>
      </trkpt>
      <trkpt lat="37.777310" lon="-8.803196">
        <ele>40.062</ele>
        <time>2015-05-01T12:18:54Z</time>
      </trkpt>
      <trkpt lat="37.777300" lon="-8.803207">
        <ele>40.058</ele>
        <time>2015-05-01T12:18:56Z</time>
      </trkpt>
      <trkpt lat="37.777283" lon="-8.803270">
        <ele>39.197</ele>
        <time>2015-05-01T12:19:07Z</time>
      </trkpt>
      <trkpt lat="37.777237" lon="-8.803456">
        <ele>37.673</ele>
        <time>2015-05-01T12:19:22Z</time>
      </trkpt>
      <trkpt lat="37.777240" lon="-8.803535">
        <ele>37.270</ele>
        <time>2015-05-01T12:19:28Z</time>
      </trkpt>
      <trkpt lat="37.777179" lon="-8.803705">
        <ele>34.371</ele>
        <time>2015-05-01T12:19:44Z</time>
      </trkpt>
      <trkpt lat="37.777141" lon="-8.803840">
        <ele>33.841</ele>
        <time>2015-05-01T12:19:55Z</time>
      </trkpt>
      <trkpt lat="37.777088" lon="-8.804044">
        <ele>32.815</ele>
        <time>2015-05-01T12:20:12Z</time>
      </trkpt>
      <trkpt lat="37.777063" lon="-8.804078">
        <ele>33.307</ele>
        <time>2015-05-01T12:20:19Z</time>
      </trkpt>
      <trkpt lat="37.776954" lon="-8.804193">
        <ele>31.946</ele>
        <time>2015-05-01T12:20:35Z</time>
      </trkpt>
      <trkpt lat="37.776887" lon="-8.804285">
        <ele>30.453</ele>
        <time>2015-05-01T12:20:51Z</time>
      </trkpt>
      <trkpt lat="37.776775" lon="-8.804421">
        <ele>29.091</ele>
        <time>2015-05-01T12:21:05Z</time>
      </trkpt>
      <trkpt lat="37.776698" lon="-8.804506">
        <ele>26.687</ele>
        <time>2015-05-01T12:21:15Z</time>
      </trkpt>
      <trkpt lat="37.776602" lon="-8.804596">
        <ele>24.736</ele>
        <time>2015-05-01T12:21:27Z</time>
      </trkpt>
      <trkpt lat="37.776535" lon="-8.804669">
        <ele>24.272</ele>
        <time>2015-05-01T12:21:36Z</time>
      </trkpt>
      <trkpt lat="37.776440" lon="-8.804749">
        <ele>23.769</ele>
        <time>2015-05-01T12:21:45Z</time>
      </trkpt>
      <trkpt lat="37.776412" lon="-8.804781">
        <ele>24.285</ele>
        <time>2015-05-01T12:21:50Z</time>
      </trkpt>
      <trkpt lat="37.776387" lon="-8.804821">
        <ele>24.289</ele>
        <time>2015-05-01T12:21:54Z</time>
      </trkpt>
      <trkpt lat="37.776318" lon="-8.804912">
        <ele>24.717</ele>
        <time>2015-05-01T12:22:06Z</time>
      </trkpt>
      <trkpt lat="37.776277" lon="-8.804992">
        <ele>25.107</ele>
        <time>2015-05-01T12:22:19Z</time>
      </trkpt>
      <trkpt lat="37.776268" lon="-8.805002">
        <ele>23.287</ele>
        <time>2015-05-01T12:22:32Z</time>
      </trkpt>
      <trkpt lat="37.776260" lon="-8.805022">
        <ele>23.274</ele>
        <time>2015-05-01T12:22:34Z</time>
      </trkpt>
      <trkpt lat="37.776237" lon="-8.805045">
        <ele>23.742</ele>
        <time>2015-05-01T12:22:37Z</time>
      </trkpt>
      <trkpt lat="37.776195" lon="-8.805117">
        <ele>25.188</ele>
        <time>2015-05-01T12:22:49Z</time>
      </trkpt>
      <trkpt lat="37.776179" lon="-8.805165">
        <ele>25.687</ele>
        <time>2015-05-01T12:22:53Z</time>
      </trkpt>
      <trkpt lat="37.776120" lon="-8.805273">
        <ele>27.143</ele>
        <time>2015-05-01T12:23:08Z</time>
      </trkpt>
      <trkpt lat="37.776066" lon="-8.805383">
        <ele>26.670</ele>
        <time>2015-05-01T12:23:21Z</time>
      </trkpt>
      <trkpt lat="37.776022" lon="-8.805453">
        <ele>26.116</ele>
        <time>2015-05-01T12:23:34Z</time>
      </trkpt>
      <trkpt lat="37.775996" lon="-8.805478">
        <ele>25.676</ele>
        <time>2015-05-01T12:23:56Z</time>
      </trkpt>
      <trkpt lat="37.775876" lon="-8.805602">
        <ele>24.213</ele>
        <time>2015-05-01T12:24:13Z</time>
      </trkpt>
      <trkpt lat="37.775825" lon="-8.805637">
        <ele>23.707</ele>
        <time>2015-05-01T12:24:19Z</time>
      </trkpt>
      <trkpt lat="37.775754" lon="-8.805658">
        <ele>23.250</ele>
        <time>2015-05-01T12:24:27Z</time>
      </trkpt>
      <trkpt lat="37.775634" lon="-8.805708">
        <ele>24.247</ele>
        <time>2015-05-01T12:24:42Z</time>
      </trkpt>
      <trkpt lat="37.775574" lon="-8.805765">
        <ele>25.195</ele>
        <time>2015-05-01T12:24:58Z</time>
      </trkpt>
      <trkpt lat="37.775572" lon="-8.805783">
        <ele>25.631</ele>
        <time>2015-05-01T12:25:12Z</time>
      </trkpt>
      <trkpt lat="37.775544" lon="-8.805776">
        <ele>25.660</ele>
        <time>2015-05-01T12:25:35Z</time>
      </trkpt>
      <trkpt lat="37.775538" lon="-8.805768">
        <ele>27.126</ele>
        <time>2015-05-01T12:26:02Z</time>
      </trkpt>
      <trkpt lat="37.775535" lon="-8.805773">
        <ele>27.123</ele>
        <time>2015-05-01T12:26:13Z</time>
      </trkpt>
      <trkpt lat="37.775373" lon="-8.805884">
        <ele>26.196</ele>
        <time>2015-05-01T12:26:30Z</time>
      </trkpt>
      <trkpt lat="37.775170" lon="-8.805962">
        <ele>25.131</ele>
        <time>2015-05-01T12:26:46Z</time>
      </trkpt>
      <trkpt lat="37.774976" lon="-8.806027">
        <ele>24.724</ele>
        <time>2015-05-01T12:27:01Z</time>
      </trkpt>
      <trkpt lat="37.774860" lon="-8.806106">
        <ele>24.707</ele>
        <time>2015-05-01T12:27:11Z</time>
      </trkpt>
      <trkpt lat="37.774604" lon="-8.806037">
        <ele>24.298</ele>
        <time>2015-05-01T12:27:30Z</time>
      </trkpt>
      <trkpt lat="37.774404" lon="-8.805971">
        <ele>22.365</ele>
        <time>2015-05-01T12:27:48Z</time>
      </trkpt>
      <trkpt lat="37.774261" lon="-8.805940">
        <ele>22.743</ele>
        <time>2015-05-01T12:28:02Z</time>
      </trkpt>
      <trkpt lat="37.774119" lon="-8.805848">
        <ele>25.649</ele>
        <time>2015-05-01T12:28:18Z</time>
      </trkpt>
      <trkpt lat="37.773939" lon="-8.805801">
        <ele>25.198</ele>
        <time>2015-05-01T12:28:35Z</time>
      </trkpt>
      <trkpt lat="37.773790" lon="-8.805753">
        <ele>24.754</ele>
        <time>2015-05-01T12:28:52Z</time>
      </trkpt>
      <trkpt lat="37.773645" lon="-8.805759">
        <ele>25.171</ele>
        <time>2015-05-01T12:29:05Z</time>
      </trkpt>
      <trkpt lat="37.773462" lon="-8.805768">
        <ele>25.122</ele>
        <time>2015-05-01T12:29:23Z</time>
      </trkpt>
      <trkpt lat="37.773352" lon="-8.805795">
        <ele>24.762</ele>
        <time>2015-05-01T12:29:36Z</time>
      </trkpt>
      <trkpt lat="37.773344" lon="-8.805793">
        <ele>24.708</ele>
        <time>2015-05-01T12:29:37Z</time>
      </trkpt>
      <trkpt lat="37.773222" lon="-8.805766">
        <ele>25.107</ele>
        <time>2015-05-01T12:29:50Z</time>
      </trkpt>
      <trkpt lat="37.773119" lon="-8.805891">
        <ele>26.131</ele>
        <time>2015-05-01T12:30:06Z</time>
      </trkpt>
      <trkpt lat="37.773059" lon="-8.805955">
        <ele>26.178</ele>
        <time>2015-05-01T12:30:16Z</time>
      </trkpt>
      <trkpt lat="37.772952" lon="-8.805920">
        <ele>26.696</ele>
        <time>2015-05-01T12:30:28Z</time>
      </trkpt>
      <trkpt lat="37.772897" lon="-8.805922">
        <ele>26.152</ele>
        <time>2015-05-01T12:30:43Z</time>
      </trkpt>
      <trkpt lat="37.772803" lon="-8.805883">
        <ele>26.191</ele>
        <time>2015-05-01T12:30:56Z</time>
      </trkpt>
      <trkpt lat="37.772780" lon="-8.805861">
        <ele>25.647</ele>
        <time>2015-05-01T12:30:59Z</time>
      </trkpt>
      <trkpt lat="37.772637" lon="-8.805762">
        <ele>25.194</ele>
        <time>2015-05-01T12:31:16Z</time>
      </trkpt>
      <trkpt lat="37.772569" lon="-8.805663">
        <ele>24.231</ele>
        <time>2015-05-01T12:31:30Z</time>
      </trkpt>
      <trkpt lat="37.772561" lon="-8.805612">
        <ele>25.161</ele>
        <time>2015-05-01T12:31:50Z</time>
      </trkpt>
      <trkpt lat="37.772540" lon="-8.805562">
        <ele>25.107</ele>
        <time>2015-05-01T12:31:55Z</time>
      </trkpt>
      <trkpt lat="37.772475" lon="-8.805431">
        <ele>23.707</ele>
        <time>2015-05-01T12:32:10Z</time>
      </trkpt>
      <trkpt lat="37.772428" lon="-8.805285">
        <ele>24.252</ele>
        <time>2015-05-01T12:32:24Z</time>
      </trkpt>
      <trkpt lat="37.772350" lon="-8.805132">
        <ele>24.779</ele>
        <time>2015-05-01T12:32:41Z</time>
      </trkpt>
      <trkpt lat="37.772285" lon="-8.805015">
        <ele>25.667</ele>
        <time>2015-05-01T12:32:55Z</time>
      </trkpt>
      <trkpt lat="37.772259" lon="-8.804949">
        <ele>27.133</ele>
        <time>2015-05-01T12:33:08Z</time>
      </trkpt>
      <trkpt lat="37.772258" lon="-8.804920">
        <ele>29.562</ele>
        <time>2015-05-01T12:33:31Z</time>
      </trkpt>
      <trkpt lat="37.772256" lon="-8.804913">
        <ele>29.558</ele>
        <time>2015-05-01T12:33:32Z</time>
      </trkpt>
      <trkpt lat="37.772212" lon="-8.804802">
        <ele>29.965</ele>
        <time>2015-05-01T12:33:47Z</time>
      </trkpt>
      <trkpt lat="37.772209" lon="-8.804761">
        <ele>32.833</ele>
        <time>2015-05-01T12:34:01Z</time>
      </trkpt>
      <trkpt lat="37.772155" lon="-8.804686">
        <ele>34.723</ele>
        <time>2015-05-01T12:34:14Z</time>
      </trkpt>
      <trkpt lat="37.772139" lon="-8.804659">
        <ele>35.215</ele>
        <time>2015-05-01T12:34:17Z</time>
      </trkpt>
      <trkpt lat="37.772008" lon="-8.804556">
        <ele>36.707</ele>
        <time>2015-05-01T12:34:32Z</time>
      </trkpt>
      <trkpt lat="37.771975" lon="-8.804527">
        <ele>37.622</ele>
        <time>2015-05-01T12:34:36Z</time>
      </trkpt>
      <trkpt lat="37.771793" lon="-8.804533">
        <ele>37.619</ele>
        <time>2015-05-01T12:34:52Z</time>
      </trkpt>
      <trkpt lat="37.771610" lon="-8.804578">
        <ele>34.357</ele>
        <time>2015-05-01T12:35:06Z</time>
      </trkpt>
      <trkpt lat="37.771570" lon="-8.804601">
        <ele>34.313</ele>
        <time>2015-05-01T12:35:10Z</time>
      </trkpt>
      <trkpt lat="37.771479" lon="-8.804638">
        <ele>33.872</ele>
        <time>2015-05-01T12:35:24Z</time>
      </trkpt>
      <trkpt lat="37.771385" lon="-8.804664">
        <ele>34.328</ele>
        <time>2015-05-01T12:35:44Z</time>
      </trkpt>
      <trkpt lat="37.771346" lon="-8.804728">
        <ele>33.385</ele>
        <time>2015-05-01T12:36:01Z</time>
      </trkpt>
      <trkpt lat="37.771351" lon="-8.804731">
        <ele>30.913</ele>
        <time>2015-05-01T12:36:26Z</time>
      </trkpt>
      <trkpt lat="37.771351" lon="-8.804736">
        <ele>29.943</ele>
        <time>2015-05-01T12:36:48Z</time>
      </trkpt>
      <trkpt lat="37.771346" lon="-8.804714">
        <ele>31.407</ele>
        <time>2015-05-01T12:37:09Z</time>
      </trkpt>
      <trkpt lat="37.771348" lon="-8.804704">
        <ele>31.907</ele>
        <time>2015-05-01T12:37:11Z</time>
      </trkpt>
      <trkpt lat="37.771326" lon="-8.804694">
        <ele>32.350</ele>
        <time>2015-05-01T12:37:25Z</time>
      </trkpt>
      <trkpt lat="37.771247" lon="-8.804644">
        <ele>32.887</ele>
        <time>2015-05-01T12:37:40Z</time>
      </trkpt>
      <trkpt lat="37.771108" lon="-8.804591">
        <ele>32.355</ele>
        <time>2015-05-01T12:37:54Z</time>
      </trkpt>
      <trkpt lat="37.771049" lon="-8.804553">
        <ele>32.341</ele>
        <time>2015-05-01T12:38:01Z</time>
      </trkpt>
      <trkpt lat="37.770925" lon="-8.804492">
        <ele>32.890</ele>
        <time>2015-05-01T12:38:17Z</time>
      </trkpt>
      <trkpt lat="37.770773" lon="-8.804376">
        <ele>35.736</ele>
        <time>2015-05-01T12:38:37Z</time>
      </trkpt>
      <trkpt lat="37.770699" lon="-8.804315">
        <ele>37.273</ele>
        <time>2015-05-01T12:38:48Z</time>
      </trkpt>
      <trkpt lat="37.770583" lon="-8.804191">
        <ele>39.159</ele>
        <time>2015-05-01T12:39:06Z</time>
      </trkpt>
      <trkpt lat="37.770470" lon="-8.804091">
        <ele>40.503</ele>
        <time>2015-05-01T12:39:23Z</time>
      </trkpt>
      <trkpt lat="37.770414" lon="-8.804087">
        <ele>41.523</ele>
        <time>2015-05-01T12:39:30Z</time>
      </trkpt>
      <trkpt lat="37.770192" lon="-8.804125">
        <ele>43.907</ele>
        <time>2015-05-01T12:39:51Z</time>
      </trkpt>
      <trkpt lat="37.769991" lon="-8.804236">
        <ele>44.484</ele>
        <time>2015-05-01T12:40:10Z</time>
      </trkpt>
      <trkpt lat="37.769816" lon="-8.804256">
        <ele>47.271</ele>
        <time>2015-05-01T12:40:28Z</time>
      </trkpt>
      <trkpt lat="37.769680" lon="-8.804255">
        <ele>48.249</ele>
        <time>2015-05-01T12:40:43Z</time>
      </trkpt>
      <trkpt lat="37.769579" lon="-8.804248">
        <ele>49.245</ele>
        <time>2015-05-01T12:40:54Z</time>
      </trkpt>
      <trkpt lat="37.769429" lon="-8.804259">
        <ele>50.164</ele>
        <time>2015-05-01T12:41:11Z</time>
      </trkpt>
      <trkpt lat="37.769317" lon="-8.804278">
        <ele>51.180</ele>
        <time>2015-05-01T12:41:23Z</time>
      </trkpt>
      <trkpt lat="37.769107" lon="-8.804237">
        <ele>52.197</ele>
        <time>2015-05-01T12:41:42Z</time>
      </trkpt>
      <trkpt lat="37.768944" lon="-8.804176">
        <ele>49.714</ele>
        <time>2015-05-01T12:41:59Z</time>
      </trkpt>
      <trkpt lat="37.768802" lon="-8.804135">
        <ele>46.354</ele>
        <time>2015-05-01T12:42:15Z</time>
      </trkpt>
      <trkpt lat="37.768766" lon="-8.804124">
        <ele>45.809</ele>
        <time>2015-05-01T12:42:19Z</time>
      </trkpt>
      <trkpt lat="37.768610" lon="-8.804134">
        <ele>44.407</ele>
        <time>2015-05-01T12:42:36Z</time>
      </trkpt>
      <trkpt lat="37.768498" lon="-8.804185">
        <ele>42.070</ele>
        <time>2015-05-01T12:42:49Z</time>
      </trkpt>
      <trkpt lat="37.768298" lon="-8.804264">
        <ele>41.527</ele>
        <time>2015-05-01T12:43:08Z</time>
      </trkpt>
      <trkpt lat="37.768183" lon="-8.804400">
        <ele>42.025</ele>
        <time>2015-05-01T12:43:24Z</time>
      </trkpt>
      <trkpt lat="37.768089" lon="-8.804470">
        <ele>42.911</ele>
        <time>2015-05-01T12:43:36Z</time>
      </trkpt>
      <trkpt lat="37.768197" lon="-8.804631">
        <ele>40.060</ele>
        <time>2015-05-01T12:44:18Z</time>
      </trkpt>
      <trkpt lat="37.768210" lon="-8.804623">
        <ele>41.056</ele>
        <time>2015-05-01T12:44:46Z</time>
      </trkpt>
      <trkpt lat="37.768206" lon="-8.804622">
        <ele>41.593</ele>
        <time>2015-05-01T12:45:18Z</time>
      </trkpt>
      <trkpt lat="37.768207" lon="-8.804621">
        <ele>40.585</ele>
        <time>2015-05-01T12:45:52Z</time>
      </trkpt>
      <trkpt lat="37.768209" lon="-8.804624">
        <ele>41.589</ele>
        <time>2015-05-01T12:46:23Z</time>
      </trkpt>
      <trkpt lat="37.768215" lon="-8.804625">
        <ele>41.017</ele>
        <time>2015-05-01T12:47:00Z</time>
      </trkpt>
      <trkpt lat="37.768214" lon="-8.804621">
        <ele>40.507</ele>
        <time>2015-05-01T12:47:34Z</time>
      </trkpt>
      <trkpt lat="37.768215" lon="-8.804615">
        <ele>40.037</ele>
        <time>2015-05-01T12:48:18Z</time>
      </trkpt>
      <trkpt lat="37.768214" lon="-8.804620">
        <ele>40.014</ele>
        <time>2015-05-01T12:48:55Z</time>
      </trkpt>
      <trkpt lat="37.768215" lon="-8.804620">
        <ele>40.092</ele>
        <time>2015-05-01T12:49:28Z</time>
      </trkpt>
      <trkpt lat="37.768217" lon="-8.804617">
        <ele>41.048</ele>
        <time>2015-05-01T12:50:05Z</time>
      </trkpt>
      <trkpt lat="37.768220" lon="-8.804617">
        <ele>41.537</ele>
        <time>2015-05-01T12:50:51Z</time>
      </trkpt>
      <trkpt lat="37.768216" lon="-8.804618">
        <ele>40.513</ele>
        <time>2015-05-01T12:51:31Z</time>
      </trkpt>
      <trkpt lat="37.768210" lon="-8.804621">
        <ele>41.030</ele>
        <time>2015-05-01T12:52:10Z</time>
      </trkpt>
      <trkpt lat="37.768213" lon="-8.804619">
        <ele>40.535</ele>
        <time>2015-05-01T12:52:56Z</time>
      </trkpt>
      <trkpt lat="37.768206" lon="-8.804622">
        <ele>41.086</ele>
        <time>2015-05-01T12:53:40Z</time>
      </trkpt>
      <trkpt lat="37.768210" lon="-8.804624">
        <ele>41.014</ele>
        <time>2015-05-01T12:54:18Z</time>
      </trkpt>
      <trkpt lat="37.768212" lon="-8.804622">
        <ele>41.007</ele>
        <time>2015-05-01T12:55:03Z</time>
      </trkpt>
      <trkpt lat="37.768214" lon="-8.804620">
        <ele>41.582</ele>
        <time>2015-05-01T12:55:39Z</time>
      </trkpt>
      <trkpt lat="37.768217" lon="-8.804624">
        <ele>41.559</ele>
        <time>2015-05-01T12:56:18Z</time>
      </trkpt>
      <trkpt lat="37.768217" lon="-8.804625">
        <ele>42.427</ele>
        <time>2015-05-01T12:57:03Z</time>
      </trkpt>
      <trkpt lat="37.768217" lon="-8.804622">
        <ele>41.553</ele>
        <time>2015-05-01T12:57:39Z</time>
      </trkpt>
      <trkpt lat="37.768214" lon="-8.804620">
        <ele>40.532</ele>
        <time>2015-05-01T12:58:24Z</time>
      </trkpt>
      <trkpt lat="37.768221" lon="-8.804620">
        <ele>41.078</ele>
        <time>2015-05-01T12:59:03Z</time>
      </trkpt>
      <trkpt lat="37.768230" lon="-8.804616">
        <ele>41.075</ele>
        <time>2015-05-01T12:59:37Z</time>
      </trkpt>
      <trkpt lat="37.768226" lon="-8.804619">
        <ele>41.573</ele>
        <time>2015-05-01T13:00:12Z</time>
      </trkpt>
      <trkpt lat="37.768222" lon="-8.804618">
        <ele>40.585</ele>
        <time>2015-05-01T13:00:47Z</time>
      </trkpt>
      <trkpt lat="37.768214" lon="-8.804618">
        <ele>40.513</ele>
        <time>2015-05-01T13:01:21Z</time>
      </trkpt>
      <trkpt lat="37.768206" lon="-8.804623">
        <ele>39.107</ele>
        <time>2015-05-01T13:01:55Z</time>
      </trkpt>
      <trkpt lat="37.768201" lon="-8.804622">
        <ele>39.646</ele>
        <time>2015-05-01T13:02:33Z</time>
      </trkpt>
      <trkpt lat="37.768214" lon="-8.804615">
        <ele>37.683</ele>
        <time>2015-05-01T13:03:11Z</time>
      </trkpt>
      <trkpt lat="37.768212" lon="-8.804613">
        <ele>38.651</ele>
        <time>2015-05-01T13:03:52Z</time>
      </trkpt>
      <trkpt lat="37.768211" lon="-8.804618">
        <ele>38.637</ele>
        <time>2015-05-01T13:04:23Z</time>
      </trkpt>
      <trkpt lat="37.768209" lon="-8.804620">
        <ele>39.666</ele>
        <time>2015-05-01T13:04:51Z</time>
      </trkpt>
      <trkpt lat="37.768216" lon="-8.804621">
        <ele>38.182</ele>
        <time>2015-05-01T13:05:21Z</time>
      </trkpt>
      <trkpt lat="37.768220" lon="-8.804623">
        <ele>39.639</ele>
        <time>2015-05-01T13:05:43Z</time>
      </trkpt>
      <trkpt lat="37.768224" lon="-8.804618">
        <ele>37.615</ele>
        <time>2015-05-01T13:06:17Z</time>
      </trkpt>
      <trkpt lat="37.768216" lon="-8.804625">
        <ele>46.365</ele>
        <time>2015-05-01T13:15:43Z</time>
      </trkpt>
      <trkpt lat="37.768087" lon="-8.804471">
        <ele>43.911</ele>
        <time>2015-05-01T13:16:14Z</time>
      </trkpt>
      <trkpt lat="37.768094" lon="-8.804472">
        <ele>44.407</ele>
        <time>2015-05-01T13:16:36Z</time>
      </trkpt>
      <trkpt lat="37.768056" lon="-8.804519">
        <ele>44.870</ele>
        <time>2015-05-01T13:16:50Z</time>
      </trkpt>
      <trkpt lat="37.768001" lon="-8.804619">
        <ele>46.377</ele>
        <time>2015-05-01T13:17:01Z</time>
      </trkpt>
      <trkpt lat="37.767931" lon="-8.804674">
        <ele>45.885</ele>
        <time>2015-05-01T13:17:09Z</time>
      </trkpt>
      <trkpt lat="37.767770" lon="-8.804704">
        <ele>46.371</ele>
        <time>2015-05-01T13:17:26Z</time>
      </trkpt>
      <trkpt lat="37.767713" lon="-8.804748">
        <ele>45.380</ele>
        <time>2015-05-01T13:17:32Z</time>
      </trkpt>
      <trkpt lat="37.767594" lon="-8.804891">
        <ele>43.476</ele>
        <time>2015-05-01T13:17:48Z</time>
      </trkpt>
      <trkpt lat="37.767454" lon="-8.805060">
        <ele>42.063</ele>
        <time>2015-05-01T13:18:06Z</time>
      </trkpt>
      <trkpt lat="37.767374" lon="-8.805166">
        <ele>40.027</ele>
        <time>2015-05-01T13:18:18Z</time>
      </trkpt>
      <trkpt lat="37.767248" lon="-8.805290">
        <ele>40.068</ele>
        <time>2015-05-01T13:18:33Z</time>
      </trkpt>
      <trkpt lat="37.767102" lon="-8.805395">
        <ele>42.014</ele>
        <time>2015-05-01T13:18:50Z</time>
      </trkpt>
      <trkpt lat="37.766954" lon="-8.805452">
        <ele>42.007</ele>
        <time>2015-05-01T13:19:05Z</time>
      </trkpt>
      <trkpt lat="37.766839" lon="-8.805484">
        <ele>41.581</ele>
        <time>2015-05-01T13:19:17Z</time>
      </trkpt>
      <trkpt lat="37.766725" lon="-8.805531">
        <ele>41.058</ele>
        <time>2015-05-01T13:19:32Z</time>
      </trkpt>
      <trkpt lat="37.766686" lon="-8.805551">
        <ele>41.026</ele>
        <time>2015-05-01T13:19:39Z</time>
      </trkpt>
      <trkpt lat="37.766600" lon="-8.805623">
        <ele>41.062</ele>
        <time>2015-05-01T13:19:49Z</time>
      </trkpt>
      <trkpt lat="37.766451" lon="-8.805748">
        <ele>42.091</ele>
        <time>2015-05-01T13:20:07Z</time>
      </trkpt>
      <trkpt lat="37.766338" lon="-8.805787">
        <ele>42.417</ele>
        <time>2015-05-01T13:20:21Z</time>
      </trkpt>
      <trkpt lat="37.766232" lon="-8.805831">
        <ele>44.474</ele>
        <time>2015-05-01T13:20:34Z</time>
      </trkpt>
      <trkpt lat="37.766224" lon="-8.805834">
        <ele>44.436</ele>
        <time>2015-05-01T13:20:35Z</time>
      </trkpt>
      <trkpt lat="37.766081" lon="-8.805889">
        <ele>44.817</ele>
        <time>2015-05-01T13:20:51Z</time>
      </trkpt>
      <trkpt lat="37.765940" lon="-8.805917">
        <ele>45.818</ele>
        <time>2015-05-01T13:21:07Z</time>
      </trkpt>
      <trkpt lat="37.765875" lon="-8.805939">
        <ele>45.807</ele>
        <time>2015-05-01T13:21:15Z</time>
      </trkpt>
      <trkpt lat="37.765737" lon="-8.806015">
        <ele>45.352</ele>
        <time>2015-05-01T13:21:31Z</time>
      </trkpt>
      <trkpt lat="37.765645" lon="-8.806053">
        <ele>44.879</ele>
        <time>2015-05-01T13:21:41Z</time>
      </trkpt>
      <trkpt lat="37.765529" lon="-8.806071">
        <ele>45.837</ele>
        <time>2015-05-01T13:21:57Z</time>
      </trkpt>
      <trkpt lat="37.765446" lon="-8.806064">
        <ele>46.853</ele>
        <time>2015-05-01T13:22:08Z</time>
      </trkpt>
      <trkpt lat="37.765264" lon="-8.806077">
        <ele>46.832</ele>
        <time>2015-05-01T13:22:25Z</time>
      </trkpt>
      <trkpt lat="37.765074" lon="-8.806063">
        <ele>46.848</ele>
        <time>2015-05-01T13:22:42Z</time>
      </trkpt>
      <trkpt lat="37.764916" lon="-8.806052">
        <ele>45.815</ele>
        <time>2015-05-01T13:22:57Z</time>
      </trkpt>
      <trkpt lat="37.764684" lon="-8.806147">
        <ele>46.831</ele>
        <time>2015-05-01T13:23:17Z</time>
      </trkpt>
      <trkpt lat="37.764457" lon="-8.806222">
        <ele>47.261</ele>
        <time>2015-05-01T13:23:36Z</time>
      </trkpt>
      <trkpt lat="37.764313" lon="-8.806266">
        <ele>48.707</ele>
        <time>2015-05-01T13:23:51Z</time>
      </trkpt>
      <trkpt lat="37.764186" lon="-8.806251">
        <ele>49.207</ele>
        <time>2015-05-01T13:24:05Z</time>
      </trkpt>
      <trkpt lat="37.764065" lon="-8.806186">
        <ele>49.272</ele>
        <time>2015-05-01T13:24:20Z</time>
      </trkpt>
      <trkpt lat="37.763915" lon="-8.806158">
        <ele>47.759</ele>
        <time>2015-05-01T13:24:35Z</time>
      </trkpt>
      <trkpt lat="37.763759" lon="-8.806132">
        <ele>47.767</ele>
        <time>2015-05-01T13:24:51Z</time>
      </trkpt>
      <trkpt lat="37.763608" lon="-8.806142">
        <ele>46.363</ele>
        <time>2015-05-01T13:25:07Z</time>
      </trkpt>
      <trkpt lat="37.763372" lon="-8.806172">
        <ele>46.342</ele>
        <time>2015-05-01T13:25:27Z</time>
      </trkpt>
      <trkpt lat="37.763203" lon="-8.806215">
        <ele>46.378</ele>
        <time>2015-05-01T13:25:43Z</time>
      </trkpt>
      <trkpt lat="37.763177" lon="-8.806216">
        <ele>46.885</ele>
        <time>2015-05-01T13:25:46Z</time>
      </trkpt>
      <trkpt lat="37.763046" lon="-8.806230">
        <ele>47.758</ele>
        <time>2015-05-01T13:26:01Z</time>
      </trkpt>
      <trkpt lat="37.762875" lon="-8.806220">
        <ele>47.252</ele>
        <time>2015-05-01T13:26:18Z</time>
      </trkpt>
      <trkpt lat="37.762709" lon="-8.806195">
        <ele>47.717</ele>
        <time>2015-05-01T13:26:35Z</time>
      </trkpt>
      <trkpt lat="37.762621" lon="-8.806173">
        <ele>47.207</ele>
        <time>2015-05-01T13:26:43Z</time>
      </trkpt>
      <trkpt lat="37.762442" lon="-8.806192">
        <ele>45.384</ele>
        <time>2015-05-01T13:27:00Z</time>
      </trkpt>
      <trkpt lat="37.762369" lon="-8.806191">
        <ele>45.821</ele>
        <time>2015-05-01T13:27:08Z</time>
      </trkpt>
      <trkpt lat="37.762197" lon="-8.806260">
        <ele>49.759</ele>
        <time>2015-05-01T13:27:25Z</time>
      </trkpt>
      <trkpt lat="37.762058" lon="-8.806224">
        <ele>50.165</ele>
        <time>2015-05-01T13:27:39Z</time>
      </trkpt>
      <trkpt lat="37.761944" lon="-8.806168">
        <ele>49.794</ele>
        <time>2015-05-01T13:27:51Z</time>
      </trkpt>
      <trkpt lat="37.761801" lon="-8.806138">
        <ele>49.250</ele>
        <time>2015-05-01T13:28:05Z</time>
      </trkpt>
      <trkpt lat="37.761640" lon="-8.806106">
        <ele>49.257</ele>
        <time>2015-05-01T13:28:20Z</time>
      </trkpt>
      <trkpt lat="37.761514" lon="-8.806073">
        <ele>49.234</ele>
        <time>2015-05-01T13:28:33Z</time>
      </trkpt>
      <trkpt lat="37.761474" lon="-8.806095">
        <ele>50.155</ele>
        <time>2015-05-01T13:28:37Z</time>
      </trkpt>
      <trkpt lat="37.761319" lon="-8.806066">
        <ele>51.110</ele>
        <time>2015-05-01T13:28:53Z</time>
      </trkpt>
      <trkpt lat="37.761295" lon="-8.806053">
        <ele>51.107</ele>
        <time>2015-05-01T13:28:56Z</time>
      </trkpt>
      <trkpt lat="37.761229" lon="-8.805990">
        <ele>51.692</ele>
        <time>2015-05-01T13:29:04Z</time>
      </trkpt>
      <trkpt lat="37.761029" lon="-8.805959">
        <ele>52.549</ele>
        <time>2015-05-01T13:29:22Z</time>
      </trkpt>
      <trkpt lat="37.760841" lon="-8.805972">
        <ele>53.097</ele>
        <time>2015-05-01T13:29:38Z</time>
      </trkpt>
      <trkpt lat="37.760688" lon="-8.805964">
        <ele>52.593</ele>
        <time>2015-05-01T13:29:53Z</time>
      </trkpt>
      <trkpt lat="37.760440" lon="-8.805911">
        <ele>53.572</ele>
        <time>2015-05-01T13:30:16Z</time>
      </trkpt>
      <trkpt lat="37.760332" lon="-8.805755">
        <ele>52.538</ele>
        <time>2015-05-01T13:30:33Z</time>
      </trkpt>
      <trkpt lat="37.760329" lon="-8.805743">
        <ele>52.525</ele>
        <time>2015-05-01T13:30:34Z</time>
      </trkpt>
      <trkpt lat="37.760262" lon="-8.805637">
        <ele>53.077</ele>
        <time>2015-05-01T13:30:44Z</time>
      </trkpt>
      <trkpt lat="37.760056" lon="-8.805577">
        <ele>51.661</ele>
        <time>2015-05-01T13:31:03Z</time>
      </trkpt>
      <trkpt lat="37.759895" lon="-8.805516">
        <ele>49.727</ele>
        <time>2015-05-01T13:31:23Z</time>
      </trkpt>
      <trkpt lat="37.759740" lon="-8.805501">
        <ele>50.107</ele>
        <time>2015-05-01T13:31:41Z</time>
      </trkpt>
      <trkpt lat="37.759593" lon="-8.805457">
        <ele>50.676</ele>
        <time>2015-05-01T13:31:59Z</time>
      </trkpt>
      <trkpt lat="37.759525" lon="-8.805307">
        <ele>51.633</ele>
        <time>2015-05-01T13:32:16Z</time>
      </trkpt>
      <trkpt lat="37.759493" lon="-8.805186">
        <ele>54.021</ele>
        <time>2015-05-01T13:32:26Z</time>
      </trkpt>
      <trkpt lat="37.759361" lon="-8.805119">
        <ele>54.937</ele>
        <time>2015-05-01T13:32:41Z</time>
      </trkpt>
      <trkpt lat="37.759209" lon="-8.805055">
        <ele>56.436</ele>
        <time>2015-05-01T13:32:58Z</time>
      </trkpt>
      <trkpt lat="37.759204" lon="-8.805043">
        <ele>55.912</ele>
        <time>2015-05-01T13:33:11Z</time>
      </trkpt>
      <trkpt lat="37.759190" lon="-8.805076">
        <ele>56.449</ele>
        <time>2015-05-01T13:33:18Z</time>
      </trkpt>
      <trkpt lat="37.759170" lon="-8.805102">
        <ele>56.459</ele>
        <time>2015-05-01T13:33:21Z</time>
      </trkpt>
      <trkpt lat="37.758997" lon="-8.805196">
        <ele>54.903</ele>
        <time>2015-05-01T13:33:38Z</time>
      </trkpt>
      <trkpt lat="37.758926" lon="-8.805206">
        <ele>54.023</ele>
        <time>2015-05-01T13:33:44Z</time>
      </trkpt>
      <trkpt lat="37.758805" lon="-8.805280">
        <ele>53.507</ele>
        <time>2015-05-01T13:33:57Z</time>
      </trkpt>
      <trkpt lat="37.758767" lon="-8.805296">
        <ele>53.584</ele>
        <time>2015-05-01T13:34:01Z</time>
      </trkpt>
      <trkpt lat="37.758637" lon="-8.805332">
        <ele>54.591</ele>
        <time>2015-05-01T13:34:14Z</time>
      </trkpt>
      <trkpt lat="37.758589" lon="-8.805339">
        <ele>54.919</ele>
        <time>2015-05-01T13:34:19Z</time>
      </trkpt>
      <trkpt lat="37.758489" lon="-8.805430">
        <ele>55.415</ele>
        <time>2015-05-01T13:34:32Z</time>
      </trkpt>
      <trkpt lat="37.758495" lon="-8.805518">
        <ele>55.444</ele>
        <time>2015-05-01T13:34:48Z</time>
      </trkpt>
      <trkpt lat="37.758492" lon="-8.805529">
        <ele>54.950</ele>
        <time>2015-05-01T13:34:49Z</time>
      </trkpt>
      <trkpt lat="37.758485" lon="-8.805585">
        <ele>54.537</ele>
        <time>2015-05-01T13:34:53Z</time>
      </trkpt>
      <trkpt lat="37.758488" lon="-8.805612">
        <ele>54.029</ele>
        <time>2015-05-01T13:34:55Z</time>
      </trkpt>
      <trkpt lat="37.758480" lon="-8.805718">
        <ele>52.500</ele>
        <time>2015-05-01T13:35:02Z</time>
      </trkpt>
      <trkpt lat="37.758497" lon="-8.805824">
        <ele>50.120</ele>
        <time>2015-05-01T13:35:09Z</time>
      </trkpt>
      <trkpt lat="37.758496" lon="-8.805965">
        <ele>48.207</ele>
        <time>2015-05-01T13:35:19Z</time>
      </trkpt>
      <trkpt lat="37.758511" lon="-8.806187">
        <ele>47.721</ele>
        <time>2015-05-01T13:35:35Z</time>
      </trkpt>
      <trkpt lat="37.758508" lon="-8.806315">
        <ele>46.388</ele>
        <time>2015-05-01T13:35:45Z</time>
      </trkpt>
      <trkpt lat="37.758593" lon="-8.806430">
        <ele>44.476</ele>
        <time>2015-05-01T13:35:56Z</time>
      </trkpt>
      <trkpt lat="37.758595" lon="-8.806501">
        <ele>44.812</ele>
        <time>2015-05-01T13:36:01Z</time>
      </trkpt>
      <trkpt lat="37.758637" lon="-8.806609">
        <ele>42.961</ele>
        <time>2015-05-01T13:36:10Z</time>
      </trkpt>
      <trkpt lat="37.758578" lon="-8.806807">
        <ele>41.567</ele>
        <time>2015-05-01T13:36:25Z</time>
      </trkpt>
      <trkpt lat="37.758568" lon="-8.806919">
        <ele>43.424</ele>
        <time>2015-05-01T13:36:40Z</time>
      </trkpt>
      <trkpt lat="37.758528" lon="-8.807006">
        <ele>42.086</ele>
        <time>2015-05-01T13:36:48Z</time>
      </trkpt>
      <trkpt lat="37.758493" lon="-8.807063">
        <ele>41.560</ele>
        <time>2015-05-01T13:36:53Z</time>
      </trkpt>
      <trkpt lat="37.758401" lon="-8.807228">
        <ele>39.626</ele>
        <time>2015-05-01T13:37:07Z</time>
      </trkpt>
      <trkpt lat="37.758364" lon="-8.807264">
        <ele>39.607</ele>
        <time>2015-05-01T13:37:12Z</time>
      </trkpt>
      <trkpt lat="37.758352" lon="-8.807285">
        <ele>41.097</ele>
        <time>2015-05-01T13:37:25Z</time>
      </trkpt>
      <trkpt lat="37.758369" lon="-8.807278">
        <ele>42.964</ele>
        <time>2015-05-01T13:37:49Z</time>
      </trkpt>
      <trkpt lat="37.758339" lon="-8.807309">
        <ele>45.882</ele>
        <time>2015-05-01T13:37:56Z</time>
      </trkpt>
      <trkpt lat="37.758272" lon="-8.807371">
        <ele>49.248</ele>
        <time>2015-05-01T13:38:08Z</time>
      </trkpt>
      <trkpt lat="37.758173" lon="-8.807413">
        <ele>50.177</ele>
        <time>2015-05-01T13:38:19Z</time>
      </trkpt>
      <trkpt lat="37.758058" lon="-8.807517">
        <ele>53.013</ele>
        <time>2015-05-01T13:38:32Z</time>
      </trkpt>
      <trkpt lat="37.757859" lon="-8.807533">
        <ele>53.080</ele>
        <time>2015-05-01T13:38:51Z</time>
      </trkpt>
      <trkpt lat="37.757691" lon="-8.807558">
        <ele>52.525</ele>
        <time>2015-05-01T13:39:07Z</time>
      </trkpt>
      <trkpt lat="37.757520" lon="-8.807567">
        <ele>52.526</ele>
        <time>2015-05-01T13:39:23Z</time>
      </trkpt>
      <trkpt lat="37.757302" lon="-8.807511">
        <ele>53.008</ele>
        <time>2015-05-01T13:39:43Z</time>
      </trkpt>
      <trkpt lat="37.757120" lon="-8.807545">
        <ele>54.007</ele>
        <time>2015-05-01T13:39:59Z</time>
      </trkpt>
      <trkpt lat="37.756958" lon="-8.807637">
        <ele>54.071</ele>
        <time>2015-05-01T13:40:14Z</time>
      </trkpt>
      <trkpt lat="37.756911" lon="-8.807679">
        <ele>53.568</ele>
        <time>2015-05-01T13:40:19Z</time>
      </trkpt>
      <trkpt lat="37.756890" lon="-8.807728">
        <ele>53.086</ele>
        <time>2015-05-01T13:40:23Z</time>
      </trkpt>
      <trkpt lat="37.756711" lon="-8.807842">
        <ele>53.532</ele>
        <time>2015-05-01T13:40:39Z</time>
      </trkpt>
      <trkpt lat="37.756589" lon="-8.807936">
        <ele>50.631</ele>
        <time>2015-05-01T13:40:54Z</time>
      </trkpt>
      <trkpt lat="37.756584" lon="-8.807941">
        <ele>51.137</ele>
        <time>2015-05-01T13:40:55Z</time>
      </trkpt>
      <trkpt lat="37.756571" lon="-8.807936">
        <ele>51.634</ele>
        <time>2015-05-01T13:40:57Z</time>
      </trkpt>
      <trkpt lat="37.756463" lon="-8.807947">
        <ele>52.525</ele>
        <time>2015-05-01T13:41:08Z</time>
      </trkpt>
      <trkpt lat="37.756403" lon="-8.807998">
        <ele>52.526</ele>
        <time>2015-05-01T13:41:14Z</time>
      </trkpt>
      <trkpt lat="37.756180" lon="-8.808089">
        <ele>52.508</ele>
        <time>2015-05-01T13:41:33Z</time>
      </trkpt>
      <trkpt lat="37.756003" lon="-8.808117">
        <ele>54.007</ele>
        <time>2015-05-01T13:41:51Z</time>
      </trkpt>
      <trkpt lat="37.755863" lon="-8.808062">
        <ele>51.681</ele>
        <time>2015-05-01T13:42:06Z</time>
      </trkpt>
      <trkpt lat="37.755805" lon="-8.808030">
        <ele>49.728</ele>
        <time>2015-05-01T13:42:12Z</time>
      </trkpt>
      <trkpt lat="37.755644" lon="-8.808047">
        <ele>50.616</ele>
        <time>2015-05-01T13:42:29Z</time>
      </trkpt>
      <trkpt lat="37.755514" lon="-8.808078">
        <ele>51.692</ele>
        <time>2015-05-01T13:42:43Z</time>
      </trkpt>
      <trkpt lat="37.755416" lon="-8.808114">
        <ele>52.131</ele>
        <time>2015-05-01T13:42:54Z</time>
      </trkpt>
      <trkpt lat="37.755397" lon="-8.808115">
        <ele>51.697</ele>
        <time>2015-05-01T13:42:56Z</time>
      </trkpt>
      <trkpt lat="37.755363" lon="-8.808090">
        <ele>51.644</ele>
        <time>2015-05-01T13:43:00Z</time>
      </trkpt>
      <trkpt lat="37.755322" lon="-8.808090">
        <ele>51.179</ele>
        <time>2015-05-01T13:43:04Z</time>
      </trkpt>
      <trkpt lat="37.755161" lon="-8.808035">
        <ele>51.605</ele>
        <time>2015-05-01T13:43:19Z</time>
      </trkpt>
      <trkpt lat="37.755100" lon="-8.808022">
        <ele>52.125</ele>
        <time>2015-05-01T13:43:25Z</time>
      </trkpt>
      <trkpt lat="37.755025" lon="-8.808057">
        <ele>53.007</ele>
        <time>2015-05-01T13:43:32Z</time>
      </trkpt>
      <trkpt lat="37.754855" lon="-8.808057">
        <ele>54.976</ele>
        <time>2015-05-01T13:43:49Z</time>
      </trkpt>
      <trkpt lat="37.754675" lon="-8.808123">
        <ele>55.963</ele>
        <time>2015-05-01T13:44:06Z</time>
      </trkpt>
      <trkpt lat="37.754587" lon="-8.808113">
        <ele>53.521</ele>
        <time>2015-05-01T13:44:15Z</time>
      </trkpt>
      <trkpt lat="37.754455" lon="-8.808038">
        <ele>54.567</ele>
        <time>2015-05-01T13:44:32Z</time>
      </trkpt>
      <trkpt lat="37.754383" lon="-8.807911">
        <ele>54.916</ele>
        <time>2015-05-01T13:44:47Z</time>
      </trkpt>
      <trkpt lat="37.754280" lon="-8.807810">
        <ele>56.922</ele>
        <time>2015-05-01T13:45:02Z</time>
      </trkpt>
      <trkpt lat="37.754103" lon="-8.807695">
        <ele>57.369</ele>
        <time>2015-05-01T13:45:21Z</time>
      </trkpt>
      <trkpt lat="37.753928" lon="-8.807690">
        <ele>58.387</ele>
        <time>2015-05-01T13:45:37Z</time>
      </trkpt>
      <trkpt lat="37.753753" lon="-8.807713">
        <ele>63.142</ele>
        <time>2015-05-01T13:45:54Z</time>
      </trkpt>
      <trkpt lat="37.753675" lon="-8.807639">
        <ele>62.626</ele>
        <time>2015-05-01T13:46:11Z</time>
      </trkpt>
      <trkpt lat="37.753657" lon="-8.807645">
        <ele>63.607</ele>
        <time>2015-05-01T13:46:25Z</time>
      </trkpt>
      <trkpt lat="37.753594" lon="-8.807550">
        <ele>63.187</ele>
        <time>2015-05-01T13:46:38Z</time>
      </trkpt>
      <trkpt lat="37.753553" lon="-8.807483">
        <ele>63.614</ele>
        <time>2015-05-01T13:46:46Z</time>
      </trkpt>
      <trkpt lat="37.753530" lon="-8.807405">
        <ele>63.612</ele>
        <time>2015-05-01T13:46:54Z</time>
      </trkpt>
      <trkpt lat="37.753436" lon="-8.807189">
        <ele>64.198</ele>
        <time>2015-05-01T13:47:12Z</time>
      </trkpt>
      <trkpt lat="37.753441" lon="-8.806969">
        <ele>63.167</ele>
        <time>2015-05-01T13:47:32Z</time>
      </trkpt>
      <trkpt lat="37.753427" lon="-8.806765">
        <ele>63.623</ele>
        <time>2015-05-01T13:47:50Z</time>
      </trkpt>
      <trkpt lat="37.753414" lon="-8.806606">
        <ele>65.550</ele>
        <time>2015-05-01T13:48:09Z</time>
      </trkpt>
      <trkpt lat="37.753411" lon="-8.806612">
        <ele>66.535</ele>
        <time>2015-05-01T13:48:19Z</time>
      </trkpt>
      <trkpt lat="37.753397" lon="-8.806551">
        <ele>67.086</ele>
        <time>2015-05-01T13:48:23Z</time>
      </trkpt>
      <trkpt lat="37.753353" lon="-8.806511">
        <ele>67.014</ele>
        <time>2015-05-01T13:48:27Z</time>
      </trkpt>
      <trkpt lat="37.753269" lon="-8.806492">
        <ele>66.007</ele>
        <time>2015-05-01T13:48:35Z</time>
      </trkpt>
      <trkpt lat="37.753189" lon="-8.806418">
        <ele>66.522</ele>
        <time>2015-05-01T13:48:44Z</time>
      </trkpt>
      <trkpt lat="37.752945" lon="-8.806349">
        <ele>67.429</ele>
        <time>2015-05-01T13:49:05Z</time>
      </trkpt>
      <trkpt lat="37.752833" lon="-8.806322">
        <ele>66.547</ele>
        <time>2015-05-01T13:49:21Z</time>
      </trkpt>
      <trkpt lat="37.752689" lon="-8.806364">
        <ele>61.273</ele>
        <time>2015-05-01T13:49:35Z</time>
      </trkpt>
      <trkpt lat="37.752640" lon="-8.806389">
        <ele>56.472</ele>
        <time>2015-05-01T13:49:49Z</time>
      </trkpt>
      <trkpt lat="37.752560" lon="-8.806423">
        <ele>52.168</ele>
        <time>2015-05-01T13:50:05Z</time>
      </trkpt>
      <trkpt lat="37.752580" lon="-8.806433">
        <ele>51.635</ele>
        <time>2015-05-01T13:50:17Z</time>
      </trkpt>
      <trkpt lat="37.752575" lon="-8.806415">
        <ele>49.778</ele>
        <time>2015-05-01T13:50:37Z</time>
      </trkpt>
      <trkpt lat="37.752567" lon="-8.806417">
        <ele>49.233</ele>
        <time>2015-05-01T13:50:55Z</time>
      </trkpt>
      <trkpt lat="37.752556" lon="-8.806424">
        <ele>52.126</ele>
        <time>2015-05-01T13:51:14Z</time>
      </trkpt>
      <trkpt lat="37.752563" lon="-8.806481">
        <ele>51.607</ele>
        <time>2015-05-01T13:51:36Z</time>
      </trkpt>
      <trkpt lat="37.752567" lon="-8.806442">
        <ele>52.156</ele>
        <time>2015-05-01T13:51:56Z</time>
      </trkpt>
      <trkpt lat="37.752579" lon="-8.806425">
        <ele>50.673</ele>
        <time>2015-05-01T13:52:17Z</time>
      </trkpt>
      <trkpt lat="37.752559" lon="-8.806428">
        <ele>50.651</ele>
        <time>2015-05-01T13:52:37Z</time>
      </trkpt>
      <trkpt lat="37.752566" lon="-8.806445">
        <ele>49.767</ele>
        <time>2015-05-01T13:53:01Z</time>
      </trkpt>
      <trkpt lat="37.752571" lon="-8.806449">
        <ele>47.296</ele>
        <time>2015-05-01T13:53:23Z</time>
      </trkpt>
      <trkpt lat="37.752559" lon="-8.806433">
        <ele>50.192</ele>
        <time>2015-05-01T13:53:41Z</time>
      </trkpt>
      <trkpt lat="37.752573" lon="-8.806453">
        <ele>45.849</ele>
        <time>2015-05-01T13:53:58Z</time>
      </trkpt>
      <trkpt lat="37.752581" lon="-8.806493">
        <ele>43.438</ele>
        <time>2015-05-01T13:54:11Z</time>
      </trkpt>
      <trkpt lat="37.752568" lon="-8.806523">
        <ele>42.470</ele>
        <time>2015-05-01T13:54:24Z</time>
      </trkpt>
      <trkpt lat="37.752545" lon="-8.806601">
        <ele>38.617</ele>
        <time>2015-05-01T13:54:37Z</time>
      </trkpt>
      <trkpt lat="37.752478" lon="-8.806708">
        <ele>33.807</ele>
        <time>2015-05-01T13:54:52Z</time>
      </trkpt>
      <trkpt lat="37.752442" lon="-8.806749">
        <ele>28.092</ele>
        <time>2015-05-01T13:55:06Z</time>
      </trkpt>
      <trkpt lat="37.752383" lon="-8.806723">
        <ele>26.699</ele>
        <time>2015-05-01T13:55:19Z</time>
      </trkpt>
      <trkpt lat="37.752368" lon="-8.806700">
        <ele>24.717</ele>
        <time>2015-05-01T13:55:36Z</time>
      </trkpt>
      <trkpt lat="37.752332" lon="-8.806740">
        <ele>21.313</ele>
        <time>2015-05-01T13:55:46Z</time>
      </trkpt>
      <trkpt lat="37.752320" lon="-8.806772">
        <ele>18.442</ele>
        <time>2015-05-01T13:55:57Z</time>
      </trkpt>
      <trkpt lat="37.752335" lon="-8.806794">
        <ele>19.498</ele>
        <time>2015-05-01T13:56:06Z</time>
      </trkpt>
      <trkpt lat="37.752330" lon="-8.806811">
        <ele>18.495</ele>
        <time>2015-05-01T13:56:21Z</time>
      </trkpt>
      <trkpt lat="37.752314" lon="-8.806832">
        <ele>17.018</ele>
        <time>2015-05-01T13:56:39Z</time>
      </trkpt>
      <trkpt lat="37.752298" lon="-8.806892">
        <ele>15.598</ele>
        <time>2015-05-01T13:56:52Z</time>
      </trkpt>
      <trkpt lat="37.752282" lon="-8.806907">
        <ele>14.117</ele>
        <time>2015-05-01T13:57:05Z</time>
      </trkpt>
      <trkpt lat="37.752299" lon="-8.806942">
        <ele>13.107</ele>
        <time>2015-05-01T13:57:20Z</time>
      </trkpt>
      <trkpt lat="37.752306" lon="-8.806974">
        <ele>12.670</ele>
        <time>2015-05-01T13:57:32Z</time>
      </trkpt>
      <trkpt lat="37.752309" lon="-8.806979">
        <ele>13.187</ele>
        <time>2015-05-01T13:57:52Z</time>
      </trkpt>
      <trkpt lat="37.752324" lon="-8.806984">
        <ele>10.295</ele>
        <time>2015-05-01T13:58:04Z</time>
      </trkpt>
      <trkpt lat="37.752357" lon="-8.807006">
        <ele>9.881</ele>
        <time>2015-05-01T13:58:13Z</time>
      </trkpt>
      <trkpt lat="37.752362" lon="-8.807037">
        <ele>7.810</ele>
        <time>2015-05-01T13:58:24Z</time>
      </trkpt>
      <trkpt lat="37.752392" lon="-8.807115">
        <ele>4.916</ele>
        <time>2015-05-01T13:58:38Z</time>
      </trkpt>
      <trkpt lat="37.752412" lon="-8.807172">
        <ele>4.513</ele>
        <time>2015-05-01T13:58:44Z</time>
      </trkpt>
      <trkpt lat="37.752415" lon="-8.807246">
        <ele>4.542</ele>
        <time>2015-05-01T13:58:55Z</time>
      </trkpt>
      <trkpt lat="37.752427" lon="-8.807248">
        <ele>4.922</ele>
        <time>2015-05-01T13:59:22Z</time>
      </trkpt>
      <trkpt lat="37.752416" lon="-8.807254">
        <ele>33.314</ele>
        <time>2015-05-01T15:04:42Z</time>
      </trkpt>
      <trkpt lat="37.752432" lon="-8.807265">
        <ele>8.307</ele>
        <time>2015-05-01T15:05:10Z</time>
      </trkpt>
      <trkpt lat="37.752387" lon="-8.807133">
        <ele>8.313</ele>
        <time>2015-05-01T15:05:26Z</time>
      </trkpt>
      <trkpt lat="37.752389" lon="-8.807040">
        <ele>5.950</ele>
        <time>2015-05-01T15:05:39Z</time>
      </trkpt>
      <trkpt lat="37.752408" lon="-8.806984">
        <ele>5.458</ele>
        <time>2015-05-01T15:05:50Z</time>
      </trkpt>
      <trkpt lat="37.752395" lon="-8.806954">
        <ele>5.444</ele>
        <time>2015-05-01T15:06:01Z</time>
      </trkpt>
      <trkpt lat="37.752385" lon="-8.806909">
        <ele>6.473</ele>
        <time>2015-05-01T15:06:14Z</time>
      </trkpt>
      <trkpt lat="37.752329" lon="-8.806820">
        <ele>6.939</ele>
        <time>2015-05-01T15:06:25Z</time>
      </trkpt>
      <trkpt lat="37.752285" lon="-8.806774">
        <ele>6.936</ele>
        <time>2015-05-01T15:06:37Z</time>
      </trkpt>
      <trkpt lat="37.752239" lon="-8.806720">
        <ele>7.885</ele>
        <time>2015-05-01T15:06:52Z</time>
      </trkpt>
      <trkpt lat="37.752218" lon="-8.806674">
        <ele>7.889</ele>
        <time>2015-05-01T15:07:04Z</time>
      </trkpt>
      <trkpt lat="37.752317" lon="-8.806686">
        <ele>15.517</ele>
        <time>2015-05-01T15:07:19Z</time>
      </trkpt>
      <trkpt lat="37.752393" lon="-8.806721">
        <ele>20.807</ele>
        <time>2015-05-01T15:07:30Z</time>
      </trkpt>
      <trkpt lat="37.752453" lon="-8.806725">
        <ele>24.747</ele>
        <time>2015-05-01T15:07:39Z</time>
      </trkpt>
      <trkpt lat="37.752504" lon="-8.806694">
        <ele>29.034</ele>
        <time>2015-05-01T15:07:58Z</time>
      </trkpt>
      <trkpt lat="37.752517" lon="-8.806643">
        <ele>29.552</ele>
        <time>2015-05-01T15:08:08Z</time>
      </trkpt>
      <trkpt lat="37.752515" lon="-8.806592">
        <ele>30.478</ele>
        <time>2015-05-01T15:08:20Z</time>
      </trkpt>
      <trkpt lat="37.752551" lon="-8.806540">
        <ele>33.877</ele>
        <time>2015-05-01T15:08:37Z</time>
      </trkpt>
      <trkpt lat="37.752532" lon="-8.806493">
        <ele>36.263</ele>
        <time>2015-05-01T15:08:49Z</time>
      </trkpt>
      <trkpt lat="37.752545" lon="-8.806438">
        <ele>37.680</ele>
        <time>2015-05-01T15:09:01Z</time>
      </trkpt>
      <trkpt lat="37.752513" lon="-8.806392">
        <ele>39.679</ele>
        <time>2015-05-01T15:09:12Z</time>
      </trkpt>
      <trkpt lat="37.752505" lon="-8.806393">
        <ele>39.605</ele>
        <time>2015-05-01T15:09:13Z</time>
      </trkpt>
      <trkpt lat="37.752454" lon="-8.806418">
        <ele>40.025</ele>
        <time>2015-05-01T15:09:29Z</time>
      </trkpt>
      <trkpt lat="37.752432" lon="-8.806451">
        <ele>40.007</ele>
        <time>2015-05-01T15:09:59Z</time>
      </trkpt>
      <trkpt lat="37.752441" lon="-8.806464">
        <ele>41.056</ele>
        <time>2015-05-01T15:10:25Z</time>
      </trkpt>
      <trkpt lat="37.752434" lon="-8.806463">
        <ele>39.673</ele>
        <time>2015-05-01T15:10:51Z</time>
      </trkpt>
      <trkpt lat="37.752432" lon="-8.806440">
        <ele>38.621</ele>
        <time>2015-05-01T15:11:15Z</time>
      </trkpt>
      <trkpt lat="37.752425" lon="-8.806443">
        <ele>37.697</ele>
        <time>2015-05-01T15:11:49Z</time>
      </trkpt>
      <trkpt lat="37.752426" lon="-8.806442">
        <ele>40.046</ele>
        <time>2015-05-01T15:12:14Z</time>
      </trkpt>
      <trkpt lat="37.752440" lon="-8.806456">
        <ele>40.042</ele>
        <time>2015-05-01T15:12:38Z</time>
      </trkpt>
      <trkpt lat="37.752438" lon="-8.806459">
        <ele>38.159</ele>
        <time>2015-05-01T15:12:59Z</time>
      </trkpt>
      <trkpt lat="37.752441" lon="-8.806459">
        <ele>38.116</ele>
        <time>2015-05-01T15:13:22Z</time>
      </trkpt>
      <trkpt lat="37.752425" lon="-8.806459">
        <ele>37.676</ele>
        <time>2015-05-01T15:13:47Z</time>
      </trkpt>
      <trkpt lat="37.752430" lon="-8.806466">
        <ele>36.713</ele>
        <time>2015-05-01T15:14:10Z</time>
      </trkpt>
      <trkpt lat="37.752432" lon="-8.806465">
        <ele>37.607</ele>
        <time>2015-05-01T15:14:34Z</time>
      </trkpt>
      <trkpt lat="37.752421" lon="-8.806472">
        <ele>35.750</ele>
        <time>2015-05-01T15:15:03Z</time>
      </trkpt>
      <trkpt lat="37.752433" lon="-8.806459">
        <ele>36.227</ele>
        <time>2015-05-01T15:15:29Z</time>
      </trkpt>
      <trkpt lat="37.752421" lon="-8.806454">
        <ele>36.255</ele>
        <time>2015-05-01T15:15:43Z</time>
      </trkpt>
      <trkpt lat="37.752321" lon="-8.806472">
        <ele>36.721</ele>
        <time>2015-05-01T15:15:57Z</time>
      </trkpt>
      <trkpt lat="37.752290" lon="-8.806472">
        <ele>38.660</ele>
        <time>2015-05-01T15:16:04Z</time>
      </trkpt>
      <trkpt lat="37.752208" lon="-8.806546">
        <ele>39.626</ele>
        <time>2015-05-01T15:16:18Z</time>
      </trkpt>
      <trkpt lat="37.752204" lon="-8.806548">
        <ele>38.693</ele>
        <time>2015-05-01T15:16:42Z</time>
      </trkpt>
      <trkpt lat="37.752153" lon="-8.806615">
        <ele>40.586</ele>
        <time>2015-05-01T15:16:54Z</time>
      </trkpt>
      <trkpt lat="37.752131" lon="-8.806630">
        <ele>41.060</ele>
        <time>2015-05-01T15:17:10Z</time>
      </trkpt>
      <trkpt lat="37.752117" lon="-8.806649">
        <ele>42.026</ele>
        <time>2015-05-01T15:17:25Z</time>
      </trkpt>
      <trkpt lat="37.752117" lon="-8.806652">
        <ele>42.907</ele>
        <time>2015-05-01T15:17:38Z</time>
      </trkpt>
      <trkpt lat="37.752108" lon="-8.806643">
        <ele>43.447</ele>
        <time>2015-05-01T15:17:56Z</time>
      </trkpt>
      <trkpt lat="37.752072" lon="-8.806691">
        <ele>42.474</ele>
        <time>2015-05-01T15:18:11Z</time>
      </trkpt>
      <trkpt lat="37.752068" lon="-8.806700">
        <ele>45.392</ele>
        <time>2015-05-01T15:18:37Z</time>
      </trkpt>
      <trkpt lat="37.751970" lon="-8.806852">
        <ele>46.348</ele>
        <time>2015-05-01T15:18:53Z</time>
      </trkpt>
      <trkpt lat="37.751899" lon="-8.806952">
        <ele>46.387</ele>
        <time>2015-05-01T15:19:06Z</time>
      </trkpt>
      <trkpt lat="37.751830" lon="-8.807035">
        <ele>46.823</ele>
        <time>2015-05-01T15:19:20Z</time>
      </trkpt>
      <trkpt lat="37.751788" lon="-8.807158">
        <ele>47.210</ele>
        <time>2015-05-01T15:19:36Z</time>
      </trkpt>
      <trkpt lat="37.751766" lon="-8.807300">
        <ele>47.242</ele>
        <time>2015-05-01T15:19:51Z</time>
      </trkpt>
      <trkpt lat="37.751759" lon="-8.807416">
        <ele>46.822</ele>
        <time>2015-05-01T15:20:04Z</time>
      </trkpt>
      <trkpt lat="37.751733" lon="-8.807521">
        <ele>46.314</ele>
        <time>2015-05-01T15:20:14Z</time>
      </trkpt>
      <trkpt lat="37.751710" lon="-8.807692">
        <ele>45.307</ele>
        <time>2015-05-01T15:20:30Z</time>
      </trkpt>
      <trkpt lat="37.751714" lon="-8.807712">
        <ele>45.323</ele>
        <time>2015-05-01T15:20:32Z</time>
      </trkpt>
      <trkpt lat="37.751707" lon="-8.807834">
        <ele>44.820</ele>
        <time>2015-05-01T15:20:45Z</time>
      </trkpt>
      <trkpt lat="37.751699" lon="-8.807871">
        <ele>44.488</ele>
        <time>2015-05-01T15:20:50Z</time>
      </trkpt>
      <trkpt lat="37.751636" lon="-8.808033">
        <ele>43.984</ele>
        <time>2015-05-01T15:21:06Z</time>
      </trkpt>
      <trkpt lat="37.751569" lon="-8.808121">
        <ele>44.493</ele>
        <time>2015-05-01T15:21:17Z</time>
      </trkpt>
      <trkpt lat="37.751460" lon="-8.808241">
        <ele>44.839</ele>
        <time>2015-05-01T15:21:34Z</time>
      </trkpt>
      <trkpt lat="37.751421" lon="-8.808359">
        <ele>42.976</ele>
        <time>2015-05-01T15:21:48Z</time>
      </trkpt>
      <trkpt lat="37.751323" lon="-8.808507">
        <ele>42.481</ele>
        <time>2015-05-01T15:22:02Z</time>
      </trkpt>
      <trkpt lat="37.751291" lon="-8.808605">
        <ele>42.061</ele>
        <time>2015-05-01T15:22:11Z</time>
      </trkpt>
      <trkpt lat="37.751187" lon="-8.808764">
        <ele>41.017</ele>
        <time>2015-05-01T15:22:29Z</time>
      </trkpt>
      <trkpt lat="37.751103" lon="-8.808896">
        <ele>40.507</ele>
        <time>2015-05-01T15:22:44Z</time>
      </trkpt>
      <trkpt lat="37.751081" lon="-8.808967">
        <ele>39.667</ele>
        <time>2015-05-01T15:22:52Z</time>
      </trkpt>
      <trkpt lat="37.751092" lon="-8.809027">
        <ele>38.164</ele>
        <time>2015-05-01T15:22:58Z</time>
      </trkpt>
      <trkpt lat="37.751075" lon="-8.809107">
        <ele>37.262</ele>
        <time>2015-05-01T15:23:05Z</time>
      </trkpt>
      <trkpt lat="37.751054" lon="-8.809154">
        <ele>37.218</ele>
        <time>2015-05-01T15:23:09Z</time>
      </trkpt>
      <trkpt lat="37.750971" lon="-8.809309">
        <ele>37.217</ele>
        <time>2015-05-01T15:23:23Z</time>
      </trkpt>
      <trkpt lat="37.750905" lon="-8.809477">
        <ele>37.243</ele>
        <time>2015-05-01T15:23:37Z</time>
      </trkpt>
      <trkpt lat="37.750772" lon="-8.809605">
        <ele>38.160</ele>
        <time>2015-05-01T15:23:53Z</time>
      </trkpt>
      <trkpt lat="37.750653" lon="-8.809611">
        <ele>39.116</ele>
        <time>2015-05-01T15:24:06Z</time>
      </trkpt>
      <trkpt lat="37.750635" lon="-8.809605">
        <ele>39.176</ele>
        <time>2015-05-01T15:24:08Z</time>
      </trkpt>
      <trkpt lat="37.750604" lon="-8.809602">
        <ele>39.613</ele>
        <time>2015-05-01T15:24:11Z</time>
      </trkpt>
      <trkpt lat="37.750514" lon="-8.809554">
        <ele>41.507</ele>
        <time>2015-05-01T15:24:21Z</time>
      </trkpt>
      <trkpt lat="37.750496" lon="-8.809548">
        <ele>42.040</ele>
        <time>2015-05-01T15:24:23Z</time>
      </trkpt>
      <trkpt lat="37.750354" lon="-8.809432">
        <ele>44.867</ele>
        <time>2015-05-01T15:24:40Z</time>
      </trkpt>
      <trkpt lat="37.750183" lon="-8.809350">
        <ele>45.325</ele>
        <time>2015-05-01T15:24:57Z</time>
      </trkpt>
      <trkpt lat="37.750106" lon="-8.809343">
        <ele>44.861</ele>
        <time>2015-05-01T15:25:04Z</time>
      </trkpt>
      <trkpt lat="37.750032" lon="-8.809361">
        <ele>44.840</ele>
        <time>2015-05-01T15:25:11Z</time>
      </trkpt>
      <trkpt lat="37.749955" lon="-8.809355">
        <ele>44.816</ele>
        <time>2015-05-01T15:25:27Z</time>
      </trkpt>
      <trkpt lat="37.749912" lon="-8.809350">
        <ele>43.923</ele>
        <time>2015-05-01T15:25:48Z</time>
      </trkpt>
      <trkpt lat="37.749808" lon="-8.809329">
        <ele>46.317</ele>
        <time>2015-05-01T15:26:01Z</time>
      </trkpt>
      <trkpt lat="37.749765" lon="-8.809333">
        <ele>46.887</ele>
        <time>2015-05-01T15:26:06Z</time>
      </trkpt>
      <trkpt lat="37.749636" lon="-8.809370">
        <ele>46.315</ele>
        <time>2015-05-01T15:26:19Z</time>
      </trkpt>
      <trkpt lat="37.749546" lon="-8.809468">
        <ele>47.707</ele>
        <time>2015-05-01T15:26:32Z</time>
      </trkpt>
      <trkpt lat="37.749518" lon="-8.809522">
        <ele>46.860</ele>
        <time>2015-05-01T15:26:46Z</time>
      </trkpt>
      <trkpt lat="37.749462" lon="-8.809554">
        <ele>47.767</ele>
        <time>2015-05-01T15:27:04Z</time>
      </trkpt>
      <trkpt lat="37.749408" lon="-8.809637">
        <ele>47.225</ele>
        <time>2015-05-01T15:27:15Z</time>
      </trkpt>
      <trkpt lat="37.749353" lon="-8.809758">
        <ele>47.761</ele>
        <time>2015-05-01T15:27:29Z</time>
      </trkpt>
      <trkpt lat="37.749347" lon="-8.809774">
        <ele>47.730</ele>
        <time>2015-05-01T15:27:30Z</time>
      </trkpt>
      <trkpt lat="37.749318" lon="-8.809845">
        <ele>47.286</ele>
        <time>2015-05-01T15:27:36Z</time>
      </trkpt>
      <trkpt lat="37.749313" lon="-8.809904">
        <ele>46.883</ele>
        <time>2015-05-01T15:27:40Z</time>
      </trkpt>
      <trkpt lat="37.749303" lon="-8.809959">
        <ele>45.898</ele>
        <time>2015-05-01T15:27:44Z</time>
      </trkpt>
      <trkpt lat="37.749385" lon="-8.810142">
        <ele>41.015</ele>
        <time>2015-05-01T15:28:00Z</time>
      </trkpt>
      <trkpt lat="37.749387" lon="-8.810217">
        <ele>39.126</ele>
        <time>2015-05-01T15:28:11Z</time>
      </trkpt>
      <trkpt lat="37.749375" lon="-8.810210">
        <ele>37.607</ele>
        <time>2015-05-01T15:28:36Z</time>
      </trkpt>
      <trkpt lat="37.749369" lon="-8.810232">
        <ele>38.668</ele>
        <time>2015-05-01T15:28:48Z</time>
      </trkpt>
      <trkpt lat="37.749347" lon="-8.810416">
        <ele>38.135</ele>
        <time>2015-05-01T15:29:02Z</time>
      </trkpt>
      <trkpt lat="37.749347" lon="-8.810429">
        <ele>38.163</ele>
        <time>2015-05-01T15:29:03Z</time>
      </trkpt>
      <trkpt lat="37.749347" lon="-8.810516">
        <ele>36.769</ele>
        <time>2015-05-01T15:29:19Z</time>
      </trkpt>
      <trkpt lat="37.749349" lon="-8.810548">
        <ele>33.318</ele>
        <time>2015-05-01T15:29:34Z</time>
      </trkpt>
      <trkpt lat="37.749322" lon="-8.810649">
        <ele>32.884</ele>
        <time>2015-05-01T15:29:58Z</time>
      </trkpt>
      <trkpt lat="37.749303" lon="-8.810698">
        <ele>32.391</ele>
        <time>2015-05-01T15:30:02Z</time>
      </trkpt>
      <trkpt lat="37.749266" lon="-8.810742">
        <ele>32.319</ele>
        <time>2015-05-01T15:30:06Z</time>
      </trkpt>
      <trkpt lat="37.749108" lon="-8.810781">
        <ele>32.309</ele>
        <time>2015-05-01T15:30:21Z</time>
      </trkpt>
      <trkpt lat="37.748944" lon="-8.810763">
        <ele>30.419</ele>
        <time>2015-05-01T15:30:36Z</time>
      </trkpt>
      <trkpt lat="37.748781" lon="-8.810782">
        <ele>29.007</ele>
        <time>2015-05-01T15:30:51Z</time>
      </trkpt>
      <trkpt lat="37.748628" lon="-8.810754">
        <ele>30.970</ele>
        <time>2015-05-01T15:31:06Z</time>
      </trkpt>
      <trkpt lat="37.748583" lon="-8.810756">
        <ele>30.497</ele>
        <time>2015-05-01T15:31:10Z</time>
      </trkpt>
      <trkpt lat="37.748540" lon="-8.810748">
        <ele>29.925</ele>
        <time>2015-05-01T15:31:14Z</time>
      </trkpt>
      <trkpt lat="37.748371" lon="-8.810734">
        <ele>29.531</ele>
        <time>2015-05-01T15:31:29Z</time>
      </trkpt>
      <trkpt lat="37.748333" lon="-8.810735">
        <ele>29.510</ele>
        <time>2015-05-01T15:31:33Z</time>
      </trkpt>
      <trkpt lat="37.748201" lon="-8.810602">
        <ele>29.976</ele>
        <time>2015-05-01T15:31:50Z</time>
      </trkpt>
      <trkpt lat="37.748143" lon="-8.810551">
        <ele>30.443</ele>
        <time>2015-05-01T15:31:57Z</time>
      </trkpt>
      <trkpt lat="37.747990" lon="-8.810453">
        <ele>32.893</ele>
        <time>2015-05-01T15:32:13Z</time>
      </trkpt>
      <trkpt lat="37.747828" lon="-8.810420">
        <ele>34.365</ele>
        <time>2015-05-01T15:32:28Z</time>
      </trkpt>
      <trkpt lat="37.747753" lon="-8.810418">
        <ele>33.821</ele>
        <time>2015-05-01T15:32:35Z</time>
      </trkpt>
      <trkpt lat="37.747609" lon="-8.810491">
        <ele>34.707</ele>
        <time>2015-05-01T15:32:52Z</time>
      </trkpt>
      <trkpt lat="37.747591" lon="-8.810498">
        <ele>34.778</ele>
        <time>2015-05-01T15:32:54Z</time>
      </trkpt>
      <trkpt lat="37.747565" lon="-8.810513">
        <ele>34.785</ele>
        <time>2015-05-01T15:32:57Z</time>
      </trkpt>
      <trkpt lat="37.747413" lon="-8.810540">
        <ele>33.893</ele>
        <time>2015-05-01T15:33:12Z</time>
      </trkpt>
      <trkpt lat="37.747236" lon="-8.810585">
        <ele>33.329</ele>
        <time>2015-05-01T15:33:29Z</time>
      </trkpt>
      <trkpt lat="37.747227" lon="-8.810587">
        <ele>33.328</ele>
        <time>2015-05-01T15:33:30Z</time>
      </trkpt>
      <trkpt lat="37.747077" lon="-8.810640">
        <ele>33.354</ele>
        <time>2015-05-01T15:33:45Z</time>
      </trkpt>
      <trkpt lat="37.746845" lon="-8.810696">
        <ele>30.981</ele>
        <time>2015-05-01T15:34:05Z</time>
      </trkpt>
      <trkpt lat="37.746650" lon="-8.810685">
        <ele>29.937</ele>
        <time>2015-05-01T15:34:23Z</time>
      </trkpt>
      <trkpt lat="37.746456" lon="-8.810666">
        <ele>26.649</ele>
        <time>2015-05-01T15:34:41Z</time>
      </trkpt>
      <trkpt lat="37.746276" lon="-8.810670">
        <ele>25.113</ele>
        <time>2015-05-01T15:34:57Z</time>
      </trkpt>
      <trkpt lat="37.746062" lon="-8.810630">
        <ele>24.207</ele>
        <time>2015-05-01T15:35:15Z</time>
      </trkpt>
      <trkpt lat="37.745880" lon="-8.810585">
        <ele>24.282</ele>
        <time>2015-05-01T15:35:32Z</time>
      </trkpt>
      <trkpt lat="37.745739" lon="-8.810511">
        <ele>24.219</ele>
        <time>2015-05-01T15:35:47Z</time>
      </trkpt>
      <trkpt lat="37.745562" lon="-8.810457">
        <ele>24.787</ele>
        <time>2015-05-01T15:36:04Z</time>
      </trkpt>
      <trkpt lat="37.745367" lon="-8.810430">
        <ele>24.763</ele>
        <time>2015-05-01T15:36:21Z</time>
      </trkpt>
      <trkpt lat="37.745205" lon="-8.810400">
        <ele>24.242</ele>
        <time>2015-05-01T15:36:36Z</time>
      </trkpt>
      <trkpt lat="37.745020" lon="-8.810385">
        <ele>23.718</ele>
        <time>2015-05-01T15:36:53Z</time>
      </trkpt>
      <trkpt lat="37.744915" lon="-8.810423">
        <ele>24.265</ele>
        <time>2015-05-01T15:37:05Z</time>
      </trkpt>
      <trkpt lat="37.744895" lon="-8.810443">
        <ele>24.769</ele>
        <time>2015-05-01T15:37:08Z</time>
      </trkpt>
      <trkpt lat="37.744757" lon="-8.810557">
        <ele>26.104</ele>
        <time>2015-05-01T15:37:25Z</time>
      </trkpt>
      <trkpt lat="37.744575" lon="-8.810627">
        <ele>25.624</ele>
        <time>2015-05-01T15:37:43Z</time>
      </trkpt>
      <trkpt lat="37.744547" lon="-8.810648">
        <ele>25.607</ele>
        <time>2015-05-01T15:37:46Z</time>
      </trkpt>
      <trkpt lat="37.744331" lon="-8.810761">
        <ele>23.775</ele>
        <time>2015-05-01T15:38:06Z</time>
      </trkpt>
      <trkpt lat="37.744251" lon="-8.810808">
        <ele>22.782</ele>
        <time>2015-05-01T15:38:14Z</time>
      </trkpt>
      <trkpt lat="37.744208" lon="-8.810844">
        <ele>22.710</ele>
        <time>2015-05-01T15:38:19Z</time>
      </trkpt>
      <trkpt lat="37.744015" lon="-8.810851">
        <ele>23.786</ele>
        <time>2015-05-01T15:38:36Z</time>
      </trkpt>
      <trkpt lat="37.743848" lon="-8.810854">
        <ele>23.275</ele>
        <time>2015-05-01T15:38:52Z</time>
      </trkpt>
      <trkpt lat="37.743789" lon="-8.810850">
        <ele>21.831</ele>
        <time>2015-05-01T15:38:58Z</time>
      </trkpt>
      <trkpt lat="37.743736" lon="-8.810889">
        <ele>20.378</ele>
        <time>2015-05-01T15:39:04Z</time>
      </trkpt>
      <trkpt lat="37.743678" lon="-8.810911">
        <ele>19.463</ele>
        <time>2015-05-01T15:39:09Z</time>
      </trkpt>
      <trkpt lat="37.743488" lon="-8.810960">
        <ele>18.944</ele>
        <time>2015-05-01T15:39:26Z</time>
      </trkpt>
      <trkpt lat="37.743478" lon="-8.810959">
        <ele>18.918</ele>
        <time>2015-05-01T15:39:27Z</time>
      </trkpt>
      <trkpt lat="37.743307" lon="-8.810971">
        <ele>17.907</ele>
        <time>2015-05-01T15:39:43Z</time>
      </trkpt>
      <trkpt lat="37.743252" lon="-8.810955">
        <ele>18.915</ele>
        <time>2015-05-01T15:39:56Z</time>
      </trkpt>
      <trkpt lat="37.743193" lon="-8.810966">
        <ele>19.882</ele>
        <time>2015-05-01T15:40:05Z</time>
      </trkpt>
      <trkpt lat="37.743147" lon="-8.810968">
        <ele>19.410</ele>
        <time>2015-05-01T15:40:09Z</time>
      </trkpt>
      <trkpt lat="37.743082" lon="-8.810969">
        <ele>19.456</ele>
        <time>2015-05-01T15:40:21Z</time>
      </trkpt>
      <trkpt lat="37.743006" lon="-8.810906">
        <ele>18.975</ele>
        <time>2015-05-01T15:40:34Z</time>
      </trkpt>
      <trkpt lat="37.742953" lon="-8.810846">
        <ele>20.861</ele>
        <time>2015-05-01T15:40:48Z</time>
      </trkpt>
      <trkpt lat="37.742868" lon="-8.810748">
        <ele>21.368</ele>
        <time>2015-05-01T15:41:01Z</time>
      </trkpt>
      <trkpt lat="37.742773" lon="-8.810677">
        <ele>20.812</ele>
        <time>2015-05-01T15:41:11Z</time>
      </trkpt>
      <trkpt lat="37.742627" lon="-8.810539">
        <ele>22.332</ele>
        <time>2015-05-01T15:41:27Z</time>
      </trkpt>
      <trkpt lat="37.742460" lon="-8.810405">
        <ele>22.305</ele>
        <time>2015-05-01T15:41:46Z</time>
      </trkpt>
      <trkpt lat="37.742428" lon="-8.810362">
        <ele>24.207</ele>
        <time>2015-05-01T15:42:09Z</time>
      </trkpt>
      <trkpt lat="37.742287" lon="-8.810227">
        <ele>23.730</ele>
        <time>2015-05-01T15:42:26Z</time>
      </trkpt>
      <trkpt lat="37.742246" lon="-8.810204">
        <ele>22.757</ele>
        <time>2015-05-01T15:42:30Z</time>
      </trkpt>
      <trkpt lat="37.742073" lon="-8.810129">
        <ele>20.855</ele>
        <time>2015-05-01T15:42:47Z</time>
      </trkpt>
      <trkpt lat="37.741990" lon="-8.810011">
        <ele>19.841</ele>
        <time>2015-05-01T15:42:59Z</time>
      </trkpt>
      <trkpt lat="37.741974" lon="-8.809981">
        <ele>19.830</ele>
        <time>2015-05-01T15:43:02Z</time>
      </trkpt>
      <trkpt lat="37.741865" lon="-8.809851">
        <ele>19.496</ele>
        <time>2015-05-01T15:43:17Z</time>
      </trkpt>
      <trkpt lat="37.741767" lon="-8.809665">
        <ele>18.443</ele>
        <time>2015-05-01T15:43:34Z</time>
      </trkpt>
      <trkpt lat="37.741695" lon="-8.809479">
        <ele>18.456</ele>
        <time>2015-05-01T15:43:51Z</time>
      </trkpt>
      <trkpt lat="37.741601" lon="-8.809294">
        <ele>18.459</ele>
        <time>2015-05-01T15:44:07Z</time>
      </trkpt>
      <trkpt lat="37.741514" lon="-8.809100">
        <ele>19.814</ele>
        <time>2015-05-01T15:44:23Z</time>
      </trkpt>
      <trkpt lat="37.741393" lon="-8.808969">
        <ele>17.407</ele>
        <time>2015-05-01T15:44:38Z</time>
      </trkpt>
      <trkpt lat="37.741387" lon="-8.808817">
        <ele>17.914</ele>
        <time>2015-05-01T15:44:51Z</time>
      </trkpt>
      <trkpt lat="37.741360" lon="-8.808647">
        <ele>18.461</ele>
        <time>2015-05-01T15:45:06Z</time>
      </trkpt>
      <trkpt lat="37.741351" lon="-8.808500">
        <ele>18.419</ele>
        <time>2015-05-01T15:45:19Z</time>
      </trkpt>
      <trkpt lat="37.741362" lon="-8.808327">
        <ele>19.885</ele>
        <time>2015-05-01T15:45:34Z</time>
      </trkpt>
      <trkpt lat="37.741363" lon="-8.808286">
        <ele>20.344</ele>
        <time>2015-05-01T15:45:38Z</time>
      </trkpt>
      <trkpt lat="37.741358" lon="-8.808241">
        <ele>20.360</ele>
        <time>2015-05-01T15:45:42Z</time>
      </trkpt>
      <trkpt lat="37.741370" lon="-8.808144">
        <ele>21.317</ele>
        <time>2015-05-01T15:45:51Z</time>
      </trkpt>
      <trkpt lat="37.741365" lon="-8.808051">
        <ele>22.746</ele>
        <time>2015-05-01T15:45:59Z</time>
      </trkpt>
      <trkpt lat="37.741325" lon="-8.807871">
        <ele>24.788</ele>
        <time>2015-05-01T15:46:16Z</time>
      </trkpt>
      <trkpt lat="37.741274" lon="-8.807724">
        <ele>24.716</ele>
        <time>2015-05-01T15:46:32Z</time>
      </trkpt>
      <trkpt lat="37.741276" lon="-8.807646">
        <ele>25.607</ele>
        <time>2015-05-01T15:46:46Z</time>
      </trkpt>
      <trkpt lat="37.741270" lon="-8.807591">
        <ele>26.123</ele>
        <time>2015-05-01T15:46:51Z</time>
      </trkpt>
      <trkpt lat="37.741256" lon="-8.807573">
        <ele>25.690</ele>
        <time>2015-05-01T15:46:53Z</time>
      </trkpt>
      <trkpt lat="37.741243" lon="-8.807394">
        <ele>27.118</ele>
        <time>2015-05-01T15:47:09Z</time>
      </trkpt>
      <trkpt lat="37.741182" lon="-8.807216">
        <ele>26.674</ele>
        <time>2015-05-01T15:47:25Z</time>
      </trkpt>
      <trkpt lat="37.741082" lon="-8.807044">
        <ele>27.113</ele>
        <time>2015-05-01T15:47:41Z</time>
      </trkpt>
      <trkpt lat="37.741033" lon="-8.806972">
        <ele>27.179</ele>
        <time>2015-05-01T15:47:48Z</time>
      </trkpt>
      <trkpt lat="37.740933" lon="-8.806878">
        <ele>26.196</ele>
        <time>2015-05-01T15:48:00Z</time>
      </trkpt>
      <trkpt lat="37.740867" lon="-8.806688">
        <ele>25.643</ele>
        <time>2015-05-01T15:48:16Z</time>
      </trkpt>
      <trkpt lat="37.740843" lon="-8.806524">
        <ele>26.164</ele>
        <time>2015-05-01T15:48:29Z</time>
      </trkpt>
      <trkpt lat="37.740742" lon="-8.806313">
        <ele>23.710</ele>
        <time>2015-05-01T15:48:48Z</time>
      </trkpt>
      <trkpt lat="37.740662" lon="-8.806154">
        <ele>22.707</ele>
        <time>2015-05-01T15:49:04Z</time>
      </trkpt>
      <trkpt lat="37.740609" lon="-8.805991">
        <ele>23.253</ele>
        <time>2015-05-01T15:49:18Z</time>
      </trkpt>
      <trkpt lat="37.740563" lon="-8.805805">
        <ele>23.710</ele>
        <time>2015-05-01T15:49:34Z</time>
      </trkpt>
      <trkpt lat="37.740557" lon="-8.805633">
        <ele>24.768</ele>
        <time>2015-05-01T15:49:50Z</time>
      </trkpt>
      <trkpt lat="37.740555" lon="-8.805536">
        <ele>24.784</ele>
        <time>2015-05-01T15:49:58Z</time>
      </trkpt>
      <trkpt lat="37.740560" lon="-8.805389">
        <ele>24.713</ele>
        <time>2015-05-01T15:50:10Z</time>
      </trkpt>
      <trkpt lat="37.740579" lon="-8.805201">
        <ele>24.279</ele>
        <time>2015-05-01T15:50:24Z</time>
      </trkpt>
      <trkpt lat="37.740576" lon="-8.804990">
        <ele>24.736</ele>
        <time>2015-05-01T15:50:39Z</time>
      </trkpt>
      <trkpt lat="37.740576" lon="-8.804979">
        <ele>24.797</ele>
        <time>2015-05-01T15:50:40Z</time>
      </trkpt>
      <trkpt lat="37.740583" lon="-8.804794">
        <ele>24.223</ele>
        <time>2015-05-01T15:50:57Z</time>
      </trkpt>
      <trkpt lat="37.740583" lon="-8.804727">
        <ele>24.225</ele>
        <time>2015-05-01T15:51:03Z</time>
      </trkpt>
      <trkpt lat="37.740562" lon="-8.804676">
        <ele>24.707</ele>
        <time>2015-05-01T15:51:08Z</time>
      </trkpt>
      <trkpt lat="37.740465" lon="-8.804523">
        <ele>23.288</ele>
        <time>2015-05-01T15:51:24Z</time>
      </trkpt>
      <trkpt lat="37.740435" lon="-8.804398">
        <ele>23.225</ele>
        <time>2015-05-01T15:51:34Z</time>
      </trkpt>
      <trkpt lat="37.740431" lon="-8.804315">
        <ele>22.773</ele>
        <time>2015-05-01T15:51:40Z</time>
      </trkpt>
      <trkpt lat="37.740398" lon="-8.804192">
        <ele>23.769</ele>
        <time>2015-05-01T15:51:50Z</time>
      </trkpt>
      <trkpt lat="37.740267" lon="-8.804037">
        <ele>23.238</ele>
        <time>2015-05-01T15:52:07Z</time>
      </trkpt>
      <trkpt lat="37.740261" lon="-8.804025">
        <ele>22.754</ele>
        <time>2015-05-01T15:52:08Z</time>
      </trkpt>
      <trkpt lat="37.740246" lon="-8.803979">
        <ele>22.341</ele>
        <time>2015-05-01T15:52:12Z</time>
      </trkpt>
      <trkpt lat="37.740145" lon="-8.803799">
        <ele>20.337</ele>
        <time>2015-05-01T15:52:28Z</time>
      </trkpt>
      <trkpt lat="37.740143" lon="-8.803786">
        <ele>20.349</ele>
        <time>2015-05-01T15:52:29Z</time>
      </trkpt>
      <trkpt lat="37.740071" lon="-8.803573">
        <ele>21.313</ele>
        <time>2015-05-01T15:52:45Z</time>
      </trkpt>
      <trkpt lat="37.739954" lon="-8.803381">
        <ele>22.307</ele>
        <time>2015-05-01T15:53:01Z</time>
      </trkpt>
      <trkpt lat="37.739856" lon="-8.803263">
        <ele>24.792</ele>
        <time>2015-05-01T15:53:14Z</time>
      </trkpt>
      <trkpt lat="37.739807" lon="-8.803209">
        <ele>25.189</ele>
        <time>2015-05-01T15:53:21Z</time>
      </trkpt>
      <trkpt lat="37.739725" lon="-8.803099">
        <ele>25.657</ele>
        <time>2015-05-01T15:53:33Z</time>
      </trkpt>
      <trkpt lat="37.739638" lon="-8.802897">
        <ele>26.113</ele>
        <time>2015-05-01T15:53:50Z</time>
      </trkpt>
      <trkpt lat="37.739627" lon="-8.802875">
        <ele>25.612</ele>
        <time>2015-05-01T15:53:52Z</time>
      </trkpt>
      <trkpt lat="37.739626" lon="-8.802818">
        <ele>25.678</ele>
        <time>2015-05-01T15:53:56Z</time>
      </trkpt>
      <trkpt lat="37.739559" lon="-8.802561">
        <ele>24.265</ele>
        <time>2015-05-01T15:54:15Z</time>
      </trkpt>
      <trkpt lat="37.739449" lon="-8.802421">
        <ele>23.737</ele>
        <time>2015-05-01T15:54:29Z</time>
      </trkpt>
      <trkpt lat="37.739332" lon="-8.802381">
        <ele>23.249</ele>
        <time>2015-05-01T15:54:40Z</time>
      </trkpt>
      <trkpt lat="37.739177" lon="-8.802366">
        <ele>24.213</ele>
        <time>2015-05-01T15:54:54Z</time>
      </trkpt>
      <trkpt lat="37.739087" lon="-8.802124">
        <ele>24.707</ele>
        <time>2015-05-01T15:55:11Z</time>
      </trkpt>
      <trkpt lat="37.739044" lon="-8.801915">
        <ele>24.232</ele>
        <time>2015-05-01T15:55:26Z</time>
      </trkpt>
      <trkpt lat="37.738908" lon="-8.801731">
        <ele>26.159</ele>
        <time>2015-05-01T15:55:43Z</time>
      </trkpt>
      <trkpt lat="37.738778" lon="-8.801610">
        <ele>25.677</ele>
        <time>2015-05-01T15:55:59Z</time>
      </trkpt>
      <trkpt lat="37.738746" lon="-8.801541">
        <ele>26.113</ele>
        <time>2015-05-01T15:56:11Z</time>
      </trkpt>
      <trkpt lat="37.738710" lon="-8.801528">
        <ele>26.162</ele>
        <time>2015-05-01T15:56:15Z</time>
      </trkpt>
      <trkpt lat="37.738642" lon="-8.801516">
        <ele>25.698</ele>
        <time>2015-05-01T15:56:22Z</time>
      </trkpt>
      <trkpt lat="37.738586" lon="-8.801491">
        <ele>24.735</ele>
        <time>2015-05-01T15:56:27Z</time>
      </trkpt>
      <trkpt lat="37.738366" lon="-8.801381">
        <ele>22.333</ele>
        <time>2015-05-01T15:56:47Z</time>
      </trkpt>
      <trkpt lat="37.738092" lon="-8.801246">
        <ele>20.823</ele>
        <time>2015-05-01T15:57:09Z</time>
      </trkpt>
      <trkpt lat="37.737996" lon="-8.801040">
        <ele>19.815</ele>
        <time>2015-05-01T15:57:26Z</time>
      </trkpt>
      <trkpt lat="37.737982" lon="-8.800842">
        <ele>22.307</ele>
        <time>2015-05-01T15:57:41Z</time>
      </trkpt>
      <trkpt lat="37.737985" lon="-8.800808">
        <ele>24.292</ele>
        <time>2015-05-01T15:57:45Z</time>
      </trkpt>
      <trkpt lat="37.737987" lon="-8.800912">
        <ele>22.379</ele>
        <time>2015-05-01T17:13:45Z</time>
      </trkpt>
      <trkpt lat="37.737979" lon="-8.800795">
        <ele>30.987</ele>
        <time>2015-05-01T17:14:11Z</time>
      </trkpt>
      <trkpt lat="37.737973" lon="-8.800783">
        <ele>29.993</ele>
        <time>2015-05-01T17:14:37Z</time>
      </trkpt>
      <trkpt lat="37.737969" lon="-8.800714">
        <ele>29.582</ele>
        <time>2015-05-01T17:14:57Z</time>
      </trkpt>
      <trkpt lat="37.737969" lon="-8.800689">
        <ele>29.598</ele>
        <time>2015-05-01T17:14:59Z</time>
      </trkpt>
      <trkpt lat="37.737945" lon="-8.800421">
        <ele>30.985</ele>
        <time>2015-05-01T17:15:20Z</time>
      </trkpt>
      <trkpt lat="37.737964" lon="-8.800186">
        <ele>30.999</ele>
        <time>2015-05-01T17:15:36Z</time>
      </trkpt>
      <trkpt lat="37.738003" lon="-8.799927">
        <ele>31.407</ele>
        <time>2015-05-01T17:15:53Z</time>
      </trkpt>
      <trkpt lat="37.738024" lon="-8.799653">
        <ele>30.427</ele>
        <time>2015-05-01T17:16:11Z</time>
      </trkpt>
      <trkpt lat="37.738063" lon="-8.799374">
        <ele>30.907</ele>
        <time>2015-05-01T17:16:30Z</time>
      </trkpt>
      <trkpt lat="37.738083" lon="-8.799127">
        <ele>30.928</ele>
        <time>2015-05-01T17:16:47Z</time>
      </trkpt>
      <trkpt lat="37.738097" lon="-8.798983">
        <ele>31.445</ele>
        <time>2015-05-01T17:16:57Z</time>
      </trkpt>
      <trkpt lat="37.738093" lon="-8.798958">
        <ele>31.443</ele>
        <time>2015-05-01T17:16:59Z</time>
      </trkpt>
      <trkpt lat="37.738021" lon="-8.798697">
        <ele>30.959</ele>
        <time>2015-05-01T17:17:17Z</time>
      </trkpt>
      <trkpt lat="37.737982" lon="-8.798477">
        <ele>31.428</ele>
        <time>2015-05-01T17:17:33Z</time>
      </trkpt>
      <trkpt lat="37.737925" lon="-8.798173">
        <ele>32.894</ele>
        <time>2015-05-01T17:17:54Z</time>
      </trkpt>
      <trkpt lat="37.737858" lon="-8.797905">
        <ele>32.811</ele>
        <time>2015-05-01T17:18:12Z</time>
      </trkpt>
      <trkpt lat="37.737769" lon="-8.797669">
        <ele>33.354</ele>
        <time>2015-05-01T17:18:29Z</time>
      </trkpt>
      <trkpt lat="37.737627" lon="-8.797414">
        <ele>33.856</ele>
        <time>2015-05-01T17:18:49Z</time>
      </trkpt>
      <trkpt lat="37.737487" lon="-8.797198">
        <ele>33.811</ele>
        <time>2015-05-01T17:19:06Z</time>
      </trkpt>
      <trkpt lat="37.737291" lon="-8.796984">
        <ele>32.807</ele>
        <time>2015-05-01T17:19:27Z</time>
      </trkpt>
      <trkpt lat="37.737213" lon="-8.796916">
        <ele>31.964</ele>
        <time>2015-05-01T17:19:36Z</time>
      </trkpt>
      <trkpt lat="37.737030" lon="-8.796784">
        <ele>32.351</ele>
        <time>2015-05-01T17:19:53Z</time>
      </trkpt>
      <trkpt lat="37.736811" lon="-8.796655">
        <ele>31.939</ele>
        <time>2015-05-01T17:20:12Z</time>
      </trkpt>
      <trkpt lat="37.736626" lon="-8.796443">
        <ele>31.955</ele>
        <time>2015-05-01T17:20:32Z</time>
      </trkpt>
      <trkpt lat="37.736443" lon="-8.796250">
        <ele>32.814</ele>
        <time>2015-05-01T17:20:51Z</time>
      </trkpt>
      <trkpt lat="37.736321" lon="-8.796145">
        <ele>33.870</ele>
        <time>2015-05-01T17:21:04Z</time>
      </trkpt>
      <trkpt lat="37.736117" lon="-8.796039">
        <ele>32.837</ele>
        <time>2015-05-01T17:21:22Z</time>
      </trkpt>
      <trkpt lat="37.735917" lon="-8.795983">
        <ele>32.376</ele>
        <time>2015-05-01T17:21:40Z</time>
      </trkpt>
      <trkpt lat="37.735682" lon="-8.795923">
        <ele>30.990</ele>
        <time>2015-05-01T17:21:59Z</time>
      </trkpt>
      <trkpt lat="37.735461" lon="-8.795848">
        <ele>30.419</ele>
        <time>2015-05-01T17:22:18Z</time>
      </trkpt>
      <trkpt lat="37.735235" lon="-8.795724">
        <ele>30.407</ele>
        <time>2015-05-01T17:22:38Z</time>
      </trkpt>
      <trkpt lat="37.735000" lon="-8.795592">
        <ele>30.936</ele>
        <time>2015-05-01T17:22:59Z</time>
      </trkpt>
      <trkpt lat="37.734772" lon="-8.795474">
        <ele>30.473</ele>
        <time>2015-05-01T17:23:19Z</time>
      </trkpt>
      <trkpt lat="37.734561" lon="-8.795361">
        <ele>30.491</ele>
        <time>2015-05-01T17:23:38Z</time>
      </trkpt>
      <trkpt lat="37.734330" lon="-8.795228">
        <ele>29.947</ele>
        <time>2015-05-01T17:23:58Z</time>
      </trkpt>
      <trkpt lat="37.734107" lon="-8.795142">
        <ele>29.956</ele>
        <time>2015-05-01T17:24:17Z</time>
      </trkpt>
      <trkpt lat="37.733891" lon="-8.795091">
        <ele>30.482</ele>
        <time>2015-05-01T17:24:35Z</time>
      </trkpt>
      <trkpt lat="37.733699" lon="-8.794986">
        <ele>29.939</ele>
        <time>2015-05-01T17:24:52Z</time>
      </trkpt>
      <trkpt lat="37.733482" lon="-8.794866">
        <ele>30.497</ele>
        <time>2015-05-01T17:25:11Z</time>
      </trkpt>
      <trkpt lat="37.733337" lon="-8.794666">
        <ele>29.923</ele>
        <time>2015-05-01T17:25:29Z</time>
      </trkpt>
      <trkpt lat="37.733159" lon="-8.794511">
        <ele>30.425</ele>
        <time>2015-05-01T17:25:46Z</time>
      </trkpt>
      <trkpt lat="37.732955" lon="-8.794394">
        <ele>30.907</ele>
        <time>2015-05-01T17:26:04Z</time>
      </trkpt>
      <trkpt lat="37.732777" lon="-8.794332">
        <ele>31.448</ele>
        <time>2015-05-01T17:26:19Z</time>
      </trkpt>
      <trkpt lat="37.732591" lon="-8.794214">
        <ele>31.455</ele>
        <time>2015-05-01T17:26:37Z</time>
      </trkpt>
      <trkpt lat="37.732411" lon="-8.794059">
        <ele>30.933</ele>
        <time>2015-05-01T17:26:55Z</time>
      </trkpt>
      <trkpt lat="37.732207" lon="-8.793913">
        <ele>30.939</ele>
        <time>2015-05-01T17:27:14Z</time>
      </trkpt>
      <trkpt lat="37.732011" lon="-8.793776">
        <ele>30.988</ele>
        <time>2015-05-01T17:27:33Z</time>
      </trkpt>
      <trkpt lat="37.731793" lon="-8.793692">
        <ele>30.984</ele>
        <time>2015-05-01T17:27:52Z</time>
      </trkpt>
      <trkpt lat="37.731739" lon="-8.793643">
        <ele>31.461</ele>
        <time>2015-05-01T17:28:07Z</time>
      </trkpt>
      <trkpt lat="37.731661" lon="-8.793520">
        <ele>30.495</ele>
        <time>2015-05-01T17:28:19Z</time>
      </trkpt>
      <trkpt lat="37.731479" lon="-8.793231">
        <ele>30.949</ele>
        <time>2015-05-01T17:28:39Z</time>
      </trkpt>
      <trkpt lat="37.731180" lon="-8.793157">
        <ele>30.923</ele>
        <time>2015-05-01T17:29:01Z</time>
      </trkpt>
      <trkpt lat="37.730967" lon="-8.792924">
        <ele>30.407</ele>
        <time>2015-05-01T17:29:23Z</time>
      </trkpt>
      <trkpt lat="37.730785" lon="-8.792770">
        <ele>30.988</ele>
        <time>2015-05-01T17:29:41Z</time>
      </trkpt>
      <trkpt lat="37.730595" lon="-8.792599">
        <ele>31.435</ele>
        <time>2015-05-01T17:30:00Z</time>
      </trkpt>
      <trkpt lat="37.730420" lon="-8.792446">
        <ele>31.963</ele>
        <time>2015-05-01T17:30:18Z</time>
      </trkpt>
      <trkpt lat="37.730285" lon="-8.792369">
        <ele>32.829</ele>
        <time>2015-05-01T17:30:31Z</time>
      </trkpt>
      <trkpt lat="37.730150" lon="-8.792230">
        <ele>33.858</ele>
        <time>2015-05-01T17:30:44Z</time>
      </trkpt>
      <trkpt lat="37.730042" lon="-8.792092">
        <ele>33.334</ele>
        <time>2015-05-01T17:30:58Z</time>
      </trkpt>
      <trkpt lat="37.729923" lon="-8.792008">
        <ele>34.721</ele>
        <time>2015-05-01T17:31:08Z</time>
      </trkpt>
      <trkpt lat="37.729692" lon="-8.791834">
        <ele>33.896</ele>
        <time>2015-05-01T17:31:29Z</time>
      </trkpt>
      <trkpt lat="37.729473" lon="-8.791620">
        <ele>34.331</ele>
        <time>2015-05-01T17:31:51Z</time>
      </trkpt>
      <trkpt lat="37.729301" lon="-8.791470">
        <ele>34.324</ele>
        <time>2015-05-01T17:32:08Z</time>
      </trkpt>
      <trkpt lat="37.729067" lon="-8.791237">
        <ele>34.307</ele>
        <time>2015-05-01T17:32:32Z</time>
      </trkpt>
      <trkpt lat="37.728891" lon="-8.791084">
        <ele>33.858</ele>
        <time>2015-05-01T17:32:49Z</time>
      </trkpt>
      <trkpt lat="37.728722" lon="-8.790922">
        <ele>33.885</ele>
        <time>2015-05-01T17:33:06Z</time>
      </trkpt>
      <trkpt lat="37.728607" lon="-8.790790">
        <ele>35.243</ele>
        <time>2015-05-01T17:33:20Z</time>
      </trkpt>
      <trkpt lat="37.728426" lon="-8.790634">
        <ele>35.219</ele>
        <time>2015-05-01T17:33:39Z</time>
      </trkpt>
      <trkpt lat="37.728273" lon="-8.790484">
        <ele>33.818</ele>
        <time>2015-05-01T17:33:55Z</time>
      </trkpt>
      <trkpt lat="37.728091" lon="-8.790214">
        <ele>32.354</ele>
        <time>2015-05-01T17:34:15Z</time>
      </trkpt>
      <trkpt lat="37.727929" lon="-8.790009">
        <ele>31.461</ele>
        <time>2015-05-01T17:34:33Z</time>
      </trkpt>
      <trkpt lat="37.727798" lon="-8.789934">
        <ele>30.939</ele>
        <time>2015-05-01T17:34:46Z</time>
      </trkpt>
      <trkpt lat="37.727737" lon="-8.789953">
        <ele>30.901</ele>
        <time>2015-05-01T17:34:51Z</time>
      </trkpt>
      <trkpt lat="37.727504" lon="-8.789957">
        <ele>31.421</ele>
        <time>2015-05-01T17:35:09Z</time>
      </trkpt>
      <trkpt lat="37.727261" lon="-8.789953">
        <ele>29.507</ele>
        <time>2015-05-01T17:35:28Z</time>
      </trkpt>
      <trkpt lat="37.727052" lon="-8.790012">
        <ele>28.092</ele>
        <time>2015-05-01T17:35:45Z</time>
      </trkpt>
      <trkpt lat="37.726885" lon="-8.789939">
        <ele>27.569</ele>
        <time>2015-05-01T17:35:59Z</time>
      </trkpt>
      <trkpt lat="37.726639" lon="-8.789888">
        <ele>27.167</ele>
        <time>2015-05-01T17:36:19Z</time>
      </trkpt>
      <trkpt lat="37.726403" lon="-8.789846">
        <ele>26.653</ele>
        <time>2015-05-01T17:36:39Z</time>
      </trkpt>
      <trkpt lat="37.726287" lon="-8.789797">
        <ele>27.142</ele>
        <time>2015-05-01T17:36:50Z</time>
      </trkpt>
      <trkpt lat="37.726242" lon="-8.789751">
        <ele>26.188</ele>
        <time>2015-05-01T17:36:56Z</time>
      </trkpt>
      <trkpt lat="37.726052" lon="-8.789577">
        <ele>25.195</ele>
        <time>2015-05-01T17:37:15Z</time>
      </trkpt>
      <trkpt lat="37.725885" lon="-8.789429">
        <ele>25.128</ele>
        <time>2015-05-01T17:37:32Z</time>
      </trkpt>
      <trkpt lat="37.725735" lon="-8.789308">
        <ele>24.789</ele>
        <time>2015-05-01T17:37:48Z</time>
      </trkpt>
      <trkpt lat="37.725555" lon="-8.789139">
        <ele>23.717</ele>
        <time>2015-05-01T17:38:06Z</time>
      </trkpt>
      <trkpt lat="37.725335" lon="-8.788942">
        <ele>24.707</ele>
        <time>2015-05-01T17:38:27Z</time>
      </trkpt>
      <trkpt lat="37.725134" lon="-8.788767">
        <ele>25.111</ele>
        <time>2015-05-01T17:38:47Z</time>
      </trkpt>
      <trkpt lat="37.724983" lon="-8.788615">
        <ele>25.148</ele>
        <time>2015-05-01T17:39:02Z</time>
      </trkpt>
      <trkpt lat="37.724776" lon="-8.788427">
        <ele>24.736</ele>
        <time>2015-05-01T17:39:22Z</time>
      </trkpt>
      <trkpt lat="37.724597" lon="-8.788275">
        <ele>24.762</ele>
        <time>2015-05-01T17:39:39Z</time>
      </trkpt>
      <trkpt lat="37.724473" lon="-8.788170">
        <ele>24.291</ele>
        <time>2015-05-01T17:39:52Z</time>
      </trkpt>
      <trkpt lat="37.724460" lon="-8.788144">
        <ele>24.717</ele>
        <time>2015-05-01T17:39:55Z</time>
      </trkpt>
      <trkpt lat="37.724356" lon="-8.787946">
        <ele>25.164</ele>
        <time>2015-05-01T17:40:08Z</time>
      </trkpt>
      <trkpt lat="37.724272" lon="-8.787825">
        <ele>24.252</ele>
        <time>2015-05-01T17:40:19Z</time>
      </trkpt>
      <trkpt lat="37.724199" lon="-8.787764">
        <ele>23.753</ele>
        <time>2015-05-01T17:40:28Z</time>
      </trkpt>
      <trkpt lat="37.724152" lon="-8.787700">
        <ele>23.708</ele>
        <time>2015-05-01T17:40:33Z</time>
      </trkpt>
      <trkpt lat="37.724095" lon="-8.787616">
        <ele>23.707</ele>
        <time>2015-05-01T17:40:38Z</time>
      </trkpt>
      <trkpt lat="37.724041" lon="-8.787566">
        <ele>23.744</ele>
        <time>2015-05-01T17:40:45Z</time>
      </trkpt>
      <trkpt lat="37.723885" lon="-8.787348">
        <ele>24.751</ele>
        <time>2015-05-01T17:41:02Z</time>
      </trkpt>
      <trkpt lat="37.723787" lon="-8.787272">
        <ele>25.159</ele>
        <time>2015-05-01T17:41:12Z</time>
      </trkpt>
      <trkpt lat="37.723730" lon="-8.787148">
        <ele>24.785</ele>
        <time>2015-05-01T17:41:23Z</time>
      </trkpt>
      <trkpt lat="37.723704" lon="-8.787093">
        <ele>25.174</ele>
        <time>2015-05-01T17:41:38Z</time>
      </trkpt>
      <trkpt lat="37.723647" lon="-8.786934">
        <ele>24.220</ele>
        <time>2015-05-01T17:41:53Z</time>
      </trkpt>
      <trkpt lat="37.723551" lon="-8.786696">
        <ele>23.257</ele>
        <time>2015-05-01T17:42:09Z</time>
      </trkpt>
      <trkpt lat="37.723430" lon="-8.786490">
        <ele>23.729</ele>
        <time>2015-05-01T17:42:27Z</time>
      </trkpt>
      <trkpt lat="37.723368" lon="-8.786428">
        <ele>23.700</ele>
        <time>2015-05-01T17:42:42Z</time>
      </trkpt>
      <trkpt lat="37.723371" lon="-8.786417">
        <ele>24.220</ele>
        <time>2015-05-01T17:42:46Z</time>
      </trkpt>
      <trkpt lat="37.723446" lon="-8.786157">
        <ele>24.707</ele>
        <time>2015-05-01T17:43:05Z</time>
      </trkpt>
      <trkpt lat="37.723523" lon="-8.785896">
        <ele>24.791</ele>
        <time>2015-05-01T17:43:24Z</time>
      </trkpt>
      <trkpt lat="37.723589" lon="-8.785652">
        <ele>24.738</ele>
        <time>2015-05-01T17:43:40Z</time>
      </trkpt>
      <trkpt lat="37.723597" lon="-8.785452">
        <ele>26.186</ele>
        <time>2015-05-01T17:43:56Z</time>
      </trkpt>
      <trkpt lat="37.723622" lon="-8.785166">
        <ele>25.182</ele>
        <time>2015-05-01T17:44:14Z</time>
      </trkpt>
      <trkpt lat="37.723632" lon="-8.784910">
        <ele>23.251</ele>
        <time>2015-05-01T17:44:31Z</time>
      </trkpt>
      <trkpt lat="37.723641" lon="-8.784686">
        <ele>21.877</ele>
        <time>2015-05-01T17:44:49Z</time>
      </trkpt>
      <trkpt lat="37.723626" lon="-8.784437">
        <ele>19.834</ele>
        <time>2015-05-01T17:45:06Z</time>
      </trkpt>
      <trkpt lat="37.723609" lon="-8.784309">
        <ele>20.367</ele>
        <time>2015-05-01T17:45:18Z</time>
      </trkpt>
      <trkpt lat="37.723605" lon="-8.784278">
        <ele>25.181</ele>
        <time>2015-05-01T17:45:38Z</time>
      </trkpt>
      <trkpt lat="37.723592" lon="-8.784248">
        <ele>28.019</ele>
        <time>2015-05-01T17:45:54Z</time>
      </trkpt>
      <trkpt lat="37.723599" lon="-8.784250">
        <ele>26.107</ele>
        <time>2015-05-01T17:46:07Z</time>
      </trkpt>
      <trkpt lat="37.723587" lon="-8.784244">
        <ele>24.255</ele>
        <time>2015-05-01T17:46:23Z</time>
      </trkpt>
      <trkpt lat="37.723587" lon="-8.784257">
        <ele>23.222</ele>
        <time>2015-05-01T17:46:33Z</time>
      </trkpt>
      <trkpt lat="37.723583" lon="-8.784246">
        <ele>35.780</ele>
        <time>2015-05-01T18:04:27Z</time>
      </trkpt>
      <trkpt lat="37.723594" lon="-8.784213">
        <ele>34.316</ele>
        <time>2015-05-01T18:04:58Z</time>
      </trkpt>
      <trkpt lat="37.723585" lon="-8.784221">
        <ele>32.325</ele>
        <time>2015-05-01T18:05:37Z</time>
      </trkpt>
      <trkpt lat="37.723584" lon="-8.784220">
        <ele>34.721</ele>
        <time>2015-05-01T18:06:09Z</time>
      </trkpt>
      <trkpt lat="37.723583" lon="-8.784220">
        <ele>34.358</ele>
        <time>2015-05-01T18:06:17Z</time>
      </trkpt>
      <trkpt lat="37.723583" lon="-8.784218">
        <ele>23.246</ele>
        <time>2015-05-01T18:06:46Z</time>
      </trkpt>
      <trkpt lat="37.723589" lon="-8.784238">
        <ele>29.988</ele>
        <time>2015-05-01T18:07:26Z</time>
      </trkpt>
      <trkpt lat="37.723586" lon="-8.784232">
        <ele>25.616</ele>
        <time>2015-05-01T18:08:07Z</time>
      </trkpt>
      <trkpt lat="37.723568" lon="-8.784234">
        <ele>30.974</ele>
        <time>2015-05-02T07:53:43Z</time>
      </trkpt>
      <trkpt lat="37.723080" lon="-8.783151">
        <ele>19.456</ele>
        <time>2015-05-02T07:58:11Z</time>
      </trkpt>
      <trkpt lat="37.723297" lon="-8.782107">
        <ele>17.021</ele>
        <time>2015-05-02T07:59:41Z</time>
      </trkpt>
      <trkpt lat="37.724489" lon="-8.781576">
        <ele>11.207</ele>
        <time>2015-05-02T08:02:35Z</time>
      </trkpt>
      <trkpt lat="37.725513" lon="-8.780681">
        <ele>40.026</ele>
        <time>2015-05-02T08:03:58Z</time>
      </trkpt>
      <trkpt lat="37.730296" lon="-8.775243">
        <ele>39.693</ele>
        <time>2015-05-02T08:52:37Z</time>
      </trkpt>
      <trkpt lat="37.733093" lon="-8.772423">
        <ele>44.491</ele>
        <time>2015-05-02T08:57:11Z</time>
      </trkpt>
      <trkpt lat="37.733191" lon="-8.772120">
        <ele>46.325</ele>
        <time>2015-05-02T08:57:31Z</time>
      </trkpt>
      <trkpt lat="37.733021" lon="-8.771828">
        <ele>40.063</ele>
        <time>2015-05-02T08:58:01Z</time>
      </trkpt>
      <trkpt lat="37.732830" lon="-8.771788">
        <ele>40.583</ele>
        <time>2015-05-02T08:58:16Z</time>
      </trkpt>
      <trkpt lat="37.732040" lon="-8.771970">
        <ele>41.046</ele>
        <time>2015-05-02T08:59:16Z</time>
      </trkpt>
      <trkpt lat="37.731024" lon="-8.771974">
        <ele>34.739</ele>
        <time>2015-05-02T09:00:34Z</time>
      </trkpt>
      <trkpt lat="37.729379" lon="-8.771508">
        <ele>31.901</ele>
        <time>2015-05-02T09:02:46Z</time>
      </trkpt>
      <trkpt lat="37.723374" lon="-8.768184">
        <ele>32.321</ele>
        <time>2015-05-02T09:12:48Z</time>
      </trkpt>
      <trkpt lat="37.721040" lon="-8.767254">
        <ele>41.507</ele>
        <time>2015-05-02T09:15:42Z</time>
      </trkpt>
      <trkpt lat="37.720893" lon="-8.767304">
        <ele>42.972</ele>
        <time>2015-05-02T09:15:58Z</time>
      </trkpt>
      <trkpt lat="37.720839" lon="-8.767576">
        <ele>46.319</ele>
        <time>2015-05-02T09:16:20Z</time>
      </trkpt>
      <trkpt lat="37.720996" lon="-8.768487">
        <ele>49.227</ele>
        <time>2015-05-02T09:17:48Z</time>
      </trkpt>
      <trkpt lat="37.720881" lon="-8.769702">
        <ele>47.271</ele>
        <time>2015-05-02T09:26:09Z</time>
      </trkpt>
      <trkpt lat="37.720408" lon="-8.769842">
        <ele>42.079</ele>
        <time>2015-05-02T09:27:07Z</time>
      </trkpt>
      <trkpt lat="37.720295" lon="-8.770379">
        <ele>32.849</ele>
        <time>2015-05-02T09:27:47Z</time>
      </trkpt>
      <trkpt lat="37.719888" lon="-8.770767">
        <ele>39.622</ele>
        <time>2015-05-02T09:28:42Z</time>
      </trkpt>
      <trkpt lat="37.720363" lon="-8.771560">
        <ele>49.275</ele>
        <time>2015-05-02T09:29:48Z</time>
      </trkpt>
      <trkpt lat="37.720590" lon="-8.772634">
        <ele>47.228</ele>
        <time>2015-05-02T09:34:00Z</time>
      </trkpt>
      <trkpt lat="37.720032" lon="-8.774798">
        <ele>36.720</ele>
        <time>2015-05-02T09:43:50Z</time>
      </trkpt>
      <trkpt lat="37.720391" lon="-8.775035">
        <ele>39.607</ele>
        <time>2015-05-02T09:44:21Z</time>
      </trkpt>
      <trkpt lat="37.720640" lon="-8.775528">
        <ele>35.756</ele>
        <time>2015-05-02T09:45:08Z</time>
      </trkpt>
      <trkpt lat="37.720601" lon="-8.775813">
        <ele>39.153</ele>
        <time>2015-05-02T09:45:24Z</time>
      </trkpt>
      <trkpt lat="37.720106" lon="-8.776206">
        <ele>41.551</ele>
        <time>2015-05-02T09:46:13Z</time>
      </trkpt>
      <trkpt lat="37.720021" lon="-8.776133">
        <ele>41.585</ele>
        <time>2015-05-02T09:46:26Z</time>
      </trkpt>
      <trkpt lat="37.719707" lon="-8.776848">
        <ele>38.653</ele>
        <time>2015-05-02T09:47:40Z</time>
      </trkpt>
      <trkpt lat="37.720069" lon="-8.777420">
        <ele>28.553</ele>
        <time>2015-05-02T09:49:43Z</time>
      </trkpt>
      <trkpt lat="37.719723" lon="-8.778304">
        <ele>12.246</ele>
        <time>2015-05-02T09:51:26Z</time>
      </trkpt>
      <trkpt lat="37.720001" lon="-8.778376">
        <ele>9.363</ele>
        <time>2015-05-02T09:51:50Z</time>
      </trkpt>
      <trkpt lat="37.719627" lon="-8.779758">
        <ele>12.644</ele>
        <time>2015-05-02T09:53:21Z</time>
      </trkpt>
      <trkpt lat="37.719778" lon="-8.780172">
        <ele>10.218</ele>
        <time>2015-05-02T09:54:40Z</time>
      </trkpt>
      <trkpt lat="37.719477" lon="-8.780906">
        <ele>9.307</ele>
        <time>2015-05-02T09:56:48Z</time>
      </trkpt>
      <trkpt lat="37.719397" lon="-8.782454">
        <ele>10.735</ele>
        <time>2015-05-02T09:58:16Z</time>
      </trkpt>
      <trkpt lat="37.718943" lon="-8.783362">
        <ele>11.742</ele>
        <time>2015-05-02T10:00:43Z</time>
      </trkpt>
      <trkpt lat="37.718948" lon="-8.783662">
        <ele>11.220</ele>
        <time>2015-05-02T10:01:09Z</time>
      </trkpt>
      <trkpt lat="37.718643" lon="-8.783803">
        <ele>7.484</ele>
        <time>2015-05-02T10:02:30Z</time>
      </trkpt>
      <trkpt lat="37.717965" lon="-8.783617">
        <ele>4.082</ele>
        <time>2015-05-02T10:03:23Z</time>
      </trkpt>
      <trkpt lat="37.717036" lon="-8.784201">
        <ele>6.472</ele>
        <time>2015-05-02T10:04:49Z</time>
      </trkpt>
      <trkpt lat="37.715559" lon="-8.784168">
        <ele>7.425</ele>
        <time>2015-05-02T10:06:42Z</time>
      </trkpt>
      <trkpt lat="37.715225" lon="-8.784543">
        <ele>4.986</ele>
        <time>2015-05-02T10:07:18Z</time>
      </trkpt>
      <trkpt lat="37.714517" lon="-8.784877">
        <ele>3.560</ele>
        <time>2015-05-02T10:08:25Z</time>
      </trkpt>
      <trkpt lat="37.714253" lon="-8.783765">
        <ele>25.126</ele>
        <time>2015-05-02T10:10:26Z</time>
      </trkpt>
      <trkpt lat="37.714276" lon="-8.782122">
        <ele>40.007</ele>
        <time>2015-05-02T10:12:23Z</time>
      </trkpt>
      <trkpt lat="37.714079" lon="-8.781713">
        <ele>42.467</ele>
        <time>2015-05-02T10:12:55Z</time>
      </trkpt>
      <trkpt lat="37.713432" lon="-8.781014">
        <ele>38.154</ele>
        <time>2015-05-02T10:14:30Z</time>
      </trkpt>
      <trkpt lat="37.713174" lon="-8.780942">
        <ele>36.712</ele>
        <time>2015-05-02T10:14:50Z</time>
      </trkpt>
      <trkpt lat="37.712909" lon="-8.781224">
        <ele>38.196</ele>
        <time>2015-05-02T10:15:17Z</time>
      </trkpt>
      <trkpt lat="37.713149" lon="-8.782086">
        <ele>36.794</ele>
        <time>2015-05-02T10:16:26Z</time>
      </trkpt>
      <trkpt lat="37.713101" lon="-8.782380">
        <ele>36.764</ele>
        <time>2015-05-02T10:16:45Z</time>
      </trkpt>
      <trkpt lat="37.712312" lon="-8.782664">
        <ele>38.177</ele>
        <time>2015-05-02T10:17:54Z</time>
      </trkpt>
      <trkpt lat="37.712039" lon="-8.783232">
        <ele>40.045</ele>
        <time>2015-05-02T10:20:42Z</time>
      </trkpt>
      <trkpt lat="37.711506" lon="-8.783833">
        <ele>41.047</ele>
        <time>2015-05-02T10:21:38Z</time>
      </trkpt>
      <trkpt lat="37.712381" lon="-8.784996">
        <ele>34.311</ele>
        <time>2015-05-02T10:23:30Z</time>
      </trkpt>
      <trkpt lat="37.712327" lon="-8.785727">
        <ele>33.307</ele>
        <time>2015-05-02T10:24:45Z</time>
      </trkpt>
      <trkpt lat="37.712105" lon="-8.786290">
        <ele>29.033</ele>
        <time>2015-05-02T10:25:23Z</time>
      </trkpt>
      <trkpt lat="37.711646" lon="-8.786815">
        <ele>31.910</ele>
        <time>2015-05-02T10:26:06Z</time>
      </trkpt>
      <trkpt lat="37.711260" lon="-8.786807">
        <ele>30.948</ele>
        <time>2015-05-02T10:26:39Z</time>
      </trkpt>
      <trkpt lat="37.711176" lon="-8.787205">
        <ele>32.832</ele>
        <time>2015-05-02T10:27:05Z</time>
      </trkpt>
      <trkpt lat="37.710553" lon="-8.787724">
        <ele>32.310</ele>
        <time>2015-05-02T10:28:04Z</time>
      </trkpt>
      <trkpt lat="37.709728" lon="-8.788004">
        <ele>33.310</ele>
        <time>2015-05-02T10:29:08Z</time>
      </trkpt>
      <trkpt lat="37.707295" lon="-8.789391">
        <ele>24.243</ele>
        <time>2015-05-02T10:32:33Z</time>
      </trkpt>
      <trkpt lat="37.706587" lon="-8.790710">
        <ele>18.917</ele>
        <time>2015-05-02T10:34:17Z</time>
      </trkpt>
      <trkpt lat="37.705746" lon="-8.791316">
        <ele>23.287</ele>
        <time>2015-05-02T10:35:40Z</time>
      </trkpt>
      <trkpt lat="37.705562" lon="-8.792218">
        <ele>12.615</ele>
        <time>2015-05-02T10:40:04Z</time>
      </trkpt>
      <trkpt lat="37.705266" lon="-8.792319">
        <ele>18.407</ele>
        <time>2015-05-02T10:43:53Z</time>
      </trkpt>
      <trkpt lat="37.704962" lon="-8.792938">
        <ele>18.430</ele>
        <time>2015-05-02T10:45:07Z</time>
      </trkpt>
      <trkpt lat="37.704168" lon="-8.792574">
        <ele>20.827</ele>
        <time>2015-05-02T10:46:27Z</time>
      </trkpt>
      <trkpt lat="37.702345" lon="-8.793017">
        <ele>28.515</ele>
        <time>2015-05-02T10:49:19Z</time>
      </trkpt>
      <trkpt lat="37.701263" lon="-8.793616">
        <ele>28.589</ele>
        <time>2015-05-02T10:51:21Z</time>
      </trkpt>
      <trkpt lat="37.701044" lon="-8.794052">
        <ele>25.697</ele>
        <time>2015-05-02T10:52:02Z</time>
      </trkpt>
      <trkpt lat="37.700276" lon="-8.794478">
        <ele>19.867</ele>
        <time>2015-05-02T10:53:10Z</time>
      </trkpt>
      <trkpt lat="37.699973" lon="-8.794377">
        <ele>19.840</ele>
        <time>2015-05-02T10:53:56Z</time>
      </trkpt>
      <trkpt lat="37.699451" lon="-8.793706">
        <ele>25.126</ele>
        <time>2015-05-02T10:55:01Z</time>
      </trkpt>
      <trkpt lat="37.699178" lon="-8.793676">
        <ele>26.647</ele>
        <time>2015-05-02T10:58:27Z</time>
      </trkpt>
      <trkpt lat="37.699049" lon="-8.793323">
        <ele>26.111</ele>
        <time>2015-05-02T11:02:36Z</time>
      </trkpt>
      <trkpt lat="37.697958" lon="-8.791873">
        <ele>31.907</ele>
        <time>2015-05-02T11:04:56Z</time>
      </trkpt>
      <trkpt lat="37.697553" lon="-8.791659">
        <ele>32.821</ele>
        <time>2015-05-02T11:05:33Z</time>
      </trkpt>
      <trkpt lat="37.696933" lon="-8.791557">
        <ele>34.358</ele>
        <time>2015-05-02T11:06:23Z</time>
      </trkpt>
      <trkpt lat="37.696574" lon="-8.791835">
        <ele>32.826</ele>
        <time>2015-05-02T11:06:56Z</time>
      </trkpt>
      <trkpt lat="37.696304" lon="-8.791860">
        <ele>31.490</ele>
        <time>2015-05-02T11:07:16Z</time>
      </trkpt>
      <trkpt lat="37.694338" lon="-8.791446">
        <ele>36.768</ele>
        <time>2015-05-02T11:58:32Z</time>
      </trkpt>
      <trkpt lat="37.691792" lon="-8.791517">
        <ele>34.398</ele>
        <time>2015-05-02T12:02:26Z</time>
      </trkpt>
      <trkpt lat="37.691099" lon="-8.792278">
        <ele>31.481</ele>
        <time>2015-05-02T12:03:46Z</time>
      </trkpt>
      <trkpt lat="37.690152" lon="-8.792597">
        <ele>28.561</ele>
        <time>2015-05-02T12:05:09Z</time>
      </trkpt>
      <trkpt lat="37.689501" lon="-8.792640">
        <ele>31.921</ele>
        <time>2015-05-02T12:06:06Z</time>
      </trkpt>
      <trkpt lat="37.688532" lon="-8.791786">
        <ele>31.913</ele>
        <time>2015-05-02T12:09:16Z</time>
      </trkpt>
      <trkpt lat="37.688005" lon="-8.792851">
        <ele>31.407</ele>
        <time>2015-05-02T12:11:28Z</time>
      </trkpt>
      <trkpt lat="37.687753" lon="-8.793095">
        <ele>35.775</ele>
        <time>2015-05-02T12:12:25Z</time>
      </trkpt>
      <trkpt lat="37.687374" lon="-8.793197">
        <ele>32.852</ele>
        <time>2015-05-02T12:13:10Z</time>
      </trkpt>
      <trkpt lat="37.686717" lon="-8.792902">
        <ele>29.970</ele>
        <time>2015-05-02T12:14:06Z</time>
      </trkpt>
      <trkpt lat="37.685947" lon="-8.793185">
        <ele>18.914</ele>
        <time>2015-05-02T12:15:22Z</time>
      </trkpt>
      <trkpt lat="37.685043" lon="-8.793921">
        <ele>24.262</ele>
        <time>2015-05-02T12:17:12Z</time>
      </trkpt>
      <trkpt lat="37.684879" lon="-8.794330">
        <ele>24.712</ele>
        <time>2015-05-02T12:17:50Z</time>
      </trkpt>
      <trkpt lat="37.684237" lon="-8.794599">
        <ele>21.865</ele>
        <time>2015-05-02T12:18:50Z</time>
      </trkpt>
      <trkpt lat="37.683728" lon="-8.795041">
        <ele>25.113</ele>
        <time>2015-05-02T12:20:09Z</time>
      </trkpt>
      <trkpt lat="37.683377" lon="-8.794848">
        <ele>23.743</ele>
        <time>2015-05-02T12:21:26Z</time>
      </trkpt>
      <trkpt lat="37.683139" lon="-8.794882">
        <ele>22.307</ele>
        <time>2015-05-02T12:21:47Z</time>
      </trkpt>
      <trkpt lat="37.682978" lon="-8.794634">
        <ele>18.407</ele>
        <time>2015-05-02T12:22:09Z</time>
      </trkpt>
      <trkpt lat="37.682419" lon="-8.794796">
        <ele>18.420</ele>
        <time>2015-05-02T12:23:08Z</time>
      </trkpt>
      <trkpt lat="37.681321" lon="-8.794512">
        <ele>21.817</ele>
        <time>2015-05-02T12:24:50Z</time>
      </trkpt>
      <trkpt lat="37.680981" lon="-8.794217">
        <ele>23.225</ele>
        <time>2015-05-02T12:25:24Z</time>
      </trkpt>
      <trkpt lat="37.680832" lon="-8.793597">
        <ele>19.829</ele>
        <time>2015-05-02T12:26:03Z</time>
      </trkpt>
      <trkpt lat="37.680639" lon="-8.793522">
        <ele>22.747</ele>
        <time>2015-05-02T12:26:19Z</time>
      </trkpt>
      <trkpt lat="37.679701" lon="-8.793802">
        <ele>27.147</ele>
        <time>2015-05-02T12:28:33Z</time>
      </trkpt>
      <trkpt lat="37.679363" lon="-8.793712">
        <ele>27.110</ele>
        <time>2015-05-02T12:29:30Z</time>
      </trkpt>
      <trkpt lat="37.679079" lon="-8.794840">
        <ele>28.071</ele>
        <time>2015-05-02T12:33:36Z</time>
      </trkpt>
      <trkpt lat="37.678582" lon="-8.795091">
        <ele>24.741</ele>
        <time>2015-05-02T12:34:30Z</time>
      </trkpt>
      <trkpt lat="37.678223" lon="-8.795514">
        <ele>22.715</ele>
        <time>2015-05-02T12:35:51Z</time>
      </trkpt>
      <trkpt lat="37.677798" lon="-8.795157">
        <ele>24.207</ele>
        <time>2015-05-02T12:36:47Z</time>
      </trkpt>
      <trkpt lat="37.677225" lon="-8.795188">
        <ele>22.776</ele>
        <time>2015-05-02T12:37:54Z</time>
      </trkpt>
      <trkpt lat="37.676612" lon="-8.794737">
        <ele>23.263</ele>
        <time>2015-05-02T12:39:12Z</time>
      </trkpt>
      <trkpt lat="37.676371" lon="-8.794955">
        <ele>24.281</ele>
        <time>2015-05-02T12:39:40Z</time>
      </trkpt>
      <trkpt lat="37.675042" lon="-8.795283">
        <ele>25.165</ele>
        <time>2015-05-02T12:41:50Z</time>
      </trkpt>
      <trkpt lat="37.674625" lon="-8.795263">
        <ele>24.253</ele>
        <time>2015-05-02T12:42:28Z</time>
      </trkpt>
      <trkpt lat="37.673475" lon="-8.795735">
        <ele>26.113</ele>
        <time>2015-05-02T12:44:40Z</time>
      </trkpt>
      <trkpt lat="37.673104" lon="-8.795601">
        <ele>25.646</ele>
        <time>2015-05-02T12:45:19Z</time>
      </trkpt>
      <trkpt lat="37.672762" lon="-8.795736">
        <ele>27.168</ele>
        <time>2015-05-02T12:45:56Z</time>
      </trkpt>
      <trkpt lat="37.672461" lon="-8.795573">
        <ele>28.542</ele>
        <time>2015-05-02T12:46:32Z</time>
      </trkpt>
      <trkpt lat="37.672153" lon="-8.795780">
        <ele>29.526</ele>
        <time>2015-05-02T12:47:05Z</time>
      </trkpt>
      <trkpt lat="37.671821" lon="-8.796413">
        <ele>29.507</ele>
        <time>2015-05-02T12:48:41Z</time>
      </trkpt>
      <trkpt lat="37.671465" lon="-8.796480">
        <ele>28.595</ele>
        <time>2015-05-02T12:49:24Z</time>
      </trkpt>
      <trkpt lat="37.671248" lon="-8.796760">
        <ele>28.032</ele>
        <time>2015-05-02T12:49:56Z</time>
      </trkpt>
      <trkpt lat="37.670128" lon="-8.797258">
        <ele>29.990</ele>
        <time>2015-05-02T12:52:03Z</time>
      </trkpt>
      <trkpt lat="37.670014" lon="-8.797459">
        <ele>27.194</ele>
        <time>2015-05-02T12:52:24Z</time>
      </trkpt>
      <trkpt lat="37.669753" lon="-8.797332">
        <ele>24.712</ele>
        <time>2015-05-02T12:52:52Z</time>
      </trkpt>
      <trkpt lat="37.669010" lon="-8.797589">
        <ele>28.552</ele>
        <time>2015-05-02T12:54:09Z</time>
      </trkpt>
      <trkpt lat="37.668455" lon="-8.797618">
        <ele>29.555</ele>
        <time>2015-05-02T12:55:14Z</time>
      </trkpt>
      <trkpt lat="37.667781" lon="-8.797949">
        <ele>29.542</ele>
        <time>2015-05-02T12:56:45Z</time>
      </trkpt>
      <trkpt lat="37.667240" lon="-8.797762">
        <ele>30.422</ele>
        <time>2015-05-02T12:57:49Z</time>
      </trkpt>
      <trkpt lat="37.667103" lon="-8.797944">
        <ele>29.514</ele>
        <time>2015-05-02T12:58:07Z</time>
      </trkpt>
      <trkpt lat="37.667244" lon="-8.798442">
        <ele>30.907</ele>
        <time>2015-05-02T12:59:04Z</time>
      </trkpt>
      <trkpt lat="37.666836" lon="-8.799251">
        <ele>24.283</ele>
        <time>2015-05-02T13:00:25Z</time>
      </trkpt>
      <trkpt lat="37.666445" lon="-8.799243">
        <ele>24.260</ele>
        <time>2015-05-02T13:01:05Z</time>
      </trkpt>
      <trkpt lat="37.665270" lon="-8.799938">
        <ele>24.788</ele>
        <time>2015-05-02T13:03:16Z</time>
      </trkpt>
      <trkpt lat="37.664989" lon="-8.799954">
        <ele>25.182</ele>
        <time>2015-05-02T13:03:48Z</time>
      </trkpt>
      <trkpt lat="37.664684" lon="-8.800344">
        <ele>25.120</ele>
        <time>2015-05-02T13:04:38Z</time>
      </trkpt>
      <trkpt lat="37.664598" lon="-8.800974">
        <ele>20.350</ele>
        <time>2015-05-02T13:05:49Z</time>
      </trkpt>
      <trkpt lat="37.664298" lon="-8.801260">
        <ele>22.393</ele>
        <time>2015-05-02T13:07:26Z</time>
      </trkpt>
      <trkpt lat="37.663928" lon="-8.801308">
        <ele>24.241</ele>
        <time>2015-05-02T13:08:16Z</time>
      </trkpt>
      <trkpt lat="37.662849" lon="-8.800629">
        <ele>23.781</ele>
        <time>2015-05-02T13:10:23Z</time>
      </trkpt>
      <trkpt lat="37.662661" lon="-8.800843">
        <ele>23.709</ele>
        <time>2015-05-02T13:10:52Z</time>
      </trkpt>
      <trkpt lat="37.662196" lon="-8.800858">
        <ele>25.107</ele>
        <time>2015-05-02T13:11:36Z</time>
      </trkpt>
      <trkpt lat="37.661797" lon="-8.801092">
        <ele>23.233</ele>
        <time>2015-05-02T13:12:21Z</time>
      </trkpt>
      <trkpt lat="37.661246" lon="-8.802002">
        <ele>22.370</ele>
        <time>2015-05-02T13:13:56Z</time>
      </trkpt>
      <trkpt lat="37.660855" lon="-8.802029">
        <ele>20.848</ele>
        <time>2015-05-02T13:14:38Z</time>
      </trkpt>
      <trkpt lat="37.660499" lon="-8.801774">
        <ele>23.772</ele>
        <time>2015-05-02T13:15:23Z</time>
      </trkpt>
      <trkpt lat="37.659881" lon="-8.801797">
        <ele>22.790</ele>
        <time>2015-05-02T13:16:17Z</time>
      </trkpt>
      <trkpt lat="37.659745" lon="-8.802082">
        <ele>20.370</ele>
        <time>2015-05-02T13:16:44Z</time>
      </trkpt>
      <trkpt lat="37.659534" lon="-8.802171">
        <ele>19.833</ele>
        <time>2015-05-02T13:17:00Z</time>
      </trkpt>
      <trkpt lat="37.659225" lon="-8.802125">
        <ele>19.414</ele>
        <time>2015-05-02T13:17:29Z</time>
      </trkpt>
      <trkpt lat="37.659057" lon="-8.801943">
        <ele>19.854</ele>
        <time>2015-05-02T13:17:50Z</time>
      </trkpt>
      <trkpt lat="37.658634" lon="-8.800607">
        <ele>20.309</ele>
        <time>2015-05-02T13:20:11Z</time>
      </trkpt>
      <trkpt lat="37.658261" lon="-8.800181">
        <ele>23.707</ele>
        <time>2015-05-02T13:23:46Z</time>
      </trkpt>
      <trkpt lat="37.658001" lon="-8.800287">
        <ele>-11.970</ele>
        <time>2015-05-02T14:54:39Z</time>
      </trkpt>
      <trkpt lat="37.658158" lon="-8.800273">
        <ele>14.617</ele>
        <time>2015-05-02T14:55:39Z</time>
      </trkpt>
      <trkpt lat="37.658142" lon="-8.800126">
        <ele>17.455</ele>
        <time>2015-05-02T14:55:54Z</time>
      </trkpt>
      <trkpt lat="37.658273" lon="-8.800189">
        <ele>20.319</ele>
        <time>2015-05-02T14:56:12Z</time>
      </trkpt>
      <trkpt lat="37.658095" lon="-8.799501">
        <ele>24.727</ele>
        <time>2015-05-02T14:57:27Z</time>
      </trkpt>
      <trkpt lat="37.658107" lon="-8.798770">
        <ele>29.047</ele>
        <time>2015-05-02T14:58:41Z</time>
      </trkpt>
      <trkpt lat="37.657874" lon="-8.797909">
        <ele>31.960</ele>
        <time>2015-05-02T14:59:55Z</time>
      </trkpt>
      <trkpt lat="37.657572" lon="-8.797669">
        <ele>29.536</ele>
        <time>2015-05-02T15:00:27Z</time>
      </trkpt>
      <trkpt lat="37.657404" lon="-8.797104">
        <ele>31.917</ele>
        <time>2015-05-02T15:01:02Z</time>
      </trkpt>
      <trkpt lat="37.657883" lon="-8.796095">
        <ele>29.018</ele>
        <time>2015-05-02T15:02:06Z</time>
      </trkpt>
      <trkpt lat="37.658988" lon="-8.794785">
        <ele>32.307</ele>
        <time>2015-05-02T15:03:52Z</time>
      </trkpt>
      <trkpt lat="37.659102" lon="-8.794263">
        <ele>34.352</ele>
        <time>2015-05-02T15:04:36Z</time>
      </trkpt>
      <trkpt lat="37.655904" lon="-8.791560">
        <ele>29.069</ele>
        <time>2015-05-02T15:09:14Z</time>
      </trkpt>
      <trkpt lat="37.655755" lon="-8.791321">
        <ele>30.457</ele>
        <time>2015-05-02T15:09:31Z</time>
      </trkpt>
      <trkpt lat="37.656054" lon="-8.790935">
        <ele>29.021</ele>
        <time>2015-05-02T15:10:05Z</time>
      </trkpt>
      <trkpt lat="37.655953" lon="-8.790159">
        <ele>28.539</ele>
        <time>2015-05-02T15:10:56Z</time>
      </trkpt>
      <trkpt lat="37.654974" lon="-8.789990">
        <ele>21.839</ele>
        <time>2015-05-02T15:12:14Z</time>
      </trkpt>
      <trkpt lat="37.654532" lon="-8.789632">
        <ele>24.712</ele>
        <time>2015-05-02T15:13:02Z</time>
      </trkpt>
      <trkpt lat="37.653964" lon="-8.790427">
        <ele>29.019</ele>
        <time>2015-05-02T15:14:12Z</time>
      </trkpt>
      <trkpt lat="37.653994" lon="-8.791048">
        <ele>39.109</ele>
        <time>2015-05-02T15:15:11Z</time>
      </trkpt>
      <trkpt lat="37.653563" lon="-8.791712">
        <ele>28.019</ele>
        <time>2015-05-02T15:16:51Z</time>
      </trkpt>
      <trkpt lat="37.653495" lon="-8.791861">
        <ele>27.116</ele>
        <time>2015-05-03T07:49:48Z</time>
      </trkpt>
      <trkpt lat="37.653544" lon="-8.791719">
        <ele>37.676</ele>
        <time>2015-05-03T07:50:35Z</time>
      </trkpt>
      <trkpt lat="37.653145" lon="-8.792310">
        <ele>32.313</ele>
        <time>2015-05-03T07:51:43Z</time>
      </trkpt>
      <trkpt lat="37.653030" lon="-8.792633">
        <ele>37.607</ele>
        <time>2015-05-03T07:52:16Z</time>
      </trkpt>
      <trkpt lat="37.653108" lon="-8.792894">
        <ele>33.320</ele>
        <time>2015-05-03T08:05:24Z</time>
      </trkpt>
      <trkpt lat="37.653717" lon="-8.793766">
        <ele>32.387</ele>
        <time>2015-05-03T08:07:24Z</time>
      </trkpt>
      <trkpt lat="37.654246" lon="-8.794128">
        <ele>32.376</ele>
        <time>2015-05-03T08:08:56Z</time>
      </trkpt>
      <trkpt lat="37.654705" lon="-8.793678">
        <ele>26.183</ele>
        <time>2015-05-03T08:09:47Z</time>
      </trkpt>
      <trkpt lat="37.654957" lon="-8.793912">
        <ele>21.846</ele>
        <time>2015-05-03T08:10:18Z</time>
      </trkpt>
      <trkpt lat="37.655155" lon="-8.795704">
        <ele>14.635</ele>
        <time>2015-05-03T08:12:48Z</time>
      </trkpt>
      <trkpt lat="37.655724" lon="-8.797307">
        <ele>8.825</ele>
        <time>2015-05-03T08:15:06Z</time>
      </trkpt>
      <trkpt lat="37.657471" lon="-8.798938">
        <ele>8.314</ele>
        <time>2015-05-03T08:19:07Z</time>
      </trkpt>
      <trkpt lat="37.657390" lon="-8.799897">
        <ele>10.754</ele>
        <time>2015-05-03T08:20:58Z</time>
      </trkpt>
      <trkpt lat="37.657174" lon="-8.799754">
        <ele>20.309</ele>
        <time>2015-05-03T08:22:02Z</time>
      </trkpt>
      <trkpt lat="37.656760" lon="-8.801002">
        <ele>23.207</ele>
        <time>2015-05-03T08:31:58Z</time>
      </trkpt>
      <trkpt lat="37.656259" lon="-8.801533">
        <ele>21.830</ele>
        <time>2015-05-03T08:33:27Z</time>
      </trkpt>
      <trkpt lat="37.655750" lon="-8.801788">
        <ele>17.447</ele>
        <time>2015-05-03T08:34:22Z</time>
      </trkpt>
      <trkpt lat="37.654783" lon="-8.801549">
        <ele>16.526</ele>
        <time>2015-05-03T08:35:55Z</time>
      </trkpt>
      <trkpt lat="37.654487" lon="-8.801658">
        <ele>16.063</ele>
        <time>2015-05-03T08:36:38Z</time>
      </trkpt>
      <trkpt lat="37.653895" lon="-8.801413">
        <ele>17.996</ele>
        <time>2015-05-03T08:38:47Z</time>
      </trkpt>
      <trkpt lat="37.653564" lon="-8.801744">
        <ele>21.365</ele>
        <time>2015-05-03T08:40:22Z</time>
      </trkpt>
      <trkpt lat="37.653082" lon="-8.801349">
        <ele>23.755</ele>
        <time>2015-05-03T08:41:31Z</time>
      </trkpt>
      <trkpt lat="37.652718" lon="-8.800423">
        <ele>28.034</ele>
        <time>2015-05-03T08:44:11Z</time>
      </trkpt>
      <trkpt lat="37.649334" lon="-8.803084">
        <ele>27.155</ele>
        <time>2015-05-03T08:50:32Z</time>
      </trkpt>
      <trkpt lat="37.648079" lon="-8.804638">
        <ele>19.410</ele>
        <time>2015-05-03T08:53:04Z</time>
      </trkpt>
      <trkpt lat="37.644981" lon="-8.805842">
        <ele>20.307</ele>
        <time>2015-05-03T08:57:55Z</time>
      </trkpt>
      <trkpt lat="37.643017" lon="-8.806280">
        <ele>26.122</ele>
        <time>2015-05-03T09:00:29Z</time>
      </trkpt>
      <trkpt lat="37.641181" lon="-8.806504">
        <ele>26.149</ele>
        <time>2015-05-03T09:02:54Z</time>
      </trkpt>
      <trkpt lat="37.639681" lon="-8.806960">
        <ele>28.528</ele>
        <time>2015-05-03T09:04:56Z</time>
      </trkpt>
      <trkpt lat="37.637971" lon="-8.807258">
        <ele>35.715</ele>
        <time>2015-05-03T09:07:15Z</time>
      </trkpt>
      <trkpt lat="37.637160" lon="-8.808014">
        <ele>34.378</ele>
        <time>2015-05-03T09:09:03Z</time>
      </trkpt>
      <trkpt lat="37.636292" lon="-8.807658">
        <ele>41.527</ele>
        <time>2015-05-03T09:11:05Z</time>
      </trkpt>
      <trkpt lat="37.635997" lon="-8.807684">
        <ele>42.997</ele>
        <time>2015-05-03T09:12:11Z</time>
      </trkpt>
      <trkpt lat="37.635646" lon="-8.807909">
        <ele>41.031</ele>
        <time>2015-05-03T09:12:57Z</time>
      </trkpt>
      <trkpt lat="37.635358" lon="-8.808730">
        <ele>45.361</ele>
        <time>2015-05-03T09:14:19Z</time>
      </trkpt>
      <trkpt lat="37.634843" lon="-8.809039">
        <ele>39.607</ele>
        <time>2015-05-03T09:15:31Z</time>
      </trkpt>
      <trkpt lat="37.633856" lon="-8.809150">
        <ele>42.407</ele>
        <time>2015-05-03T09:18:31Z</time>
      </trkpt>
      <trkpt lat="37.633263" lon="-8.808676">
        <ele>47.772</ele>
        <time>2015-05-03T09:20:59Z</time>
      </trkpt>
      <trkpt lat="37.632123" lon="-8.809167">
        <ele>48.739</ele>
        <time>2015-05-03T09:23:23Z</time>
      </trkpt>
      <trkpt lat="37.631904" lon="-8.809072">
        <ele>46.388</ele>
        <time>2015-05-03T09:23:57Z</time>
      </trkpt>
      <trkpt lat="37.631281" lon="-8.809271">
        <ele>47.795</ele>
        <time>2015-05-03T09:25:10Z</time>
      </trkpt>
      <trkpt lat="37.630700" lon="-8.809186">
        <ele>47.798</ele>
        <time>2015-05-03T09:26:03Z</time>
      </trkpt>
      <trkpt lat="37.629511" lon="-8.810369">
        <ele>44.827</ele>
        <time>2015-05-03T09:30:22Z</time>
      </trkpt>
      <trkpt lat="37.628593" lon="-8.810156">
        <ele>50.617</ele>
        <time>2015-05-03T09:31:50Z</time>
      </trkpt>
      <trkpt lat="37.627766" lon="-8.809667">
        <ele>55.476</ele>
        <time>2015-05-03T09:33:07Z</time>
      </trkpt>
      <trkpt lat="37.627170" lon="-8.809759">
        <ele>56.990</ele>
        <time>2015-05-03T09:34:01Z</time>
      </trkpt>
      <trkpt lat="37.626594" lon="-8.810058">
        <ele>56.419</ele>
        <time>2015-05-03T09:34:59Z</time>
      </trkpt>
      <trkpt lat="37.626228" lon="-8.810039">
        <ele>56.907</ele>
        <time>2015-05-03T09:36:02Z</time>
      </trkpt>
      <trkpt lat="37.625691" lon="-8.809665">
        <ele>66.546</ele>
        <time>2015-05-03T09:38:26Z</time>
      </trkpt>
      <trkpt lat="37.625461" lon="-8.809042">
        <ele>66.583</ele>
        <time>2015-05-03T09:41:07Z</time>
      </trkpt>
      <trkpt lat="37.625165" lon="-8.808832">
        <ele>67.952</ele>
        <time>2015-05-03T09:43:24Z</time>
      </trkpt>
      <trkpt lat="37.624328" lon="-8.808530">
        <ele>69.889</ele>
        <time>2015-05-03T09:44:46Z</time>
      </trkpt>
      <trkpt lat="37.624006" lon="-8.808631">
        <ele>68.442</ele>
        <time>2015-05-03T09:45:17Z</time>
      </trkpt>
      <trkpt lat="37.623631" lon="-8.808549">
        <ele>67.921</ele>
        <time>2015-05-03T09:45:53Z</time>
      </trkpt>
      <trkpt lat="37.622942" lon="-8.808738">
        <ele>67.041</ele>
        <time>2015-05-03T09:47:06Z</time>
      </trkpt>
      <trkpt lat="37.622482" lon="-8.809616">
        <ele>65.085</ele>
        <time>2015-05-03T09:49:58Z</time>
      </trkpt>
      <trkpt lat="37.622174" lon="-8.809692">
        <ele>64.689</ele>
        <time>2015-05-03T09:50:28Z</time>
      </trkpt>
      <trkpt lat="37.620620" lon="-8.808753">
        <ele>69.417</ele>
        <time>2015-05-03T09:54:00Z</time>
      </trkpt>
      <trkpt lat="37.619092" lon="-8.807039">
        <ele>77.007</ele>
        <time>2015-05-03T10:00:17Z</time>
      </trkpt>
      <trkpt lat="37.618471" lon="-8.805969">
        <ele>79.527</ele>
        <time>2015-05-03T10:02:04Z</time>
      </trkpt>
      <trkpt lat="37.618005" lon="-8.805479">
        <ele>74.664</ele>
        <time>2015-05-03T10:03:22Z</time>
      </trkpt>
      <trkpt lat="37.616296" lon="-8.805035">
        <ele>67.033</ele>
        <time>2015-05-03T10:05:47Z</time>
      </trkpt>
      <trkpt lat="37.615728" lon="-8.805429">
        <ele>64.650</ele>
        <time>2015-05-03T10:06:46Z</time>
      </trkpt>
      <trkpt lat="37.615252" lon="-8.805331">
        <ele>62.633</ele>
        <time>2015-05-03T10:07:26Z</time>
      </trkpt>
      <trkpt lat="37.615096" lon="-8.805018">
        <ele>59.752</ele>
        <time>2015-05-03T10:07:57Z</time>
      </trkpt>
      <trkpt lat="37.614889" lon="-8.805162">
        <ele>74.642</ele>
        <time>2015-05-03T10:10:23Z</time>
      </trkpt>
      <trkpt lat="37.614928" lon="-8.805021">
        <ele>82.375</ele>
        <time>2015-05-03T10:12:20Z</time>
      </trkpt>
      <trkpt lat="37.614745" lon="-8.805118">
        <ele>74.628</ele>
        <time>2015-05-03T10:13:24Z</time>
      </trkpt>
      <trkpt lat="37.613715" lon="-8.804687">
        <ele>64.620</ele>
        <time>2015-05-03T10:14:53Z</time>
      </trkpt>
      <trkpt lat="37.612668" lon="-8.804783">
        <ele>59.707</ele>
        <time>2015-05-03T10:16:15Z</time>
      </trkpt>
      <trkpt lat="37.612144" lon="-8.806046">
        <ele>65.086</ele>
        <time>2015-05-03T10:19:04Z</time>
      </trkpt>
      <trkpt lat="37.612179" lon="-8.806430">
        <ele>65.553</ele>
        <time>2015-05-03T10:19:35Z</time>
      </trkpt>
      <trkpt lat="37.612020" lon="-8.806483">
        <ele>64.192</ele>
        <time>2015-05-03T10:19:52Z</time>
      </trkpt>
      <trkpt lat="37.611808" lon="-8.807262">
        <ele>62.189</ele>
        <time>2015-05-03T10:20:56Z</time>
      </trkpt>
      <trkpt lat="37.610989" lon="-8.808559">
        <ele>57.892</ele>
        <time>2015-05-03T10:23:10Z</time>
      </trkpt>
      <trkpt lat="37.610839" lon="-8.810475">
        <ele>55.441</ele>
        <time>2015-05-03T10:26:06Z</time>
      </trkpt>
      <trkpt lat="37.610476" lon="-8.810775">
        <ele>57.851</ele>
        <time>2015-05-03T10:27:51Z</time>
      </trkpt>
      <trkpt lat="37.610436" lon="-8.810969">
        <ele>60.274</ele>
        <time>2015-05-03T10:29:30Z</time>
      </trkpt>
      <trkpt lat="37.609551" lon="-8.811321">
        <ele>56.956</ele>
        <time>2015-05-03T10:37:09Z</time>
      </trkpt>
      <trkpt lat="37.609136" lon="-8.811678">
        <ele>54.521</ele>
        <time>2015-05-03T10:37:53Z</time>
      </trkpt>
      <trkpt lat="37.608482" lon="-8.811687">
        <ele>54.907</ele>
        <time>2015-05-03T10:38:54Z</time>
      </trkpt>
      <trkpt lat="37.607818" lon="-8.812255">
        <ele>54.586</ele>
        <time>2015-05-03T10:40:19Z</time>
      </trkpt>
      <trkpt lat="37.607272" lon="-8.812298">
        <ele>55.953</ele>
        <time>2015-05-03T10:40:56Z</time>
      </trkpt>
      <trkpt lat="37.606889" lon="-8.813357">
        <ele>58.832</ele>
        <time>2015-05-03T10:42:19Z</time>
      </trkpt>
      <trkpt lat="37.606427" lon="-8.813886">
        <ele>58.319</ele>
        <time>2015-05-03T10:43:43Z</time>
      </trkpt>
      <trkpt lat="37.606398" lon="-8.814125">
        <ele>55.482</ele>
        <time>2015-05-03T10:44:13Z</time>
      </trkpt>
      <trkpt lat="37.606623" lon="-8.814458">
        <ele>47.241</ele>
        <time>2015-05-03T10:45:12Z</time>
      </trkpt>
      <trkpt lat="37.606194" lon="-8.814843">
        <ele>40.011</ele>
        <time>2015-05-03T10:46:01Z</time>
      </trkpt>
      <trkpt lat="37.605874" lon="-8.814681">
        <ele>44.853</ele>
        <time>2015-05-03T10:47:49Z</time>
      </trkpt>
      <trkpt lat="37.605091" lon="-8.815672">
        <ele>43.904</ele>
        <time>2015-05-03T10:49:19Z</time>
      </trkpt>
      <trkpt lat="37.604843" lon="-8.815686">
        <ele>43.914</ele>
        <time>2015-05-03T10:49:39Z</time>
      </trkpt>
      <trkpt lat="37.604239" lon="-8.815170">
        <ele>43.407</ele>
        <time>2015-05-03T10:51:02Z</time>
      </trkpt>
      <trkpt lat="37.602926" lon="-8.810925">
        <ele>47.234</ele>
        <time>2015-05-03T10:56:29Z</time>
      </trkpt>
      <trkpt lat="37.602437" lon="-8.810066">
        <ele>47.751</ele>
        <time>2015-05-03T10:57:31Z</time>
      </trkpt>
      <trkpt lat="37.601504" lon="-8.809539">
        <ele>48.210</ele>
        <time>2015-05-03T10:58:50Z</time>
      </trkpt>
      <trkpt lat="37.601074" lon="-8.809688">
        <ele>48.277</ele>
        <time>2015-05-03T10:59:26Z</time>
      </trkpt>
      <trkpt lat="37.600623" lon="-8.809304">
        <ele>50.120</ele>
        <time>2015-05-03T11:00:07Z</time>
      </trkpt>
      <trkpt lat="37.599580" lon="-8.808035">
        <ele>52.169</ele>
        <time>2015-05-03T11:02:08Z</time>
      </trkpt>
      <trkpt lat="37.598841" lon="-8.806481">
        <ele>51.629</ele>
        <time>2015-05-03T11:03:52Z</time>
      </trkpt>
      <trkpt lat="37.598568" lon="-8.806171">
        <ele>52.196</ele>
        <time>2015-05-03T11:04:24Z</time>
      </trkpt>
      <trkpt lat="37.598379" lon="-8.806205">
        <ele>51.631</ele>
        <time>2015-05-03T12:19:33Z</time>
      </trkpt>
      <trkpt lat="37.597723" lon="-8.806996">
        <ele>48.224</ele>
        <time>2015-05-03T12:21:09Z</time>
      </trkpt>
      <trkpt lat="37.597750" lon="-8.807250">
        <ele>48.707</ele>
        <time>2015-05-03T12:21:25Z</time>
      </trkpt>
      <trkpt lat="37.598109" lon="-8.807567">
        <ele>50.688</ele>
        <time>2015-05-03T12:21:59Z</time>
      </trkpt>
      <trkpt lat="37.597823" lon="-8.808862">
        <ele>51.695</ele>
        <time>2015-05-03T12:23:25Z</time>
      </trkpt>
      <trkpt lat="37.598348" lon="-8.811015">
        <ele>53.554</ele>
        <time>2015-05-03T12:25:49Z</time>
      </trkpt>
      <trkpt lat="37.598468" lon="-8.811268">
        <ele>52.551</ele>
        <time>2015-05-03T12:26:08Z</time>
      </trkpt>
      <trkpt lat="37.599281" lon="-8.811175">
        <ele>49.734</ele>
        <time>2015-05-03T12:27:19Z</time>
      </trkpt>
      <trkpt lat="37.600092" lon="-8.811921">
        <ele>47.783</ele>
        <time>2015-05-03T12:28:52Z</time>
      </trkpt>
      <trkpt lat="37.601220" lon="-8.813643">
        <ele>48.273</ele>
        <time>2015-05-03T12:31:35Z</time>
      </trkpt>
      <trkpt lat="37.601754" lon="-8.814194">
        <ele>40.535</ele>
        <time>2015-05-03T12:32:43Z</time>
      </trkpt>
      <trkpt lat="37.602213" lon="-8.815445">
        <ele>44.886</ele>
        <time>2015-05-03T12:34:25Z</time>
      </trkpt>
      <trkpt lat="37.602142" lon="-8.815740">
        <ele>43.914</ele>
        <time>2015-05-03T12:34:49Z</time>
      </trkpt>
      <trkpt lat="37.601334" lon="-8.816509">
        <ele>48.707</ele>
        <time>2015-05-03T12:36:18Z</time>
      </trkpt>
      <trkpt lat="37.600754" lon="-8.816599">
        <ele>45.852</ele>
        <time>2015-05-03T12:37:09Z</time>
      </trkpt>
      <trkpt lat="37.600264" lon="-8.817473">
        <ele>46.819</ele>
        <time>2015-05-03T12:38:25Z</time>
      </trkpt>
      <trkpt lat="37.599430" lon="-8.817016">
        <ele>54.078</ele>
        <time>2015-05-03T12:44:00Z</time>
      </trkpt>
      <trkpt lat="37.599076" lon="-8.817287">
        <ele>52.135</ele>
        <time>2015-05-03T12:44:40Z</time>
      </trkpt>
      <trkpt lat="37.598881" lon="-8.817894">
        <ele>51.668</ele>
        <time>2015-05-03T12:47:13Z</time>
      </trkpt>
      <trkpt lat="37.598581" lon="-8.818286">
        <ele>49.227</ele>
        <time>2015-05-03T12:49:01Z</time>
      </trkpt>
      <trkpt lat="37.598177" lon="-8.818346">
        <ele>47.767</ele>
        <time>2015-05-03T12:49:33Z</time>
      </trkpt>
      <trkpt lat="37.597770" lon="-8.818131">
        <ele>48.793</ele>
        <time>2015-05-03T12:50:17Z</time>
      </trkpt>
      <trkpt lat="37.596434" lon="-8.816251">
        <ele>51.665</ele>
        <time>2015-05-03T12:54:11Z</time>
      </trkpt>
      <trkpt lat="37.595962" lon="-8.816183">
        <ele>51.121</ele>
        <time>2015-05-03T12:54:48Z</time>
      </trkpt>
      <trkpt lat="37.595209" lon="-8.816359">
        <ele>50.107</ele>
        <time>2015-05-03T12:55:47Z</time>
      </trkpt>
      <trkpt lat="37.593904" lon="-8.815916">
        <ele>50.138</ele>
        <time>2015-05-03T12:57:29Z</time>
      </trkpt>
      <trkpt lat="37.592304" lon="-8.815580">
        <ele>52.155</ele>
        <time>2015-05-03T12:59:36Z</time>
      </trkpt>
      <trkpt lat="37.591325" lon="-8.814953">
        <ele>52.124</ele>
        <time>2015-05-03T13:01:01Z</time>
      </trkpt>
      <trkpt lat="37.589836" lon="-8.812991">
        <ele>54.081</ele>
        <time>2015-05-03T13:03:53Z</time>
      </trkpt>
      <trkpt lat="37.589106" lon="-8.812601">
        <ele>52.584</ele>
        <time>2015-05-03T13:04:58Z</time>
      </trkpt>
      <trkpt lat="37.588267" lon="-8.812612">
        <ele>52.173</ele>
        <time>2015-05-03T13:06:01Z</time>
      </trkpt>
      <trkpt lat="37.586640" lon="-8.811047">
        <ele>53.093</ele>
        <time>2015-05-03T13:08:43Z</time>
      </trkpt>
      <trkpt lat="37.586139" lon="-8.811023">
        <ele>54.088</ele>
        <time>2015-05-03T13:09:39Z</time>
      </trkpt>
      <trkpt lat="37.584950" lon="-8.810418">
        <ele>54.024</ele>
        <time>2015-05-03T13:12:03Z</time>
      </trkpt>
      <trkpt lat="37.584368" lon="-8.810412">
        <ele>55.926</ele>
        <time>2015-05-03T13:12:44Z</time>
      </trkpt>
      <trkpt lat="37.583676" lon="-8.811068">
        <ele>49.207</ele>
        <time>2015-05-03T13:13:57Z</time>
      </trkpt>
      <trkpt lat="37.583552" lon="-8.812088">
        <ele>48.237</ele>
        <time>2015-05-03T13:15:42Z</time>
      </trkpt>
      <trkpt lat="37.583036" lon="-8.812434">
        <ele>49.774</ele>
        <time>2015-05-03T13:16:29Z</time>
      </trkpt>
      <trkpt lat="37.582613" lon="-8.812204">
        <ele>44.843</ele>
        <time>2015-05-03T13:17:06Z</time>
      </trkpt>
      <trkpt lat="37.582376" lon="-8.811270">
        <ele>49.720</ele>
        <time>2015-05-03T13:18:02Z</time>
      </trkpt>
      <trkpt lat="37.581818" lon="-8.811189">
        <ele>49.243</ele>
        <time>2015-05-03T13:18:42Z</time>
      </trkpt>
      <trkpt lat="37.581587" lon="-8.811342">
        <ele>47.222</ele>
        <time>2015-05-03T13:19:01Z</time>
      </trkpt>
      <trkpt lat="37.581165" lon="-8.811319">
        <ele>45.332</ele>
        <time>2015-05-03T13:19:33Z</time>
      </trkpt>
      <trkpt lat="37.581301" lon="-8.810713">
        <ele>42.029</ele>
        <time>2015-05-03T13:25:41Z</time>
      </trkpt>
      <trkpt lat="37.581183" lon="-8.810157">
        <ele>44.800</ele>
        <time>2015-05-03T13:26:18Z</time>
      </trkpt>
      <trkpt lat="37.580510" lon="-8.809439">
        <ele>47.220</ele>
        <time>2015-05-03T13:27:29Z</time>
      </trkpt>
      <trkpt lat="37.580125" lon="-8.808164">
        <ele>45.807</ele>
        <time>2015-05-03T13:28:59Z</time>
      </trkpt>
      <trkpt lat="37.580336" lon="-8.805522">
        <ele>55.951</ele>
        <time>2015-05-03T13:32:51Z</time>
      </trkpt>
      <trkpt lat="37.577643" lon="-8.804082">
        <ele>63.158</ele>
        <time>2015-05-03T13:37:15Z</time>
      </trkpt>
      <trkpt lat="37.574402" lon="-8.801728">
        <ele>59.367</ele>
        <time>2015-05-03T13:42:07Z</time>
      </trkpt>
      <trkpt lat="37.572588" lon="-8.801397">
        <ele>59.354</ele>
        <time>2015-05-03T13:44:31Z</time>
      </trkpt>
      <trkpt lat="37.570420" lon="-8.799801">
        <ele>49.217</ele>
        <time>2015-05-03T13:50:48Z</time>
      </trkpt>
      <trkpt lat="37.569092" lon="-8.799157">
        <ele>49.286</ele>
        <time>2015-05-03T13:52:47Z</time>
      </trkpt>
      <trkpt lat="37.568263" lon="-8.798297">
        <ele>44.426</ele>
        <time>2015-05-03T13:53:59Z</time>
      </trkpt>
      <trkpt lat="37.567618" lon="-8.796976">
        <ele>44.489</ele>
        <time>2015-05-03T13:55:26Z</time>
      </trkpt>
      <trkpt lat="37.566880" lon="-8.796181">
        <ele>55.906</ele>
        <time>2015-05-03T13:56:35Z</time>
      </trkpt>
      <trkpt lat="37.566016" lon="-8.796024">
        <ele>56.926</ele>
        <time>2015-05-03T13:57:38Z</time>
      </trkpt>
      <trkpt lat="37.564765" lon="-8.795311">
        <ele>58.307</ele>
        <time>2015-05-03T13:59:22Z</time>
      </trkpt>
      <trkpt lat="37.558931" lon="-8.790501">
        <ele>49.237</ele>
        <time>2015-05-03T14:07:51Z</time>
      </trkpt>
      <trkpt lat="37.558420" lon="-8.790613">
        <ele>49.264</ele>
        <time>2015-05-03T14:08:30Z</time>
      </trkpt>
      <trkpt lat="37.557697" lon="-8.791382">
        <ele>45.313</ele>
        <time>2015-05-03T14:09:37Z</time>
      </trkpt>
      <trkpt lat="37.556717" lon="-8.792821">
        <ele>42.490</ele>
        <time>2015-05-03T14:11:32Z</time>
      </trkpt>
      <trkpt lat="37.555999" lon="-8.792924">
        <ele>43.943</ele>
        <time>2015-05-03T14:12:27Z</time>
      </trkpt>
      <trkpt lat="37.555717" lon="-8.793116">
        <ele>42.932</ele>
        <time>2015-05-03T14:12:52Z</time>
      </trkpt>
      <trkpt lat="37.555540" lon="-8.793962">
        <ele>42.012</ele>
        <time>2015-05-03T14:14:30Z</time>
      </trkpt>
      <trkpt lat="37.554180" lon="-8.794479">
        <ele>37.227</ele>
        <time>2015-05-03T14:18:02Z</time>
      </trkpt>
      <trkpt lat="37.554194" lon="-8.794126">
        <ele>42.468</ele>
        <time>2015-05-03T14:18:48Z</time>
      </trkpt>
      <trkpt lat="37.553429" lon="-8.793051">
        <ele>39.614</ele>
        <time>2015-05-03T14:20:16Z</time>
      </trkpt>
      <trkpt lat="37.553025" lon="-8.792897">
        <ele>38.107</ele>
        <time>2015-05-03T14:25:28Z</time>
      </trkpt>
      <trkpt lat="37.552441" lon="-8.792389">
        <ele>30.991</ele>
        <time>2015-05-03T14:27:32Z</time>
      </trkpt>
      <trkpt lat="37.552363" lon="-8.792151">
        <ele>13.148</ele>
        <time>2015-05-03T14:28:43Z</time>
      </trkpt>
      <trkpt lat="37.552575" lon="-8.792075">
        <ele>0.627</ele>
        <time>2015-05-03T14:29:22Z</time>
      </trkpt>
      <trkpt lat="37.552357" lon="-8.791661">
        <ele>9.854</ele>
        <time>2015-05-03T14:32:34Z</time>
      </trkpt>
      <trkpt lat="37.551391" lon="-8.791428">
        <ele>33.367</ele>
        <time>2015-05-03T14:36:32Z</time>
      </trkpt>
      <trkpt lat="37.550994" lon="-8.791072">
        <ele>34.736</ele>
        <time>2015-05-03T14:37:41Z</time>
      </trkpt>
      <trkpt lat="37.550251" lon="-8.791978">
        <ele>39.196</ele>
        <time>2015-05-03T15:25:32Z</time>
      </trkpt>
      <trkpt lat="37.549917" lon="-8.792091">
        <ele>36.289</ele>
        <time>2015-05-03T15:26:32Z</time>
      </trkpt>
      <trkpt lat="37.548118" lon="-8.790077">
        <ele>32.806</ele>
        <time>2015-05-03T15:29:49Z</time>
      </trkpt>
      <trkpt lat="37.535874" lon="-8.784776">
        <ele>45.326</ele>
        <time>2015-05-03T15:46:46Z</time>
      </trkpt>
      <trkpt lat="37.533471" lon="-8.784495">
        <ele>48.207</ele>
        <time>2015-05-03T15:49:47Z</time>
      </trkpt>
      <trkpt lat="37.531296" lon="-8.784426">
        <ele>38.647</ele>
        <time>2015-05-03T15:52:31Z</time>
      </trkpt>
      <trkpt lat="37.531290" lon="-8.785426">
        <ele>38.624</ele>
        <time>2015-05-03T15:54:10Z</time>
      </trkpt>
      <trkpt lat="37.531143" lon="-8.785922">
        <ele>41.063</ele>
        <time>2015-05-03T15:55:35Z</time>
      </trkpt>
      <trkpt lat="37.531005" lon="-8.786027">
        <ele>39.620</ele>
        <time>2015-05-03T15:55:49Z</time>
      </trkpt>
      <trkpt lat="37.530285" lon="-8.785887">
        <ele>42.413</ele>
        <time>2015-05-03T15:56:56Z</time>
      </trkpt>
      <trkpt lat="37.529928" lon="-8.786148">
        <ele>45.882</ele>
        <time>2015-05-03T15:57:59Z</time>
      </trkpt>
      <trkpt lat="37.529375" lon="-8.786174">
        <ele>42.912</ele>
        <time>2015-05-03T15:59:31Z</time>
      </trkpt>
      <trkpt lat="37.528816" lon="-8.786802">
        <ele>40.537</ele>
        <time>2015-05-03T16:02:54Z</time>
      </trkpt>
      <trkpt lat="37.528636" lon="-8.788197">
        <ele>42.049</ele>
        <time>2015-05-03T16:04:41Z</time>
      </trkpt>
      <trkpt lat="37.528348" lon="-8.788189">
        <ele>40.013</ele>
        <time>2015-05-03T16:05:03Z</time>
      </trkpt>
      <trkpt lat="37.528293" lon="-8.788762">
        <ele>34.707</ele>
        <time>2015-05-03T16:05:37Z</time>
      </trkpt>
      <trkpt lat="37.527996" lon="-8.789189">
        <ele>31.952</ele>
        <time>2015-05-03T16:07:16Z</time>
      </trkpt>
      <trkpt lat="37.527324" lon="-8.788161">
        <ele>40.049</ele>
        <time>2015-05-03T16:09:25Z</time>
      </trkpt>
      <trkpt lat="37.526973" lon="-8.788042">
        <ele>42.098</ele>
        <time>2015-05-03T16:10:00Z</time>
      </trkpt>
      <trkpt lat="37.526320" lon="-8.787315">
        <ele>42.975</ele>
        <time>2015-05-03T16:11:19Z</time>
      </trkpt>
      <trkpt lat="37.525290" lon="-8.786631">
        <ele>45.368</ele>
        <time>2015-05-03T16:12:46Z</time>
      </trkpt>
      <trkpt lat="37.525438" lon="-8.785349">
        <ele>52.177</ele>
        <time>2015-05-03T16:20:50Z</time>
      </trkpt>
      <trkpt lat="37.525460" lon="-8.785340">
        <ele>46.815</ele>
        <time>2015-05-04T08:33:34Z</time>
      </trkpt>
      <trkpt lat="37.525316" lon="-8.786472">
        <ele>40.565</ele>
        <time>2015-05-04T08:35:26Z</time>
      </trkpt>
      <trkpt lat="37.524701" lon="-8.786633">
        <ele>40.011</ele>
        <time>2015-05-04T08:36:23Z</time>
      </trkpt>
      <trkpt lat="37.524426" lon="-8.786961">
        <ele>40.007</ele>
        <time>2015-05-04T08:37:26Z</time>
      </trkpt>
      <trkpt lat="37.524515" lon="-8.787072">
        <ele>39.110</ele>
        <time>2015-05-04T08:38:13Z</time>
      </trkpt>
      <trkpt lat="37.524286" lon="-8.786450">
        <ele>39.617</ele>
        <time>2015-05-04T08:41:07Z</time>
      </trkpt>
      <trkpt lat="37.523966" lon="-8.786281">
        <ele>40.046</ele>
        <time>2015-05-04T08:41:38Z</time>
      </trkpt>
      <trkpt lat="37.523243" lon="-8.786426">
        <ele>30.979</ele>
        <time>2015-05-04T08:42:45Z</time>
      </trkpt>
      <trkpt lat="37.523115" lon="-8.786655">
        <ele>27.534</ele>
        <time>2015-05-04T08:43:03Z</time>
      </trkpt>
      <trkpt lat="37.522938" lon="-8.786640">
        <ele>25.121</ele>
        <time>2015-05-04T08:43:19Z</time>
      </trkpt>
      <trkpt lat="37.522728" lon="-8.786255">
        <ele>17.030</ele>
        <time>2015-05-04T08:45:04Z</time>
      </trkpt>
      <trkpt lat="37.522675" lon="-8.785610">
        <ele>15.517</ele>
        <time>2015-05-04T08:49:12Z</time>
      </trkpt>
      <trkpt lat="37.521861" lon="-8.786335">
        <ele>15.587</ele>
        <time>2015-05-04T08:50:48Z</time>
      </trkpt>
      <trkpt lat="37.521776" lon="-8.786690">
        <ele>23.215</ele>
        <time>2015-05-04T08:51:29Z</time>
      </trkpt>
      <trkpt lat="37.520943" lon="-8.787090">
        <ele>38.107</ele>
        <time>2015-05-04T08:54:51Z</time>
      </trkpt>
      <trkpt lat="37.520426" lon="-8.787781">
        <ele>42.410</ele>
        <time>2015-05-04T08:56:00Z</time>
      </trkpt>
      <trkpt lat="37.520081" lon="-8.788005">
        <ele>41.597</ele>
        <time>2015-05-04T08:56:46Z</time>
      </trkpt>
      <trkpt lat="37.518949" lon="-8.787330">
        <ele>45.366</ele>
        <time>2015-05-04T08:58:56Z</time>
      </trkpt>
      <trkpt lat="37.518483" lon="-8.787348">
        <ele>45.829</ele>
        <time>2015-05-04T08:59:36Z</time>
      </trkpt>
      <trkpt lat="37.518243" lon="-8.787536">
        <ele>33.334</ele>
        <time>2015-05-04T09:00:20Z</time>
      </trkpt>
      <trkpt lat="37.518406" lon="-8.787945">
        <ele>29.981</ele>
        <time>2015-05-04T09:05:53Z</time>
      </trkpt>
      <trkpt lat="37.518288" lon="-8.787941">
        <ele>29.530</ele>
        <time>2015-05-04T09:06:23Z</time>
      </trkpt>
      <trkpt lat="37.518281" lon="-8.788135">
        <ele>26.629</ele>
        <time>2015-05-04T09:06:47Z</time>
      </trkpt>
      <trkpt lat="37.517616" lon="-8.788290">
        <ele>42.400</ele>
        <time>2015-05-04T09:09:04Z</time>
      </trkpt>
      <trkpt lat="37.517216" lon="-8.788832">
        <ele>43.920</ele>
        <time>2015-05-04T09:11:11Z</time>
      </trkpt>
      <trkpt lat="37.516475" lon="-8.789307">
        <ele>45.807</ele>
        <time>2015-05-04T09:12:26Z</time>
      </trkpt>
      <trkpt lat="37.516168" lon="-8.789303">
        <ele>49.211</ele>
        <time>2015-05-04T09:12:59Z</time>
      </trkpt>
      <trkpt lat="37.515699" lon="-8.788740">
        <ele>52.158</ele>
        <time>2015-05-04T09:14:08Z</time>
      </trkpt>
      <trkpt lat="37.515348" lon="-8.788806">
        <ele>50.117</ele>
        <time>2015-05-04T09:14:46Z</time>
      </trkpt>
      <trkpt lat="37.514697" lon="-8.789349">
        <ele>53.580</ele>
        <time>2015-05-04T09:16:55Z</time>
      </trkpt>
      <trkpt lat="37.514434" lon="-8.789370">
        <ele>52.585</ele>
        <time>2015-05-04T09:17:16Z</time>
      </trkpt>
      <trkpt lat="37.513623" lon="-8.788952">
        <ele>53.082</ele>
        <time>2015-05-04T09:18:24Z</time>
      </trkpt>
      <trkpt lat="37.511834" lon="-8.788478">
        <ele>67.031</ele>
        <time>2015-05-04T09:20:53Z</time>
      </trkpt>
      <trkpt lat="37.510702" lon="-8.787901">
        <ele>62.121</ele>
        <time>2015-05-04T09:22:36Z</time>
      </trkpt>
      <trkpt lat="37.510353" lon="-8.788499">
        <ele>61.741</ele>
        <time>2015-05-04T09:23:26Z</time>
      </trkpt>
      <trkpt lat="37.510246" lon="-8.789570">
        <ele>70.805</ele>
        <time>2015-05-04T09:24:46Z</time>
      </trkpt>
      <trkpt lat="37.509488" lon="-8.789271">
        <ele>63.607</ele>
        <time>2015-05-04T09:25:50Z</time>
      </trkpt>
      <trkpt lat="37.508916" lon="-8.789794">
        <ele>66.051</ele>
        <time>2015-05-04T09:29:13Z</time>
      </trkpt>
      <trkpt lat="37.508354" lon="-8.789437">
        <ele>61.788</ele>
        <time>2015-05-04T09:30:15Z</time>
      </trkpt>
      <trkpt lat="37.507504" lon="-8.790180">
        <ele>41.557</ele>
        <time>2015-05-04T09:31:56Z</time>
      </trkpt>
      <trkpt lat="37.506995" lon="-8.790281">
        <ele>51.190</ele>
        <time>2015-05-04T09:32:39Z</time>
      </trkpt>
      <trkpt lat="37.506818" lon="-8.790116">
        <ele>52.515</ele>
        <time>2015-05-04T09:32:58Z</time>
      </trkpt>
      <trkpt lat="37.505767" lon="-8.789859">
        <ele>43.492</ele>
        <time>2015-05-04T09:34:25Z</time>
      </trkpt>
      <trkpt lat="37.504630" lon="-8.789707">
        <ele>21.381</ele>
        <time>2015-05-04T09:35:58Z</time>
      </trkpt>
      <trkpt lat="37.503992" lon="-8.789812">
        <ele>42.075</ele>
        <time>2015-05-04T09:36:51Z</time>
      </trkpt>
      <trkpt lat="37.503038" lon="-8.791490">
        <ele>41.528</ele>
        <time>2015-05-04T09:38:59Z</time>
      </trkpt>
      <trkpt lat="37.503032" lon="-8.791853">
        <ele>41.520</ele>
        <time>2015-05-04T09:39:25Z</time>
      </trkpt>
      <trkpt lat="37.502310" lon="-8.792259">
        <ele>44.407</ele>
        <time>2015-05-04T09:42:16Z</time>
      </trkpt>
      <trkpt lat="37.501562" lon="-8.792018">
        <ele>42.976</ele>
        <time>2015-05-04T09:43:13Z</time>
      </trkpt>
      <trkpt lat="37.500554" lon="-8.791350">
        <ele>17.043</ele>
        <time>2015-05-04T09:46:29Z</time>
      </trkpt>
      <trkpt lat="37.500257" lon="-8.791026">
        <ele>4.972</ele>
        <time>2015-05-04T09:47:16Z</time>
      </trkpt>
      <trkpt lat="37.500347" lon="-8.790369">
        <ele>8.875</ele>
        <time>2015-05-04T09:49:15Z</time>
      </trkpt>
      <trkpt lat="37.499807" lon="-8.789788">
        <ele>14.160</ele>
        <time>2015-05-04T09:50:04Z</time>
      </trkpt>
      <trkpt lat="37.499391" lon="-8.790682">
        <ele>12.227</ele>
        <time>2015-05-04T09:51:20Z</time>
      </trkpt>
      <trkpt lat="37.498792" lon="-8.791132">
        <ele>26.196</ele>
        <time>2015-05-04T09:52:42Z</time>
      </trkpt>
      <trkpt lat="37.498058" lon="-8.791987">
        <ele>43.492</ele>
        <time>2015-05-04T09:55:13Z</time>
      </trkpt>
      <trkpt lat="37.498044" lon="-8.793157">
        <ele>45.873</ele>
        <time>2015-05-04T09:56:51Z</time>
      </trkpt>
      <trkpt lat="37.497260" lon="-8.793382">
        <ele>46.820</ele>
        <time>2015-05-04T09:58:08Z</time>
      </trkpt>
      <trkpt lat="37.496166" lon="-8.794085">
        <ele>40.507</ele>
        <time>2015-05-04T10:02:20Z</time>
      </trkpt>
      <trkpt lat="37.495214" lon="-8.794165">
        <ele>32.848</ele>
        <time>2015-05-04T10:03:46Z</time>
      </trkpt>
      <trkpt lat="37.494153" lon="-8.793100">
        <ele>43.985</ele>
        <time>2015-05-04T10:06:32Z</time>
      </trkpt>
      <trkpt lat="37.491573" lon="-8.792692">
        <ele>51.654</ele>
        <time>2015-05-04T10:10:28Z</time>
      </trkpt>
      <trkpt lat="37.490034" lon="-8.795494">
        <ele>43.487</ele>
        <time>2015-05-04T10:15:23Z</time>
      </trkpt>
      <trkpt lat="37.489418" lon="-8.795249">
        <ele>46.852</ele>
        <time>2015-05-04T10:16:20Z</time>
      </trkpt>
      <trkpt lat="37.488643" lon="-8.794617">
        <ele>48.719</ele>
        <time>2015-05-04T10:17:56Z</time>
      </trkpt>
      <trkpt lat="37.488269" lon="-8.794887">
        <ele>43.928</ele>
        <time>2015-05-04T10:18:32Z</time>
      </trkpt>
      <trkpt lat="37.488014" lon="-8.795388">
        <ele>26.146</ele>
        <time>2015-05-04T10:20:52Z</time>
      </trkpt>
      <trkpt lat="37.487769" lon="-8.795479">
        <ele>20.388</ele>
        <time>2015-05-04T10:22:50Z</time>
      </trkpt>
      <trkpt lat="37.487292" lon="-8.794722">
        <ele>40.516</ele>
        <time>2015-05-04T10:27:15Z</time>
      </trkpt>
      <trkpt lat="37.486837" lon="-8.794302">
        <ele>39.607</ele>
        <time>2015-05-04T10:29:14Z</time>
      </trkpt>
      <trkpt lat="37.485906" lon="-8.794107">
        <ele>53.023</ele>
        <time>2015-05-04T10:31:41Z</time>
      </trkpt>
      <trkpt lat="37.485122" lon="-8.794872">
        <ele>53.050</ele>
        <time>2015-05-04T10:34:01Z</time>
      </trkpt>
      <trkpt lat="37.484565" lon="-8.794969">
        <ele>56.939</ele>
        <time>2015-05-04T10:35:10Z</time>
      </trkpt>
      <trkpt lat="37.483179" lon="-8.791223">
        <ele>62.122</ele>
        <time>2015-05-04T10:40:12Z</time>
      </trkpt>
      <trkpt lat="37.482362" lon="-8.789405">
        <ele>63.157</ele>
        <time>2015-05-04T10:43:01Z</time>
      </trkpt>
      <trkpt lat="37.482194" lon="-8.789373">
        <ele>64.144</ele>
        <time>2015-05-04T10:43:16Z</time>
      </trkpt>
      <trkpt lat="37.480515" lon="-8.790890">
        <ele>59.783</ele>
        <time>2015-05-04T10:46:12Z</time>
      </trkpt>
      <trkpt lat="37.480163" lon="-8.791555">
        <ele>48.257</ele>
        <time>2015-05-04T10:48:02Z</time>
      </trkpt>
      <trkpt lat="37.480781" lon="-8.792951">
        <ele>43.400</ele>
        <time>2015-05-04T10:50:16Z</time>
      </trkpt>
      <trkpt lat="37.481428" lon="-8.793851">
        <ele>38.120</ele>
        <time>2015-05-04T10:52:28Z</time>
      </trkpt>
      <trkpt lat="37.481431" lon="-8.794142">
        <ele>30.907</ele>
        <time>2015-05-04T10:52:55Z</time>
      </trkpt>
      <trkpt lat="37.481274" lon="-8.793925">
        <ele>25.134</ele>
        <time>2015-05-04T10:53:35Z</time>
      </trkpt>
      <trkpt lat="37.481402" lon="-8.794136">
        <ele>29.061</ele>
        <time>2015-05-04T10:54:22Z</time>
      </trkpt>
      <trkpt lat="37.481099" lon="-8.795231">
        <ele>30.420</ele>
        <time>2015-05-04T10:57:12Z</time>
      </trkpt>
      <trkpt lat="37.480353" lon="-8.795422">
        <ele>55.433</ele>
        <time>2015-05-04T11:01:13Z</time>
      </trkpt>
      <trkpt lat="37.480338" lon="-8.795671">
        <ele>51.198</ele>
        <time>2015-05-04T11:01:30Z</time>
      </trkpt>
      <trkpt lat="37.479845" lon="-8.796472">
        <ele>53.595</ele>
        <time>2015-05-04T11:03:41Z</time>
      </trkpt>
      <trkpt lat="37.479473" lon="-8.796706">
        <ele>51.144</ele>
        <time>2015-05-04T11:04:13Z</time>
      </trkpt>
      <trkpt lat="37.478660" lon="-8.797730">
        <ele>55.479</ele>
        <time>2015-05-04T11:05:53Z</time>
      </trkpt>
      <trkpt lat="37.478335" lon="-8.797806">
        <ele>54.505</ele>
        <time>2015-05-04T11:06:23Z</time>
      </trkpt>
      <trkpt lat="37.477783" lon="-8.797325">
        <ele>53.525</ele>
        <time>2015-05-04T11:07:15Z</time>
      </trkpt>
      <trkpt lat="37.477015" lon="-8.797212">
        <ele>53.007</ele>
        <time>2015-05-04T11:08:18Z</time>
      </trkpt>
      <trkpt lat="37.476721" lon="-8.797281">
        <ele>54.096</ele>
        <time>2015-05-04T11:08:45Z</time>
      </trkpt>
      <trkpt lat="37.476395" lon="-8.797883">
        <ele>56.443</ele>
        <time>2015-05-04T11:09:36Z</time>
      </trkpt>
      <trkpt lat="37.476171" lon="-8.797923">
        <ele>56.462</ele>
        <time>2015-05-04T11:10:00Z</time>
      </trkpt>
      <trkpt lat="37.476087" lon="-8.797343">
        <ele>56.435</ele>
        <time>2015-05-04T11:10:38Z</time>
      </trkpt>
      <trkpt lat="37.475407" lon="-8.796875">
        <ele>59.790</ele>
        <time>2015-05-04T11:11:49Z</time>
      </trkpt>
      <trkpt lat="37.474542" lon="-8.797597">
        <ele>58.897</ele>
        <time>2015-05-04T11:13:19Z</time>
      </trkpt>
      <trkpt lat="37.474123" lon="-8.797073">
        <ele>57.896</ele>
        <time>2015-05-04T11:14:07Z</time>
      </trkpt>
      <trkpt lat="37.473968" lon="-8.796550">
        <ele>57.828</ele>
        <time>2015-05-04T11:14:46Z</time>
      </trkpt>
      <trkpt lat="37.472894" lon="-8.796461">
        <ele>62.189</ele>
        <time>2015-05-04T11:16:15Z</time>
      </trkpt>
      <trkpt lat="37.472252" lon="-8.797769">
        <ele>61.217</ele>
        <time>2015-05-04T11:17:55Z</time>
      </trkpt>
      <trkpt lat="37.472192" lon="-8.798060">
        <ele>62.107</ele>
        <time>2015-05-04T11:18:15Z</time>
      </trkpt>
      <trkpt lat="37.472416" lon="-8.799181">
        <ele>56.471</ele>
        <time>2015-05-04T11:19:30Z</time>
      </trkpt>
      <trkpt lat="37.472337" lon="-8.799521">
        <ele>54.088</ele>
        <time>2015-05-04T11:19:52Z</time>
      </trkpt>
      <trkpt lat="37.472181" lon="-8.799563">
        <ele>54.537</ele>
        <time>2015-05-04T11:20:06Z</time>
      </trkpt>
      <trkpt lat="37.471450" lon="-8.799048">
        <ele>54.550</ele>
        <time>2015-05-04T11:21:25Z</time>
      </trkpt>
      <trkpt lat="37.471329" lon="-8.798811">
        <ele>53.045</ele>
        <time>2015-05-04T11:21:44Z</time>
      </trkpt>
      <trkpt lat="37.470675" lon="-8.798593">
        <ele>56.962</ele>
        <time>2015-05-04T11:23:09Z</time>
      </trkpt>
      <trkpt lat="37.470083" lon="-8.798590">
        <ele>58.811</ele>
        <time>2015-05-04T11:24:03Z</time>
      </trkpt>
      <trkpt lat="37.468952" lon="-8.797812">
        <ele>60.286</ele>
        <time>2015-05-04T11:26:11Z</time>
      </trkpt>
      <trkpt lat="37.467730" lon="-8.797513">
        <ele>59.760</ele>
        <time>2015-05-04T11:28:06Z</time>
      </trkpt>
      <trkpt lat="37.466849" lon="-8.796697">
        <ele>58.326</ele>
        <time>2015-05-04T11:29:30Z</time>
      </trkpt>
      <trkpt lat="37.466559" lon="-8.796081">
        <ele>59.307</ele>
        <time>2015-05-04T11:30:18Z</time>
      </trkpt>
      <trkpt lat="37.466251" lon="-8.796100">
        <ele>58.397</ele>
        <time>2015-05-04T11:30:46Z</time>
      </trkpt>
      <trkpt lat="37.466059" lon="-8.796526">
        <ele>59.314</ele>
        <time>2015-05-04T11:31:18Z</time>
      </trkpt>
      <trkpt lat="37.464731" lon="-8.795801">
        <ele>61.223</ele>
        <time>2015-05-04T11:33:25Z</time>
      </trkpt>
      <trkpt lat="37.464657" lon="-8.795612">
        <ele>61.796</ele>
        <time>2015-05-04T12:57:45Z</time>
      </trkpt>
      <trkpt lat="37.464463" lon="-8.795922">
        <ele>57.821</ele>
        <time>2015-05-04T12:58:21Z</time>
      </trkpt>
      <trkpt lat="37.464125" lon="-8.796065">
        <ele>48.718</ele>
        <time>2015-05-04T12:58:57Z</time>
      </trkpt>
      <trkpt lat="37.463922" lon="-8.795993">
        <ele>42.927</ele>
        <time>2015-05-04T12:59:18Z</time>
      </trkpt>
      <trkpt lat="37.463778" lon="-8.795643">
        <ele>37.624</ele>
        <time>2015-05-04T12:59:45Z</time>
      </trkpt>
      <trkpt lat="37.463636" lon="-8.795698">
        <ele>35.704</ele>
        <time>2015-05-04T12:59:58Z</time>
      </trkpt>
      <trkpt lat="37.463470" lon="-8.796809">
        <ele>18.914</ele>
        <time>2015-05-04T13:02:51Z</time>
      </trkpt>
      <trkpt lat="37.462771" lon="-8.796532">
        <ele>33.807</ele>
        <time>2015-05-04T13:05:23Z</time>
      </trkpt>
      <trkpt lat="37.462769" lon="-8.796757">
        <ele>40.561</ele>
        <time>2015-05-04T13:05:46Z</time>
      </trkpt>
      <trkpt lat="37.462321" lon="-8.797081">
        <ele>53.018</ele>
        <time>2015-05-04T13:07:29Z</time>
      </trkpt>
      <trkpt lat="37.462153" lon="-8.797850">
        <ele>53.597</ele>
        <time>2015-05-04T13:08:22Z</time>
      </trkpt>
      <trkpt lat="37.461857" lon="-8.798362">
        <ele>52.150</ele>
        <time>2015-05-04T13:09:02Z</time>
      </trkpt>
      <trkpt lat="37.461151" lon="-8.798374">
        <ele>56.955</ele>
        <time>2015-05-04T13:10:11Z</time>
      </trkpt>
      <trkpt lat="37.460616" lon="-8.797620">
        <ele>55.482</ele>
        <time>2015-05-04T13:11:38Z</time>
      </trkpt>
      <trkpt lat="37.459883" lon="-8.797591">
        <ele>58.821</ele>
        <time>2015-05-04T13:12:39Z</time>
      </trkpt>
      <trkpt lat="37.458893" lon="-8.797980">
        <ele>56.461</ele>
        <time>2015-05-04T13:14:08Z</time>
      </trkpt>
      <trkpt lat="37.457916" lon="-8.797414">
        <ele>57.321</ele>
        <time>2015-05-04T13:15:50Z</time>
      </trkpt>
      <trkpt lat="37.456815" lon="-8.797137">
        <ele>61.713</ele>
        <time>2015-05-04T13:17:36Z</time>
      </trkpt>
      <trkpt lat="37.455912" lon="-8.797309">
        <ele>58.307</ele>
        <time>2015-05-04T13:19:03Z</time>
      </trkpt>
      <trkpt lat="37.455252" lon="-8.798484">
        <ele>52.125</ele>
        <time>2015-05-04T13:20:44Z</time>
      </trkpt>
      <trkpt lat="37.455064" lon="-8.798543">
        <ele>53.072</ele>
        <time>2015-05-04T13:21:10Z</time>
      </trkpt>
      <trkpt lat="37.455197" lon="-8.798753">
        <ele>53.071</ele>
        <time>2015-05-04T13:21:39Z</time>
      </trkpt>
      <trkpt lat="37.455116" lon="-8.798840">
        <ele>52.134</ele>
        <time>2015-05-04T13:21:51Z</time>
      </trkpt>
      <trkpt lat="37.454372" lon="-8.798827">
        <ele>51.179</ele>
        <time>2015-05-04T13:23:18Z</time>
      </trkpt>
      <trkpt lat="37.454160" lon="-8.798565">
        <ele>59.356</ele>
        <time>2015-05-04T13:23:55Z</time>
      </trkpt>
      <trkpt lat="37.453334" lon="-8.798979">
        <ele>60.235</ele>
        <time>2015-05-04T13:25:26Z</time>
      </trkpt>
      <trkpt lat="37.452881" lon="-8.798707">
        <ele>60.723</ele>
        <time>2015-05-04T13:27:15Z</time>
      </trkpt>
      <trkpt lat="37.452367" lon="-8.798701">
        <ele>63.683</ele>
        <time>2015-05-04T13:28:03Z</time>
      </trkpt>
      <trkpt lat="37.451847" lon="-8.798378">
        <ele>62.611</ele>
        <time>2015-05-04T13:28:56Z</time>
      </trkpt>
      <trkpt lat="37.451629" lon="-8.798498">
        <ele>61.207</ele>
        <time>2015-05-04T13:29:15Z</time>
      </trkpt>
      <trkpt lat="37.451354" lon="-8.798976">
        <ele>64.121</ele>
        <time>2015-05-04T13:29:53Z</time>
      </trkpt>
      <trkpt lat="37.451115" lon="-8.799055">
        <ele>67.948</ele>
        <time>2015-05-04T13:30:13Z</time>
      </trkpt>
      <trkpt lat="37.450784" lon="-8.798829">
        <ele>70.387</ele>
        <time>2015-05-04T13:30:47Z</time>
      </trkpt>
      <trkpt lat="37.450713" lon="-8.798355">
        <ele>70.860</ele>
        <time>2015-05-04T13:31:27Z</time>
      </trkpt>
      <trkpt lat="37.450329" lon="-8.798432">
        <ele>74.685</ele>
        <time>2015-05-04T13:32:14Z</time>
      </trkpt>
      <trkpt lat="37.450111" lon="-8.798300">
        <ele>74.272</ele>
        <time>2015-05-04T13:33:04Z</time>
      </trkpt>
      <trkpt lat="37.448975" lon="-8.798521">
        <ele>63.621</ele>
        <time>2015-05-04T13:35:09Z</time>
      </trkpt>
      <trkpt lat="37.448713" lon="-8.798364">
        <ele>64.661</ele>
        <time>2015-05-04T13:35:34Z</time>
      </trkpt>
      <trkpt lat="37.448661" lon="-8.797834">
        <ele>60.221</ele>
        <time>2015-05-04T13:36:17Z</time>
      </trkpt>
      <trkpt lat="37.447991" lon="-8.797866">
        <ele>65.013</ele>
        <time>2015-05-04T13:37:08Z</time>
      </trkpt>
      <trkpt lat="37.447715" lon="-8.798012">
        <ele>63.607</ele>
        <time>2015-05-04T13:37:35Z</time>
      </trkpt>
      <trkpt lat="37.447813" lon="-8.798952">
        <ele>61.225</ele>
        <time>2015-05-04T13:38:54Z</time>
      </trkpt>
      <trkpt lat="37.446568" lon="-8.799181">
        <ele>57.822</ele>
        <time>2015-05-04T13:40:51Z</time>
      </trkpt>
      <trkpt lat="37.446077" lon="-8.800017">
        <ele>56.461</ele>
        <time>2015-05-04T13:42:11Z</time>
      </trkpt>
      <trkpt lat="37.445451" lon="-8.799707">
        <ele>55.454</ele>
        <time>2015-05-04T13:43:59Z</time>
      </trkpt>
      <trkpt lat="37.445007" lon="-8.799761">
        <ele>55.979</ele>
        <time>2015-05-04T13:44:36Z</time>
      </trkpt>
      <trkpt lat="37.444729" lon="-8.799648">
        <ele>60.776</ele>
        <time>2015-05-04T13:45:45Z</time>
      </trkpt>
      <trkpt lat="37.444727" lon="-8.799754">
        <ele>61.715</ele>
        <time>2015-05-04T13:46:28Z</time>
      </trkpt>
      <trkpt lat="37.444855" lon="-8.797590">
        <ele>49.715</ele>
        <time>2015-05-04T13:50:39Z</time>
      </trkpt>
      <trkpt lat="37.444604" lon="-8.796491">
        <ele>57.365</ele>
        <time>2015-05-04T13:53:14Z</time>
      </trkpt>
      <trkpt lat="37.444867" lon="-8.795377">
        <ele>52.511</ele>
        <time>2015-05-04T13:55:59Z</time>
      </trkpt>
      <trkpt lat="37.444404" lon="-8.794064">
        <ele>51.607</ele>
        <time>2015-05-04T13:57:35Z</time>
      </trkpt>
      <trkpt lat="37.443673" lon="-8.793262">
        <ele>57.860</ele>
        <time>2015-05-04T13:58:51Z</time>
      </trkpt>
      <trkpt lat="37.442558" lon="-8.792261">
        <ele>61.727</ele>
        <time>2015-05-04T14:00:54Z</time>
      </trkpt>
      <trkpt lat="37.442495" lon="-8.792918">
        <ele>59.336</ele>
        <time>2015-05-04T14:01:38Z</time>
      </trkpt>
      <trkpt lat="37.442352" lon="-8.793069">
        <ele>56.989</ele>
        <time>2015-05-04T14:01:57Z</time>
      </trkpt>
      <trkpt lat="37.441340" lon="-8.791926">
        <ele>68.424</ele>
        <time>2015-05-04T14:03:51Z</time>
      </trkpt>
      <trkpt lat="37.441157" lon="-8.791909">
        <ele>62.651</ele>
        <time>2015-05-04T14:04:09Z</time>
      </trkpt>
      <trkpt lat="37.440556" lon="-8.792730">
        <ele>44.870</ele>
        <time>2015-05-04T14:05:28Z</time>
      </trkpt>
      <trkpt lat="37.440132" lon="-8.793878">
        <ele>29.031</ele>
        <time>2015-05-04T14:07:35Z</time>
      </trkpt>
      <trkpt lat="37.440291" lon="-8.794424">
        <ele>22.761</ele>
        <time>2015-05-04T14:08:25Z</time>
      </trkpt>
      <trkpt lat="37.440673" lon="-8.794972">
        <ele>13.107</ele>
        <time>2015-05-04T14:09:31Z</time>
      </trkpt>
      <trkpt lat="37.440497" lon="-8.795474">
        <ele>12.207</ele>
        <time>2015-05-04T14:10:14Z</time>
      </trkpt>
      <trkpt lat="37.440189" lon="-8.795435">
        <ele>10.242</ele>
        <time>2015-05-04T14:10:46Z</time>
      </trkpt>
      <trkpt lat="37.439591" lon="-8.795227">
        <ele>16.599</ele>
        <time>2015-05-04T14:13:10Z</time>
      </trkpt>
      <trkpt lat="37.439706" lon="-8.795179">
        <ele>6.998</ele>
        <time>2015-05-04T15:36:22Z</time>
      </trkpt>
      <trkpt lat="37.438831" lon="-8.794256">
        <ele>8.351</ele>
        <time>2015-05-04T15:37:52Z</time>
      </trkpt>
      <trkpt lat="37.437210" lon="-8.791482">
        <ele>0.696</ele>
        <time>2015-05-04T15:41:33Z</time>
      </trkpt>
      <trkpt lat="37.437252" lon="-8.790930">
        <ele>3.043</ele>
        <time>2015-05-04T15:42:11Z</time>
      </trkpt>
      <trkpt lat="37.437714" lon="-8.790504">
        <ele>3.532</ele>
        <time>2015-05-04T15:42:56Z</time>
      </trkpt>
      <trkpt lat="37.438381" lon="-8.790233">
        <ele>8.317</ele>
        <time>2015-05-04T15:43:52Z</time>
      </trkpt>
      <trkpt lat="37.438618" lon="-8.789835">
        <ele>7.887</ele>
        <time>2015-05-04T15:44:24Z</time>
      </trkpt>
      <trkpt lat="37.437853" lon="-8.787760">
        <ele>2.115</ele>
        <time>2015-05-04T15:46:47Z</time>
      </trkpt>
      <trkpt lat="37.436054" lon="-8.786869">
        <ele>-3.707</ele>
        <time>2015-05-04T15:49:19Z</time>
      </trkpt>
      <trkpt lat="37.436585" lon="-8.784945">
        <ele>7.870</ele>
        <time>2015-05-04T15:51:49Z</time>
      </trkpt>
      <trkpt lat="37.436420" lon="-8.784021">
        <ele>2.157</ele>
        <time>2015-05-04T15:52:49Z</time>
      </trkpt>
      <trkpt lat="37.436004" lon="-8.783303">
        <ele>3.576</ele>
        <time>2015-05-04T15:53:45Z</time>
      </trkpt>
      <trkpt lat="37.435405" lon="-8.782692">
        <ele>7.489</ele>
        <time>2015-05-04T15:54:46Z</time>
      </trkpt>
      <trkpt lat="37.435237" lon="-8.782179">
        <ele>8.364</ele>
        <time>2015-05-04T15:55:36Z</time>
      </trkpt>
      <trkpt lat="37.435711" lon="-8.780605">
        <ele>8.371</ele>
        <time>2015-05-04T15:57:15Z</time>
      </trkpt>
      <trkpt lat="37.435652" lon="-8.778883">
        <ele>7.810</ele>
        <time>2015-05-04T15:59:51Z</time>
      </trkpt>
      <trkpt lat="37.435763" lon="-8.778523">
        <ele>9.394</ele>
        <time>2015-05-04T16:00:06Z</time>
      </trkpt>
      <trkpt lat="37.436913" lon="-8.775785">
        <ele>19.457</ele>
        <time>2015-05-04T16:03:18Z</time>
      </trkpt>
      <trkpt lat="37.437392" lon="-8.775017">
        <ele>17.022</ele>
        <time>2015-05-04T16:04:21Z</time>
      </trkpt>
      <trkpt lat="37.437412" lon="-8.774377">
        <ele>17.407</ele>
        <time>2015-05-04T16:05:03Z</time>
      </trkpt>
      <trkpt lat="37.437971" lon="-8.773901">
        <ele>15.058</ele>
        <time>2015-05-04T16:05:59Z</time>
      </trkpt>
      <trkpt lat="37.437663" lon="-8.772690">
        <ele>6.485</ele>
        <time>2015-05-04T16:07:18Z</time>
      </trkpt>
      <trkpt lat="37.437215" lon="-8.772226">
        <ele>13.174</ele>
        <time>2015-05-04T16:08:03Z</time>
      </trkpt>
      <trkpt lat="37.437157" lon="-8.771343">
        <ele>10.287</ele>
        <time>2015-05-04T16:09:13Z</time>
      </trkpt>
      <trkpt lat="37.436750" lon="-8.769882">
        <ele>10.722</ele>
        <time>2015-05-04T16:11:23Z</time>
      </trkpt>
      <trkpt lat="37.436752" lon="-8.768279">
        <ele>7.839</ele>
        <time>2015-05-04T16:12:53Z</time>
      </trkpt>
      <trkpt lat="37.436358" lon="-8.767187">
        <ele>9.858</ele>
        <time>2015-05-04T16:14:10Z</time>
      </trkpt>
      <trkpt lat="37.436138" lon="-8.765508">
        <ele>13.142</ele>
        <time>2015-05-04T16:15:44Z</time>
      </trkpt>
      <trkpt lat="37.435773" lon="-8.764867">
        <ele>14.122</ele>
        <time>2015-05-04T16:16:27Z</time>
      </trkpt>
      <trkpt lat="37.435346" lon="-8.764701">
        <ele>13.114</ele>
        <time>2015-05-04T16:17:03Z</time>
      </trkpt>
      <trkpt lat="37.433677" lon="-8.766409">
        <ele>11.707</ele>
        <time>2015-05-04T16:19:50Z</time>
      </trkpt>
      <trkpt lat="37.434196" lon="-8.767847">
        <ele>11.243</ele>
        <time>2015-05-04T16:21:32Z</time>
      </trkpt>
      <trkpt lat="37.434185" lon="-8.769421">
        <ele>9.820</ele>
        <time>2015-05-04T16:23:31Z</time>
      </trkpt>
      <trkpt lat="37.433673" lon="-8.769561">
        <ele>10.269</ele>
        <time>2015-05-04T16:25:16Z</time>
      </trkpt>
      <trkpt lat="37.433246" lon="-8.770200">
        <ele>14.682</ele>
        <time>2015-05-04T16:26:33Z</time>
      </trkpt>
      <trkpt lat="37.433955" lon="-8.771103">
        <ele>23.267</ele>
        <time>2015-05-04T16:27:57Z</time>
      </trkpt>
      <trkpt lat="37.433981" lon="-8.771482">
        <ele>21.364</ele>
        <time>2015-05-04T16:29:39Z</time>
      </trkpt>
      <trkpt lat="37.434023" lon="-8.771526">
        <ele>20.854</ele>
        <time>2015-05-05T07:02:22Z</time>
      </trkpt>
      <trkpt lat="37.433932" lon="-8.771111">
        <ele>16.056</ele>
        <time>2015-05-05T07:04:57Z</time>
      </trkpt>
      <trkpt lat="37.433274" lon="-8.770281">
        <ele>15.511</ele>
        <time>2015-05-05T07:06:09Z</time>
      </trkpt>
      <trkpt lat="37.432250" lon="-8.770186">
        <ele>15.007</ele>
        <time>2015-05-05T07:19:15Z</time>
      </trkpt>
      <trkpt lat="37.431733" lon="-8.770283">
        <ele>15.524</ele>
        <time>2015-05-05T07:20:02Z</time>
      </trkpt>
      <trkpt lat="37.431729" lon="-8.770441">
        <ele>23.281</ele>
        <time>2015-05-05T07:20:12Z</time>
      </trkpt>
      <trkpt lat="37.432386" lon="-8.770809">
        <ele>28.571</ele>
        <time>2015-05-05T07:21:21Z</time>
      </trkpt>
      <trkpt lat="37.432355" lon="-8.771209">
        <ele>30.946</ele>
        <time>2015-05-05T07:22:17Z</time>
      </trkpt>
      <trkpt lat="37.431850" lon="-8.771471">
        <ele>42.098</ele>
        <time>2015-05-05T07:24:57Z</time>
      </trkpt>
      <trkpt lat="37.431129" lon="-8.771301">
        <ele>57.313</ele>
        <time>2015-05-05T07:26:09Z</time>
      </trkpt>
      <trkpt lat="37.430852" lon="-8.771865">
        <ele>65.078</ele>
        <time>2015-05-05T07:27:10Z</time>
      </trkpt>
      <trkpt lat="37.431016" lon="-8.771906">
        <ele>64.683</ele>
        <time>2015-05-05T07:27:46Z</time>
      </trkpt>
      <trkpt lat="37.431142" lon="-8.771786">
        <ele>71.325</ele>
        <time>2015-05-05T07:29:13Z</time>
      </trkpt>
      <trkpt lat="37.429189" lon="-8.773027">
        <ele>93.417</ele>
        <time>2015-05-05T07:41:52Z</time>
      </trkpt>
      <trkpt lat="37.428047" lon="-8.773430">
        <ele>103.507</ele>
        <time>2015-05-05T07:43:27Z</time>
      </trkpt>
      <trkpt lat="37.426882" lon="-8.773570">
        <ele>98.727</ele>
        <time>2015-05-05T07:45:12Z</time>
      </trkpt>
      <trkpt lat="37.426877" lon="-8.774308">
        <ele>93.424</ele>
        <time>2015-05-05T07:47:14Z</time>
      </trkpt>
      <trkpt lat="37.427732" lon="-8.775687">
        <ele>94.844</ele>
        <time>2015-05-05T07:49:33Z</time>
      </trkpt>
      <trkpt lat="37.427610" lon="-8.776454">
        <ele>92.969</ele>
        <time>2015-05-05T07:50:35Z</time>
      </trkpt>
      <trkpt lat="37.427142" lon="-8.776630">
        <ele>90.551</ele>
        <time>2015-05-05T07:51:24Z</time>
      </trkpt>
      <trkpt lat="37.427087" lon="-8.776882">
        <ele>91.056</ele>
        <time>2015-05-05T07:51:40Z</time>
      </trkpt>
      <trkpt lat="37.427250" lon="-8.778608">
        <ele>95.361</ele>
        <time>2015-05-05T07:54:23Z</time>
      </trkpt>
      <trkpt lat="37.426272" lon="-8.779558">
        <ele>91.999</ele>
        <time>2015-05-05T07:56:47Z</time>
      </trkpt>
      <trkpt lat="37.426881" lon="-8.782205">
        <ele>91.907</ele>
        <time>2015-05-05T07:59:58Z</time>
      </trkpt>
      <trkpt lat="37.426262" lon="-8.783247">
        <ele>91.927</ele>
        <time>2015-05-05T08:01:31Z</time>
      </trkpt>
      <trkpt lat="37.425228" lon="-8.783825">
        <ele>86.207</ele>
        <time>2015-05-05T08:03:04Z</time>
      </trkpt>
      <trkpt lat="37.423604" lon="-8.784495">
        <ele>91.088</ele>
        <time>2015-05-05T08:05:18Z</time>
      </trkpt>
      <trkpt lat="37.421857" lon="-8.783620">
        <ele>90.065</ele>
        <time>2015-05-05T08:08:06Z</time>
      </trkpt>
      <trkpt lat="37.421063" lon="-8.782122">
        <ele>88.695</ele>
        <time>2015-05-05T08:10:24Z</time>
      </trkpt>
      <trkpt lat="37.419871" lon="-8.782019">
        <ele>80.980</ele>
        <time>2015-05-05T08:11:54Z</time>
      </trkpt>
      <trkpt lat="37.419068" lon="-8.781600">
        <ele>90.572</ele>
        <time>2015-05-05T08:12:56Z</time>
      </trkpt>
      <trkpt lat="37.418228" lon="-8.781652">
        <ele>92.437</ele>
        <time>2015-05-05T08:13:58Z</time>
      </trkpt>
      <trkpt lat="37.416233" lon="-8.782664">
        <ele>91.982</ele>
        <time>2015-05-05T08:16:38Z</time>
      </trkpt>
      <trkpt lat="37.415274" lon="-8.782687">
        <ele>88.161</ele>
        <time>2015-05-05T08:17:55Z</time>
      </trkpt>
      <trkpt lat="37.414110" lon="-8.783561">
        <ele>92.421</ele>
        <time>2015-05-05T08:19:39Z</time>
      </trkpt>
      <trkpt lat="37.412503" lon="-8.783054">
        <ele>91.513</ele>
        <time>2015-05-05T08:21:49Z</time>
      </trkpt>
      <trkpt lat="37.410080" lon="-8.784129">
        <ele>89.107</ele>
        <time>2015-05-05T08:25:23Z</time>
      </trkpt>
      <trkpt lat="37.409235" lon="-8.783128">
        <ele>89.585</ele>
        <time>2015-05-05T08:27:01Z</time>
      </trkpt>
      <trkpt lat="37.408921" lon="-8.782378">
        <ele>91.022</ele>
        <time>2015-05-05T08:27:52Z</time>
      </trkpt>
      <trkpt lat="37.408172" lon="-8.782389">
        <ele>90.582</ele>
        <time>2015-05-05T08:29:09Z</time>
      </trkpt>
      <trkpt lat="37.407351" lon="-8.783635">
        <ele>92.967</ele>
        <time>2015-05-05T08:31:02Z</time>
      </trkpt>
      <trkpt lat="37.406663" lon="-8.783950">
        <ele>91.519</ele>
        <time>2015-05-05T08:31:59Z</time>
      </trkpt>
      <trkpt lat="37.406209" lon="-8.783850">
        <ele>88.624</ele>
        <time>2015-05-05T08:32:36Z</time>
      </trkpt>
      <trkpt lat="37.405958" lon="-8.784015">
        <ele>88.699</ele>
        <time>2015-05-05T08:32:57Z</time>
      </trkpt>
      <trkpt lat="37.404455" lon="-8.786285">
        <ele>92.938</ele>
        <time>2015-05-05T08:36:01Z</time>
      </trkpt>
      <trkpt lat="37.402892" lon="-8.787177">
        <ele>91.070</ele>
        <time>2015-05-05T08:38:11Z</time>
      </trkpt>
      <trkpt lat="37.402722" lon="-8.787093">
        <ele>88.617</ele>
        <time>2015-05-05T08:38:35Z</time>
      </trkpt>
      <trkpt lat="37.402248" lon="-8.787370">
        <ele>88.607</ele>
        <time>2015-05-05T08:39:19Z</time>
      </trkpt>
      <trkpt lat="37.400640" lon="-8.787037">
        <ele>89.522</ele>
        <time>2015-05-05T08:41:59Z</time>
      </trkpt>
      <trkpt lat="37.400416" lon="-8.787167">
        <ele>89.519</ele>
        <time>2015-05-05T08:42:18Z</time>
      </trkpt>
      <trkpt lat="37.400220" lon="-8.787474">
        <ele>94.899</ele>
        <time>2015-05-05T08:42:47Z</time>
      </trkpt>
      <trkpt lat="37.401318" lon="-8.788681">
        <ele>90.594</ele>
        <time>2015-05-05T08:44:26Z</time>
      </trkpt>
      <trkpt lat="37.401086" lon="-8.789399">
        <ele>89.546</ele>
        <time>2015-05-05T08:45:09Z</time>
      </trkpt>
      <trkpt lat="37.400753" lon="-8.789765">
        <ele>84.331</ele>
        <time>2015-05-05T08:45:42Z</time>
      </trkpt>
      <trkpt lat="37.399479" lon="-8.790523">
        <ele>85.276</ele>
        <time>2015-05-05T08:47:23Z</time>
      </trkpt>
      <trkpt lat="37.398111" lon="-8.791064">
        <ele>87.655</ele>
        <time>2015-05-05T08:49:11Z</time>
      </trkpt>
      <trkpt lat="37.397427" lon="-8.790785">
        <ele>86.207</ele>
        <time>2015-05-05T08:50:09Z</time>
      </trkpt>
      <trkpt lat="37.397205" lon="-8.790823">
        <ele>86.717</ele>
        <time>2015-05-05T08:50:27Z</time>
      </trkpt>
      <trkpt lat="37.395246" lon="-8.792128">
        <ele>90.507</ele>
        <time>2015-05-05T08:53:21Z</time>
      </trkpt>
      <trkpt lat="37.394762" lon="-8.792875">
        <ele>91.594</ele>
        <time>2015-05-05T08:54:20Z</time>
      </trkpt>
      <trkpt lat="37.394192" lon="-8.793164">
        <ele>88.681</ele>
        <time>2015-05-05T08:55:08Z</time>
      </trkpt>
      <trkpt lat="37.393561" lon="-8.792782">
        <ele>86.771</ele>
        <time>2015-05-05T08:56:37Z</time>
      </trkpt>
      <trkpt lat="37.391467" lon="-8.793859">
        <ele>87.196</ele>
        <time>2015-05-05T08:59:11Z</time>
      </trkpt>
      <trkpt lat="37.390743" lon="-8.793588">
        <ele>85.798</ele>
        <time>2015-05-05T09:00:06Z</time>
      </trkpt>
      <trkpt lat="37.389925" lon="-8.793774">
        <ele>89.553</ele>
        <time>2015-05-05T09:01:16Z</time>
      </trkpt>
      <trkpt lat="37.389074" lon="-8.793782">
        <ele>91.028</ele>
        <time>2015-05-05T09:02:15Z</time>
      </trkpt>
      <trkpt lat="37.387908" lon="-8.794732">
        <ele>89.576</ele>
        <time>2015-05-05T09:04:06Z</time>
      </trkpt>
      <trkpt lat="37.387481" lon="-8.794806">
        <ele>89.590</ele>
        <time>2015-05-05T09:04:39Z</time>
      </trkpt>
      <trkpt lat="37.386695" lon="-8.795609">
        <ele>89.519</ele>
        <time>2015-05-05T09:05:57Z</time>
      </trkpt>
      <trkpt lat="37.386459" lon="-8.795691">
        <ele>88.607</ele>
        <time>2015-05-05T09:06:52Z</time>
      </trkpt>
      <trkpt lat="37.385520" lon="-8.795168">
        <ele>86.796</ele>
        <time>2015-05-05T09:08:16Z</time>
      </trkpt>
      <trkpt lat="37.384119" lon="-8.795669">
        <ele>90.013</ele>
        <time>2015-05-05T09:10:04Z</time>
      </trkpt>
      <trkpt lat="37.382609" lon="-8.797029">
        <ele>92.443</ele>
        <time>2015-05-05T09:12:24Z</time>
      </trkpt>
      <trkpt lat="37.381879" lon="-8.796876">
        <ele>90.588</ele>
        <time>2015-05-05T09:13:24Z</time>
      </trkpt>
      <trkpt lat="37.380965" lon="-8.797716">
        <ele>92.940</ele>
        <time>2015-05-05T09:14:51Z</time>
      </trkpt>
      <trkpt lat="37.379674" lon="-8.797960">
        <ele>92.955</ele>
        <time>2015-05-05T09:16:31Z</time>
      </trkpt>
      <trkpt lat="37.378577" lon="-8.799105">
        <ele>92.920</ele>
        <time>2015-05-05T09:18:18Z</time>
      </trkpt>
      <trkpt lat="37.376341" lon="-8.801056">
        <ele>92.923</ele>
        <time>2015-05-05T09:21:46Z</time>
      </trkpt>
      <trkpt lat="37.375002" lon="-8.799336">
        <ele>91.583</ele>
        <time>2015-05-05T09:53:56Z</time>
      </trkpt>
      <trkpt lat="37.370961" lon="-8.799940">
        <ele>94.811</ele>
        <time>2015-05-05T09:59:11Z</time>
      </trkpt>
      <trkpt lat="37.369454" lon="-8.800301">
        <ele>92.407</ele>
        <time>2015-05-05T10:01:26Z</time>
      </trkpt>
      <trkpt lat="37.369327" lon="-8.804193">
        <ele>92.481</ele>
        <time>2015-05-05T10:05:21Z</time>
      </trkpt>
      <trkpt lat="37.369594" lon="-8.806190">
        <ele>92.468</ele>
        <time>2015-05-05T10:07:17Z</time>
      </trkpt>
      <trkpt lat="37.369179" lon="-8.806137">
        <ele>88.668</ele>
        <time>2015-05-05T10:07:52Z</time>
      </trkpt>
      <trkpt lat="37.368546" lon="-8.805698">
        <ele>89.113</ele>
        <time>2015-05-05T10:08:47Z</time>
      </trkpt>
      <trkpt lat="37.368219" lon="-8.806106">
        <ele>84.765</ele>
        <time>2015-05-05T10:09:22Z</time>
      </trkpt>
      <trkpt lat="37.367643" lon="-8.807519">
        <ele>94.890</ele>
        <time>2015-05-05T10:10:58Z</time>
      </trkpt>
      <trkpt lat="37.367279" lon="-8.807933">
        <ele>93.945</ele>
        <time>2015-05-05T10:11:35Z</time>
      </trkpt>
      <trkpt lat="37.366033" lon="-8.808399">
        <ele>89.189</ele>
        <time>2015-05-05T10:13:12Z</time>
      </trkpt>
      <trkpt lat="37.365650" lon="-8.808216">
        <ele>88.106</ele>
        <time>2015-05-05T10:13:44Z</time>
      </trkpt>
      <trkpt lat="37.365105" lon="-8.808824">
        <ele>85.726</ele>
        <time>2015-05-05T10:14:39Z</time>
      </trkpt>
      <trkpt lat="37.364869" lon="-8.808907">
        <ele>85.207</ele>
        <time>2015-05-05T10:14:58Z</time>
      </trkpt>
      <trkpt lat="37.364187" lon="-8.808507">
        <ele>86.257</ele>
        <time>2015-05-05T10:15:56Z</time>
      </trkpt>
      <trkpt lat="37.363984" lon="-8.808632">
        <ele>86.724</ele>
        <time>2015-05-05T10:16:14Z</time>
      </trkpt>
      <trkpt lat="37.363740" lon="-8.810293">
        <ele>89.184</ele>
        <time>2015-05-05T10:17:57Z</time>
      </trkpt>
      <trkpt lat="37.362649" lon="-8.810956">
        <ele>93.489</ele>
        <time>2015-05-05T10:19:31Z</time>
      </trkpt>
      <trkpt lat="37.362296" lon="-8.811447">
        <ele>93.441</ele>
        <time>2015-05-05T10:20:11Z</time>
      </trkpt>
      <trkpt lat="37.362520" lon="-8.812538">
        <ele>91.076</ele>
        <time>2015-05-05T10:21:29Z</time>
      </trkpt>
      <trkpt lat="37.362210" lon="-8.812942">
        <ele>89.171</ele>
        <time>2015-05-05T10:22:27Z</time>
      </trkpt>
      <trkpt lat="37.362057" lon="-8.813020">
        <ele>91.057</ele>
        <time>2015-05-05T10:22:41Z</time>
      </trkpt>
      <trkpt lat="37.361629" lon="-8.812812">
        <ele>89.100</ele>
        <time>2015-05-05T10:23:16Z</time>
      </trkpt>
      <trkpt lat="37.360556" lon="-8.813824">
        <ele>94.820</ele>
        <time>2015-05-05T10:24:53Z</time>
      </trkpt>
      <trkpt lat="37.360057" lon="-8.813682">
        <ele>92.407</ele>
        <time>2015-05-05T10:25:30Z</time>
      </trkpt>
      <trkpt lat="37.359823" lon="-8.813815">
        <ele>89.544</ele>
        <time>2015-05-05T10:25:49Z</time>
      </trkpt>
      <trkpt lat="37.359103" lon="-8.814739">
        <ele>91.061</ele>
        <time>2015-05-05T10:27:05Z</time>
      </trkpt>
      <trkpt lat="37.358106" lon="-8.813542">
        <ele>93.951</ele>
        <time>2015-05-05T10:28:57Z</time>
      </trkpt>
      <trkpt lat="37.356491" lon="-8.815175">
        <ele>92.996</ele>
        <time>2015-05-05T10:31:36Z</time>
      </trkpt>
      <trkpt lat="37.355221" lon="-8.817418">
        <ele>92.978</ele>
        <time>2015-05-05T10:34:42Z</time>
      </trkpt>
      <trkpt lat="37.354316" lon="-8.817328">
        <ele>92.423</ele>
        <time>2015-05-05T10:35:55Z</time>
      </trkpt>
      <trkpt lat="37.353657" lon="-8.818080">
        <ele>93.438</ele>
        <time>2015-05-05T10:36:57Z</time>
      </trkpt>
      <trkpt lat="37.352915" lon="-8.817921">
        <ele>93.985</ele>
        <time>2015-05-05T10:37:57Z</time>
      </trkpt>
      <trkpt lat="37.352627" lon="-8.818019">
        <ele>95.889</ele>
        <time>2015-05-05T10:38:19Z</time>
      </trkpt>
      <trkpt lat="37.351552" lon="-8.818909">
        <ele>93.917</ele>
        <time>2015-05-05T10:39:57Z</time>
      </trkpt>
      <trkpt lat="37.351081" lon="-8.819109">
        <ele>95.807</ele>
        <time>2015-05-05T10:40:54Z</time>
      </trkpt>
      <trkpt lat="37.350896" lon="-8.819382">
        <ele>96.377</ele>
        <time>2015-05-05T10:41:15Z</time>
      </trkpt>
      <trkpt lat="37.350873" lon="-8.819853">
        <ele>96.314</ele>
        <time>2015-05-05T10:42:35Z</time>
      </trkpt>
      <trkpt lat="37.350631" lon="-8.820165">
        <ele>94.894</ele>
        <time>2015-05-05T10:43:10Z</time>
      </trkpt>
      <trkpt lat="37.346762" lon="-8.822710">
        <ele>92.939</ele>
        <time>2015-05-05T10:48:49Z</time>
      </trkpt>
      <trkpt lat="37.345784" lon="-8.823441">
        <ele>94.461</ele>
        <time>2015-05-05T10:50:16Z</time>
      </trkpt>
      <trkpt lat="37.345589" lon="-8.823745">
        <ele>92.976</ele>
        <time>2015-05-05T10:50:40Z</time>
      </trkpt>
      <trkpt lat="37.344314" lon="-8.822064">
        <ele>94.881</ele>
        <time>2015-05-05T10:53:07Z</time>
      </trkpt>
      <trkpt lat="37.342939" lon="-8.820589">
        <ele>98.791</ele>
        <time>2015-05-05T10:55:28Z</time>
      </trkpt>
      <trkpt lat="37.341184" lon="-8.817491">
        <ele>102.581</ele>
        <time>2015-05-05T10:59:25Z</time>
      </trkpt>
      <trkpt lat="37.339806" lon="-8.814368">
        <ele>104.919</ele>
        <time>2015-05-05T11:03:13Z</time>
      </trkpt>
      <trkpt lat="37.339103" lon="-8.811486">
        <ele>117.907</ele>
        <time>2015-05-05T11:06:31Z</time>
      </trkpt>
      <trkpt lat="37.338604" lon="-8.810229">
        <ele>110.288</ele>
        <time>2015-05-05T11:07:56Z</time>
      </trkpt>
      <trkpt lat="37.338371" lon="-8.809987">
        <ele>110.715</ele>
        <time>2015-05-05T11:08:18Z</time>
      </trkpt>
      <trkpt lat="37.336532" lon="-8.809202">
        <ele>114.585</ele>
        <time>2015-05-05T11:10:47Z</time>
      </trkpt>
      <trkpt lat="37.335940" lon="-8.808731">
        <ele>108.340</ele>
        <time>2015-05-05T11:11:41Z</time>
      </trkpt>
      <trkpt lat="37.334466" lon="-8.808812">
        <ele>99.642</ele>
        <time>2015-05-05T11:13:36Z</time>
      </trkpt>
      <trkpt lat="37.332905" lon="-8.808328">
        <ele>117.467</ele>
        <time>2015-05-05T11:15:42Z</time>
      </trkpt>
      <trkpt lat="37.331403" lon="-8.807318">
        <ele>127.582</ele>
        <time>2015-05-05T11:17:57Z</time>
      </trkpt>
      <trkpt lat="37.329338" lon="-8.805354">
        <ele>52.153</ele>
        <time>2015-05-05T11:20:58Z</time>
      </trkpt>
      <trkpt lat="37.328113" lon="-8.805616">
        <ele>55.404</ele>
        <time>2015-05-05T11:22:51Z</time>
      </trkpt>
      <trkpt lat="37.326634" lon="-8.805108">
        <ele>35.214</ele>
        <time>2015-05-05T11:25:24Z</time>
      </trkpt>
      <trkpt lat="37.325978" lon="-8.804589">
        <ele>25.607</ele>
        <time>2015-05-05T11:26:30Z</time>
      </trkpt>
      <trkpt lat="37.325094" lon="-8.803353">
        <ele>14.674</ele>
        <time>2015-05-05T11:28:17Z</time>
      </trkpt>
      <trkpt lat="37.324746" lon="-8.803455">
        <ele>15.021</ele>
        <time>2015-05-05T11:29:55Z</time>
      </trkpt>
      <trkpt lat="37.323914" lon="-8.802962">
        <ele>17.991</ele>
        <time>2015-05-05T11:31:03Z</time>
      </trkpt>
      <trkpt lat="37.323037" lon="-8.802883">
        <ele>15.596</ele>
        <time>2015-05-05T11:32:08Z</time>
      </trkpt>
      <trkpt lat="37.322636" lon="-8.802620">
        <ele>19.418</ele>
        <time>2015-05-05T11:32:43Z</time>
      </trkpt>
      <trkpt lat="37.322553" lon="-8.802387">
        <ele>20.313</ele>
        <time>2015-05-05T11:33:02Z</time>
      </trkpt>
      <trkpt lat="37.322204" lon="-8.802234">
        <ele>16.528</ele>
        <time>2015-05-05T11:33:25Z</time>
      </trkpt>
      <trkpt lat="37.320886" lon="-8.802163">
        <ele>19.852</ele>
        <time>2015-05-05T11:35:11Z</time>
      </trkpt>
      <trkpt lat="37.319725" lon="-8.802578">
        <ele>23.253</ele>
        <time>2015-05-05T11:36:45Z</time>
      </trkpt>
      <trkpt lat="37.319314" lon="-8.803060">
        <ele>33.308</ele>
        <time>2015-05-05T11:37:39Z</time>
      </trkpt>
      <trkpt lat="37.318219" lon="-8.803214">
        <ele>20.307</ele>
        <time>2015-05-05T11:39:39Z</time>
      </trkpt>
      <trkpt lat="37.317244" lon="-8.803625">
        <ele>12.624</ele>
        <time>2015-05-05T11:40:50Z</time>
      </trkpt>
      <trkpt lat="37.317045" lon="-8.803245">
        <ele>23.771</ele>
        <time>2015-05-05T11:42:58Z</time>
      </trkpt>
      <trkpt lat="37.317165" lon="-8.802938">
        <ele>25.121</ele>
        <time>2015-05-05T11:44:55Z</time>
      </trkpt>
      <trkpt lat="37.316996" lon="-8.802938">
        <ele>29.076</ele>
        <time>2015-05-05T11:47:55Z</time>
      </trkpt>
      <trkpt lat="37.317200" lon="-8.803626">
        <ele>30.938</ele>
        <time>2015-05-05T13:23:03Z</time>
      </trkpt>
      <trkpt lat="37.318379" lon="-8.803524">
        <ele>50.153</ele>
        <time>2015-05-05T13:25:25Z</time>
      </trkpt>
      <trkpt lat="37.318597" lon="-8.803683">
        <ele>49.798</ele>
        <time>2015-05-05T13:25:54Z</time>
      </trkpt>
      <trkpt lat="37.319165" lon="-8.803649">
        <ele>50.182</ele>
        <time>2015-05-05T13:26:55Z</time>
      </trkpt>
      <trkpt lat="37.319133" lon="-8.803932">
        <ele>52.143</ele>
        <time>2015-05-05T13:28:00Z</time>
      </trkpt>
      <trkpt lat="37.319361" lon="-8.803865">
        <ele>48.717</ele>
        <time>2015-05-05T13:28:36Z</time>
      </trkpt>
      <trkpt lat="37.319311" lon="-8.804153">
        <ele>45.307</ele>
        <time>2015-05-05T13:29:00Z</time>
      </trkpt>
      <trkpt lat="37.318799" lon="-8.804764">
        <ele>36.217</ele>
        <time>2015-05-05T13:30:00Z</time>
      </trkpt>
      <trkpt lat="37.317801" lon="-8.805677">
        <ele>27.144</ele>
        <time>2015-05-05T13:31:45Z</time>
      </trkpt>
      <trkpt lat="37.316248" lon="-8.808451">
        <ele>15.054</ele>
        <time>2015-05-05T13:36:36Z</time>
      </trkpt>
      <trkpt lat="37.316670" lon="-8.809826">
        <ele>8.889</ele>
        <time>2015-05-05T13:38:10Z</time>
      </trkpt>
      <trkpt lat="37.317299" lon="-8.810340">
        <ele>8.891</ele>
        <time>2015-05-05T13:39:08Z</time>
      </trkpt>
      <trkpt lat="37.317962" lon="-8.810455">
        <ele>8.856</ele>
        <time>2015-05-05T13:40:00Z</time>
      </trkpt>
      <trkpt lat="37.318573" lon="-8.810969">
        <ele>10.711</ele>
        <time>2015-05-05T13:40:57Z</time>
      </trkpt>
      <trkpt lat="37.318846" lon="-8.811961">
        <ele>22.721</ele>
        <time>2015-05-05T13:42:17Z</time>
      </trkpt>
      <trkpt lat="37.319115" lon="-8.812284">
        <ele>29.941</ele>
        <time>2015-05-05T13:43:01Z</time>
      </trkpt>
      <trkpt lat="37.318597" lon="-8.812330">
        <ele>37.205</ele>
        <time>2015-05-05T13:44:15Z</time>
      </trkpt>
      <trkpt lat="37.318482" lon="-8.812683">
        <ele>44.807</ele>
        <time>2015-05-05T13:45:00Z</time>
      </trkpt>
      <trkpt lat="37.318229" lon="-8.812458">
        <ele>52.541</ele>
        <time>2015-05-05T13:45:37Z</time>
      </trkpt>
      <trkpt lat="37.317850" lon="-8.812603">
        <ele>61.258</ele>
        <time>2015-05-05T13:46:38Z</time>
      </trkpt>
      <trkpt lat="37.317331" lon="-8.813407">
        <ele>74.248</ele>
        <time>2015-05-05T13:47:57Z</time>
      </trkpt>
      <trkpt lat="37.316366" lon="-8.814433">
        <ele>84.763</ele>
        <time>2015-05-05T13:50:46Z</time>
      </trkpt>
      <trkpt lat="37.316265" lon="-8.815229">
        <ele>97.245</ele>
        <time>2015-05-05T13:51:52Z</time>
      </trkpt>
      <trkpt lat="37.315754" lon="-8.815371">
        <ele>106.410</ele>
        <time>2015-05-05T13:52:43Z</time>
      </trkpt>
      <trkpt lat="37.315697" lon="-8.815753">
        <ele>109.755</ele>
        <time>2015-05-05T13:53:17Z</time>
      </trkpt>
      <trkpt lat="37.315229" lon="-8.815527">
        <ele>111.745</ele>
        <time>2015-05-05T13:54:02Z</time>
      </trkpt>
      <trkpt lat="37.314780" lon="-8.815637">
        <ele>111.747</ele>
        <time>2015-05-05T13:54:40Z</time>
      </trkpt>
      <trkpt lat="37.314363" lon="-8.816322">
        <ele>117.911</ele>
        <time>2015-05-05T13:55:37Z</time>
      </trkpt>
      <trkpt lat="37.314458" lon="-8.817352">
        <ele>119.307</ele>
        <time>2015-05-05T13:56:57Z</time>
      </trkpt>
      <trkpt lat="37.314205" lon="-8.819323">
        <ele>115.033</ele>
        <time>2015-05-05T13:59:00Z</time>
      </trkpt>
      <trkpt lat="37.314678" lon="-8.821388">
        <ele>113.180</ele>
        <time>2015-05-05T14:01:09Z</time>
      </trkpt>
      <trkpt lat="37.314864" lon="-8.823354">
        <ele>116.040</ele>
        <time>2015-05-05T14:03:05Z</time>
      </trkpt>
      <trkpt lat="37.314132" lon="-8.823806">
        <ele>110.795</ele>
        <time>2015-05-05T14:04:12Z</time>
      </trkpt>
      <trkpt lat="37.313556" lon="-8.823241">
        <ele>109.367</ele>
        <time>2015-05-05T14:05:08Z</time>
      </trkpt>
      <trkpt lat="37.313265" lon="-8.823255">
        <ele>108.322</ele>
        <time>2015-05-05T14:05:29Z</time>
      </trkpt>
      <trkpt lat="37.312757" lon="-8.823695">
        <ele>97.797</ele>
        <time>2015-05-05T14:06:19Z</time>
      </trkpt>
      <trkpt lat="37.312488" lon="-8.823303">
        <ele>91.537</ele>
        <time>2015-05-05T14:06:57Z</time>
      </trkpt>
      <trkpt lat="37.311672" lon="-8.823395">
        <ele>74.249</ele>
        <time>2015-05-05T14:08:01Z</time>
      </trkpt>
      <trkpt lat="37.310852" lon="-8.823792">
        <ele>62.613</ele>
        <time>2015-05-05T14:09:11Z</time>
      </trkpt>
      <trkpt lat="37.310770" lon="-8.824554">
        <ele>60.207</ele>
        <time>2015-05-05T14:10:26Z</time>
      </trkpt>
      <trkpt lat="37.310269" lon="-8.824859">
        <ele>58.832</ele>
        <time>2015-05-05T14:11:10Z</time>
      </trkpt>
      <trkpt lat="37.309273" lon="-8.826123">
        <ele>58.859</ele>
        <time>2015-05-05T14:13:17Z</time>
      </trkpt>
      <trkpt lat="37.308899" lon="-8.826242">
        <ele>68.919</ele>
        <time>2015-05-05T14:13:52Z</time>
      </trkpt>
      <trkpt lat="37.308635" lon="-8.826950">
        <ele>95.384</ele>
        <time>2015-05-05T14:15:11Z</time>
      </trkpt>
      <trkpt lat="37.308303" lon="-8.827048">
        <ele>100.616</ele>
        <time>2015-05-05T14:15:48Z</time>
      </trkpt>
      <trkpt lat="37.308135" lon="-8.827442">
        <ele>101.111</ele>
        <time>2015-05-05T14:16:27Z</time>
      </trkpt>
      <trkpt lat="37.307146" lon="-8.827330">
        <ele>113.696</ele>
        <time>2015-05-05T14:17:53Z</time>
      </trkpt>
      <trkpt lat="37.306105" lon="-8.826617">
        <ele>114.181</ele>
        <time>2015-05-05T14:19:30Z</time>
      </trkpt>
      <trkpt lat="37.305162" lon="-8.827131">
        <ele>121.761</ele>
        <time>2015-05-05T14:21:12Z</time>
      </trkpt>
      <trkpt lat="37.304110" lon="-8.826795">
        <ele>127.017</ele>
        <time>2015-05-05T14:22:37Z</time>
      </trkpt>
      <trkpt lat="37.302858" lon="-8.826196">
        <ele>125.607</ele>
        <time>2015-05-05T14:24:25Z</time>
      </trkpt>
      <trkpt lat="37.301346" lon="-8.824855">
        <ele>129.077</ele>
        <time>2015-05-05T14:27:23Z</time>
      </trkpt>
      <trkpt lat="37.298859" lon="-8.823723">
        <ele>125.684</ele>
        <time>2015-05-05T14:30:34Z</time>
      </trkpt>
      <trkpt lat="37.298386" lon="-8.823360">
        <ele>131.424</ele>
        <time>2015-05-05T14:31:16Z</time>
      </trkpt>
      <trkpt lat="37.298069" lon="-8.823797">
        <ele>133.389</ele>
        <time>2015-05-05T14:31:42Z</time>
      </trkpt>
      <trkpt lat="37.297574" lon="-8.825368">
        <ele>117.961</ele>
        <time>2015-05-05T14:33:40Z</time>
      </trkpt>
      <trkpt lat="37.296806" lon="-8.826469">
        <ele>117.916</ele>
        <time>2015-05-05T14:35:03Z</time>
      </trkpt>
      <trkpt lat="37.296275" lon="-8.828863">
        <ele>127.521</ele>
        <time>2015-05-05T14:38:06Z</time>
      </trkpt>
      <trkpt lat="37.295121" lon="-8.826932">
        <ele>123.775</ele>
        <time>2015-05-05T14:40:21Z</time>
      </trkpt>
      <trkpt lat="37.294611" lon="-8.826640">
        <ele>130.428</ele>
        <time>2015-05-05T14:42:09Z</time>
      </trkpt>
      <trkpt lat="37.293942" lon="-8.826701">
        <ele>125.620</ele>
        <time>2015-05-05T14:43:03Z</time>
      </trkpt>
      <trkpt lat="37.293014" lon="-8.826527">
        <ele>122.207</ele>
        <time>2015-05-05T14:44:10Z</time>
      </trkpt>
      <trkpt lat="37.290977" lon="-8.827724">
        <ele>124.266</ele>
        <time>2015-05-05T14:47:17Z</time>
      </trkpt>
      <trkpt lat="37.290516" lon="-8.827002">
        <ele>124.253</ele>
        <time>2015-05-05T14:48:54Z</time>
      </trkpt>
      <trkpt lat="37.290033" lon="-8.827080">
        <ele>127.563</ele>
        <time>2015-05-05T14:50:31Z</time>
      </trkpt>
      <trkpt lat="37.289343" lon="-8.827698">
        <ele>118.448</ele>
        <time>2015-05-05T14:51:54Z</time>
      </trkpt>
      <trkpt lat="37.289211" lon="-8.828509">
        <ele>116.090</ele>
        <time>2015-05-05T14:52:47Z</time>
      </trkpt>
      <trkpt lat="37.286875" lon="-8.830967">
        <ele>124.235</ele>
        <time>2015-05-05T14:56:35Z</time>
      </trkpt>
      <trkpt lat="37.286466" lon="-8.832547">
        <ele>122.290</ele>
        <time>2015-05-05T14:58:15Z</time>
      </trkpt>
      <trkpt lat="37.285415" lon="-8.834481">
        <ele>111.286</ele>
        <time>2015-05-05T15:00:59Z</time>
      </trkpt>
      <trkpt lat="37.285443" lon="-8.835421">
        <ele>118.960</ele>
        <time>2015-05-05T15:01:52Z</time>
      </trkpt>
      <trkpt lat="37.285197" lon="-8.837187">
        <ele>111.726</ele>
        <time>2015-05-05T15:03:29Z</time>
      </trkpt>
      <trkpt lat="37.285274" lon="-8.837693">
        <ele>109.707</ele>
        <time>2015-05-05T15:04:00Z</time>
      </trkpt>
      <trkpt lat="37.285114" lon="-8.838262">
        <ele>106.817</ele>
        <time>2015-05-05T15:04:36Z</time>
      </trkpt>
      <trkpt lat="37.284861" lon="-8.838302">
        <ele>106.874</ele>
        <time>2015-05-05T15:05:06Z</time>
      </trkpt>
      <trkpt lat="37.284483" lon="-8.837733">
        <ele>102.064</ele>
        <time>2015-05-05T15:05:59Z</time>
      </trkpt>
      <trkpt lat="37.284275" lon="-8.837659">
        <ele>104.029</ele>
        <time>2015-05-05T15:06:14Z</time>
      </trkpt>
      <trkpt lat="37.283496" lon="-8.838649">
        <ele>117.491</ele>
        <time>2015-05-05T15:07:43Z</time>
      </trkpt>
      <trkpt lat="37.282827" lon="-8.839180">
        <ele>116.046</ele>
        <time>2015-05-05T15:08:41Z</time>
      </trkpt>
      <trkpt lat="37.282278" lon="-8.839300">
        <ele>109.731</ele>
        <time>2015-05-05T15:09:22Z</time>
      </trkpt>
      <trkpt lat="37.281614" lon="-8.839217">
        <ele>111.713</ele>
        <time>2015-05-05T15:10:10Z</time>
      </trkpt>
      <trkpt lat="37.280478" lon="-8.839802">
        <ele>113.643</ele>
        <time>2015-05-05T15:11:44Z</time>
      </trkpt>
      <trkpt lat="37.281193" lon="-8.840443">
        <ele>107.307</ele>
        <time>2015-05-05T15:12:48Z</time>
      </trkpt>
      <trkpt lat="37.281454" lon="-8.841592">
        <ele>110.207</ele>
        <time>2015-05-05T15:14:14Z</time>
      </trkpt>
      <trkpt lat="37.282534" lon="-8.843151">
        <ele>111.790</ele>
        <time>2015-05-05T15:16:22Z</time>
      </trkpt>
      <trkpt lat="37.283379" lon="-8.843987">
        <ele>106.897</ele>
        <time>2015-05-05T15:17:40Z</time>
      </trkpt>
      <trkpt lat="37.283957" lon="-8.845078">
        <ele>101.127</ele>
        <time>2015-05-05T15:18:54Z</time>
      </trkpt>
      <trkpt lat="37.284111" lon="-8.845935">
        <ele>108.852</ele>
        <time>2015-05-05T15:19:46Z</time>
      </trkpt>
      <trkpt lat="37.283870" lon="-8.847913">
        <ele>115.034</ele>
        <time>2015-05-05T15:21:42Z</time>
      </trkpt>
      <trkpt lat="37.283997" lon="-8.850112">
        <ele>116.079</ele>
        <time>2015-05-05T15:23:46Z</time>
      </trkpt>
      <trkpt lat="37.284450" lon="-8.851668">
        <ele>113.694</ele>
        <time>2015-05-05T15:25:45Z</time>
      </trkpt>
      <trkpt lat="37.284647" lon="-8.851802">
        <ele>108.348</ele>
        <time>2015-05-05T15:26:10Z</time>
      </trkpt>
      <trkpt lat="37.284936" lon="-8.851367">
        <ele>111.761</ele>
        <time>2015-05-05T15:27:38Z</time>
      </trkpt>
      <trkpt lat="37.286174" lon="-8.850415">
        <ele>109.317</ele>
        <time>2015-05-05T15:29:26Z</time>
      </trkpt>
      <trkpt lat="37.286525" lon="-8.850535">
        <ele>105.907</ele>
        <time>2015-05-05T15:30:12Z</time>
      </trkpt>
      <trkpt lat="37.286915" lon="-8.850917">
        <ele>100.653</ele>
        <time>2015-05-05T15:30:46Z</time>
      </trkpt>
      <trkpt lat="37.288037" lon="-8.852802">
        <ele>102.080</ele>
        <time>2015-05-05T15:33:08Z</time>
      </trkpt>
      <trkpt lat="37.288853" lon="-8.853758">
        <ele>96.850</ele>
        <time>2015-05-05T15:34:32Z</time>
      </trkpt>
      <trkpt lat="37.290111" lon="-8.854660">
        <ele>82.875</ele>
        <time>2015-05-05T15:36:15Z</time>
      </trkpt>
      <trkpt lat="37.291275" lon="-8.856203">
        <ele>93.457</ele>
        <time>2015-05-05T15:38:23Z</time>
      </trkpt>
      <trkpt lat="37.291501" lon="-8.856360">
        <ele>95.892</ele>
        <time>2015-05-05T15:38:42Z</time>
      </trkpt>
      <trkpt lat="37.292327" lon="-8.856407">
        <ele>97.767</ele>
        <time>2015-05-05T15:39:43Z</time>
      </trkpt>
      <trkpt lat="37.292697" lon="-8.857485">
        <ele>99.647</ele>
        <time>2015-05-05T15:40:57Z</time>
      </trkpt>
      <trkpt lat="37.292803" lon="-8.859335">
        <ele>105.929</ele>
        <time>2015-05-05T15:42:51Z</time>
      </trkpt>
      <trkpt lat="37.292922" lon="-8.859592">
        <ele>104.421</ele>
        <time>2015-05-05T15:43:09Z</time>
      </trkpt>
      <trkpt lat="37.294550" lon="-8.861080">
        <ele>101.607</ele>
        <time>2015-05-05T15:45:44Z</time>
      </trkpt>
      <trkpt lat="37.294814" lon="-8.861110">
        <ele>101.683</ele>
        <time>2015-05-05T15:46:46Z</time>
      </trkpt>
      <trkpt lat="37.294819" lon="-8.861109">
        <ele>116.072</ele>
        <time>2015-05-06T08:21:43Z</time>
      </trkpt>
      <trkpt lat="37.294675" lon="-8.861167">
        <ele>108.313</ele>
        <time>2015-05-06T08:22:11Z</time>
      </trkpt>
      <trkpt lat="37.294758" lon="-8.861091">
        <ele>102.514</ele>
        <time>2015-05-06T08:23:11Z</time>
      </trkpt>
      <trkpt lat="37.292891" lon="-8.859418">
        <ele>101.107</ele>
        <time>2015-05-06T08:26:30Z</time>
      </trkpt>
      <trkpt lat="37.292795" lon="-8.857970">
        <ele>105.916</ele>
        <time>2015-05-06T08:28:02Z</time>
      </trkpt>
      <trkpt lat="37.292463" lon="-8.856582">
        <ele>106.463</ele>
        <time>2015-05-06T08:29:30Z</time>
      </trkpt>
      <trkpt lat="37.292239" lon="-8.856339">
        <ele>103.553</ele>
        <time>2015-05-06T08:29:53Z</time>
      </trkpt>
      <trkpt lat="37.291606" lon="-8.856356">
        <ele>103.553</ele>
        <time>2015-05-06T08:30:51Z</time>
      </trkpt>
      <trkpt lat="37.291309" lon="-8.856221">
        <ele>101.630</ele>
        <time>2015-05-06T08:31:15Z</time>
      </trkpt>
      <trkpt lat="37.290170" lon="-8.854698">
        <ele>89.140</ele>
        <time>2015-05-06T08:33:16Z</time>
      </trkpt>
      <trkpt lat="37.289747" lon="-8.854272">
        <ele>89.198</ele>
        <time>2015-05-06T08:34:14Z</time>
      </trkpt>
      <trkpt lat="37.289298" lon="-8.854107">
        <ele>95.396</ele>
        <time>2015-05-06T08:34:56Z</time>
      </trkpt>
      <trkpt lat="37.288855" lon="-8.853735">
        <ele>98.731</ele>
        <time>2015-05-06T08:36:11Z</time>
      </trkpt>
      <trkpt lat="37.288048" lon="-8.852798">
        <ele>103.024</ele>
        <time>2015-05-06T08:37:50Z</time>
      </trkpt>
      <trkpt lat="37.286937" lon="-8.850897">
        <ele>105.407</ele>
        <time>2015-05-06T08:40:18Z</time>
      </trkpt>
      <trkpt lat="37.286494" lon="-8.850477">
        <ele>112.618</ele>
        <time>2015-05-06T08:41:06Z</time>
      </trkpt>
      <trkpt lat="37.286158" lon="-8.850366">
        <ele>114.195</ele>
        <time>2015-05-06T08:41:34Z</time>
      </trkpt>
      <trkpt lat="37.284794" lon="-8.851574">
        <ele>108.875</ele>
        <time>2015-05-06T08:43:48Z</time>
      </trkpt>
      <trkpt lat="37.284217" lon="-8.853310">
        <ele>106.455</ele>
        <time>2015-05-06T08:45:46Z</time>
      </trkpt>
      <trkpt lat="37.283247" lon="-8.855119">
        <ele>104.922</ele>
        <time>2015-05-06T08:48:01Z</time>
      </trkpt>
      <trkpt lat="37.281559" lon="-8.856414">
        <ele>91.552</ele>
        <time>2015-05-06T08:50:44Z</time>
      </trkpt>
      <trkpt lat="37.281062" lon="-8.856583">
        <ele>91.080</ele>
        <time>2015-05-06T08:51:24Z</time>
      </trkpt>
      <trkpt lat="37.280690" lon="-8.856550">
        <ele>92.425</ele>
        <time>2015-05-06T08:51:53Z</time>
      </trkpt>
      <trkpt lat="37.279780" lon="-8.856109">
        <ele>91.026</ele>
        <time>2015-05-06T08:53:10Z</time>
      </trkpt>
      <trkpt lat="37.278268" lon="-8.855939">
        <ele>97.708</ele>
        <time>2015-05-06T08:55:13Z</time>
      </trkpt>
      <trkpt lat="37.277439" lon="-8.856083">
        <ele>100.107</ele>
        <time>2015-05-06T08:56:22Z</time>
      </trkpt>
      <trkpt lat="37.276853" lon="-8.856431">
        <ele>107.311</ele>
        <time>2015-05-06T08:57:31Z</time>
      </trkpt>
      <trkpt lat="37.275157" lon="-8.858097">
        <ele>84.358</ele>
        <time>2015-05-06T09:01:09Z</time>
      </trkpt>
      <trkpt lat="37.273916" lon="-8.858788">
        <ele>74.288</ele>
        <time>2015-05-06T09:15:01Z</time>
      </trkpt>
      <trkpt lat="37.272421" lon="-8.860017">
        <ele>44.448</ele>
        <time>2015-05-06T09:17:31Z</time>
      </trkpt>
      <trkpt lat="37.272033" lon="-8.859597">
        <ele>29.935</ele>
        <time>2015-05-06T09:18:09Z</time>
      </trkpt>
      <trkpt lat="37.271732" lon="-8.858924">
        <ele>15.565</ele>
        <time>2015-05-06T09:18:54Z</time>
      </trkpt>
      <trkpt lat="37.271564" lon="-8.859043">
        <ele>11.223</ele>
        <time>2015-05-06T09:19:08Z</time>
      </trkpt>
      <trkpt lat="37.271464" lon="-8.859621">
        <ele>10.239</ele>
        <time>2015-05-06T09:19:41Z</time>
      </trkpt>
      <trkpt lat="37.270967" lon="-8.859668">
        <ele>13.101</ele>
        <time>2015-05-06T09:23:07Z</time>
      </trkpt>
      <trkpt lat="37.270675" lon="-8.859277">
        <ele>13.121</ele>
        <time>2015-05-06T09:23:41Z</time>
      </trkpt>
      <trkpt lat="37.270417" lon="-8.859259">
        <ele>13.607</ele>
        <time>2015-05-06T09:24:01Z</time>
      </trkpt>
      <trkpt lat="37.269681" lon="-8.859824">
        <ele>26.162</ele>
        <time>2015-05-06T09:25:39Z</time>
      </trkpt>
      <trkpt lat="37.269553" lon="-8.859244">
        <ele>37.239</ele>
        <time>2015-05-06T09:26:32Z</time>
      </trkpt>
      <trkpt lat="37.269312" lon="-8.859245">
        <ele>44.499</ele>
        <time>2015-05-06T09:27:06Z</time>
      </trkpt>
      <trkpt lat="37.269506" lon="-8.858871">
        <ele>53.519</ele>
        <time>2015-05-06T09:27:49Z</time>
      </trkpt>
      <trkpt lat="37.269407" lon="-8.858662">
        <ele>57.396</ele>
        <time>2015-05-06T09:28:05Z</time>
      </trkpt>
      <trkpt lat="37.269040" lon="-8.858179">
        <ele>66.556</ele>
        <time>2015-05-06T09:28:52Z</time>
      </trkpt>
      <trkpt lat="37.268561" lon="-8.857925">
        <ele>73.214</ele>
        <time>2015-05-06T09:29:36Z</time>
      </trkpt>
      <trkpt lat="37.268310" lon="-8.857242">
        <ele>77.055</ele>
        <time>2015-05-06T09:30:22Z</time>
      </trkpt>
      <trkpt lat="37.267786" lon="-8.856880">
        <ele>85.707</ele>
        <time>2015-05-06T09:31:10Z</time>
      </trkpt>
      <trkpt lat="37.267425" lon="-8.856254">
        <ele>91.017</ele>
        <time>2015-05-06T09:32:01Z</time>
      </trkpt>
      <trkpt lat="37.267190" lon="-8.856158">
        <ele>96.307</ele>
        <time>2015-05-06T09:32:20Z</time>
      </trkpt>
      <trkpt lat="37.266279" lon="-8.856334">
        <ele>110.734</ele>
        <time>2015-05-06T09:33:35Z</time>
      </trkpt>
      <trkpt lat="37.266084" lon="-8.856237">
        <ele>111.731</ele>
        <time>2015-05-06T09:33:52Z</time>
      </trkpt>
      <trkpt lat="37.265157" lon="-8.854921">
        <ele>111.761</ele>
        <time>2015-05-06T09:35:35Z</time>
      </trkpt>
      <trkpt lat="37.264317" lon="-8.853104">
        <ele>114.531</ele>
        <time>2015-05-06T09:37:36Z</time>
      </trkpt>
      <trkpt lat="37.264172" lon="-8.849774">
        <ele>118.418</ele>
        <time>2015-05-06T09:40:48Z</time>
      </trkpt>
      <trkpt lat="37.263082" lon="-8.847698">
        <ele>119.318</ele>
        <time>2015-05-06T09:43:17Z</time>
      </trkpt>
      <trkpt lat="37.262571" lon="-8.844897">
        <ele>134.756</ele>
        <time>2015-05-06T09:46:11Z</time>
      </trkpt>
      <trkpt lat="37.261372" lon="-8.843454">
        <ele>141.999</ele>
        <time>2015-05-06T09:48:50Z</time>
      </trkpt>
      <trkpt lat="37.260787" lon="-8.842342">
        <ele>144.307</ele>
        <time>2015-05-06T09:50:09Z</time>
      </trkpt>
      <trkpt lat="37.254202" lon="-8.837544">
        <ele>159.727</ele>
        <time>2015-05-06T09:59:36Z</time>
      </trkpt>
      <trkpt lat="37.250595" lon="-8.835575">
        <ele>151.507</ele>
        <time>2015-05-06T10:04:03Z</time>
      </trkpt>
      <trkpt lat="37.246702" lon="-8.835156">
        <ele>138.168</ele>
        <time>2015-05-06T10:09:13Z</time>
      </trkpt>
      <trkpt lat="37.245865" lon="-8.836161">
        <ele>140.515</ele>
        <time>2015-05-06T10:10:38Z</time>
      </trkpt>
      <trkpt lat="37.245658" lon="-8.837725">
        <ele>147.745</ele>
        <time>2015-05-06T10:12:29Z</time>
      </trkpt>
      <trkpt lat="37.245439" lon="-8.838358">
        <ele>146.385</ele>
        <time>2015-05-06T10:13:10Z</time>
      </trkpt>
      <trkpt lat="37.244204" lon="-8.839701">
        <ele>139.142</ele>
        <time>2015-05-06T10:15:13Z</time>
      </trkpt>
      <trkpt lat="37.243744" lon="-8.840032">
        <ele>148.712</ele>
        <time>2015-05-06T10:18:43Z</time>
      </trkpt>
      <trkpt lat="37.242076" lon="-8.840373">
        <ele>149.160</ele>
        <time>2015-05-06T10:20:41Z</time>
      </trkpt>
      <trkpt lat="37.241053" lon="-8.841164">
        <ele>152.584</ele>
        <time>2015-05-06T10:22:11Z</time>
      </trkpt>
      <trkpt lat="37.240296" lon="-8.842390">
        <ele>150.607</ele>
        <time>2015-05-06T10:23:40Z</time>
      </trkpt>
      <trkpt lat="37.240080" lon="-8.843820">
        <ele>158.817</ele>
        <time>2015-05-06T10:25:06Z</time>
      </trkpt>
      <trkpt lat="37.239563" lon="-8.844726">
        <ele>156.407</ele>
        <time>2015-05-06T10:26:17Z</time>
      </trkpt>
      <trkpt lat="37.238702" lon="-8.844761">
        <ele>155.957</ele>
        <time>2015-05-06T10:28:17Z</time>
      </trkpt>
      <trkpt lat="37.238045" lon="-8.845332">
        <ele>151.584</ele>
        <time>2015-05-06T10:29:14Z</time>
      </trkpt>
      <trkpt lat="37.236730" lon="-8.845116">
        <ele>151.584</ele>
        <time>2015-05-06T10:30:48Z</time>
      </trkpt>
      <trkpt lat="37.236454" lon="-8.845185">
        <ele>154.024</ele>
        <time>2015-05-06T10:31:07Z</time>
      </trkpt>
      <trkpt lat="37.235894" lon="-8.845968">
        <ele>149.611</ele>
        <time>2015-05-06T10:32:07Z</time>
      </trkpt>
      <trkpt lat="37.234772" lon="-8.846440">
        <ele>150.171</ele>
        <time>2015-05-06T10:33:31Z</time>
      </trkpt>
      <trkpt lat="37.234404" lon="-8.846976">
        <ele>152.079</ele>
        <time>2015-05-06T10:34:15Z</time>
      </trkpt>
      <trkpt lat="37.234179" lon="-8.847628">
        <ele>150.649</ele>
        <time>2015-05-06T10:34:56Z</time>
      </trkpt>
      <trkpt lat="37.233943" lon="-8.847906">
        <ele>150.602</ele>
        <time>2015-05-06T10:35:33Z</time>
      </trkpt>
      <trkpt lat="37.233553" lon="-8.848069">
        <ele>153.522</ele>
        <time>2015-05-06T10:36:03Z</time>
      </trkpt>
      <trkpt lat="37.233057" lon="-8.848121">
        <ele>151.107</ele>
        <time>2015-05-06T10:36:38Z</time>
      </trkpt>
      <trkpt lat="37.232001" lon="-8.847593">
        <ele>148.773</ele>
        <time>2015-05-06T10:38:00Z</time>
      </trkpt>
      <trkpt lat="37.231291" lon="-8.847613">
        <ele>150.610</ele>
        <time>2015-05-06T10:38:59Z</time>
      </trkpt>
      <trkpt lat="37.229983" lon="-8.848197">
        <ele>142.950</ele>
        <time>2015-05-06T10:40:47Z</time>
      </trkpt>
      <trkpt lat="37.229414" lon="-8.848225">
        <ele>139.550</ele>
        <time>2015-05-06T10:41:27Z</time>
      </trkpt>
      <trkpt lat="37.228911" lon="-8.848630">
        <ele>134.247</ele>
        <time>2015-05-06T10:42:09Z</time>
      </trkpt>
      <trkpt lat="37.228615" lon="-8.849234">
        <ele>128.567</ele>
        <time>2015-05-06T10:43:06Z</time>
      </trkpt>
      <trkpt lat="37.228118" lon="-8.848715">
        <ele>121.725</ele>
        <time>2015-05-06T10:43:55Z</time>
      </trkpt>
      <trkpt lat="37.227934" lon="-8.848173">
        <ele>114.193</ele>
        <time>2015-05-06T10:44:29Z</time>
      </trkpt>
      <trkpt lat="37.228519" lon="-8.846306">
        <ele>106.865</ele>
        <time>2015-05-06T10:46:50Z</time>
      </trkpt>
      <trkpt lat="37.228210" lon="-8.845897">
        <ele>105.421</ele>
        <time>2015-05-06T10:47:23Z</time>
      </trkpt>
      <trkpt lat="37.228817" lon="-8.845178">
        <ele>92.407</ele>
        <time>2015-05-06T10:48:24Z</time>
      </trkpt>
      <trkpt lat="37.228914" lon="-8.844643">
        <ele>87.118</ele>
        <time>2015-05-06T10:48:58Z</time>
      </trkpt>
      <trkpt lat="37.227955" lon="-8.843174">
        <ele>91.935</ele>
        <time>2015-05-06T10:51:05Z</time>
      </trkpt>
      <trkpt lat="37.227800" lon="-8.842088">
        <ele>100.675</ele>
        <time>2015-05-06T11:10:56Z</time>
      </trkpt>
      <trkpt lat="37.228069" lon="-8.841349">
        <ele>102.535</ele>
        <time>2015-05-06T11:12:33Z</time>
      </trkpt>
      <trkpt lat="37.229152" lon="-8.840477">
        <ele>104.462</ele>
        <time>2015-05-06T11:14:33Z</time>
      </trkpt>
      <trkpt lat="37.229340" lon="-8.839910">
        <ele>110.222</ele>
        <time>2015-05-06T11:15:20Z</time>
      </trkpt>
      <trkpt lat="37.229263" lon="-8.839206">
        <ele>116.520</ele>
        <time>2015-05-06T11:16:14Z</time>
      </trkpt>
      <trkpt lat="37.229531" lon="-8.838665">
        <ele>128.594</ele>
        <time>2015-05-06T11:17:10Z</time>
      </trkpt>
      <trkpt lat="37.228583" lon="-8.836498">
        <ele>132.357</ele>
        <time>2015-05-06T11:19:56Z</time>
      </trkpt>
      <trkpt lat="37.228142" lon="-8.834750">
        <ele>120.822</ele>
        <time>2015-05-06T11:21:50Z</time>
      </trkpt>
      <trkpt lat="37.227349" lon="-8.833526">
        <ele>116.507</ele>
        <time>2015-05-06T11:23:28Z</time>
      </trkpt>
      <trkpt lat="37.227244" lon="-8.833130">
        <ele>114.518</ele>
        <time>2015-05-06T11:23:54Z</time>
      </trkpt>
      <trkpt lat="37.227423" lon="-8.832459">
        <ele>112.665</ele>
        <time>2015-05-06T11:24:37Z</time>
      </trkpt>
      <trkpt lat="37.226672" lon="-8.830256">
        <ele>109.395</ele>
        <time>2015-05-06T11:28:18Z</time>
      </trkpt>
      <trkpt lat="37.225058" lon="-8.828314">
        <ele>118.435</ele>
        <time>2015-05-06T11:31:16Z</time>
      </trkpt>
      <trkpt lat="37.224295" lon="-8.828430">
        <ele>116.992</ele>
        <time>2015-05-06T11:32:19Z</time>
      </trkpt>
      <trkpt lat="37.222221" lon="-8.828106">
        <ele>130.942</ele>
        <time>2015-05-06T11:35:16Z</time>
      </trkpt>
      <trkpt lat="37.221742" lon="-8.827866">
        <ele>130.980</ele>
        <time>2015-05-06T11:35:59Z</time>
      </trkpt>
      <trkpt lat="37.220418" lon="-8.828179">
        <ele>129.465</ele>
        <time>2015-05-06T11:38:14Z</time>
      </trkpt>
      <trkpt lat="37.219170" lon="-8.828842">
        <ele>130.968</ele>
        <time>2015-05-06T11:40:05Z</time>
      </trkpt>
      <trkpt lat="37.217642" lon="-8.828613">
        <ele>135.714</ele>
        <time>2015-05-06T11:42:17Z</time>
      </trkpt>
      <trkpt lat="37.217067" lon="-8.828979">
        <ele>134.707</ele>
        <time>2015-05-06T11:43:15Z</time>
      </trkpt>
      <trkpt lat="37.214979" lon="-8.829433">
        <ele>147.235</ele>
        <time>2015-05-06T11:46:35Z</time>
      </trkpt>
      <trkpt lat="37.213686" lon="-8.829504">
        <ele>143.442</ele>
        <time>2015-05-06T11:48:19Z</time>
      </trkpt>
      <trkpt lat="37.212901" lon="-8.829744">
        <ele>131.482</ele>
        <time>2015-05-06T11:49:26Z</time>
      </trkpt>
      <trkpt lat="37.212350" lon="-8.829619">
        <ele>122.782</ele>
        <time>2015-05-06T11:50:14Z</time>
      </trkpt>
      <trkpt lat="37.211700" lon="-8.829139">
        <ele>110.219</ele>
        <time>2015-05-06T11:51:18Z</time>
      </trkpt>
      <trkpt lat="37.210857" lon="-8.829035">
        <ele>100.679</ele>
        <time>2015-05-06T11:52:27Z</time>
      </trkpt>
      <trkpt lat="37.210766" lon="-8.828581">
        <ele>104.477</ele>
        <time>2015-05-06T11:52:58Z</time>
      </trkpt>
      <trkpt lat="37.210093" lon="-8.829152">
        <ele>94.482</ele>
        <time>2015-05-06T11:54:10Z</time>
      </trkpt>
      <trkpt lat="37.209927" lon="-8.829098">
        <ele>93.443</ele>
        <time>2015-05-06T11:54:25Z</time>
      </trkpt>
      <trkpt lat="37.209490" lon="-8.828358">
        <ele>86.717</ele>
        <time>2015-05-06T12:00:43Z</time>
      </trkpt>
      <trkpt lat="37.208552" lon="-8.827317">
        <ele>72.207</ele>
        <time>2015-05-06T12:02:25Z</time>
      </trkpt>
      <trkpt lat="37.207226" lon="-8.827076">
        <ele>66.027</ele>
        <time>2015-05-06T12:04:14Z</time>
      </trkpt>
      <trkpt lat="37.206916" lon="-8.827496">
        <ele>62.664</ele>
        <time>2015-05-06T12:04:48Z</time>
      </trkpt>
      <trkpt lat="37.206387" lon="-8.829202">
        <ele>61.264</ele>
        <time>2015-05-06T12:07:18Z</time>
      </trkpt>
      <trkpt lat="37.205599" lon="-8.830427">
        <ele>58.884</ele>
        <time>2015-05-06T12:09:16Z</time>
      </trkpt>
      <trkpt lat="37.205262" lon="-8.830787">
        <ele>56.991</ele>
        <time>2015-05-06T12:09:52Z</time>
      </trkpt>
      <trkpt lat="37.204461" lon="-8.831217">
        <ele>56.961</ele>
        <time>2015-05-06T12:11:13Z</time>
      </trkpt>
      <trkpt lat="37.204086" lon="-8.832355">
        <ele>59.319</ele>
        <time>2015-05-06T12:12:31Z</time>
      </trkpt>
      <trkpt lat="37.202230" lon="-8.834007">
        <ele>58.868</ele>
        <time>2015-05-06T12:15:30Z</time>
      </trkpt>
      <trkpt lat="37.201757" lon="-8.834147">
        <ele>54.942</ele>
        <time>2015-05-06T12:16:09Z</time>
      </trkpt>
      <trkpt lat="37.201646" lon="-8.834396">
        <ele>54.526</ele>
        <time>2015-05-06T12:16:27Z</time>
      </trkpt>
      <trkpt lat="37.201740" lon="-8.835102">
        <ele>57.307</ele>
        <time>2015-05-06T12:17:14Z</time>
      </trkpt>
      <trkpt lat="37.202270" lon="-8.836573">
        <ele>47.745</ele>
        <time>2015-05-06T12:18:55Z</time>
      </trkpt>
      <trkpt lat="37.202607" lon="-8.838578">
        <ele>44.442</ele>
        <time>2015-05-06T12:24:34Z</time>
      </trkpt>
      <trkpt lat="37.201837" lon="-8.840790">
        <ele>40.022</ele>
        <time>2015-05-06T12:27:08Z</time>
      </trkpt>
      <trkpt lat="37.201753" lon="-8.842097">
        <ele>39.672</ele>
        <time>2015-05-06T12:28:29Z</time>
      </trkpt>
      <trkpt lat="37.201317" lon="-8.843089">
        <ele>40.019</ele>
        <time>2015-05-06T12:29:40Z</time>
      </trkpt>
      <trkpt lat="37.201229" lon="-8.844096">
        <ele>38.189</ele>
        <time>2015-05-06T12:30:46Z</time>
      </trkpt>
      <trkpt lat="37.200980" lon="-8.844847">
        <ele>41.547</ele>
        <time>2015-05-06T12:31:40Z</time>
      </trkpt>
      <trkpt lat="37.199793" lon="-8.846901">
        <ele>36.715</ele>
        <time>2015-05-06T12:34:13Z</time>
      </trkpt>
      <trkpt lat="37.198516" lon="-8.847820">
        <ele>39.665</ele>
        <time>2015-05-06T12:36:05Z</time>
      </trkpt>
      <trkpt lat="37.197968" lon="-8.848566">
        <ele>40.011</ele>
        <time>2015-05-06T12:37:05Z</time>
      </trkpt>
      <trkpt lat="37.197975" lon="-8.850311">
        <ele>39.607</ele>
        <time>2015-05-06T12:38:55Z</time>
      </trkpt>
      <trkpt lat="37.197804" lon="-8.851615">
        <ele>36.740</ele>
        <time>2015-05-06T12:40:18Z</time>
      </trkpt>
      <trkpt lat="37.196938" lon="-8.852691">
        <ele>40.597</ele>
        <time>2015-05-06T12:41:54Z</time>
      </trkpt>
      <trkpt lat="37.196701" lon="-8.853820">
        <ele>44.437</ele>
        <time>2015-05-06T12:43:05Z</time>
      </trkpt>
      <trkpt lat="37.196777" lon="-8.854368">
        <ele>42.917</ele>
        <time>2015-05-06T12:43:39Z</time>
      </trkpt>
      <trkpt lat="37.197264" lon="-8.854878">
        <ele>40.594</ele>
        <time>2015-05-06T12:44:29Z</time>
      </trkpt>
      <trkpt lat="37.197354" lon="-8.855350">
        <ele>36.734</ele>
        <time>2015-05-06T12:45:02Z</time>
      </trkpt>
      <trkpt lat="37.196980" lon="-8.856427">
        <ele>34.712</ele>
        <time>2015-05-06T12:46:46Z</time>
      </trkpt>
      <trkpt lat="37.196445" lon="-8.857163">
        <ele>30.922</ele>
        <time>2015-05-06T12:47:59Z</time>
      </trkpt>
      <trkpt lat="37.196507" lon="-8.858391">
        <ele>32.862</ele>
        <time>2015-05-06T12:49:15Z</time>
      </trkpt>
      <trkpt lat="37.196194" lon="-8.859609">
        <ele>31.408</ele>
        <time>2015-05-06T12:50:36Z</time>
      </trkpt>
      <trkpt lat="37.196082" lon="-8.861006">
        <ele>29.007</ele>
        <time>2015-05-06T12:52:51Z</time>
      </trkpt>
      <trkpt lat="37.196445" lon="-8.860999">
        <ele>32.831</ele>
        <time>2015-05-06T14:09:55Z</time>
      </trkpt>
      <trkpt lat="37.196489" lon="-8.861151">
        <ele>37.698</ele>
        <time>2015-05-06T14:10:23Z</time>
      </trkpt>
      <trkpt lat="37.195155" lon="-8.861503">
        <ele>30.938</ele>
        <time>2015-05-06T14:13:58Z</time>
      </trkpt>
      <trkpt lat="37.194212" lon="-8.862699">
        <ele>45.348</ele>
        <time>2015-05-06T14:16:32Z</time>
      </trkpt>
      <trkpt lat="37.193460" lon="-8.863407">
        <ele>54.915</ele>
        <time>2015-05-06T14:18:16Z</time>
      </trkpt>
      <trkpt lat="37.193208" lon="-8.863583">
        <ele>60.215</ele>
        <time>2015-05-06T14:18:44Z</time>
      </trkpt>
      <trkpt lat="37.192356" lon="-8.863611">
        <ele>63.183</ele>
        <time>2015-05-06T14:20:15Z</time>
      </trkpt>
      <trkpt lat="37.192093" lon="-8.863937">
        <ele>75.655</ele>
        <time>2015-05-06T14:20:53Z</time>
      </trkpt>
      <trkpt lat="37.191486" lon="-8.864017">
        <ele>100.607</ele>
        <time>2015-05-06T14:21:50Z</time>
      </trkpt>
      <trkpt lat="37.190364" lon="-8.863062">
        <ele>122.717</ele>
        <time>2015-05-06T14:24:34Z</time>
      </trkpt>
      <trkpt lat="37.189868" lon="-8.863111">
        <ele>117.907</ele>
        <time>2015-05-06T14:25:54Z</time>
      </trkpt>
      <trkpt lat="37.189595" lon="-8.864013">
        <ele>121.334</ele>
        <time>2015-05-06T14:27:08Z</time>
      </trkpt>
      <trkpt lat="37.189116" lon="-8.864104">
        <ele>114.121</ele>
        <time>2015-05-06T14:28:04Z</time>
      </trkpt>
      <trkpt lat="37.188492" lon="-8.864820">
        <ele>114.131</ele>
        <time>2015-05-06T14:29:33Z</time>
      </trkpt>
      <trkpt lat="37.187849" lon="-8.865164">
        <ele>101.191</ele>
        <time>2015-05-06T14:30:39Z</time>
      </trkpt>
      <trkpt lat="37.186661" lon="-8.866930">
        <ele>77.518</ele>
        <time>2015-05-06T14:33:28Z</time>
      </trkpt>
      <trkpt lat="37.186762" lon="-8.868065">
        <ele>63.128</ele>
        <time>2015-05-06T14:34:47Z</time>
      </trkpt>
      <trkpt lat="37.187148" lon="-8.868722">
        <ele>52.186</ele>
        <time>2015-05-06T14:35:52Z</time>
      </trkpt>
      <trkpt lat="37.187240" lon="-8.869250">
        <ele>54.596</ele>
        <time>2015-05-06T14:36:30Z</time>
      </trkpt>
      <trkpt lat="37.187730" lon="-8.870344">
        <ele>53.531</ele>
        <time>2015-05-06T14:37:57Z</time>
      </trkpt>
      <trkpt lat="37.188060" lon="-8.870758">
        <ele>45.824</ele>
        <time>2015-05-06T14:38:37Z</time>
      </trkpt>
      <trkpt lat="37.188042" lon="-8.871340">
        <ele>45.307</ele>
        <time>2015-05-06T14:39:23Z</time>
      </trkpt>
      <trkpt lat="37.187144" lon="-8.873135">
        <ele>40.538</ele>
        <time>2015-05-06T14:41:45Z</time>
      </trkpt>
      <trkpt lat="37.186997" lon="-8.873841">
        <ele>43.475</ele>
        <time>2015-05-06T14:42:37Z</time>
      </trkpt>
      <trkpt lat="37.187610" lon="-8.876160">
        <ele>36.755</ele>
        <time>2015-05-06T14:45:29Z</time>
      </trkpt>
      <trkpt lat="37.188156" lon="-8.876938">
        <ele>31.495</ele>
        <time>2015-05-06T14:46:43Z</time>
      </trkpt>
      <trkpt lat="37.188195" lon="-8.878556">
        <ele>55.962</ele>
        <time>2015-05-06T14:49:05Z</time>
      </trkpt>
      <trkpt lat="37.187740" lon="-8.879012">
        <ele>61.792</ele>
        <time>2015-05-06T14:50:00Z</time>
      </trkpt>
      <trkpt lat="37.188425" lon="-8.879849">
        <ele>78.020</ele>
        <time>2015-05-06T14:51:57Z</time>
      </trkpt>
      <trkpt lat="37.188472" lon="-8.881221">
        <ele>91.922</ele>
        <time>2015-05-06T14:53:57Z</time>
      </trkpt>
      <trkpt lat="37.189152" lon="-8.882790">
        <ele>88.662</ele>
        <time>2015-05-06T14:56:25Z</time>
      </trkpt>
      <trkpt lat="37.190230" lon="-8.884286">
        <ele>84.708</ele>
        <time>2015-05-06T14:59:34Z</time>
      </trkpt>
      <trkpt lat="37.191737" lon="-8.885701">
        <ele>73.207</ele>
        <time>2015-05-06T15:02:03Z</time>
      </trkpt>
      <trkpt lat="37.191726" lon="-8.886770">
        <ele>61.731</ele>
        <time>2015-05-06T15:03:08Z</time>
      </trkpt>
      <trkpt lat="37.192032" lon="-8.888906">
        <ele>35.768</ele>
        <time>2015-05-06T15:05:13Z</time>
      </trkpt>
      <trkpt lat="37.192751" lon="-8.889771">
        <ele>17.098</ele>
        <time>2015-05-06T15:06:34Z</time>
      </trkpt>
      <trkpt lat="37.188888" lon="-8.890627">
        <ele>20.838</ele>
        <time>2015-05-06T15:11:14Z</time>
      </trkpt>
      <trkpt lat="37.188244" lon="-8.891190">
        <ele>10.775</ele>
        <time>2015-05-06T15:13:05Z</time>
      </trkpt>
      <trkpt lat="37.187103" lon="-8.892742">
        <ele>17.085</ele>
        <time>2015-05-06T15:15:34Z</time>
      </trkpt>
      <trkpt lat="37.187039" lon="-8.893028">
        <ele>17.923</ele>
        <time>2015-05-06T15:16:03Z</time>
      </trkpt>
      <trkpt lat="37.187464" lon="-8.893526">
        <ele>24.215</ele>
        <time>2015-05-06T15:17:06Z</time>
      </trkpt>
      <trkpt lat="37.189469" lon="-8.894205">
        <ele>21.865</ele>
        <time>2015-05-06T15:19:34Z</time>
      </trkpt>
      <trkpt lat="37.190638" lon="-8.895391">
        <ele>20.311</ele>
        <time>2015-05-06T15:21:58Z</time>
      </trkpt>
      <trkpt lat="37.190656" lon="-8.895345">
        <ele>16.598</ele>
        <time>2015-05-07T06:28:41Z</time>
      </trkpt>
      <trkpt lat="37.190528" lon="-8.895355">
        <ele>15.015</ele>
        <time>2015-05-07T06:29:56Z</time>
      </trkpt>
      <trkpt lat="37.189330" lon="-8.894104">
        <ele>11.726</ele>
        <time>2015-05-07T06:33:18Z</time>
      </trkpt>
      <trkpt lat="37.187508" lon="-8.893526">
        <ele>9.307</ele>
        <time>2015-05-07T06:36:07Z</time>
      </trkpt>
      <trkpt lat="37.186928" lon="-8.893121">
        <ele>9.378</ele>
        <time>2015-05-07T06:37:05Z</time>
      </trkpt>
      <trkpt lat="37.184788" lon="-8.895657">
        <ele>15.595</ele>
        <time>2015-05-07T06:41:30Z</time>
      </trkpt>
      <trkpt lat="37.184290" lon="-8.895787">
        <ele>20.315</ele>
        <time>2015-05-07T06:42:11Z</time>
      </trkpt>
      <trkpt lat="37.183639" lon="-8.895516">
        <ele>18.416</ele>
        <time>2015-05-07T06:43:19Z</time>
      </trkpt>
      <trkpt lat="37.183543" lon="-8.894911">
        <ele>16.577</ele>
        <time>2015-05-07T06:45:41Z</time>
      </trkpt>
      <trkpt lat="37.183836" lon="-8.894267">
        <ele>29.525</ele>
        <time>2015-05-07T06:47:49Z</time>
      </trkpt>
      <trkpt lat="37.184105" lon="-8.894019">
        <ele>34.793</ele>
        <time>2015-05-07T06:48:22Z</time>
      </trkpt>
      <trkpt lat="37.184030" lon="-8.893660">
        <ele>39.677</ele>
        <time>2015-05-07T06:48:56Z</time>
      </trkpt>
      <trkpt lat="37.184372" lon="-8.892660">
        <ele>52.161</ele>
        <time>2015-05-07T06:51:01Z</time>
      </trkpt>
      <trkpt lat="37.184284" lon="-8.892081">
        <ele>49.727</ele>
        <time>2015-05-07T06:51:37Z</time>
      </trkpt>
      <trkpt lat="37.183763" lon="-8.891598">
        <ele>58.307</ele>
        <time>2015-05-07T06:52:39Z</time>
      </trkpt>
      <trkpt lat="37.183410" lon="-8.890940">
        <ele>63.666</ele>
        <time>2015-05-07T06:54:01Z</time>
      </trkpt>
      <trkpt lat="37.182531" lon="-8.889920">
        <ele>69.893</ele>
        <time>2015-05-07T06:55:45Z</time>
      </trkpt>
      <trkpt lat="37.182213" lon="-8.889095">
        <ele>73.743</ele>
        <time>2015-05-07T06:56:53Z</time>
      </trkpt>
      <trkpt lat="37.181659" lon="-8.888848">
        <ele>67.084</ele>
        <time>2015-05-07T06:57:49Z</time>
      </trkpt>
      <trkpt lat="37.181332" lon="-8.888490">
        <ele>68.995</ele>
        <time>2015-05-07T06:58:27Z</time>
      </trkpt>
      <trkpt lat="37.181125" lon="-8.887919">
        <ele>79.943</ele>
        <time>2015-05-07T07:00:00Z</time>
      </trkpt>
      <trkpt lat="37.180709" lon="-8.887798">
        <ele>86.761</ele>
        <time>2015-05-07T07:00:55Z</time>
      </trkpt>
      <trkpt lat="37.180051" lon="-8.886728">
        <ele>99.622</ele>
        <time>2015-05-07T07:02:51Z</time>
      </trkpt>
      <trkpt lat="37.179817" lon="-8.886100">
        <ele>104.462</ele>
        <time>2015-05-07T07:03:41Z</time>
      </trkpt>
      <trkpt lat="37.179859" lon="-8.884621">
        <ele>107.808</ele>
        <time>2015-05-07T07:09:53Z</time>
      </trkpt>
      <trkpt lat="37.179712" lon="-8.883597">
        <ele>107.307</ele>
        <time>2015-05-07T07:11:08Z</time>
      </trkpt>
      <trkpt lat="37.179796" lon="-8.883355">
        <ele>105.911</ele>
        <time>2015-05-07T07:11:27Z</time>
      </trkpt>
      <trkpt lat="37.180188" lon="-8.883105">
        <ele>99.638</ele>
        <time>2015-05-07T07:12:11Z</time>
      </trkpt>
      <trkpt lat="37.179861" lon="-8.882688">
        <ele>99.278</ele>
        <time>2015-05-07T07:12:51Z</time>
      </trkpt>
      <trkpt lat="37.179229" lon="-8.882316">
        <ele>93.459</ele>
        <time>2015-05-07T07:13:51Z</time>
      </trkpt>
      <trkpt lat="37.178922" lon="-8.881513">
        <ele>87.690</ele>
        <time>2015-05-07T07:14:52Z</time>
      </trkpt>
      <trkpt lat="37.178147" lon="-8.881070">
        <ele>80.498</ele>
        <time>2015-05-07T07:16:05Z</time>
      </trkpt>
      <trkpt lat="37.178474" lon="-8.880621">
        <ele>69.476</ele>
        <time>2015-05-07T07:16:54Z</time>
      </trkpt>
      <trkpt lat="37.178013" lon="-8.880611">
        <ele>65.055</ele>
        <time>2015-05-07T07:17:33Z</time>
      </trkpt>
      <trkpt lat="37.177514" lon="-8.881040">
        <ele>60.707</ele>
        <time>2015-05-07T07:18:31Z</time>
      </trkpt>
      <trkpt lat="37.177641" lon="-8.880105">
        <ele>43.917</ele>
        <time>2015-05-07T07:19:44Z</time>
      </trkpt>
      <trkpt lat="37.179571" lon="-8.878421">
        <ele>8.807</ele>
        <time>2015-05-07T07:23:04Z</time>
      </trkpt>
      <trkpt lat="37.178901" lon="-8.877529">
        <ele>10.714</ele>
        <time>2015-05-07T07:24:25Z</time>
      </trkpt>
      <trkpt lat="37.178262" lon="-8.874826">
        <ele>13.191</ele>
        <time>2015-05-07T07:27:24Z</time>
      </trkpt>
      <trkpt lat="37.178552" lon="-8.872198">
        <ele>11.211</ele>
        <time>2015-05-07T07:31:05Z</time>
      </trkpt>
      <trkpt lat="37.178328" lon="-8.871605">
        <ele>11.792</ele>
        <time>2015-05-07T07:31:45Z</time>
      </trkpt>
      <trkpt lat="37.177765" lon="-8.871003">
        <ele>11.733</ele>
        <time>2015-05-07T07:32:40Z</time>
      </trkpt>
      <trkpt lat="37.177231" lon="-8.869939">
        <ele>11.211</ele>
        <time>2015-05-07T07:33:59Z</time>
      </trkpt>
      <trkpt lat="37.176790" lon="-8.867864">
        <ele>13.619</ele>
        <time>2015-05-07T07:36:28Z</time>
      </trkpt>
      <trkpt lat="37.176007" lon="-8.866771">
        <ele>14.183</ele>
        <time>2015-05-07T07:38:11Z</time>
      </trkpt>
      <trkpt lat="37.175268" lon="-8.866754">
        <ele>5.425</ele>
        <time>2015-05-07T07:39:07Z</time>
      </trkpt>
      <trkpt lat="37.173080" lon="-8.866272">
        <ele>19.417</ele>
        <time>2015-05-07T07:43:28Z</time>
      </trkpt>
      <trkpt lat="37.172198" lon="-8.864752">
        <ele>20.807</ele>
        <time>2015-05-07T07:46:01Z</time>
      </trkpt>
      <trkpt lat="37.171711" lon="-8.864326">
        <ele>25.127</ele>
        <time>2015-05-07T07:46:50Z</time>
      </trkpt>
      <trkpt lat="37.171080" lon="-8.864034">
        <ele>28.014</ele>
        <time>2015-05-07T07:47:45Z</time>
      </trkpt>
      <trkpt lat="37.169904" lon="-8.864068">
        <ele>20.854</ele>
        <time>2015-05-07T07:49:21Z</time>
      </trkpt>
      <trkpt lat="37.168897" lon="-8.863246">
        <ele>19.435</ele>
        <time>2015-05-07T07:50:57Z</time>
      </trkpt>
      <trkpt lat="37.168791" lon="-8.862697">
        <ele>17.466</ele>
        <time>2015-05-07T07:51:34Z</time>
      </trkpt>
      <trkpt lat="37.168608" lon="-8.862512">
        <ele>16.524</ele>
        <time>2015-05-07T07:51:53Z</time>
      </trkpt>
      <trkpt lat="37.168068" lon="-8.862351">
        <ele>19.452</ele>
        <time>2015-05-07T07:52:41Z</time>
      </trkpt>
      <trkpt lat="37.167615" lon="-8.862490">
        <ele>24.751</ele>
        <time>2015-05-07T07:53:26Z</time>
      </trkpt>
      <trkpt lat="37.167496" lon="-8.862280">
        <ele>21.801</ele>
        <time>2015-05-07T07:53:43Z</time>
      </trkpt>
      <trkpt lat="37.167604" lon="-8.860966">
        <ele>19.411</ele>
        <time>2015-05-07T07:56:08Z</time>
      </trkpt>
      <trkpt lat="37.167323" lon="-8.858438">
        <ele>19.807</ele>
        <time>2015-05-07T07:59:31Z</time>
      </trkpt>
      <trkpt lat="37.167765" lon="-8.858081">
        <ele>22.714</ele>
        <time>2015-05-07T08:00:22Z</time>
      </trkpt>
      <trkpt lat="37.168159" lon="-8.856277">
        <ele>22.791</ele>
        <time>2015-05-07T08:02:32Z</time>
      </trkpt>
      <trkpt lat="37.168785" lon="-8.854971">
        <ele>18.941</ele>
        <time>2015-05-07T08:05:03Z</time>
      </trkpt>
      <trkpt lat="37.168440" lon="-8.853423">
        <ele>20.892</ele>
        <time>2015-05-07T08:08:42Z</time>
      </trkpt>
      <trkpt lat="37.167807" lon="-8.852385">
        <ele>22.763</ele>
        <time>2015-05-07T08:10:25Z</time>
      </trkpt>
      <trkpt lat="37.167754" lon="-8.851807">
        <ele>24.261</ele>
        <time>2015-05-07T08:11:04Z</time>
      </trkpt>
      <trkpt lat="37.168748" lon="-8.849904">
        <ele>21.879</ele>
        <time>2015-05-07T08:13:50Z</time>
      </trkpt>
      <trkpt lat="37.168658" lon="-8.849625">
        <ele>22.733</ele>
        <time>2015-05-07T08:14:08Z</time>
      </trkpt>
      <trkpt lat="37.168282" lon="-8.849403">
        <ele>24.723</ele>
        <time>2015-05-07T08:14:45Z</time>
      </trkpt>
      <trkpt lat="37.167334" lon="-8.849541">
        <ele>21.315</ele>
        <time>2015-05-07T08:15:58Z</time>
      </trkpt>
      <trkpt lat="37.166689" lon="-8.849259">
        <ele>22.707</ele>
        <time>2015-05-07T08:17:02Z</time>
      </trkpt>
      <trkpt lat="37.166590" lon="-8.847837">
        <ele>22.782</ele>
        <time>2015-05-07T08:18:48Z</time>
      </trkpt>
      <trkpt lat="37.166227" lon="-8.847167">
        <ele>26.689</ele>
        <time>2015-05-07T08:20:03Z</time>
      </trkpt>
      <trkpt lat="37.165525" lon="-8.846488">
        <ele>23.229</ele>
        <time>2015-05-07T08:21:16Z</time>
      </trkpt>
      <trkpt lat="37.165172" lon="-8.846510">
        <ele>24.250</ele>
        <time>2015-05-07T08:21:41Z</time>
      </trkpt>
      <trkpt lat="37.164842" lon="-8.846816">
        <ele>25.141</ele>
        <time>2015-05-07T08:22:10Z</time>
      </trkpt>
      <trkpt lat="37.164370" lon="-8.846935">
        <ele>25.169</ele>
        <time>2015-05-07T08:22:47Z</time>
      </trkpt>
      <trkpt lat="37.163707" lon="-8.846695">
        <ele>22.337</ele>
        <time>2015-05-07T08:23:44Z</time>
      </trkpt>
      <trkpt lat="37.163546" lon="-8.846460">
        <ele>22.721</ele>
        <time>2015-05-07T08:24:04Z</time>
      </trkpt>
      <trkpt lat="37.162605" lon="-8.846350">
        <ele>32.341</ele>
        <time>2015-05-07T08:25:15Z</time>
      </trkpt>
      <trkpt lat="37.161923" lon="-8.846829">
        <ele>30.405</ele>
        <time>2015-05-07T08:26:14Z</time>
      </trkpt>
      <trkpt lat="37.161564" lon="-8.847326">
        <ele>29.907</ele>
        <time>2015-05-07T08:26:54Z</time>
      </trkpt>
      <trkpt lat="37.161169" lon="-8.848358">
        <ele>30.971</ele>
        <time>2015-05-07T08:28:02Z</time>
      </trkpt>
      <trkpt lat="37.160466" lon="-8.851161">
        <ele>29.978</ele>
        <time>2015-05-07T08:32:18Z</time>
      </trkpt>
      <trkpt lat="37.160302" lon="-8.851257">
        <ele>28.518</ele>
        <time>2015-05-07T08:32:44Z</time>
      </trkpt>
      <trkpt lat="37.159253" lon="-8.851075">
        <ele>31.499</ele>
        <time>2015-05-07T08:35:33Z</time>
      </trkpt>
      <trkpt lat="37.157445" lon="-8.852048">
        <ele>31.430</ele>
        <time>2015-05-07T08:37:50Z</time>
      </trkpt>
      <trkpt lat="37.156193" lon="-8.853098">
        <ele>33.818</ele>
        <time>2015-05-07T08:39:43Z</time>
      </trkpt>
      <trkpt lat="37.155951" lon="-8.853903">
        <ele>32.866</ele>
        <time>2015-05-07T08:40:33Z</time>
      </trkpt>
      <trkpt lat="37.155476" lon="-8.854691">
        <ele>34.392</ele>
        <time>2015-05-07T08:41:22Z</time>
      </trkpt>
      <trkpt lat="37.154157" lon="-8.855364">
        <ele>34.373</ele>
        <time>2015-05-07T08:43:12Z</time>
      </trkpt>
      <trkpt lat="37.153011" lon="-8.856429">
        <ele>33.820</ele>
        <time>2015-05-07T08:45:06Z</time>
      </trkpt>
      <trkpt lat="37.152411" lon="-8.857331">
        <ele>35.707</ele>
        <time>2015-05-07T08:46:22Z</time>
      </trkpt>
      <trkpt lat="37.151461" lon="-8.857505">
        <ele>36.278</ele>
        <time>2015-05-07T08:47:38Z</time>
      </trkpt>
      <trkpt lat="37.150796" lon="-8.857473">
        <ele>43.985</ele>
        <time>2015-05-07T08:49:59Z</time>
      </trkpt>
      <trkpt lat="37.149811" lon="-8.856940">
        <ele>42.985</ele>
        <time>2015-05-07T08:51:26Z</time>
      </trkpt>
      <trkpt lat="37.149179" lon="-8.856990">
        <ele>41.066</ele>
        <time>2015-05-07T08:52:18Z</time>
      </trkpt>
      <trkpt lat="37.148345" lon="-8.857957">
        <ele>39.197</ele>
        <time>2015-05-07T08:54:05Z</time>
      </trkpt>
      <trkpt lat="37.147187" lon="-8.858811">
        <ele>40.575</ele>
        <time>2015-05-07T08:55:53Z</time>
      </trkpt>
      <trkpt lat="37.146488" lon="-8.859632">
        <ele>47.213</ele>
        <time>2015-05-07T08:57:10Z</time>
      </trkpt>
      <trkpt lat="37.145432" lon="-8.860233">
        <ele>38.658</ele>
        <time>2015-05-07T08:58:50Z</time>
      </trkpt>
      <trkpt lat="37.143133" lon="-8.861108">
        <ele>52.152</ele>
        <time>2015-05-07T09:02:01Z</time>
      </trkpt>
      <trkpt lat="37.142467" lon="-8.861740">
        <ele>54.917</ele>
        <time>2015-05-07T09:03:10Z</time>
      </trkpt>
      <trkpt lat="37.142295" lon="-8.861376">
        <ele>50.607</ele>
        <time>2015-05-07T09:03:41Z</time>
      </trkpt>
      <trkpt lat="37.142020" lon="-8.861455">
        <ele>52.194</ele>
        <time>2015-05-07T09:04:03Z</time>
      </trkpt>
      <trkpt lat="37.141437" lon="-8.862167">
        <ele>63.141</ele>
        <time>2015-05-07T09:05:39Z</time>
      </trkpt>
      <trkpt lat="37.140525" lon="-8.862589">
        <ele>57.881</ele>
        <time>2015-05-07T09:42:05Z</time>
      </trkpt>
      <trkpt lat="37.139639" lon="-8.863267">
        <ele>52.192</ele>
        <time>2015-05-07T09:44:09Z</time>
      </trkpt>
      <trkpt lat="37.139367" lon="-8.863285">
        <ele>50.153</ele>
        <time>2015-05-07T09:44:33Z</time>
      </trkpt>
      <trkpt lat="37.138604" lon="-8.862706">
        <ele>48.291</ele>
        <time>2015-05-07T09:46:38Z</time>
      </trkpt>
      <trkpt lat="37.137361" lon="-8.862382">
        <ele>50.199</ele>
        <time>2015-05-07T09:48:19Z</time>
      </trkpt>
      <trkpt lat="37.136363" lon="-8.861874">
        <ele>48.284</ele>
        <time>2015-05-07T09:49:40Z</time>
      </trkpt>
      <trkpt lat="37.135494" lon="-8.862415">
        <ele>51.107</ele>
        <time>2015-05-07T09:50:54Z</time>
      </trkpt>
      <trkpt lat="37.134130" lon="-8.862535">
        <ele>48.217</ele>
        <time>2015-05-07T09:52:43Z</time>
      </trkpt>
      <trkpt lat="37.132560" lon="-8.861300">
        <ele>51.107</ele>
        <time>2015-05-07T09:55:15Z</time>
      </trkpt>
      <trkpt lat="37.131925" lon="-8.861168">
        <ele>51.147</ele>
        <time>2015-05-07T09:56:05Z</time>
      </trkpt>
      <trkpt lat="37.130471" lon="-8.861643">
        <ele>57.814</ele>
        <time>2015-05-07T09:58:10Z</time>
      </trkpt>
      <trkpt lat="37.130270" lon="-8.862124">
        <ele>67.924</ele>
        <time>2015-05-07T09:58:56Z</time>
      </trkpt>
      <trkpt lat="37.130750" lon="-8.863475">
        <ele>85.235</ele>
        <time>2015-05-07T10:00:59Z</time>
      </trkpt>
      <trkpt lat="37.130419" lon="-8.865842">
        <ele>82.396</ele>
        <time>2015-05-07T10:03:49Z</time>
      </trkpt>
      <trkpt lat="37.130849" lon="-8.867999">
        <ele>98.774</ele>
        <time>2015-05-07T10:07:09Z</time>
      </trkpt>
      <trkpt lat="37.131617" lon="-8.869888">
        <ele>103.542</ele>
        <time>2015-05-07T10:09:45Z</time>
      </trkpt>
      <trkpt lat="37.131544" lon="-8.870315">
        <ele>106.483</ele>
        <time>2015-05-07T10:10:46Z</time>
      </trkpt>
      <trkpt lat="37.131045" lon="-8.871019">
        <ele>118.425</ele>
        <time>2015-05-07T10:12:27Z</time>
      </trkpt>
      <trkpt lat="37.131386" lon="-8.871334">
        <ele>121.717</ele>
        <time>2015-05-07T10:13:06Z</time>
      </trkpt>
      <trkpt lat="37.131667" lon="-8.872299">
        <ele>124.607</ele>
        <time>2015-05-07T10:14:07Z</time>
      </trkpt>
      <trkpt lat="37.132662" lon="-8.873574">
        <ele>128.597</ele>
        <time>2015-05-07T10:15:56Z</time>
      </trkpt>
      <trkpt lat="37.132844" lon="-8.874072">
        <ele>134.784</ele>
        <time>2015-05-07T10:16:30Z</time>
      </trkpt>
      <trkpt lat="37.133282" lon="-8.875833">
        <ele>138.664</ele>
        <time>2015-05-07T10:18:22Z</time>
      </trkpt>
      <trkpt lat="37.133412" lon="-8.878008">
        <ele>141.055</ele>
        <time>2015-05-07T10:20:32Z</time>
      </trkpt>
      <trkpt lat="37.132706" lon="-8.879994">
        <ele>140.046</ele>
        <time>2015-05-07T10:22:54Z</time>
      </trkpt>
      <trkpt lat="37.130845" lon="-8.881476">
        <ele>140.574</ele>
        <time>2015-05-07T10:25:46Z</time>
      </trkpt>
      <trkpt lat="37.130576" lon="-8.881564">
        <ele>140.582</ele>
        <time>2015-05-07T10:26:09Z</time>
      </trkpt>
      <trkpt lat="37.129670" lon="-8.881281">
        <ele>141.551</ele>
        <time>2015-05-07T10:27:20Z</time>
      </trkpt>
      <trkpt lat="37.128749" lon="-8.881271">
        <ele>140.001</ele>
        <time>2015-05-07T10:28:39Z</time>
      </trkpt>
      <trkpt lat="37.127928" lon="-8.881755">
        <ele>138.611</ele>
        <time>2015-05-07T10:30:07Z</time>
      </trkpt>
      <trkpt lat="37.127629" lon="-8.882677">
        <ele>140.507</ele>
        <time>2015-05-07T10:31:46Z</time>
      </trkpt>
      <trkpt lat="37.127766" lon="-8.884242">
        <ele>141.994</ele>
        <time>2015-05-07T10:34:30Z</time>
      </trkpt>
      <trkpt lat="37.127969" lon="-8.884581">
        <ele>138.181</ele>
        <time>2015-05-07T10:35:06Z</time>
      </trkpt>
      <trkpt lat="37.128619" lon="-8.884555">
        <ele>131.411</ele>
        <time>2015-05-07T10:35:52Z</time>
      </trkpt>
      <trkpt lat="37.128999" lon="-8.885061">
        <ele>120.352</ele>
        <time>2015-05-07T10:36:42Z</time>
      </trkpt>
      <trkpt lat="37.129686" lon="-8.885614">
        <ele>103.073</ele>
        <time>2015-05-07T10:38:15Z</time>
      </trkpt>
      <trkpt lat="37.131179" lon="-8.885339">
        <ele>92.411</ele>
        <time>2015-05-07T10:40:08Z</time>
      </trkpt>
      <trkpt lat="37.131579" lon="-8.885489">
        <ele>83.859</ele>
        <time>2015-05-07T10:40:45Z</time>
      </trkpt>
      <trkpt lat="37.131882" lon="-8.885915">
        <ele>85.271</ele>
        <time>2015-05-07T10:41:25Z</time>
      </trkpt>
      <trkpt lat="37.132028" lon="-8.887645">
        <ele>84.741</ele>
        <time>2015-05-07T10:43:27Z</time>
      </trkpt>
      <trkpt lat="37.132825" lon="-8.889677">
        <ele>85.215</ele>
        <time>2015-05-07T10:45:58Z</time>
      </trkpt>
      <trkpt lat="37.133281" lon="-8.890149">
        <ele>79.007</ele>
        <time>2015-05-07T10:46:48Z</time>
      </trkpt>
      <trkpt lat="37.133940" lon="-8.890229">
        <ele>77.026</ele>
        <time>2015-05-07T10:47:46Z</time>
      </trkpt>
      <trkpt lat="37.134068" lon="-8.890569">
        <ele>82.323</ele>
        <time>2015-05-07T10:48:15Z</time>
      </trkpt>
      <trkpt lat="37.134047" lon="-8.892415">
        <ele>91.573</ele>
        <time>2015-05-07T10:50:42Z</time>
      </trkpt>
      <trkpt lat="37.133788" lon="-8.893047">
        <ele>124.614</ele>
        <time>2015-05-07T10:51:29Z</time>
      </trkpt>
      <trkpt lat="37.133803" lon="-8.893603">
        <ele>129.925</ele>
        <time>2015-05-07T10:52:07Z</time>
      </trkpt>
      <trkpt lat="37.133314" lon="-8.894011">
        <ele>133.313</ele>
        <time>2015-05-07T10:53:59Z</time>
      </trkpt>
      <trkpt lat="37.133079" lon="-8.893977">
        <ele>134.711</ele>
        <time>2015-05-07T10:54:31Z</time>
      </trkpt>
      <trkpt lat="37.131293" lon="-8.892809">
        <ele>136.235</ele>
        <time>2015-05-07T10:57:11Z</time>
      </trkpt>
      <trkpt lat="37.129667" lon="-8.891490">
        <ele>127.586</ele>
        <time>2015-05-07T10:59:44Z</time>
      </trkpt>
      <trkpt lat="37.128889" lon="-8.891705">
        <ele>122.714</ele>
        <time>2015-05-07T11:00:49Z</time>
      </trkpt>
      <trkpt lat="37.127347" lon="-8.891550">
        <ele>136.607</ele>
        <time>2015-05-07T11:02:45Z</time>
      </trkpt>
      <trkpt lat="37.126682" lon="-8.891626">
        <ele>131.412</ele>
        <time>2015-05-07T11:03:38Z</time>
      </trkpt>
      <trkpt lat="37.126300" lon="-8.892154">
        <ele>130.999</ele>
        <time>2015-05-07T11:04:25Z</time>
      </trkpt>
      <trkpt lat="37.124643" lon="-8.895968">
        <ele>137.649</ele>
        <time>2015-05-07T11:08:43Z</time>
      </trkpt>
      <trkpt lat="37.124496" lon="-8.896066">
        <ele>138.140</ele>
        <time>2015-05-07T11:08:59Z</time>
      </trkpt>
      <trkpt lat="37.124041" lon="-8.895788">
        <ele>134.721</ele>
        <time>2015-05-07T11:09:38Z</time>
      </trkpt>
      <trkpt lat="37.123837" lon="-8.895836">
        <ele>135.249</ele>
        <time>2015-05-07T11:09:54Z</time>
      </trkpt>
      <trkpt lat="37.121090" lon="-8.896823">
        <ele>140.057</ele>
        <time>2015-05-07T11:13:56Z</time>
      </trkpt>
      <trkpt lat="37.119109" lon="-8.898362">
        <ele>142.443</ele>
        <time>2015-05-07T11:16:54Z</time>
      </trkpt>
      <trkpt lat="37.117515" lon="-8.899884">
        <ele>140.564</ele>
        <time>2015-05-07T11:19:24Z</time>
      </trkpt>
      <trkpt lat="37.116837" lon="-8.900089">
        <ele>135.710</ele>
        <time>2015-05-07T11:20:15Z</time>
      </trkpt>
      <trkpt lat="37.114892" lon="-8.901340">
        <ele>139.507</ele>
        <time>2015-05-07T11:23:02Z</time>
      </trkpt>
      <trkpt lat="37.113273" lon="-8.901707">
        <ele>132.843</ele>
        <time>2015-05-07T11:25:07Z</time>
      </trkpt>
      <trkpt lat="37.111206" lon="-8.903730">
        <ele>134.220</ele>
        <time>2015-05-07T11:28:25Z</time>
      </trkpt>
      <trkpt lat="37.108608" lon="-8.905433">
        <ele>134.780</ele>
        <time>2015-05-07T11:31:55Z</time>
      </trkpt>
      <trkpt lat="37.107053" lon="-8.906644">
        <ele>134.731</ele>
        <time>2015-05-07T11:34:04Z</time>
      </trkpt>
      <trkpt lat="37.105298" lon="-8.907598">
        <ele>129.952</ele>
        <time>2015-05-07T11:36:13Z</time>
      </trkpt>
      <trkpt lat="37.104643" lon="-8.908195">
        <ele>126.110</ele>
        <time>2015-05-07T11:37:07Z</time>
      </trkpt>
      <trkpt lat="37.103083" lon="-8.908878">
        <ele>124.698</ele>
        <time>2015-05-07T11:39:00Z</time>
      </trkpt>
      <trkpt lat="37.100982" lon="-8.910349">
        <ele>129.032</ele>
        <time>2015-05-07T11:41:45Z</time>
      </trkpt>
      <trkpt lat="37.098666" lon="-8.910602">
        <ele>128.092</ele>
        <time>2015-05-07T11:46:55Z</time>
      </trkpt>
      <trkpt lat="37.094277" lon="-8.912301">
        <ele>125.111</ele>
        <time>2015-05-07T11:52:37Z</time>
      </trkpt>
      <trkpt lat="37.093866" lon="-8.912228">
        <ele>128.507</ele>
        <time>2015-05-07T11:53:12Z</time>
      </trkpt>
      <trkpt lat="37.091799" lon="-8.912487">
        <ele>128.022</ele>
        <time>2015-05-07T11:55:42Z</time>
      </trkpt>
      <trkpt lat="37.090188" lon="-8.912506">
        <ele>122.259</ele>
        <time>2015-05-07T11:57:40Z</time>
      </trkpt>
      <trkpt lat="37.089155" lon="-8.912098">
        <ele>119.829</ele>
        <time>2015-05-07T11:59:00Z</time>
      </trkpt>
      <trkpt lat="37.088227" lon="-8.912086">
        <ele>114.160</ele>
        <time>2015-05-07T12:00:28Z</time>
      </trkpt>
      <trkpt lat="37.087070" lon="-8.911290">
        <ele>101.671</ele>
        <time>2015-05-07T12:02:11Z</time>
      </trkpt>
      <trkpt lat="37.084328" lon="-8.910901">
        <ele>84.779</ele>
        <time>2015-05-07T12:05:47Z</time>
      </trkpt>
      <trkpt lat="37.083537" lon="-8.910470">
        <ele>95.867</ele>
        <time>2015-05-07T12:06:55Z</time>
      </trkpt>
      <trkpt lat="37.083310" lon="-8.910144">
        <ele>97.297</ele>
        <time>2015-05-07T12:07:23Z</time>
      </trkpt>
      <trkpt lat="37.083286" lon="-8.909331">
        <ele>100.123</ele>
        <time>2015-05-07T12:08:32Z</time>
      </trkpt>
      <trkpt lat="37.082958" lon="-8.909349">
        <ele>91.925</ele>
        <time>2015-05-07T12:10:22Z</time>
      </trkpt>
      <trkpt lat="37.083089" lon="-8.909346">
        <ele>101.607</ele>
        <time>2015-05-07T14:01:21Z</time>
      </trkpt>
      <trkpt lat="37.082919" lon="-8.909421">
        <ele>99.218</ele>
        <time>2015-05-07T14:03:25Z</time>
      </trkpt>
      <trkpt lat="37.083002" lon="-8.909921">
        <ele>94.465</ele>
        <time>2015-05-07T14:04:19Z</time>
      </trkpt>
      <trkpt lat="37.082758" lon="-8.911002">
        <ele>91.945</ele>
        <time>2015-05-07T14:05:40Z</time>
      </trkpt>
      <trkpt lat="37.082764" lon="-8.911848">
        <ele>93.466</ele>
        <time>2015-05-07T14:06:44Z</time>
      </trkpt>
      <trkpt lat="37.082890" lon="-8.912076">
        <ele>92.467</ele>
        <time>2015-05-07T14:07:09Z</time>
      </trkpt>
      <trkpt lat="37.083220" lon="-8.912178">
        <ele>91.925</ele>
        <time>2015-05-07T14:07:36Z</time>
      </trkpt>
      <trkpt lat="37.083514" lon="-8.912668">
        <ele>93.953</ele>
        <time>2015-05-07T14:08:15Z</time>
      </trkpt>
      <trkpt lat="37.083168" lon="-8.914499">
        <ele>90.557</ele>
        <time>2015-05-07T14:10:22Z</time>
      </trkpt>
      <trkpt lat="37.083652" lon="-8.919103">
        <ele>92.900</ele>
        <time>2015-05-07T14:15:25Z</time>
      </trkpt>
      <trkpt lat="37.083305" lon="-8.919347">
        <ele>91.920</ele>
        <time>2015-05-07T14:16:03Z</time>
      </trkpt>
      <trkpt lat="37.083105" lon="-8.920535">
        <ele>90.007</ele>
        <time>2015-05-07T14:17:15Z</time>
      </trkpt>
      <trkpt lat="37.083705" lon="-8.921911">
        <ele>96.814</ele>
        <time>2015-05-07T14:18:55Z</time>
      </trkpt>
      <trkpt lat="37.083707" lon="-8.923739">
        <ele>106.451</ele>
        <time>2015-05-07T14:20:58Z</time>
      </trkpt>
      <trkpt lat="37.083834" lon="-8.924005">
        <ele>107.331</ele>
        <time>2015-05-07T14:21:19Z</time>
      </trkpt>
      <trkpt lat="37.084305" lon="-8.924182">
        <ele>104.932</ele>
        <time>2015-05-07T14:21:59Z</time>
      </trkpt>
      <trkpt lat="37.084505" lon="-8.924427">
        <ele>105.983</ele>
        <time>2015-05-07T14:22:22Z</time>
      </trkpt>
      <trkpt lat="37.084726" lon="-8.925473">
        <ele>106.421</ele>
        <time>2015-05-07T14:23:31Z</time>
      </trkpt>
      <trkpt lat="37.084603" lon="-8.925949">
        <ele>109.799</ele>
        <time>2015-05-07T14:24:09Z</time>
      </trkpt>
      <trkpt lat="37.084052" lon="-8.926452">
        <ele>118.947</ele>
        <time>2015-05-07T14:25:06Z</time>
      </trkpt>
      <trkpt lat="37.083470" lon="-8.927923">
        <ele>126.129</ele>
        <time>2015-05-07T14:27:06Z</time>
      </trkpt>
      <trkpt lat="37.083107" lon="-8.929798">
        <ele>129.421</ele>
        <time>2015-05-07T14:29:26Z</time>
      </trkpt>
      <trkpt lat="37.082783" lon="-8.930605">
        <ele>135.207</ele>
        <time>2015-05-07T14:30:22Z</time>
      </trkpt>
      <trkpt lat="37.082499" lon="-8.932488">
        <ele>137.183</ele>
        <time>2015-05-07T14:32:24Z</time>
      </trkpt>
      <trkpt lat="37.082631" lon="-8.933392">
        <ele>135.770</ele>
        <time>2015-05-07T14:34:18Z</time>
      </trkpt>
      <trkpt lat="37.083591" lon="-8.936010">
        <ele>129.030</ele>
        <time>2015-05-07T14:40:46Z</time>
      </trkpt>
      <trkpt lat="37.082685" lon="-8.938193">
        <ele>131.871</ele>
        <time>2015-05-07T14:46:05Z</time>
      </trkpt>
      <trkpt lat="37.082933" lon="-8.940095">
        <ele>135.712</ele>
        <time>2015-05-07T14:48:37Z</time>
      </trkpt>
      <trkpt lat="37.083105" lon="-8.943340">
        <ele>139.510</ele>
        <time>2015-05-07T14:51:49Z</time>
      </trkpt>
      <trkpt lat="37.082858" lon="-8.945521">
        <ele>141.988</ele>
        <time>2015-05-07T14:53:54Z</time>
      </trkpt>
      <trkpt lat="37.082950" lon="-8.947184">
        <ele>146.346</ele>
        <time>2015-05-07T14:55:27Z</time>
      </trkpt>
      <trkpt lat="37.082684" lon="-8.947887">
        <ele>147.288</ele>
        <time>2015-05-07T14:56:12Z</time>
      </trkpt>
      <trkpt lat="37.081870" lon="-8.947715">
        <ele>145.316</ele>
        <time>2015-05-07T14:57:08Z</time>
      </trkpt>
      <trkpt lat="37.081663" lon="-8.947822">
        <ele>146.707</ele>
        <time>2015-05-07T14:57:25Z</time>
      </trkpt>
      <trkpt lat="37.079209" lon="-8.949832">
        <ele>137.673</ele>
        <time>2015-05-07T15:01:17Z</time>
      </trkpt>
      <trkpt lat="37.077011" lon="-8.950219">
        <ele>136.260</ele>
        <time>2015-05-07T15:04:34Z</time>
      </trkpt>
      <trkpt lat="37.075171" lon="-8.951905">
        <ele>127.060</ele>
        <time>2015-05-07T15:07:13Z</time>
      </trkpt>
      <trkpt lat="37.074708" lon="-8.952155">
        <ele>124.211</ele>
        <time>2015-05-07T15:07:46Z</time>
      </trkpt>
      <trkpt lat="37.073999" lon="-8.952247">
        <ele>121.392</ele>
        <time>2015-05-07T15:09:02Z</time>
      </trkpt>
      <trkpt lat="37.071561" lon="-8.953155">
        <ele>122.260</ele>
        <time>2015-05-07T15:11:59Z</time>
      </trkpt>
      <trkpt lat="37.070956" lon="-8.953172">
        <ele>119.898</ele>
        <time>2015-05-07T15:12:42Z</time>
      </trkpt>
      <trkpt lat="37.069633" lon="-8.952698">
        <ele>116.034</ele>
        <time>2015-05-07T15:14:39Z</time>
      </trkpt>
      <trkpt lat="37.068204" lon="-8.953299">
        <ele>109.755</ele>
        <time>2015-05-07T15:16:39Z</time>
      </trkpt>
      <trkpt lat="37.066628" lon="-8.956943">
        <ele>108.810</ele>
        <time>2015-05-07T15:24:49Z</time>
      </trkpt>
      <trkpt lat="37.065981" lon="-8.958017">
        <ele>105.407</ele>
        <time>2015-05-07T15:26:07Z</time>
      </trkpt>
      <trkpt lat="37.063525" lon="-8.959790">
        <ele>103.082</ele>
        <time>2015-05-07T15:29:35Z</time>
      </trkpt>
      <trkpt lat="37.063086" lon="-8.960306">
        <ele>99.279</ele>
        <time>2015-05-07T15:30:51Z</time>
      </trkpt>
      <trkpt lat="37.063206" lon="-8.961354">
        <ele>99.229</ele>
        <time>2015-05-07T15:32:09Z</time>
      </trkpt>
      <trkpt lat="37.062890" lon="-8.962437">
        <ele>99.610</ele>
        <time>2015-05-07T15:33:21Z</time>
      </trkpt>
      <trkpt lat="37.063699" lon="-8.963398">
        <ele>100.181</ele>
        <time>2015-05-07T15:34:49Z</time>
      </trkpt>
      <trkpt lat="37.063730" lon="-8.963692">
        <ele>99.289</ele>
        <time>2015-05-07T15:35:08Z</time>
      </trkpt>
      <trkpt lat="37.062340" lon="-8.966473">
        <ele>98.727</ele>
        <time>2015-05-07T15:38:21Z</time>
      </trkpt>
      <trkpt lat="37.061479" lon="-8.969263">
        <ele>105.986</ele>
        <time>2015-05-07T15:41:46Z</time>
      </trkpt>
      <trkpt lat="37.061321" lon="-8.969528">
        <ele>105.460</ele>
        <time>2015-05-07T15:42:07Z</time>
      </trkpt>
      <trkpt lat="37.060542" lon="-8.969829">
        <ele>102.026</ele>
        <time>2015-05-07T15:43:06Z</time>
      </trkpt>
      <trkpt lat="37.060384" lon="-8.970012">
        <ele>102.007</ele>
        <time>2015-05-07T15:43:24Z</time>
      </trkpt>
      <trkpt lat="37.060077" lon="-8.970925">
        <ele>105.957</ele>
        <time>2015-05-07T15:44:25Z</time>
      </trkpt>
      <trkpt lat="37.058092" lon="-8.974139">
        <ele>100.174</ele>
        <time>2015-05-07T15:50:29Z</time>
      </trkpt>
      <trkpt lat="37.057559" lon="-8.974432">
        <ele>96.384</ele>
        <time>2015-05-07T15:51:11Z</time>
      </trkpt>
      <trkpt lat="37.056787" lon="-8.975384">
        <ele>93.465</ele>
        <time>2015-05-07T15:52:33Z</time>
      </trkpt>
      <trkpt lat="37.056287" lon="-8.975755">
        <ele>91.086</ele>
        <time>2015-05-07T15:53:15Z</time>
      </trkpt>
      <trkpt lat="37.056156" lon="-8.976062">
        <ele>92.914</ele>
        <time>2015-05-07T15:53:34Z</time>
      </trkpt>
      <trkpt lat="37.055094" lon="-8.976710">
        <ele>92.932</ele>
        <time>2015-05-07T15:54:53Z</time>
      </trkpt>
      <trkpt lat="37.054977" lon="-8.976960">
        <ele>97.759</ele>
        <time>2015-05-07T15:55:08Z</time>
      </trkpt>
      <trkpt lat="37.055141" lon="-8.977615">
        <ele>93.903</ele>
        <time>2015-05-07T15:55:54Z</time>
      </trkpt>
      <trkpt lat="37.054547" lon="-8.978407">
        <ele>89.123</ele>
        <time>2015-05-07T15:56:54Z</time>
      </trkpt>
      <trkpt lat="37.053457" lon="-8.978763">
        <ele>83.807</ele>
        <time>2015-05-07T15:58:32Z</time>
      </trkpt>
      <trkpt lat="37.053125" lon="-8.978262">
        <ele>79.584</ele>
        <time>2015-05-07T16:15:16Z</time>
      </trkpt>
      <trkpt lat="37.051935" lon="-8.977650">
        <ele>79.971</ele>
        <time>2015-05-07T16:17:11Z</time>
      </trkpt>
      <trkpt lat="37.051432" lon="-8.977579">
        <ele>78.531</ele>
        <time>2015-05-07T16:17:50Z</time>
      </trkpt>
      <trkpt lat="37.050544" lon="-8.977794">
        <ele>76.622</ele>
        <time>2015-05-07T16:19:01Z</time>
      </trkpt>
      <trkpt lat="37.049317" lon="-8.978366">
        <ele>75.683</ele>
        <time>2015-05-07T16:20:50Z</time>
      </trkpt>
      <trkpt lat="37.048926" lon="-8.978792">
        <ele>71.881</ele>
        <time>2015-05-07T16:22:02Z</time>
      </trkpt>
      <trkpt lat="37.048627" lon="-8.978873">
        <ele>66.079</ele>
        <time>2015-05-07T16:23:01Z</time>
      </trkpt>
      <trkpt lat="37.048062" lon="-8.978474">
        <ele>54.034</ele>
        <time>2015-05-07T16:24:13Z</time>
      </trkpt>
      <trkpt lat="37.048256" lon="-8.976970">
        <ele>43.955</ele>
        <time>2015-05-07T16:26:52Z</time>
      </trkpt>
      <trkpt lat="37.048174" lon="-8.976802">
        <ele>45.310</ele>
        <time>2015-05-07T16:28:06Z</time>
      </trkpt>
      <trkpt lat="37.046725" lon="-8.977785">
        <ele>42.007</ele>
        <time>2015-05-07T16:30:55Z</time>
      </trkpt>
      <trkpt lat="37.046290" lon="-8.976164">
        <ele>54.932</ele>
        <time>2015-05-07T16:33:14Z</time>
      </trkpt>
      <trkpt lat="37.045707" lon="-8.975790">
        <ele>35.269</ele>
        <time>2015-05-07T16:34:32Z</time>
      </trkpt>
      <trkpt lat="37.045249" lon="-8.977205">
        <ele>44.489</ele>
        <time>2015-05-07T16:37:25Z</time>
      </trkpt>
      <trkpt lat="37.044997" lon="-8.977311">
        <ele>47.280</ele>
        <time>2015-05-07T16:37:55Z</time>
      </trkpt>
      <trkpt lat="37.044546" lon="-8.977984">
        <ele>53.071</ele>
        <time>2015-05-07T16:39:44Z</time>
      </trkpt>
      <trkpt lat="37.043883" lon="-8.978313">
        <ele>61.789</ele>
        <time>2015-05-07T16:41:44Z</time>
      </trkpt>
      <trkpt lat="37.043766" lon="-8.978228">
        <ele>65.037</ele>
        <time>2015-05-07T16:42:11Z</time>
      </trkpt>
      <trkpt lat="37.043346" lon="-8.978406">
        <ele>62.118</ele>
        <time>2015-05-07T16:42:47Z</time>
      </trkpt>
      <trkpt lat="37.042608" lon="-8.978869">
        <ele>61.798</ele>
        <time>2015-05-07T16:44:23Z</time>
      </trkpt>
      <trkpt lat="37.041285" lon="-8.980127">
        <ele>62.117</ele>
        <time>2015-05-07T16:46:45Z</time>
      </trkpt>
      <trkpt lat="37.039803" lon="-8.981165">
        <ele>62.607</ele>
        <time>2015-05-07T16:49:02Z</time>
      </trkpt>
      <trkpt lat="37.038849" lon="-8.980941">
        <ele>60.710</ele>
        <time>2015-05-07T16:50:25Z</time>
      </trkpt>
      <trkpt lat="37.037492" lon="-8.981251">
        <ele>62.627</ele>
        <time>2015-05-07T16:52:23Z</time>
      </trkpt>
      <trkpt lat="37.037023" lon="-8.981764">
        <ele>62.637</ele>
        <time>2015-05-07T16:53:16Z</time>
      </trkpt>
      <trkpt lat="37.036666" lon="-8.982987">
        <ele>57.888</ele>
        <time>2015-05-07T16:54:54Z</time>
      </trkpt>
      <trkpt lat="37.035834" lon="-8.984088">
        <ele>54.939</ele>
        <time>2015-05-07T16:56:58Z</time>
      </trkpt>
      <trkpt lat="37.035486" lon="-8.984315">
        <ele>54.577</ele>
        <time>2015-05-07T16:57:33Z</time>
      </trkpt>
      <trkpt lat="37.034063" lon="-8.984234">
        <ele>58.875</ele>
        <time>2015-05-07T16:59:39Z</time>
      </trkpt>
      <trkpt lat="37.033447" lon="-8.984963">
        <ele>61.269</ele>
        <time>2015-05-07T17:00:57Z</time>
      </trkpt>
      <trkpt lat="37.033394" lon="-8.985380">
        <ele>60.704</ele>
        <time>2015-05-07T17:01:28Z</time>
      </trkpt>
      <trkpt lat="37.033620" lon="-8.986017">
        <ele>56.924</ele>
        <time>2015-05-07T17:02:15Z</time>
      </trkpt>
      <trkpt lat="37.033537" lon="-8.986218">
        <ele>58.307</ele>
        <time>2015-05-07T17:02:31Z</time>
      </trkpt>
      <trkpt lat="37.032515" lon="-8.986350">
        <ele>58.395</ele>
        <time>2015-05-07T17:04:34Z</time>
      </trkpt>
      <trkpt lat="37.031123" lon="-8.986161">
        <ele>61.742</ele>
        <time>2015-05-07T17:06:44Z</time>
      </trkpt>
      <trkpt lat="37.029962" lon="-8.986569">
        <ele>62.622</ele>
        <time>2015-05-07T17:08:58Z</time>
      </trkpt>
      <trkpt lat="37.029625" lon="-8.986476">
        <ele>65.023</ele>
        <time>2015-05-07T17:09:36Z</time>
      </trkpt>
      <trkpt lat="37.028443" lon="-8.987153">
        <ele>66.014</ele>
        <time>2015-05-07T17:11:34Z</time>
      </trkpt>
      <trkpt lat="37.028353" lon="-8.987348">
        <ele>65.512</ele>
        <time>2015-05-07T17:12:05Z</time>
      </trkpt>
      <trkpt lat="37.028689" lon="-8.987664">
        <ele>66.040</ele>
        <time>2015-05-07T17:12:39Z</time>
      </trkpt>
      <trkpt lat="37.027267" lon="-8.990280">
        <ele>65.578</ele>
        <time>2015-05-07T17:16:13Z</time>
      </trkpt>
      <trkpt lat="37.026871" lon="-8.990587">
        <ele>64.633</ele>
        <time>2015-05-07T17:16:50Z</time>
      </trkpt>
      <trkpt lat="37.026202" lon="-8.990832">
        <ele>66.026</ele>
        <time>2015-05-07T17:17:47Z</time>
      </trkpt>
      <trkpt lat="37.025402" lon="-8.990861">
        <ele>67.907</ele>
        <time>2015-05-07T17:18:52Z</time>
      </trkpt>
      <trkpt lat="37.025209" lon="-8.991130">
        <ele>65.036</ele>
        <time>2015-05-07T17:19:20Z</time>
      </trkpt>
      <trkpt lat="37.023464" lon="-8.995514">
        <ele>73.783</ele>
        <time>2015-05-07T17:26:06Z</time>
      </trkpt>
    </trkseg>
  </trk>
</gpx>
